<?xml version="1.0" encoding="UTF-8" standalone="no" ?>
<gpx xmlns="http://www.topografix.com/GPX/1/1" xmlns:gpxtpx="http://www.garmin.com/xmlschemas/TrackPointExtension/v1" creator="OruxMaps v.7.0.2" version="1.1" xmlns:xsi="http://www.w3.org/2001/XMLSchema-instance" xsi:schemaLocation="http://www.topografix.com/GPX/1/1 http://www.topografix.com/GPX/1/1/gpx.xsd">
<metadata>
<name><![CDATA[Ermita de Betlem Mallorca 17.10.2016]]></name>
<link href="http://www.oruxmaps.com">
<text>OruxMaps</text>
</link>
<time>2016-10-17T07:08:58Z</time><bounds maxlat="39.7662919" maxlon="3.3520461" minlat="39.6885170" minlon="3.1457333"/>
</metadata>
<trk>
<name><![CDATA[Ermita de Betlem Mallorca 17.10.2016]]></name>
<desc><![CDATA[<p>Startzeit: 10/17/2016 09:08<br/>Zielzeit: 10/17/2016 14:03<br/>Strecke: 62,1 km (04:51)<br/>Bewegungszeit: 03:08<br/>Ø-Geschwindigkeit: 12,79 km/h<br/>Netto-Geschwindigkeit: 19,75 km/h<br/>Max. Geschwindigkeit: 68,09 km/h<br/>Minimale Höhe: 5 m<br/>Maximale Höhe: 373 m<br/>Steig-Geschw.: 417,3 m/h<br/>Sink-Geschw.: -792,4 m/h<br/>Aufstieg: 1086 m<br/>Abstieg: -1086 m<br/>Steigzeit: 02:36<br/>Sinkzeit: 01:22<br/></p><hr align="center" width="480" style="height: 2px; width: 517px"/>]]></desc>
<type>Fahrrad/ Strasse</type>
<extensions>
<om:oruxmapsextensions xmlns:om="http://www.oruxmaps.com/oruxmapsextensions/1/0">
<om:ext type="TYPE" subtype="0">8</om:ext>
<om:ext type="DIFFICULTY">0</om:ext>
</om:oruxmapsextensions>
</extensions>
<trkseg>
<trkpt lat="39.7656143" lon="3.1478741">
<ele>29.39</ele>
<time>2016-10-17T07:08:58Z</time>
</trkpt>
<trkpt lat="39.7653597" lon="3.1477427">
<ele>6.39</ele>
<time>2016-10-17T07:09:02Z</time>
</trkpt>
<trkpt lat="39.7654752" lon="3.1479253">
<ele>14.91</ele>
<time>2016-10-17T07:10:20Z</time>
</trkpt>
<trkpt lat="39.7655110" lon="3.1481578">
<ele>13.38</ele>
<time>2016-10-17T07:12:25Z</time>
</trkpt>
<trkpt lat="39.7654277" lon="3.1483780">
<ele>13.76</ele>
<time>2016-10-17T07:12:31Z</time>
</trkpt>
<trkpt lat="39.7652927" lon="3.1485710">
<ele>14.06</ele>
<time>2016-10-17T07:12:37Z</time>
</trkpt>
<trkpt lat="39.7651327" lon="3.1487776">
<ele>16.00</ele>
<time>2016-10-17T07:12:43Z</time>
</trkpt>
<trkpt lat="39.7649859" lon="3.1489195">
<ele>15.61</ele>
<time>2016-10-17T07:12:47Z</time>
</trkpt>
<trkpt lat="39.7648404" lon="3.1490663">
<ele>15.40</ele>
<time>2016-10-17T07:12:51Z</time>
</trkpt>
<trkpt lat="39.7646885" lon="3.1492513">
<ele>14.70</ele>
<time>2016-10-17T07:12:56Z</time>
</trkpt>
<trkpt lat="39.7645509" lon="3.1494309">
<ele>15.15</ele>
<time>2016-10-17T07:13:02Z</time>
</trkpt>
<trkpt lat="39.7643933" lon="3.1495967">
<ele>15.58</ele>
<time>2016-10-17T07:13:09Z</time>
</trkpt>
<trkpt lat="39.7642345" lon="3.1497533">
<ele>15.71</ele>
<time>2016-10-17T07:13:14Z</time>
</trkpt>
<trkpt lat="39.7640653" lon="3.1499260">
<ele>14.35</ele>
<time>2016-10-17T07:13:19Z</time>
</trkpt>
<trkpt lat="39.7639065" lon="3.1500958">
<ele>13.77</ele>
<time>2016-10-17T07:13:25Z</time>
</trkpt>
<trkpt lat="39.7637500" lon="3.1502580">
<ele>14.23</ele>
<time>2016-10-17T07:13:30Z</time>
</trkpt>
<trkpt lat="39.7636125" lon="3.1504112">
<ele>14.57</ele>
<time>2016-10-17T07:13:35Z</time>
</trkpt>
<trkpt lat="39.7634704" lon="3.1505622">
<ele>14.31</ele>
<time>2016-10-17T07:13:40Z</time>
</trkpt>
<trkpt lat="39.7633327" lon="3.1507216">
<ele>14.40</ele>
<time>2016-10-17T07:13:45Z</time>
</trkpt>
<trkpt lat="39.7631905" lon="3.1508954">
<ele>14.76</ele>
<time>2016-10-17T07:13:50Z</time>
</trkpt>
<trkpt lat="39.7630409" lon="3.1510550">
<ele>15.36</ele>
<time>2016-10-17T07:13:56Z</time>
</trkpt>
<trkpt lat="39.7628786" lon="3.1512215">
<ele>15.56</ele>
<time>2016-10-17T07:14:01Z</time>
</trkpt>
<trkpt lat="39.7627068" lon="3.1514004">
<ele>16.13</ele>
<time>2016-10-17T07:14:06Z</time>
</trkpt>
<trkpt lat="39.7625513" lon="3.1515479">
<ele>14.51</ele>
<time>2016-10-17T07:14:10Z</time>
</trkpt>
<trkpt lat="39.7623900" lon="3.1516996">
<ele>12.22</ele>
<time>2016-10-17T07:14:15Z</time>
</trkpt>
<trkpt lat="39.7622213" lon="3.1518693">
<ele>13.90</ele>
<time>2016-10-17T07:14:20Z</time>
</trkpt>
<trkpt lat="39.7620617" lon="3.1520308">
<ele>15.45</ele>
<time>2016-10-17T07:14:25Z</time>
</trkpt>
<trkpt lat="39.7618953" lon="3.1522057">
<ele>15.39</ele>
<time>2016-10-17T07:14:30Z</time>
</trkpt>
<trkpt lat="39.7617553" lon="3.1523641">
<ele>16.91</ele>
<time>2016-10-17T07:14:35Z</time>
</trkpt>
<trkpt lat="39.7616079" lon="3.1525211">
<ele>18.21</ele>
<time>2016-10-17T07:14:40Z</time>
</trkpt>
<trkpt lat="39.7614631" lon="3.1526797">
<ele>18.92</ele>
<time>2016-10-17T07:14:45Z</time>
</trkpt>
<trkpt lat="39.7613017" lon="3.1528484">
<ele>19.86</ele>
<time>2016-10-17T07:14:50Z</time>
</trkpt>
<trkpt lat="39.7611539" lon="3.1529990">
<ele>20.52</ele>
<time>2016-10-17T07:14:55Z</time>
</trkpt>
<trkpt lat="39.7610103" lon="3.1531593">
<ele>21.76</ele>
<time>2016-10-17T07:15:00Z</time>
</trkpt>
<trkpt lat="39.7608711" lon="3.1533212">
<ele>22.16</ele>
<time>2016-10-17T07:15:05Z</time>
</trkpt>
<trkpt lat="39.7607222" lon="3.1534782">
<ele>24.10</ele>
<time>2016-10-17T07:15:10Z</time>
</trkpt>
<trkpt lat="39.7605508" lon="3.1536360">
<ele>25.29</ele>
<time>2016-10-17T07:15:15Z</time>
</trkpt>
<trkpt lat="39.7603922" lon="3.1538038">
<ele>25.06</ele>
<time>2016-10-17T07:15:20Z</time>
</trkpt>
<trkpt lat="39.7602228" lon="3.1539649">
<ele>24.27</ele>
<time>2016-10-17T07:15:25Z</time>
</trkpt>
<trkpt lat="39.7600644" lon="3.1541302">
<ele>24.42</ele>
<time>2016-10-17T07:15:30Z</time>
</trkpt>
<trkpt lat="39.7599198" lon="3.1543335">
<ele>25.34</ele>
<time>2016-10-17T07:15:36Z</time>
</trkpt>
<trkpt lat="39.7597718" lon="3.1545236">
<ele>24.84</ele>
<time>2016-10-17T07:15:42Z</time>
</trkpt>
<trkpt lat="39.7596230" lon="3.1546896">
<ele>22.47</ele>
<time>2016-10-17T07:15:47Z</time>
</trkpt>
<trkpt lat="39.7594733" lon="3.1548592">
<ele>23.02</ele>
<time>2016-10-17T07:15:52Z</time>
</trkpt>
<trkpt lat="39.7593285" lon="3.1550027">
<ele>23.43</ele>
<time>2016-10-17T07:15:56Z</time>
</trkpt>
<trkpt lat="39.7591717" lon="3.1551748">
<ele>26.05</ele>
<time>2016-10-17T07:16:01Z</time>
</trkpt>
<trkpt lat="39.7590066" lon="3.1553437">
<ele>28.01</ele>
<time>2016-10-17T07:16:06Z</time>
</trkpt>
<trkpt lat="39.7588559" lon="3.1554836">
<ele>29.16</ele>
<time>2016-10-17T07:16:11Z</time>
</trkpt>
<trkpt lat="39.7586950" lon="3.1556550">
<ele>30.12</ele>
<time>2016-10-17T07:16:16Z</time>
</trkpt>
<trkpt lat="39.7585393" lon="3.1558265">
<ele>30.67</ele>
<time>2016-10-17T07:16:21Z</time>
</trkpt>
<trkpt lat="39.7583767" lon="3.1559916">
<ele>31.14</ele>
<time>2016-10-17T07:16:26Z</time>
</trkpt>
<trkpt lat="39.7582361" lon="3.1561385">
<ele>30.25</ele>
<time>2016-10-17T07:16:30Z</time>
</trkpt>
<trkpt lat="39.7580847" lon="3.1563093">
<ele>29.36</ele>
<time>2016-10-17T07:16:34Z</time>
</trkpt>
<trkpt lat="39.7579296" lon="3.1564695">
<ele>28.61</ele>
<time>2016-10-17T07:16:38Z</time>
</trkpt>
<trkpt lat="39.7577462" lon="3.1566530">
<ele>29.33</ele>
<time>2016-10-17T07:16:42Z</time>
</trkpt>
<trkpt lat="39.7575776" lon="3.1568083">
<ele>28.65</ele>
<time>2016-10-17T07:16:45Z</time>
</trkpt>
<trkpt lat="39.7573912" lon="3.1569600">
<ele>26.56</ele>
<time>2016-10-17T07:16:48Z</time>
</trkpt>
<trkpt lat="39.7571847" lon="3.1570176">
<ele>24.32</ele>
<time>2016-10-17T07:16:51Z</time>
</trkpt>
<trkpt lat="39.7570338" lon="3.1571924">
<ele>24.12</ele>
<time>2016-10-17T07:16:54Z</time>
</trkpt>
<trkpt lat="39.7569425" lon="3.1574182">
<ele>23.71</ele>
<time>2016-10-17T07:16:57Z</time>
</trkpt>
<trkpt lat="39.7568151" lon="3.1576300">
<ele>22.97</ele>
<time>2016-10-17T07:17:00Z</time>
</trkpt>
<trkpt lat="39.7566573" lon="3.1578113">
<ele>24.03</ele>
<time>2016-10-17T07:17:03Z</time>
</trkpt>
<trkpt lat="39.7564950" lon="3.1579658">
<ele>24.63</ele>
<time>2016-10-17T07:17:06Z</time>
</trkpt>
<trkpt lat="39.7563159" lon="3.1581408">
<ele>24.12</ele>
<time>2016-10-17T07:17:09Z</time>
</trkpt>
<trkpt lat="39.7561503" lon="3.1583066">
<ele>24.25</ele>
<time>2016-10-17T07:17:12Z</time>
</trkpt>
<trkpt lat="39.7559858" lon="3.1584753">
<ele>24.13</ele>
<time>2016-10-17T07:17:15Z</time>
</trkpt>
<trkpt lat="39.7558380" lon="3.1586288">
<ele>23.46</ele>
<time>2016-10-17T07:17:18Z</time>
</trkpt>
<trkpt lat="39.7556879" lon="3.1587853">
<ele>23.69</ele>
<time>2016-10-17T07:17:21Z</time>
</trkpt>
<trkpt lat="39.7555355" lon="3.1589567">
<ele>24.09</ele>
<time>2016-10-17T07:17:24Z</time>
</trkpt>
<trkpt lat="39.7553852" lon="3.1591209">
<ele>24.24</ele>
<time>2016-10-17T07:17:27Z</time>
</trkpt>
<trkpt lat="39.7552248" lon="3.1592936">
<ele>23.62</ele>
<time>2016-10-17T07:17:30Z</time>
</trkpt>
<trkpt lat="39.7550571" lon="3.1594691">
<ele>23.27</ele>
<time>2016-10-17T07:17:33Z</time>
</trkpt>
<trkpt lat="39.7549105" lon="3.1596206">
<ele>23.89</ele>
<time>2016-10-17T07:17:36Z</time>
</trkpt>
<trkpt lat="39.7547254" lon="3.1598265">
<ele>23.95</ele>
<time>2016-10-17T07:17:40Z</time>
</trkpt>
<trkpt lat="39.7545813" lon="3.1599908">
<ele>22.60</ele>
<time>2016-10-17T07:17:43Z</time>
</trkpt>
<trkpt lat="39.7544307" lon="3.1601539">
<ele>21.92</ele>
<time>2016-10-17T07:17:46Z</time>
</trkpt>
<trkpt lat="39.7542840" lon="3.1603126">
<ele>20.70</ele>
<time>2016-10-17T07:17:49Z</time>
</trkpt>
<trkpt lat="39.7541319" lon="3.1604670">
<ele>20.90</ele>
<time>2016-10-17T07:17:52Z</time>
</trkpt>
<trkpt lat="39.7539876" lon="3.1606208">
<ele>21.52</ele>
<time>2016-10-17T07:17:55Z</time>
</trkpt>
<trkpt lat="39.7538403" lon="3.1607736">
<ele>22.40</ele>
<time>2016-10-17T07:17:58Z</time>
</trkpt>
<trkpt lat="39.7536794" lon="3.1609347">
<ele>22.40</ele>
<time>2016-10-17T07:18:01Z</time>
</trkpt>
<trkpt lat="39.7535251" lon="3.1610878">
<ele>21.68</ele>
<time>2016-10-17T07:18:04Z</time>
</trkpt>
<trkpt lat="39.7533671" lon="3.1612511">
<ele>21.20</ele>
<time>2016-10-17T07:18:07Z</time>
</trkpt>
<trkpt lat="39.7531958" lon="3.1614381">
<ele>19.22</ele>
<time>2016-10-17T07:18:10Z</time>
</trkpt>
<trkpt lat="39.7530190" lon="3.1616340">
<ele>18.50</ele>
<time>2016-10-17T07:18:13Z</time>
</trkpt>
<trkpt lat="39.7528174" lon="3.1618439">
<ele>18.32</ele>
<time>2016-10-17T07:18:16Z</time>
</trkpt>
<trkpt lat="39.7526088" lon="3.1620362">
<ele>17.12</ele>
<time>2016-10-17T07:18:19Z</time>
</trkpt>
<trkpt lat="39.7523786" lon="3.1622135">
<ele>15.89</ele>
<time>2016-10-17T07:18:22Z</time>
</trkpt>
<trkpt lat="39.7521555" lon="3.1623667">
<ele>15.66</ele>
<time>2016-10-17T07:18:25Z</time>
</trkpt>
<trkpt lat="39.7519472" lon="3.1625157">
<ele>17.49</ele>
<time>2016-10-17T07:18:28Z</time>
</trkpt>
<trkpt lat="39.7517350" lon="3.1626595">
<ele>17.85</ele>
<time>2016-10-17T07:18:31Z</time>
</trkpt>
<trkpt lat="39.7515279" lon="3.1627865">
<ele>18.05</ele>
<time>2016-10-17T07:18:34Z</time>
</trkpt>
<trkpt lat="39.7513089" lon="3.1629209">
<ele>17.43</ele>
<time>2016-10-17T07:18:37Z</time>
</trkpt>
<trkpt lat="39.7510779" lon="3.1630662">
<ele>17.67</ele>
<time>2016-10-17T07:18:40Z</time>
</trkpt>
<trkpt lat="39.7509114" lon="3.1631731">
<ele>18.13</ele>
<time>2016-10-17T07:18:42Z</time>
</trkpt>
<trkpt lat="39.7507374" lon="3.1632863">
<ele>17.50</ele>
<time>2016-10-17T07:18:44Z</time>
</trkpt>
<trkpt lat="39.7504924" lon="3.1634508">
<ele>15.89</ele>
<time>2016-10-17T07:18:47Z</time>
</trkpt>
<trkpt lat="39.7503147" lon="3.1635634">
<ele>14.83</ele>
<time>2016-10-17T07:18:49Z</time>
</trkpt>
<trkpt lat="39.7501423" lon="3.1636721">
<ele>13.77</ele>
<time>2016-10-17T07:18:51Z</time>
</trkpt>
<trkpt lat="39.7499731" lon="3.1637774">
<ele>12.88</ele>
<time>2016-10-17T07:18:53Z</time>
</trkpt>
<trkpt lat="39.7497433" lon="3.1639260">
<ele>12.01</ele>
<time>2016-10-17T07:18:56Z</time>
</trkpt>
<trkpt lat="39.7495294" lon="3.1640648">
<ele>11.54</ele>
<time>2016-10-17T07:18:59Z</time>
</trkpt>
<trkpt lat="39.7493427" lon="3.1641880">
<ele>11.57</ele>
<time>2016-10-17T07:19:02Z</time>
</trkpt>
<trkpt lat="39.7491810" lon="3.1642911">
<ele>12.66</ele>
<time>2016-10-17T07:19:05Z</time>
</trkpt>
<trkpt lat="39.7489927" lon="3.1644056">
<ele>14.46</ele>
<time>2016-10-17T07:19:09Z</time>
</trkpt>
<trkpt lat="39.7488302" lon="3.1645186">
<ele>16.12</ele>
<time>2016-10-17T07:19:13Z</time>
</trkpt>
<trkpt lat="39.7486680" lon="3.1646335">
<ele>17.55</ele>
<time>2016-10-17T07:19:17Z</time>
</trkpt>
<trkpt lat="39.7484784" lon="3.1647623">
<ele>18.48</ele>
<time>2016-10-17T07:19:21Z</time>
</trkpt>
<trkpt lat="39.7483167" lon="3.1648810">
<ele>19.46</ele>
<time>2016-10-17T07:19:25Z</time>
</trkpt>
<trkpt lat="39.7481266" lon="3.1649947">
<ele>21.49</ele>
<time>2016-10-17T07:19:30Z</time>
</trkpt>
<trkpt lat="39.7479452" lon="3.1651146">
<ele>23.33</ele>
<time>2016-10-17T07:19:35Z</time>
</trkpt>
<trkpt lat="39.7477604" lon="3.1652122">
<ele>24.49</ele>
<time>2016-10-17T07:19:40Z</time>
</trkpt>
<trkpt lat="39.7475956" lon="3.1653162">
<ele>25.81</ele>
<time>2016-10-17T07:19:45Z</time>
</trkpt>
<trkpt lat="39.7474138" lon="3.1654354">
<ele>26.59</ele>
<time>2016-10-17T07:19:50Z</time>
</trkpt>
<trkpt lat="39.7472273" lon="3.1655604">
<ele>26.25</ele>
<time>2016-10-17T07:19:55Z</time>
</trkpt>
<trkpt lat="39.7470533" lon="3.1656631">
<ele>27.87</ele>
<time>2016-10-17T07:20:00Z</time>
</trkpt>
<trkpt lat="39.7468627" lon="3.1657926">
<ele>25.97</ele>
<time>2016-10-17T07:20:06Z</time>
</trkpt>
<trkpt lat="39.7466821" lon="3.1659042">
<ele>26.04</ele>
<time>2016-10-17T07:20:12Z</time>
</trkpt>
<trkpt lat="39.7465115" lon="3.1660094">
<ele>25.99</ele>
<time>2016-10-17T07:20:17Z</time>
</trkpt>
<trkpt lat="39.7463212" lon="3.1661383">
<ele>26.78</ele>
<time>2016-10-17T07:20:23Z</time>
</trkpt>
<trkpt lat="39.7461406" lon="3.1662582">
<ele>27.10</ele>
<time>2016-10-17T07:20:29Z</time>
</trkpt>
<trkpt lat="39.7459783" lon="3.1663697">
<ele>29.89</ele>
<time>2016-10-17T07:20:34Z</time>
</trkpt>
<trkpt lat="39.7457856" lon="3.1664904">
<ele>30.89</ele>
<time>2016-10-17T07:20:39Z</time>
</trkpt>
<trkpt lat="39.7456149" lon="3.1666143">
<ele>31.94</ele>
<time>2016-10-17T07:20:44Z</time>
</trkpt>
<trkpt lat="39.7454385" lon="3.1667249">
<ele>32.38</ele>
<time>2016-10-17T07:20:48Z</time>
</trkpt>
<trkpt lat="39.7452575" lon="3.1668438">
<ele>32.68</ele>
<time>2016-10-17T07:20:52Z</time>
</trkpt>
<trkpt lat="39.7450765" lon="3.1669587">
<ele>32.46</ele>
<time>2016-10-17T07:20:56Z</time>
</trkpt>
<trkpt lat="39.7449104" lon="3.1670781">
<ele>31.68</ele>
<time>2016-10-17T07:21:00Z</time>
</trkpt>
<trkpt lat="39.7447354" lon="3.1671985">
<ele>31.48</ele>
<time>2016-10-17T07:21:04Z</time>
</trkpt>
<trkpt lat="39.7445544" lon="3.1673228">
<ele>31.35</ele>
<time>2016-10-17T07:21:08Z</time>
</trkpt>
<trkpt lat="39.7443768" lon="3.1674365">
<ele>31.31</ele>
<time>2016-10-17T07:21:12Z</time>
</trkpt>
<trkpt lat="39.7441804" lon="3.1675563">
<ele>31.49</ele>
<time>2016-10-17T07:21:16Z</time>
</trkpt>
<trkpt lat="39.7439844" lon="3.1676717">
<ele>30.91</ele>
<time>2016-10-17T07:21:20Z</time>
</trkpt>
<trkpt lat="39.7437943" lon="3.1677953">
<ele>30.84</ele>
<time>2016-10-17T07:21:24Z</time>
</trkpt>
<trkpt lat="39.7435954" lon="3.1679168">
<ele>30.95</ele>
<time>2016-10-17T07:21:27Z</time>
</trkpt>
<trkpt lat="39.7434128" lon="3.1680451">
<ele>31.31</ele>
<time>2016-10-17T07:21:31Z</time>
</trkpt>
<trkpt lat="39.7432151" lon="3.1681776">
<ele>32.35</ele>
<time>2016-10-17T07:21:35Z</time>
</trkpt>
<trkpt lat="39.7430230" lon="3.1683131">
<ele>32.95</ele>
<time>2016-10-17T07:21:39Z</time>
</trkpt>
<trkpt lat="39.7428258" lon="3.1684432">
<ele>33.60</ele>
<time>2016-10-17T07:21:43Z</time>
</trkpt>
<trkpt lat="39.7426202" lon="3.1685754">
<ele>34.33</ele>
<time>2016-10-17T07:21:47Z</time>
</trkpt>
<trkpt lat="39.7424279" lon="3.1687031">
<ele>33.65</ele>
<time>2016-10-17T07:21:51Z</time>
</trkpt>
<trkpt lat="39.7422402" lon="3.1688330">
<ele>32.10</ele>
<time>2016-10-17T07:21:55Z</time>
</trkpt>
<trkpt lat="39.7420750" lon="3.1689370">
<ele>32.97</ele>
<time>2016-10-17T07:21:58Z</time>
</trkpt>
<trkpt lat="39.7418744" lon="3.1690618">
<ele>33.05</ele>
<time>2016-10-17T07:22:02Z</time>
</trkpt>
<trkpt lat="39.7416868" lon="3.1691927">
<ele>33.76</ele>
<time>2016-10-17T07:22:06Z</time>
</trkpt>
<trkpt lat="39.7414912" lon="3.1693246">
<ele>34.35</ele>
<time>2016-10-17T07:22:10Z</time>
</trkpt>
<trkpt lat="39.7412804" lon="3.1694649">
<ele>34.21</ele>
<time>2016-10-17T07:22:14Z</time>
</trkpt>
<trkpt lat="39.7410901" lon="3.1695984">
<ele>33.81</ele>
<time>2016-10-17T07:22:18Z</time>
</trkpt>
<trkpt lat="39.7408841" lon="3.1697379">
<ele>33.84</ele>
<time>2016-10-17T07:22:22Z</time>
</trkpt>
<trkpt lat="39.7407260" lon="3.1698527">
<ele>34.17</ele>
<time>2016-10-17T07:22:25Z</time>
</trkpt>
<trkpt lat="39.7405259" lon="3.1699990">
<ele>35.24</ele>
<time>2016-10-17T07:22:29Z</time>
</trkpt>
<trkpt lat="39.7403723" lon="3.1701297">
<ele>35.70</ele>
<time>2016-10-17T07:22:32Z</time>
</trkpt>
<trkpt lat="39.7401841" lon="3.1703080">
<ele>35.06</ele>
<time>2016-10-17T07:22:36Z</time>
</trkpt>
<trkpt lat="39.7400308" lon="3.1704615">
<ele>34.88</ele>
<time>2016-10-17T07:22:39Z</time>
</trkpt>
<trkpt lat="39.7398796" lon="3.1706215">
<ele>35.18</ele>
<time>2016-10-17T07:22:42Z</time>
</trkpt>
<trkpt lat="39.7397238" lon="3.1708016">
<ele>34.07</ele>
<time>2016-10-17T07:22:45Z</time>
</trkpt>
<trkpt lat="39.7395748" lon="3.1709840">
<ele>32.66</ele>
<time>2016-10-17T07:22:48Z</time>
</trkpt>
<trkpt lat="39.7394405" lon="3.1711694">
<ele>31.56</ele>
<time>2016-10-17T07:22:51Z</time>
</trkpt>
<trkpt lat="39.7393230" lon="3.1713602">
<ele>31.70</ele>
<time>2016-10-17T07:22:54Z</time>
</trkpt>
<trkpt lat="39.7392110" lon="3.1715647">
<ele>31.49</ele>
<time>2016-10-17T07:22:57Z</time>
</trkpt>
<trkpt lat="39.7391101" lon="3.1717656">
<ele>30.86</ele>
<time>2016-10-17T07:23:00Z</time>
</trkpt>
<trkpt lat="39.7390138" lon="3.1719693">
<ele>30.19</ele>
<time>2016-10-17T07:23:03Z</time>
</trkpt>
<trkpt lat="39.7389243" lon="3.1721739">
<ele>30.36</ele>
<time>2016-10-17T07:23:06Z</time>
</trkpt>
<trkpt lat="39.7388352" lon="3.1723817">
<ele>30.25</ele>
<time>2016-10-17T07:23:09Z</time>
</trkpt>
<trkpt lat="39.7387475" lon="3.1725944">
<ele>30.94</ele>
<time>2016-10-17T07:23:12Z</time>
</trkpt>
<trkpt lat="39.7386505" lon="3.1728119">
<ele>30.15</ele>
<time>2016-10-17T07:23:15Z</time>
</trkpt>
<trkpt lat="39.7385544" lon="3.1730229">
<ele>29.15</ele>
<time>2016-10-17T07:23:18Z</time>
</trkpt>
<trkpt lat="39.7384565" lon="3.1732391">
<ele>28.78</ele>
<time>2016-10-17T07:23:21Z</time>
</trkpt>
<trkpt lat="39.7383645" lon="3.1734618">
<ele>28.85</ele>
<time>2016-10-17T07:23:24Z</time>
</trkpt>
<trkpt lat="39.7382708" lon="3.1736743">
<ele>29.13</ele>
<time>2016-10-17T07:23:27Z</time>
</trkpt>
<trkpt lat="39.7381715" lon="3.1738998">
<ele>29.82</ele>
<time>2016-10-17T07:23:30Z</time>
</trkpt>
<trkpt lat="39.7380778" lon="3.1741180">
<ele>30.09</ele>
<time>2016-10-17T07:23:33Z</time>
</trkpt>
<trkpt lat="39.7379848" lon="3.1743400">
<ele>31.32</ele>
<time>2016-10-17T07:23:36Z</time>
</trkpt>
<trkpt lat="39.7378843" lon="3.1745740">
<ele>31.79</ele>
<time>2016-10-17T07:23:39Z</time>
</trkpt>
<trkpt lat="39.7377793" lon="3.1748137">
<ele>31.79</ele>
<time>2016-10-17T07:23:42Z</time>
</trkpt>
<trkpt lat="39.7376748" lon="3.1750488">
<ele>31.71</ele>
<time>2016-10-17T07:23:45Z</time>
</trkpt>
<trkpt lat="39.7375678" lon="3.1752885">
<ele>31.30</ele>
<time>2016-10-17T07:23:48Z</time>
</trkpt>
<trkpt lat="39.7374607" lon="3.1755347">
<ele>31.19</ele>
<time>2016-10-17T07:23:51Z</time>
</trkpt>
<trkpt lat="39.7373544" lon="3.1757805">
<ele>30.82</ele>
<time>2016-10-17T07:23:54Z</time>
</trkpt>
<trkpt lat="39.7372561" lon="3.1760110">
<ele>30.57</ele>
<time>2016-10-17T07:23:57Z</time>
</trkpt>
<trkpt lat="39.7371594" lon="3.1762444">
<ele>31.08</ele>
<time>2016-10-17T07:24:00Z</time>
</trkpt>
<trkpt lat="39.7370476" lon="3.1765176">
<ele>32.16</ele>
<time>2016-10-17T07:24:04Z</time>
</trkpt>
<trkpt lat="39.7369541" lon="3.1767408">
<ele>32.91</ele>
<time>2016-10-17T07:24:07Z</time>
</trkpt>
<trkpt lat="39.7368638" lon="3.1769621">
<ele>33.83</ele>
<time>2016-10-17T07:24:10Z</time>
</trkpt>
<trkpt lat="39.7367774" lon="3.1771767">
<ele>34.61</ele>
<time>2016-10-17T07:24:13Z</time>
</trkpt>
<trkpt lat="39.7366879" lon="3.1774046">
<ele>35.20</ele>
<time>2016-10-17T07:24:16Z</time>
</trkpt>
<trkpt lat="39.7366038" lon="3.1776250">
<ele>35.95</ele>
<time>2016-10-17T07:24:19Z</time>
</trkpt>
<trkpt lat="39.7364950" lon="3.1778903">
<ele>36.55</ele>
<time>2016-10-17T07:24:23Z</time>
</trkpt>
<trkpt lat="39.7363860" lon="3.1781478">
<ele>36.57</ele>
<time>2016-10-17T07:24:27Z</time>
</trkpt>
<trkpt lat="39.7362881" lon="3.1783595">
<ele>36.37</ele>
<time>2016-10-17T07:24:30Z</time>
</trkpt>
<trkpt lat="39.7361851" lon="3.1785587">
<ele>35.58</ele>
<time>2016-10-17T07:24:33Z</time>
</trkpt>
<trkpt lat="39.7360796" lon="3.1787595">
<ele>34.64</ele>
<time>2016-10-17T07:24:36Z</time>
</trkpt>
<trkpt lat="39.7359724" lon="3.1789674">
<ele>33.87</ele>
<time>2016-10-17T07:24:39Z</time>
</trkpt>
<trkpt lat="39.7358778" lon="3.1791672">
<ele>32.79</ele>
<time>2016-10-17T07:24:42Z</time>
</trkpt>
<trkpt lat="39.7357517" lon="3.1794250">
<ele>31.91</ele>
<time>2016-10-17T07:24:46Z</time>
</trkpt>
<trkpt lat="39.7356558" lon="3.1796233">
<ele>31.23</ele>
<time>2016-10-17T07:24:49Z</time>
</trkpt>
<trkpt lat="39.7355302" lon="3.1798902">
<ele>31.18</ele>
<time>2016-10-17T07:24:53Z</time>
</trkpt>
<trkpt lat="39.7354316" lon="3.1800973">
<ele>30.81</ele>
<time>2016-10-17T07:24:56Z</time>
</trkpt>
<trkpt lat="39.7353139" lon="3.1803510">
<ele>30.74</ele>
<time>2016-10-17T07:25:00Z</time>
</trkpt>
<trkpt lat="39.7352085" lon="3.1806162">
<ele>32.69</ele>
<time>2016-10-17T07:25:04Z</time>
</trkpt>
<trkpt lat="39.7351048" lon="3.1808753">
<ele>34.10</ele>
<time>2016-10-17T07:25:08Z</time>
</trkpt>
<trkpt lat="39.7350127" lon="3.1810980">
<ele>34.91</ele>
<time>2016-10-17T07:25:11Z</time>
</trkpt>
<trkpt lat="39.7349267" lon="3.1813092">
<ele>35.85</ele>
<time>2016-10-17T07:25:14Z</time>
</trkpt>
<trkpt lat="39.7348130" lon="3.1815837">
<ele>37.54</ele>
<time>2016-10-17T07:25:18Z</time>
</trkpt>
<trkpt lat="39.7347002" lon="3.1818508">
<ele>38.19</ele>
<time>2016-10-17T07:25:22Z</time>
</trkpt>
<trkpt lat="39.7345893" lon="3.1821203">
<ele>37.34</ele>
<time>2016-10-17T07:25:26Z</time>
</trkpt>
<trkpt lat="39.7345018" lon="3.1823355">
<ele>37.36</ele>
<time>2016-10-17T07:25:29Z</time>
</trkpt>
<trkpt lat="39.7344131" lon="3.1825476">
<ele>37.70</ele>
<time>2016-10-17T07:25:32Z</time>
</trkpt>
<trkpt lat="39.7343163" lon="3.1827590">
<ele>37.78</ele>
<time>2016-10-17T07:25:35Z</time>
</trkpt>
<trkpt lat="39.7342196" lon="3.1829754">
<ele>37.22</ele>
<time>2016-10-17T07:25:38Z</time>
</trkpt>
<trkpt lat="39.7341255" lon="3.1831808">
<ele>37.09</ele>
<time>2016-10-17T07:25:41Z</time>
</trkpt>
<trkpt lat="39.7340314" lon="3.1833837">
<ele>37.00</ele>
<time>2016-10-17T07:25:44Z</time>
</trkpt>
<trkpt lat="39.7339406" lon="3.1835904">
<ele>36.61</ele>
<time>2016-10-17T07:25:47Z</time>
</trkpt>
<trkpt lat="39.7338196" lon="3.1838470">
<ele>36.40</ele>
<time>2016-10-17T07:25:51Z</time>
</trkpt>
<trkpt lat="39.7336954" lon="3.1841100">
<ele>36.76</ele>
<time>2016-10-17T07:25:55Z</time>
</trkpt>
<trkpt lat="39.7335824" lon="3.1843729">
<ele>36.62</ele>
<time>2016-10-17T07:25:59Z</time>
</trkpt>
<trkpt lat="39.7334732" lon="3.1846242">
<ele>37.22</ele>
<time>2016-10-17T07:26:03Z</time>
</trkpt>
<trkpt lat="39.7333625" lon="3.1848886">
<ele>36.05</ele>
<time>2016-10-17T07:26:07Z</time>
</trkpt>
<trkpt lat="39.7332555" lon="3.1851547">
<ele>34.83</ele>
<time>2016-10-17T07:26:11Z</time>
</trkpt>
<trkpt lat="39.7331349" lon="3.1854211">
<ele>34.76</ele>
<time>2016-10-17T07:26:15Z</time>
</trkpt>
<trkpt lat="39.7330400" lon="3.1856368">
<ele>34.41</ele>
<time>2016-10-17T07:26:18Z</time>
</trkpt>
<trkpt lat="39.7329486" lon="3.1858554">
<ele>35.50</ele>
<time>2016-10-17T07:26:21Z</time>
</trkpt>
<trkpt lat="39.7328533" lon="3.1860820">
<ele>36.86</ele>
<time>2016-10-17T07:26:24Z</time>
</trkpt>
<trkpt lat="39.7327600" lon="3.1863044">
<ele>37.47</ele>
<time>2016-10-17T07:26:27Z</time>
</trkpt>
<trkpt lat="39.7326621" lon="3.1865292">
<ele>38.31</ele>
<time>2016-10-17T07:26:30Z</time>
</trkpt>
<trkpt lat="39.7325680" lon="3.1867440">
<ele>38.86</ele>
<time>2016-10-17T07:26:33Z</time>
</trkpt>
<trkpt lat="39.7324679" lon="3.1869627">
<ele>39.23</ele>
<time>2016-10-17T07:26:36Z</time>
</trkpt>
<trkpt lat="39.7323532" lon="3.1871957">
<ele>38.07</ele>
<time>2016-10-17T07:26:39Z</time>
</trkpt>
<trkpt lat="39.7322425" lon="3.1874199">
<ele>36.32</ele>
<time>2016-10-17T07:26:42Z</time>
</trkpt>
<trkpt lat="39.7321412" lon="3.1876301">
<ele>35.62</ele>
<time>2016-10-17T07:26:45Z</time>
</trkpt>
<trkpt lat="39.7320416" lon="3.1878489">
<ele>35.50</ele>
<time>2016-10-17T07:26:48Z</time>
</trkpt>
<trkpt lat="39.7319437" lon="3.1880703">
<ele>35.05</ele>
<time>2016-10-17T07:26:51Z</time>
</trkpt>
<trkpt lat="39.7318569" lon="3.1882798">
<ele>35.49</ele>
<time>2016-10-17T07:26:54Z</time>
</trkpt>
<trkpt lat="39.7317740" lon="3.1885069">
<ele>37.51</ele>
<time>2016-10-17T07:26:57Z</time>
</trkpt>
<trkpt lat="39.7316774" lon="3.1887571">
<ele>37.33</ele>
<time>2016-10-17T07:27:01Z</time>
</trkpt>
<trkpt lat="39.7315588" lon="3.1890306">
<ele>36.16</ele>
<time>2016-10-17T07:27:05Z</time>
</trkpt>
<trkpt lat="39.7314707" lon="3.1892435">
<ele>34.65</ele>
<time>2016-10-17T07:27:08Z</time>
</trkpt>
<trkpt lat="39.7313546" lon="3.1895182">
<ele>34.35</ele>
<time>2016-10-17T07:27:12Z</time>
</trkpt>
<trkpt lat="39.7312626" lon="3.1897270">
<ele>35.37</ele>
<time>2016-10-17T07:27:15Z</time>
</trkpt>
<trkpt lat="39.7311454" lon="3.1900013">
<ele>36.54</ele>
<time>2016-10-17T07:27:19Z</time>
</trkpt>
<trkpt lat="39.7310492" lon="3.1902254">
<ele>37.40</ele>
<time>2016-10-17T07:27:22Z</time>
</trkpt>
<trkpt lat="39.7309499" lon="3.1904274">
<ele>38.20</ele>
<time>2016-10-17T07:27:25Z</time>
</trkpt>
<trkpt lat="39.7308455" lon="3.1906374">
<ele>39.10</ele>
<time>2016-10-17T07:27:28Z</time>
</trkpt>
<trkpt lat="39.7307425" lon="3.1908626">
<ele>38.58</ele>
<time>2016-10-17T07:27:31Z</time>
</trkpt>
<trkpt lat="39.7306320" lon="3.1911229">
<ele>36.35</ele>
<time>2016-10-17T07:27:35Z</time>
</trkpt>
<trkpt lat="39.7305365" lon="3.1913402">
<ele>35.77</ele>
<time>2016-10-17T07:27:38Z</time>
</trkpt>
<trkpt lat="39.7304411" lon="3.1915593">
<ele>36.54</ele>
<time>2016-10-17T07:27:41Z</time>
</trkpt>
<trkpt lat="39.7303541" lon="3.1917652">
<ele>37.00</ele>
<time>2016-10-17T07:27:44Z</time>
</trkpt>
<trkpt lat="39.7302374" lon="3.1920433">
<ele>37.88</ele>
<time>2016-10-17T07:27:48Z</time>
</trkpt>
<trkpt lat="39.7301446" lon="3.1922605">
<ele>38.84</ele>
<time>2016-10-17T07:27:51Z</time>
</trkpt>
<trkpt lat="39.7300601" lon="3.1924707">
<ele>38.77</ele>
<time>2016-10-17T07:27:54Z</time>
</trkpt>
<trkpt lat="39.7299502" lon="3.1927300">
<ele>40.14</ele>
<time>2016-10-17T07:27:58Z</time>
</trkpt>
<trkpt lat="39.7298381" lon="3.1929883">
<ele>41.09</ele>
<time>2016-10-17T07:28:02Z</time>
</trkpt>
<trkpt lat="39.7297441" lon="3.1932084">
<ele>40.84</ele>
<time>2016-10-17T07:28:05Z</time>
</trkpt>
<trkpt lat="39.7296518" lon="3.1934340">
<ele>40.73</ele>
<time>2016-10-17T07:28:08Z</time>
</trkpt>
<trkpt lat="39.7295349" lon="3.1936846">
<ele>40.62</ele>
<time>2016-10-17T07:28:11Z</time>
</trkpt>
<trkpt lat="39.7294109" lon="3.1939501">
<ele>40.34</ele>
<time>2016-10-17T07:28:14Z</time>
</trkpt>
<trkpt lat="39.7292919" lon="3.1942306">
<ele>40.53</ele>
<time>2016-10-17T07:28:17Z</time>
</trkpt>
<trkpt lat="39.7291672" lon="3.1945060">
<ele>40.60</ele>
<time>2016-10-17T07:28:20Z</time>
</trkpt>
<trkpt lat="39.7290343" lon="3.1947941">
<ele>40.39</ele>
<time>2016-10-17T07:28:23Z</time>
</trkpt>
<trkpt lat="39.7289015" lon="3.1950981">
<ele>39.17</ele>
<time>2016-10-17T07:28:26Z</time>
</trkpt>
<trkpt lat="39.7287725" lon="3.1953994">
<ele>37.65</ele>
<time>2016-10-17T07:28:29Z</time>
</trkpt>
<trkpt lat="39.7286819" lon="3.1956053">
<ele>36.62</ele>
<time>2016-10-17T07:28:31Z</time>
</trkpt>
<trkpt lat="39.7285850" lon="3.1958244">
<ele>35.57</ele>
<time>2016-10-17T07:28:33Z</time>
</trkpt>
<trkpt lat="39.7284912" lon="3.1960360">
<ele>35.16</ele>
<time>2016-10-17T07:28:35Z</time>
</trkpt>
<trkpt lat="39.7284004" lon="3.1962424">
<ele>34.85</ele>
<time>2016-10-17T07:28:37Z</time>
</trkpt>
<trkpt lat="39.7283088" lon="3.1964512">
<ele>34.46</ele>
<time>2016-10-17T07:28:39Z</time>
</trkpt>
<trkpt lat="39.7281801" lon="3.1967554">
<ele>34.92</ele>
<time>2016-10-17T07:28:42Z</time>
</trkpt>
<trkpt lat="39.7280916" lon="3.1969665">
<ele>34.36</ele>
<time>2016-10-17T07:28:44Z</time>
</trkpt>
<trkpt lat="39.7279585" lon="3.1972782">
<ele>33.13</ele>
<time>2016-10-17T07:28:47Z</time>
</trkpt>
<trkpt lat="39.7278622" lon="3.1974968">
<ele>31.88</ele>
<time>2016-10-17T07:28:49Z</time>
</trkpt>
<trkpt lat="39.7277629" lon="3.1977267">
<ele>30.58</ele>
<time>2016-10-17T07:28:51Z</time>
</trkpt>
<trkpt lat="39.7276628" lon="3.1979626">
<ele>29.96</ele>
<time>2016-10-17T07:28:53Z</time>
</trkpt>
<trkpt lat="39.7275670" lon="3.1981854">
<ele>29.45</ele>
<time>2016-10-17T07:28:55Z</time>
</trkpt>
<trkpt lat="39.7274703" lon="3.1984090">
<ele>28.66</ele>
<time>2016-10-17T07:28:57Z</time>
</trkpt>
<trkpt lat="39.7273653" lon="3.1986325">
<ele>28.49</ele>
<time>2016-10-17T07:28:59Z</time>
</trkpt>
<trkpt lat="39.7272080" lon="3.1988202">
<ele>28.35</ele>
<time>2016-10-17T07:29:01Z</time>
</trkpt>
<trkpt lat="39.7270272" lon="3.1989689">
<ele>27.81</ele>
<time>2016-10-17T07:29:03Z</time>
</trkpt>
<trkpt lat="39.7268057" lon="3.1990634">
<ele>27.53</ele>
<time>2016-10-17T07:29:05Z</time>
</trkpt>
<trkpt lat="39.7265909" lon="3.1991083">
<ele>28.06</ele>
<time>2016-10-17T07:29:07Z</time>
</trkpt>
<trkpt lat="39.7263971" lon="3.1991137">
<ele>28.25</ele>
<time>2016-10-17T07:29:09Z</time>
</trkpt>
<trkpt lat="39.7262034" lon="3.1990954">
<ele>27.04</ele>
<time>2016-10-17T07:29:11Z</time>
</trkpt>
<trkpt lat="39.7259765" lon="3.1990527">
<ele>26.40</ele>
<time>2016-10-17T07:29:13Z</time>
</trkpt>
<trkpt lat="39.7257760" lon="3.1990027">
<ele>24.52</ele>
<time>2016-10-17T07:29:15Z</time>
</trkpt>
<trkpt lat="39.7255685" lon="3.1989573">
<ele>22.92</ele>
<time>2016-10-17T07:29:17Z</time>
</trkpt>
<trkpt lat="39.7253513" lon="3.1989119">
<ele>21.40</ele>
<time>2016-10-17T07:29:19Z</time>
</trkpt>
<trkpt lat="39.7251566" lon="3.1988718">
<ele>19.11</ele>
<time>2016-10-17T07:29:21Z</time>
</trkpt>
<trkpt lat="39.7249518" lon="3.1988694">
<ele>17.22</ele>
<time>2016-10-17T07:29:23Z</time>
</trkpt>
<trkpt lat="39.7247752" lon="3.1989518">
<ele>15.31</ele>
<time>2016-10-17T07:29:25Z</time>
</trkpt>
<trkpt lat="39.7246291" lon="3.1991312">
<ele>13.80</ele>
<time>2016-10-17T07:29:27Z</time>
</trkpt>
<trkpt lat="39.7245310" lon="3.1993708">
<ele>11.94</ele>
<time>2016-10-17T07:29:29Z</time>
</trkpt>
<trkpt lat="39.7245219" lon="3.1996241">
<ele>9.80</ele>
<time>2016-10-17T07:29:31Z</time>
</trkpt>
<trkpt lat="39.7245850" lon="3.1998780">
<ele>8.23</ele>
<time>2016-10-17T07:29:33Z</time>
</trkpt>
<trkpt lat="39.7247321" lon="3.2000957">
<ele>7.22</ele>
<time>2016-10-17T07:29:35Z</time>
</trkpt>
<trkpt lat="39.7249114" lon="3.2002734">
<ele>6.30</ele>
<time>2016-10-17T07:29:37Z</time>
</trkpt>
<trkpt lat="39.7250892" lon="3.2004407">
<ele>5.37</ele>
<time>2016-10-17T07:29:39Z</time>
</trkpt>
<trkpt lat="39.7252396" lon="3.2005846">
<ele>5.29</ele>
<time>2016-10-17T07:29:41Z</time>
</trkpt>
<trkpt lat="39.7254199" lon="3.2007446">
<ele>6.68</ele>
<time>2016-10-17T07:29:44Z</time>
</trkpt>
<trkpt lat="39.7256005" lon="3.2008968">
<ele>8.72</ele>
<time>2016-10-17T07:29:48Z</time>
</trkpt>
<trkpt lat="39.7257594" lon="3.2010231">
<ele>13.09</ele>
<time>2016-10-17T07:29:54Z</time>
</trkpt>
<trkpt lat="39.7259321" lon="3.2011218">
<ele>18.12</ele>
<time>2016-10-17T07:29:59Z</time>
</trkpt>
<trkpt lat="39.7261121" lon="3.2012578">
<ele>25.19</ele>
<time>2016-10-17T07:30:05Z</time>
</trkpt>
<trkpt lat="39.7262814" lon="3.2014060">
<ele>27.05</ele>
<time>2016-10-17T07:30:11Z</time>
</trkpt>
<trkpt lat="39.7264121" lon="3.2015828">
<ele>30.85</ele>
<time>2016-10-17T07:30:15Z</time>
</trkpt>
<trkpt lat="39.7265270" lon="3.2018313">
<ele>30.08</ele>
<time>2016-10-17T07:30:19Z</time>
</trkpt>
<trkpt lat="39.7266059" lon="3.2020662">
<ele>27.31</ele>
<time>2016-10-17T07:30:23Z</time>
</trkpt>
<trkpt lat="39.7266295" lon="3.2023349">
<ele>26.67</ele>
<time>2016-10-17T07:30:28Z</time>
</trkpt>
<trkpt lat="39.7266076" lon="3.2025692">
<ele>27.09</ele>
<time>2016-10-17T07:30:32Z</time>
</trkpt>
<trkpt lat="39.7265680" lon="3.2028565">
<ele>25.74</ele>
<time>2016-10-17T07:30:37Z</time>
</trkpt>
<trkpt lat="39.7264999" lon="3.2030956">
<ele>25.82</ele>
<time>2016-10-17T07:30:41Z</time>
</trkpt>
<trkpt lat="39.7264071" lon="3.2033398">
<ele>26.21</ele>
<time>2016-10-17T07:30:45Z</time>
</trkpt>
<trkpt lat="39.7263021" lon="3.2036084">
<ele>24.47</ele>
<time>2016-10-17T07:30:49Z</time>
</trkpt>
<trkpt lat="39.7261865" lon="3.2038796">
<ele>23.00</ele>
<time>2016-10-17T07:30:53Z</time>
</trkpt>
<trkpt lat="39.7260974" lon="3.2040901">
<ele>21.80</ele>
<time>2016-10-17T07:30:56Z</time>
</trkpt>
<trkpt lat="39.7260050" lon="3.2043035">
<ele>20.33</ele>
<time>2016-10-17T07:30:59Z</time>
</trkpt>
<trkpt lat="39.7259176" lon="3.2045125">
<ele>19.01</ele>
<time>2016-10-17T07:31:02Z</time>
</trkpt>
<trkpt lat="39.7258106" lon="3.2047801">
<ele>18.78</ele>
<time>2016-10-17T07:31:06Z</time>
</trkpt>
<trkpt lat="39.7257237" lon="3.2049882">
<ele>19.37</ele>
<time>2016-10-17T07:31:09Z</time>
</trkpt>
<trkpt lat="39.7256350" lon="3.2051942">
<ele>19.24</ele>
<time>2016-10-17T07:31:12Z</time>
</trkpt>
<trkpt lat="39.7255323" lon="3.2054284">
<ele>18.51</ele>
<time>2016-10-17T07:31:16Z</time>
</trkpt>
<trkpt lat="39.7254358" lon="3.2056449">
<ele>19.83</ele>
<time>2016-10-17T07:31:20Z</time>
</trkpt>
<trkpt lat="39.7253476" lon="3.2058791">
<ele>19.52</ele>
<time>2016-10-17T07:31:24Z</time>
</trkpt>
<trkpt lat="39.7252571" lon="3.2061085">
<ele>20.62</ele>
<time>2016-10-17T07:31:29Z</time>
</trkpt>
<trkpt lat="39.7251466" lon="3.2063652">
<ele>23.45</ele>
<time>2016-10-17T07:31:34Z</time>
</trkpt>
<trkpt lat="39.7250438" lon="3.2066147">
<ele>24.81</ele>
<time>2016-10-17T07:31:39Z</time>
</trkpt>
<trkpt lat="39.7249553" lon="3.2068241">
<ele>24.71</ele>
<time>2016-10-17T07:31:43Z</time>
</trkpt>
<trkpt lat="39.7248604" lon="3.2070568">
<ele>24.63</ele>
<time>2016-10-17T07:31:48Z</time>
</trkpt>
<trkpt lat="39.7247641" lon="3.2072833">
<ele>24.63</ele>
<time>2016-10-17T07:31:53Z</time>
</trkpt>
<trkpt lat="39.7246720" lon="3.2075198">
<ele>24.45</ele>
<time>2016-10-17T07:31:58Z</time>
</trkpt>
<trkpt lat="39.7245981" lon="3.2077405">
<ele>27.14</ele>
<time>2016-10-17T07:32:03Z</time>
</trkpt>
<trkpt lat="39.7245072" lon="3.2079935">
<ele>30.00</ele>
<time>2016-10-17T07:32:08Z</time>
</trkpt>
<trkpt lat="39.7244153" lon="3.2082406">
<ele>30.85</ele>
<time>2016-10-17T07:32:13Z</time>
</trkpt>
<trkpt lat="39.7243105" lon="3.2084791">
<ele>33.68</ele>
<time>2016-10-17T07:32:18Z</time>
</trkpt>
<trkpt lat="39.7242213" lon="3.2086834">
<ele>33.81</ele>
<time>2016-10-17T07:32:22Z</time>
</trkpt>
<trkpt lat="39.7241054" lon="3.2089023">
<ele>32.69</ele>
<time>2016-10-17T07:32:27Z</time>
</trkpt>
<trkpt lat="39.7239857" lon="3.2091073">
<ele>32.72</ele>
<time>2016-10-17T07:32:32Z</time>
</trkpt>
<trkpt lat="39.7238422" lon="3.2093151">
<ele>34.28</ele>
<time>2016-10-17T07:32:38Z</time>
</trkpt>
<trkpt lat="39.7237078" lon="3.2094842">
<ele>34.08</ele>
<time>2016-10-17T07:32:43Z</time>
</trkpt>
<trkpt lat="39.7235488" lon="3.2096705">
<ele>33.68</ele>
<time>2016-10-17T07:32:48Z</time>
</trkpt>
<trkpt lat="39.7234009" lon="3.2098074">
<ele>33.41</ele>
<time>2016-10-17T07:32:52Z</time>
</trkpt>
<trkpt lat="39.7232447" lon="3.2099406">
<ele>33.30</ele>
<time>2016-10-17T07:32:56Z</time>
</trkpt>
<trkpt lat="39.7230722" lon="3.2100824">
<ele>33.17</ele>
<time>2016-10-17T07:33:00Z</time>
</trkpt>
<trkpt lat="39.7228976" lon="3.2102286">
<ele>33.83</ele>
<time>2016-10-17T07:33:04Z</time>
</trkpt>
<trkpt lat="39.7227029" lon="3.2103988">
<ele>34.01</ele>
<time>2016-10-17T07:33:08Z</time>
</trkpt>
<trkpt lat="39.7225522" lon="3.2105297">
<ele>34.32</ele>
<time>2016-10-17T07:33:11Z</time>
</trkpt>
<trkpt lat="39.7223972" lon="3.2106640">
<ele>34.07</ele>
<time>2016-10-17T07:33:14Z</time>
</trkpt>
<trkpt lat="39.7222388" lon="3.2107996">
<ele>35.33</ele>
<time>2016-10-17T07:33:17Z</time>
</trkpt>
<trkpt lat="39.7220359" lon="3.2109658">
<ele>36.98</ele>
<time>2016-10-17T07:33:21Z</time>
</trkpt>
<trkpt lat="39.7218498" lon="3.2111295">
<ele>36.10</ele>
<time>2016-10-17T07:33:25Z</time>
</trkpt>
<trkpt lat="39.7216950" lon="3.2112638">
<ele>35.50</ele>
<time>2016-10-17T07:33:28Z</time>
</trkpt>
<trkpt lat="39.7215377" lon="3.2113996">
<ele>35.16</ele>
<time>2016-10-17T07:33:31Z</time>
</trkpt>
<trkpt lat="39.7213829" lon="3.2115296">
<ele>36.37</ele>
<time>2016-10-17T07:33:34Z</time>
</trkpt>
<trkpt lat="39.7212202" lon="3.2116644">
<ele>39.37</ele>
<time>2016-10-17T07:33:37Z</time>
</trkpt>
<trkpt lat="39.7210669" lon="3.2117885">
<ele>39.96</ele>
<time>2016-10-17T07:33:40Z</time>
</trkpt>
<trkpt lat="39.7209113" lon="3.2119102">
<ele>38.45</ele>
<time>2016-10-17T07:33:43Z</time>
</trkpt>
<trkpt lat="39.7207543" lon="3.2120349">
<ele>36.63</ele>
<time>2016-10-17T07:33:46Z</time>
</trkpt>
<trkpt lat="39.7206002" lon="3.2121606">
<ele>35.59</ele>
<time>2016-10-17T07:33:49Z</time>
</trkpt>
<trkpt lat="39.7204466" lon="3.2122911">
<ele>35.41</ele>
<time>2016-10-17T07:33:52Z</time>
</trkpt>
<trkpt lat="39.7202942" lon="3.2124263">
<ele>35.08</ele>
<time>2016-10-17T07:33:55Z</time>
</trkpt>
<trkpt lat="39.7201393" lon="3.2125554">
<ele>36.36</ele>
<time>2016-10-17T07:33:58Z</time>
</trkpt>
<trkpt lat="39.7199878" lon="3.2126828">
<ele>37.36</ele>
<time>2016-10-17T07:34:01Z</time>
</trkpt>
<trkpt lat="39.7198279" lon="3.2128037">
<ele>37.63</ele>
<time>2016-10-17T07:34:04Z</time>
</trkpt>
<trkpt lat="39.7196603" lon="3.2129374">
<ele>37.82</ele>
<time>2016-10-17T07:34:07Z</time>
</trkpt>
<trkpt lat="39.7194951" lon="3.2130713">
<ele>37.89</ele>
<time>2016-10-17T07:34:10Z</time>
</trkpt>
<trkpt lat="39.7192869" lon="3.2132437">
<ele>37.36</ele>
<time>2016-10-17T07:34:14Z</time>
</trkpt>
<trkpt lat="39.7191299" lon="3.2133762">
<ele>38.07</ele>
<time>2016-10-17T07:34:17Z</time>
</trkpt>
<trkpt lat="39.7189511" lon="3.2135402">
<ele>38.53</ele>
<time>2016-10-17T07:34:21Z</time>
</trkpt>
<trkpt lat="39.7187572" lon="3.2137209">
<ele>39.30</ele>
<time>2016-10-17T07:34:25Z</time>
</trkpt>
<trkpt lat="39.7185991" lon="3.2138566">
<ele>39.80</ele>
<time>2016-10-17T07:34:28Z</time>
</trkpt>
<trkpt lat="39.7184391" lon="3.2139937">
<ele>38.75</ele>
<time>2016-10-17T07:34:31Z</time>
</trkpt>
<trkpt lat="39.7182806" lon="3.2141309">
<ele>39.35</ele>
<time>2016-10-17T07:34:34Z</time>
</trkpt>
<trkpt lat="39.7180802" lon="3.2143051">
<ele>40.33</ele>
<time>2016-10-17T07:34:38Z</time>
</trkpt>
<trkpt lat="39.7179158" lon="3.2144384">
<ele>40.37</ele>
<time>2016-10-17T07:34:41Z</time>
</trkpt>
<trkpt lat="39.7177618" lon="3.2145670">
<ele>39.98</ele>
<time>2016-10-17T07:34:44Z</time>
</trkpt>
<trkpt lat="39.7176015" lon="3.2147005">
<ele>39.14</ele>
<time>2016-10-17T07:34:47Z</time>
</trkpt>
<trkpt lat="39.7174363" lon="3.2148348">
<ele>40.15</ele>
<time>2016-10-17T07:34:50Z</time>
</trkpt>
<trkpt lat="39.7172794" lon="3.2149682">
<ele>41.38</ele>
<time>2016-10-17T07:34:53Z</time>
</trkpt>
<trkpt lat="39.7171206" lon="3.2150949">
<ele>40.54</ele>
<time>2016-10-17T07:34:56Z</time>
</trkpt>
<trkpt lat="39.7169489" lon="3.2152277">
<ele>39.56</ele>
<time>2016-10-17T07:34:59Z</time>
</trkpt>
<trkpt lat="39.7167799" lon="3.2153629">
<ele>38.31</ele>
<time>2016-10-17T07:35:02Z</time>
</trkpt>
<trkpt lat="39.7166196" lon="3.2155010">
<ele>38.84</ele>
<time>2016-10-17T07:35:05Z</time>
</trkpt>
<trkpt lat="39.7164660" lon="3.2156398">
<ele>39.65</ele>
<time>2016-10-17T07:35:08Z</time>
</trkpt>
<trkpt lat="39.7163095" lon="3.2157755">
<ele>39.78</ele>
<time>2016-10-17T07:35:11Z</time>
</trkpt>
<trkpt lat="39.7161532" lon="3.2159067">
<ele>39.06</ele>
<time>2016-10-17T07:35:14Z</time>
</trkpt>
<trkpt lat="39.7159928" lon="3.2160428">
<ele>38.42</ele>
<time>2016-10-17T07:35:17Z</time>
</trkpt>
<trkpt lat="39.7158347" lon="3.2161696">
<ele>38.25</ele>
<time>2016-10-17T07:35:20Z</time>
</trkpt>
<trkpt lat="39.7156764" lon="3.2163003">
<ele>39.46</ele>
<time>2016-10-17T07:35:23Z</time>
</trkpt>
<trkpt lat="39.7155187" lon="3.2164323">
<ele>40.30</ele>
<time>2016-10-17T07:35:26Z</time>
</trkpt>
<trkpt lat="39.7153520" lon="3.2165681">
<ele>41.38</ele>
<time>2016-10-17T07:35:29Z</time>
</trkpt>
<trkpt lat="39.7151930" lon="3.2167003">
<ele>42.60</ele>
<time>2016-10-17T07:35:32Z</time>
</trkpt>
<trkpt lat="39.7149956" lon="3.2168796">
<ele>42.51</ele>
<time>2016-10-17T07:35:36Z</time>
</trkpt>
<trkpt lat="39.7148302" lon="3.2170151">
<ele>41.97</ele>
<time>2016-10-17T07:35:39Z</time>
</trkpt>
<trkpt lat="39.7146736" lon="3.2171453">
<ele>41.11</ele>
<time>2016-10-17T07:35:42Z</time>
</trkpt>
<trkpt lat="39.7145136" lon="3.2172777">
<ele>40.48</ele>
<time>2016-10-17T07:35:45Z</time>
</trkpt>
<trkpt lat="39.7143475" lon="3.2174153">
<ele>40.31</ele>
<time>2016-10-17T07:35:48Z</time>
</trkpt>
<trkpt lat="39.7141843" lon="3.2175598">
<ele>40.98</ele>
<time>2016-10-17T07:35:51Z</time>
</trkpt>
<trkpt lat="39.7140311" lon="3.2176998">
<ele>42.18</ele>
<time>2016-10-17T07:35:54Z</time>
</trkpt>
<trkpt lat="39.7138775" lon="3.2178312">
<ele>42.04</ele>
<time>2016-10-17T07:35:57Z</time>
</trkpt>
<trkpt lat="39.7137133" lon="3.2179641">
<ele>42.13</ele>
<time>2016-10-17T07:36:00Z</time>
</trkpt>
<trkpt lat="39.7135468" lon="3.2180993">
<ele>43.06</ele>
<time>2016-10-17T07:36:03Z</time>
</trkpt>
<trkpt lat="39.7133516" lon="3.2182721">
<ele>44.61</ele>
<time>2016-10-17T07:36:07Z</time>
</trkpt>
<trkpt lat="39.7131913" lon="3.2184092">
<ele>46.00</ele>
<time>2016-10-17T07:36:10Z</time>
</trkpt>
<trkpt lat="39.7130201" lon="3.2185440">
<ele>45.30</ele>
<time>2016-10-17T07:36:13Z</time>
</trkpt>
<trkpt lat="39.7128515" lon="3.2186829">
<ele>43.55</ele>
<time>2016-10-17T07:36:16Z</time>
</trkpt>
<trkpt lat="39.7126965" lon="3.2188110">
<ele>42.07</ele>
<time>2016-10-17T07:36:19Z</time>
</trkpt>
<trkpt lat="39.7125320" lon="3.2189498">
<ele>41.87</ele>
<time>2016-10-17T07:36:22Z</time>
</trkpt>
<trkpt lat="39.7123638" lon="3.2190826">
<ele>43.20</ele>
<time>2016-10-17T07:36:25Z</time>
</trkpt>
<trkpt lat="39.7122006" lon="3.2192207">
<ele>43.65</ele>
<time>2016-10-17T07:36:28Z</time>
</trkpt>
<trkpt lat="39.7120358" lon="3.2193726">
<ele>43.98</ele>
<time>2016-10-17T07:36:31Z</time>
</trkpt>
<trkpt lat="39.7118769" lon="3.2195224">
<ele>44.61</ele>
<time>2016-10-17T07:36:34Z</time>
</trkpt>
<trkpt lat="39.7117138" lon="3.2196907">
<ele>44.47</ele>
<time>2016-10-17T07:36:37Z</time>
</trkpt>
<trkpt lat="39.7115655" lon="3.2198667">
<ele>43.61</ele>
<time>2016-10-17T07:36:40Z</time>
</trkpt>
<trkpt lat="39.7114287" lon="3.2200529">
<ele>41.48</ele>
<time>2016-10-17T07:36:43Z</time>
</trkpt>
<trkpt lat="39.7112895" lon="3.2202530">
<ele>40.45</ele>
<time>2016-10-17T07:36:46Z</time>
</trkpt>
<trkpt lat="39.7111579" lon="3.2204588">
<ele>40.48</ele>
<time>2016-10-17T07:36:49Z</time>
</trkpt>
<trkpt lat="39.7110287" lon="3.2206551">
<ele>42.14</ele>
<time>2016-10-17T07:36:52Z</time>
</trkpt>
<trkpt lat="39.7108964" lon="3.2208662">
<ele>44.04</ele>
<time>2016-10-17T07:36:55Z</time>
</trkpt>
<trkpt lat="39.7107679" lon="3.2210692">
<ele>43.20</ele>
<time>2016-10-17T07:36:58Z</time>
</trkpt>
<trkpt lat="39.7106416" lon="3.2212666">
<ele>42.11</ele>
<time>2016-10-17T07:37:01Z</time>
</trkpt>
<trkpt lat="39.7105095" lon="3.2214763">
<ele>41.72</ele>
<time>2016-10-17T07:37:04Z</time>
</trkpt>
<trkpt lat="39.7103765" lon="3.2216899">
<ele>41.52</ele>
<time>2016-10-17T07:37:07Z</time>
</trkpt>
<trkpt lat="39.7102505" lon="3.2219068">
<ele>40.49</ele>
<time>2016-10-17T07:37:10Z</time>
</trkpt>
<trkpt lat="39.7101387" lon="3.2221050">
<ele>39.79</ele>
<time>2016-10-17T07:37:13Z</time>
</trkpt>
<trkpt lat="39.7100093" lon="3.2223078">
<ele>40.59</ele>
<time>2016-10-17T07:37:16Z</time>
</trkpt>
<trkpt lat="39.7098518" lon="3.2225034">
<ele>41.56</ele>
<time>2016-10-17T07:37:19Z</time>
</trkpt>
<trkpt lat="39.7096738" lon="3.2226890">
<ele>41.92</ele>
<time>2016-10-17T07:37:22Z</time>
</trkpt>
<trkpt lat="39.7094906" lon="3.2228467">
<ele>42.69</ele>
<time>2016-10-17T07:37:25Z</time>
</trkpt>
<trkpt lat="39.7092816" lon="3.2229855">
<ele>42.56</ele>
<time>2016-10-17T07:37:28Z</time>
</trkpt>
<trkpt lat="39.7090696" lon="3.2230840">
<ele>42.66</ele>
<time>2016-10-17T07:37:31Z</time>
</trkpt>
<trkpt lat="39.7088293" lon="3.2231657">
<ele>42.74</ele>
<time>2016-10-17T07:37:34Z</time>
</trkpt>
<trkpt lat="39.7086088" lon="3.2231881">
<ele>42.07</ele>
<time>2016-10-17T07:37:37Z</time>
</trkpt>
<trkpt lat="39.7083616" lon="3.2231813">
<ele>41.78</ele>
<time>2016-10-17T07:37:40Z</time>
</trkpt>
<trkpt lat="39.7081125" lon="3.2231464">
<ele>41.26</ele>
<time>2016-10-17T07:37:43Z</time>
</trkpt>
<trkpt lat="39.7078651" lon="3.2230990">
<ele>41.46</ele>
<time>2016-10-17T07:37:46Z</time>
</trkpt>
<trkpt lat="39.7076197" lon="3.2230558">
<ele>41.89</ele>
<time>2016-10-17T07:37:49Z</time>
</trkpt>
<trkpt lat="39.7073573" lon="3.2230238">
<ele>41.12</ele>
<time>2016-10-17T07:37:52Z</time>
</trkpt>
<trkpt lat="39.7071699" lon="3.2230164">
<ele>40.88</ele>
<time>2016-10-17T07:37:54Z</time>
</trkpt>
<trkpt lat="39.7069816" lon="3.2230342">
<ele>40.23</ele>
<time>2016-10-17T07:37:56Z</time>
</trkpt>
<trkpt lat="39.7067811" lon="3.2230905">
<ele>40.02</ele>
<time>2016-10-17T07:37:58Z</time>
</trkpt>
<trkpt lat="39.7065888" lon="3.2231830">
<ele>39.31</ele>
<time>2016-10-17T07:38:00Z</time>
</trkpt>
<trkpt lat="39.7063960" lon="3.2233068">
<ele>38.85</ele>
<time>2016-10-17T07:38:02Z</time>
</trkpt>
<trkpt lat="39.7062043" lon="3.2234599">
<ele>39.06</ele>
<time>2016-10-17T07:38:04Z</time>
</trkpt>
<trkpt lat="39.7060362" lon="3.2236322">
<ele>38.14</ele>
<time>2016-10-17T07:38:06Z</time>
</trkpt>
<trkpt lat="39.7058590" lon="3.2238245">
<ele>37.13</ele>
<time>2016-10-17T07:38:08Z</time>
</trkpt>
<trkpt lat="39.7056989" lon="3.2240156">
<ele>35.21</ele>
<time>2016-10-17T07:38:09Z</time>
</trkpt>
<trkpt lat="39.7055492" lon="3.2242017">
<ele>32.94</ele>
<time>2016-10-17T07:38:12Z</time>
</trkpt>
<trkpt lat="39.7053928" lon="3.2243876">
<ele>30.38</ele>
<time>2016-10-17T07:38:13Z</time>
</trkpt>
<trkpt lat="39.7052264" lon="3.2245450">
<ele>28.29</ele>
<time>2016-10-17T07:38:15Z</time>
</trkpt>
<trkpt lat="39.7050099" lon="3.2246412">
<ele>26.98</ele>
<time>2016-10-17T07:38:17Z</time>
</trkpt>
<trkpt lat="39.7047775" lon="3.2247060">
<ele>25.61</ele>
<time>2016-10-17T07:38:19Z</time>
</trkpt>
<trkpt lat="39.7045208" lon="3.2247285">
<ele>23.81</ele>
<time>2016-10-17T07:38:21Z</time>
</trkpt>
<trkpt lat="39.7042689" lon="3.2247178">
<ele>21.93</ele>
<time>2016-10-17T07:38:23Z</time>
</trkpt>
<trkpt lat="39.7040226" lon="3.2247100">
<ele>20.33</ele>
<time>2016-10-17T07:38:25Z</time>
</trkpt>
<trkpt lat="39.7037879" lon="3.2247275">
<ele>18.63</ele>
<time>2016-10-17T07:38:27Z</time>
</trkpt>
<trkpt lat="39.7035666" lon="3.2248208">
<ele>17.74</ele>
<time>2016-10-17T07:38:29Z</time>
</trkpt>
<trkpt lat="39.7033833" lon="3.2249840">
<ele>16.95</ele>
<time>2016-10-17T07:38:31Z</time>
</trkpt>
<trkpt lat="39.7032498" lon="3.2252232">
<ele>15.43</ele>
<time>2016-10-17T07:38:33Z</time>
</trkpt>
<trkpt lat="39.7031861" lon="3.2254868">
<ele>13.81</ele>
<time>2016-10-17T07:38:35Z</time>
</trkpt>
<trkpt lat="39.7031878" lon="3.2257811">
<ele>12.46</ele>
<time>2016-10-17T07:38:37Z</time>
</trkpt>
<trkpt lat="39.7032259" lon="3.2260762">
<ele>11.89</ele>
<time>2016-10-17T07:38:39Z</time>
</trkpt>
<trkpt lat="39.7032710" lon="3.2263540">
<ele>11.27</ele>
<time>2016-10-17T07:38:41Z</time>
</trkpt>
<trkpt lat="39.7033155" lon="3.2266251">
<ele>9.24</ele>
<time>2016-10-17T07:38:43Z</time>
</trkpt>
<trkpt lat="39.7033552" lon="3.2268791">
<ele>9.09</ele>
<time>2016-10-17T07:38:45Z</time>
</trkpt>
<trkpt lat="39.7034048" lon="3.2271744">
<ele>9.08</ele>
<time>2016-10-17T07:38:48Z</time>
</trkpt>
<trkpt lat="39.7034557" lon="3.2274689">
<ele>9.64</ele>
<time>2016-10-17T07:38:52Z</time>
</trkpt>
<trkpt lat="39.7035027" lon="3.2276948">
<ele>8.32</ele>
<time>2016-10-17T07:38:56Z</time>
</trkpt>
<trkpt lat="39.7035602" lon="3.2279442">
<ele>6.28</ele>
<time>2016-10-17T07:39:01Z</time>
</trkpt>
<trkpt lat="39.7036255" lon="3.2282156">
<ele>6.87</ele>
<time>2016-10-17T07:39:07Z</time>
</trkpt>
<trkpt lat="39.7037047" lon="3.2284461">
<ele>7.91</ele>
<time>2016-10-17T07:39:12Z</time>
</trkpt>
<trkpt lat="39.7037616" lon="3.2286869">
<ele>8.60</ele>
<time>2016-10-17T07:39:18Z</time>
</trkpt>
<trkpt lat="39.7037891" lon="3.2289271">
<ele>9.32</ele>
<time>2016-10-17T07:39:24Z</time>
</trkpt>
<trkpt lat="39.7038237" lon="3.2291888">
<ele>9.85</ele>
<time>2016-10-17T07:39:30Z</time>
</trkpt>
<trkpt lat="39.7038830" lon="3.2294242">
<ele>10.87</ele>
<time>2016-10-17T07:39:36Z</time>
</trkpt>
<trkpt lat="39.7039417" lon="3.2296458">
<ele>11.87</ele>
<time>2016-10-17T07:39:42Z</time>
</trkpt>
<trkpt lat="39.7040178" lon="3.2298932">
<ele>13.01</ele>
<time>2016-10-17T07:39:48Z</time>
</trkpt>
<trkpt lat="39.7041100" lon="3.2301060">
<ele>14.66</ele>
<time>2016-10-17T07:39:55Z</time>
</trkpt>
<trkpt lat="39.7042271" lon="3.2302938">
<ele>16.80</ele>
<time>2016-10-17T07:40:02Z</time>
</trkpt>
<trkpt lat="39.7043654" lon="3.2304852">
<ele>19.10</ele>
<time>2016-10-17T07:40:09Z</time>
</trkpt>
<trkpt lat="39.7045083" lon="3.2306350">
<ele>22.16</ele>
<time>2016-10-17T07:40:18Z</time>
</trkpt>
<trkpt lat="39.7046762" lon="3.2307800">
<ele>24.47</ele>
<time>2016-10-17T07:40:26Z</time>
</trkpt>
<trkpt lat="39.7048352" lon="3.2309166">
<ele>26.09</ele>
<time>2016-10-17T07:40:33Z</time>
</trkpt>
<trkpt lat="39.7049945" lon="3.2310546">
<ele>27.13</ele>
<time>2016-10-17T07:40:40Z</time>
</trkpt>
<trkpt lat="39.7051553" lon="3.2311772">
<ele>28.48</ele>
<time>2016-10-17T07:40:46Z</time>
</trkpt>
<trkpt lat="39.7053207" lon="3.2312718">
<ele>30.19</ele>
<time>2016-10-17T07:40:53Z</time>
</trkpt>
<trkpt lat="39.7054862" lon="3.2314223">
<ele>32.30</ele>
<time>2016-10-17T07:41:01Z</time>
</trkpt>
<trkpt lat="39.7056442" lon="3.2315855">
<ele>34.88</ele>
<time>2016-10-17T07:41:10Z</time>
</trkpt>
<trkpt lat="39.7057910" lon="3.2317631">
<ele>37.00</ele>
<time>2016-10-17T07:41:17Z</time>
</trkpt>
<trkpt lat="39.7059045" lon="3.2319773">
<ele>38.81</ele>
<time>2016-10-17T07:41:23Z</time>
</trkpt>
<trkpt lat="39.7060131" lon="3.2322020">
<ele>40.35</ele>
<time>2016-10-17T07:41:29Z</time>
</trkpt>
<trkpt lat="39.7060976" lon="3.2324386">
<ele>41.91</ele>
<time>2016-10-17T07:41:35Z</time>
</trkpt>
<trkpt lat="39.7061388" lon="3.2326698">
<ele>43.65</ele>
<time>2016-10-17T07:41:42Z</time>
</trkpt>
<trkpt lat="39.7061630" lon="3.2329064">
<ele>44.62</ele>
<time>2016-10-17T07:41:47Z</time>
</trkpt>
<trkpt lat="39.7061633" lon="3.2331687">
<ele>45.38</ele>
<time>2016-10-17T07:41:52Z</time>
</trkpt>
<trkpt lat="39.7061492" lon="3.2334070">
<ele>45.59</ele>
<time>2016-10-17T07:41:57Z</time>
</trkpt>
<trkpt lat="39.7061142" lon="3.2336539">
<ele>45.81</ele>
<time>2016-10-17T07:42:03Z</time>
</trkpt>
<trkpt lat="39.7060465" lon="3.2338796">
<ele>46.40</ele>
<time>2016-10-17T07:42:09Z</time>
</trkpt>
<trkpt lat="39.7059445" lon="3.2341204">
<ele>47.13</ele>
<time>2016-10-17T07:42:15Z</time>
</trkpt>
<trkpt lat="39.7058606" lon="3.2343487">
<ele>47.36</ele>
<time>2016-10-17T07:42:21Z</time>
</trkpt>
<trkpt lat="39.7057570" lon="3.2345759">
<ele>48.11</ele>
<time>2016-10-17T07:42:27Z</time>
</trkpt>
<trkpt lat="39.7056497" lon="3.2347721">
<ele>48.64</ele>
<time>2016-10-17T07:42:32Z</time>
</trkpt>
<trkpt lat="39.7055299" lon="3.2349757">
<ele>50.83</ele>
<time>2016-10-17T07:42:37Z</time>
</trkpt>
<trkpt lat="39.7054189" lon="3.2351782">
<ele>51.07</ele>
<time>2016-10-17T07:42:42Z</time>
</trkpt>
<trkpt lat="39.7053055" lon="3.2353766">
<ele>51.31</ele>
<time>2016-10-17T07:42:47Z</time>
</trkpt>
<trkpt lat="39.7051880" lon="3.2356085">
<ele>51.56</ele>
<time>2016-10-17T07:42:53Z</time>
</trkpt>
<trkpt lat="39.7050797" lon="3.2358068">
<ele>51.70</ele>
<time>2016-10-17T07:42:58Z</time>
</trkpt>
<trkpt lat="39.7049608" lon="3.2360123">
<ele>52.09</ele>
<time>2016-10-17T07:43:03Z</time>
</trkpt>
<trkpt lat="39.7048589" lon="3.2362131">
<ele>52.16</ele>
<time>2016-10-17T07:43:08Z</time>
</trkpt>
<trkpt lat="39.7047571" lon="3.2364083">
<ele>52.35</ele>
<time>2016-10-17T07:43:13Z</time>
</trkpt>
<trkpt lat="39.7046486" lon="3.2366214">
<ele>52.61</ele>
<time>2016-10-17T07:43:19Z</time>
</trkpt>
<trkpt lat="39.7045550" lon="3.2368418">
<ele>52.87</ele>
<time>2016-10-17T07:43:25Z</time>
</trkpt>
<trkpt lat="39.7044624" lon="3.2370621">
<ele>53.20</ele>
<time>2016-10-17T07:43:31Z</time>
</trkpt>
<trkpt lat="39.7043803" lon="3.2372926">
<ele>53.62</ele>
<time>2016-10-17T07:43:37Z</time>
</trkpt>
<trkpt lat="39.7043017" lon="3.2375447">
<ele>54.27</ele>
<time>2016-10-17T07:43:43Z</time>
</trkpt>
<trkpt lat="39.7042476" lon="3.2377706">
<ele>55.12</ele>
<time>2016-10-17T07:43:48Z</time>
</trkpt>
<trkpt lat="39.7041970" lon="3.2380105">
<ele>55.47</ele>
<time>2016-10-17T07:43:53Z</time>
</trkpt>
<trkpt lat="39.7041619" lon="3.2382883">
<ele>55.96</ele>
<time>2016-10-17T07:43:59Z</time>
</trkpt>
<trkpt lat="39.7041361" lon="3.2385342">
<ele>56.30</ele>
<time>2016-10-17T07:44:04Z</time>
</trkpt>
<trkpt lat="39.7041338" lon="3.2387720">
<ele>58.19</ele>
<time>2016-10-17T07:44:09Z</time>
</trkpt>
<trkpt lat="39.7041448" lon="3.2390467">
<ele>58.55</ele>
<time>2016-10-17T07:44:15Z</time>
</trkpt>
<trkpt lat="39.7041597" lon="3.2392850">
<ele>58.93</ele>
<time>2016-10-17T07:44:20Z</time>
</trkpt>
<trkpt lat="39.7041790" lon="3.2395349">
<ele>60.18</ele>
<time>2016-10-17T07:44:26Z</time>
</trkpt>
<trkpt lat="39.7042216" lon="3.2398167">
<ele>61.66</ele>
<time>2016-10-17T07:44:32Z</time>
</trkpt>
<trkpt lat="39.7042620" lon="3.2400961">
<ele>65.85</ele>
<time>2016-10-17T07:44:37Z</time>
</trkpt>
<trkpt lat="39.7043212" lon="3.2403482">
<ele>70.30</ele>
<time>2016-10-17T07:44:42Z</time>
</trkpt>
<trkpt lat="39.7043664" lon="3.2406175">
<ele>73.12</ele>
<time>2016-10-17T07:44:47Z</time>
</trkpt>
<trkpt lat="39.7044007" lon="3.2408496">
<ele>72.47</ele>
<time>2016-10-17T07:44:51Z</time>
</trkpt>
<trkpt lat="39.7044349" lon="3.2411041">
<ele>72.78</ele>
<time>2016-10-17T07:44:55Z</time>
</trkpt>
<trkpt lat="39.7044645" lon="3.2413724">
<ele>71.02</ele>
<time>2016-10-17T07:45:00Z</time>
</trkpt>
<trkpt lat="39.7044899" lon="3.2416172">
<ele>69.99</ele>
<time>2016-10-17T07:45:04Z</time>
</trkpt>
<trkpt lat="39.7045088" lon="3.2418757">
<ele>68.57</ele>
<time>2016-10-17T07:45:08Z</time>
</trkpt>
<trkpt lat="39.7045294" lon="3.2421504">
<ele>68.16</ele>
<time>2016-10-17T07:45:13Z</time>
</trkpt>
<trkpt lat="39.7045477" lon="3.2423856">
<ele>68.16</ele>
<time>2016-10-17T07:45:17Z</time>
</trkpt>
<trkpt lat="39.7045611" lon="3.2426403">
<ele>67.89</ele>
<time>2016-10-17T07:45:21Z</time>
</trkpt>
<trkpt lat="39.7045745" lon="3.2429058">
<ele>66.43</ele>
<time>2016-10-17T07:45:25Z</time>
</trkpt>
<trkpt lat="39.7045824" lon="3.2431717">
<ele>65.82</ele>
<time>2016-10-17T07:45:29Z</time>
</trkpt>
<trkpt lat="39.7045906" lon="3.2434173">
<ele>64.87</ele>
<time>2016-10-17T07:45:33Z</time>
</trkpt>
<trkpt lat="39.7045846" lon="3.2436537">
<ele>64.77</ele>
<time>2016-10-17T07:45:37Z</time>
</trkpt>
<trkpt lat="39.7045627" lon="3.2439067">
<ele>65.74</ele>
<time>2016-10-17T07:45:42Z</time>
</trkpt>
<trkpt lat="39.7045171" lon="3.2441778">
<ele>70.26</ele>
<time>2016-10-17T07:45:47Z</time>
</trkpt>
<trkpt lat="39.7044648" lon="3.2444648">
<ele>73.58</ele>
<time>2016-10-17T07:45:52Z</time>
</trkpt>
<trkpt lat="39.7044148" lon="3.2447127">
<ele>74.65</ele>
<time>2016-10-17T07:45:56Z</time>
</trkpt>
<trkpt lat="39.7043594" lon="3.2449712">
<ele>75.16</ele>
<time>2016-10-17T07:46:01Z</time>
</trkpt>
<trkpt lat="39.7042960" lon="3.2452258">
<ele>76.77</ele>
<time>2016-10-17T07:46:07Z</time>
</trkpt>
<trkpt lat="39.7042126" lon="3.2454731">
<ele>76.96</ele>
<time>2016-10-17T07:46:12Z</time>
</trkpt>
<trkpt lat="39.7041270" lon="3.2456883">
<ele>78.43</ele>
<time>2016-10-17T07:46:17Z</time>
</trkpt>
<trkpt lat="39.7040103" lon="3.2459179">
<ele>78.11</ele>
<time>2016-10-17T07:46:22Z</time>
</trkpt>
<trkpt lat="39.7038827" lon="3.2461341">
<ele>76.37</ele>
<time>2016-10-17T07:46:27Z</time>
</trkpt>
<trkpt lat="39.7037710" lon="3.2463424">
<ele>76.34</ele>
<time>2016-10-17T07:46:33Z</time>
</trkpt>
<trkpt lat="39.7036492" lon="3.2465478">
<ele>77.91</ele>
<time>2016-10-17T07:46:38Z</time>
</trkpt>
<trkpt lat="39.7035308" lon="3.2467548">
<ele>78.72</ele>
<time>2016-10-17T07:46:43Z</time>
</trkpt>
<trkpt lat="39.7033959" lon="3.2469669">
<ele>79.23</ele>
<time>2016-10-17T07:46:48Z</time>
</trkpt>
<trkpt lat="39.7032566" lon="3.2471722">
<ele>79.01</ele>
<time>2016-10-17T07:46:53Z</time>
</trkpt>
<trkpt lat="39.7031387" lon="3.2473568">
<ele>78.73</ele>
<time>2016-10-17T07:46:58Z</time>
</trkpt>
<trkpt lat="39.7030074" lon="3.2475652">
<ele>80.80</ele>
<time>2016-10-17T07:47:03Z</time>
</trkpt>
<trkpt lat="39.7028864" lon="3.2477655">
<ele>81.96</ele>
<time>2016-10-17T07:47:08Z</time>
</trkpt>
<trkpt lat="39.7027825" lon="3.2479577">
<ele>83.68</ele>
<time>2016-10-17T07:47:13Z</time>
</trkpt>
<trkpt lat="39.7026524" lon="3.2481850">
<ele>85.71</ele>
<time>2016-10-17T07:47:19Z</time>
</trkpt>
<trkpt lat="39.7025270" lon="3.2483884">
<ele>87.02</ele>
<time>2016-10-17T07:47:24Z</time>
</trkpt>
<trkpt lat="39.7023982" lon="3.2485916">
<ele>87.78</ele>
<time>2016-10-17T07:47:29Z</time>
</trkpt>
<trkpt lat="39.7022709" lon="3.2487973">
<ele>87.61</ele>
<time>2016-10-17T07:47:34Z</time>
</trkpt>
<trkpt lat="39.7021415" lon="3.2489975">
<ele>87.42</ele>
<time>2016-10-17T07:47:39Z</time>
</trkpt>
<trkpt lat="39.7020127" lon="3.2492040">
<ele>86.96</ele>
<time>2016-10-17T07:47:44Z</time>
</trkpt>
<trkpt lat="39.7018926" lon="3.2494232">
<ele>86.59</ele>
<time>2016-10-17T07:47:49Z</time>
</trkpt>
<trkpt lat="39.7017814" lon="3.2496567">
<ele>86.79</ele>
<time>2016-10-17T07:47:54Z</time>
</trkpt>
<trkpt lat="39.7016814" lon="3.2499147">
<ele>87.59</ele>
<time>2016-10-17T07:47:59Z</time>
</trkpt>
<trkpt lat="39.7015964" lon="3.2501231">
<ele>87.14</ele>
<time>2016-10-17T07:48:03Z</time>
</trkpt>
<trkpt lat="39.7015159" lon="3.2503889">
<ele>87.15</ele>
<time>2016-10-17T07:48:08Z</time>
</trkpt>
<trkpt lat="39.7014540" lon="3.2506647">
<ele>87.63</ele>
<time>2016-10-17T07:48:13Z</time>
</trkpt>
<trkpt lat="39.7014079" lon="3.2509049">
<ele>88.12</ele>
<time>2016-10-17T07:48:17Z</time>
</trkpt>
<trkpt lat="39.7013752" lon="3.2511491">
<ele>88.03</ele>
<time>2016-10-17T07:48:21Z</time>
</trkpt>
<trkpt lat="39.7013583" lon="3.2513905">
<ele>87.73</ele>
<time>2016-10-17T07:48:25Z</time>
</trkpt>
<trkpt lat="39.7013431" lon="3.2516454">
<ele>87.25</ele>
<time>2016-10-17T07:48:29Z</time>
</trkpt>
<trkpt lat="39.7013331" lon="3.2519393">
<ele>87.01</ele>
<time>2016-10-17T07:48:34Z</time>
</trkpt>
<trkpt lat="39.7013437" lon="3.2521815">
<ele>89.34</ele>
<time>2016-10-17T07:48:38Z</time>
</trkpt>
<trkpt lat="39.7013501" lon="3.2524221">
<ele>92.31</ele>
<time>2016-10-17T07:48:42Z</time>
</trkpt>
<trkpt lat="39.7013476" lon="3.2526683">
<ele>93.20</ele>
<time>2016-10-17T07:48:46Z</time>
</trkpt>
<trkpt lat="39.7013557" lon="3.2529100">
<ele>94.25</ele>
<time>2016-10-17T07:48:50Z</time>
</trkpt>
<trkpt lat="39.7013587" lon="3.2531614">
<ele>95.75</ele>
<time>2016-10-17T07:48:54Z</time>
</trkpt>
<trkpt lat="39.7013469" lon="3.2534174">
<ele>95.98</ele>
<time>2016-10-17T07:48:58Z</time>
</trkpt>
<trkpt lat="39.7013358" lon="3.2536642">
<ele>95.52</ele>
<time>2016-10-17T07:49:02Z</time>
</trkpt>
<trkpt lat="39.7013323" lon="3.2539286">
<ele>95.70</ele>
<time>2016-10-17T07:49:06Z</time>
</trkpt>
<trkpt lat="39.7013362" lon="3.2541867">
<ele>97.14</ele>
<time>2016-10-17T07:49:10Z</time>
</trkpt>
<trkpt lat="39.7013375" lon="3.2544336">
<ele>98.94</ele>
<time>2016-10-17T07:49:14Z</time>
</trkpt>
<trkpt lat="39.7013350" lon="3.2546767">
<ele>100.73</ele>
<time>2016-10-17T07:49:18Z</time>
</trkpt>
<trkpt lat="39.7013360" lon="3.2549454">
<ele>101.87</ele>
<time>2016-10-17T07:49:22Z</time>
</trkpt>
<trkpt lat="39.7013187" lon="3.2552401">
<ele>102.74</ele>
<time>2016-10-17T07:49:27Z</time>
</trkpt>
<trkpt lat="39.7012989" lon="3.2554897">
<ele>102.58</ele>
<time>2016-10-17T07:49:31Z</time>
</trkpt>
<trkpt lat="39.7012836" lon="3.2557518">
<ele>102.37</ele>
<time>2016-10-17T07:49:35Z</time>
</trkpt>
<trkpt lat="39.7012668" lon="3.2560288">
<ele>102.01</ele>
<time>2016-10-17T07:49:39Z</time>
</trkpt>
<trkpt lat="39.7012568" lon="3.2563304">
<ele>100.88</ele>
<time>2016-10-17T07:49:43Z</time>
</trkpt>
<trkpt lat="39.7012493" lon="3.2566037">
<ele>99.61</ele>
<time>2016-10-17T07:49:47Z</time>
</trkpt>
<trkpt lat="39.7012330" lon="3.2568896">
<ele>98.28</ele>
<time>2016-10-17T07:49:51Z</time>
</trkpt>
<trkpt lat="39.7012163" lon="3.2571661">
<ele>97.05</ele>
<time>2016-10-17T07:49:55Z</time>
</trkpt>
<trkpt lat="39.7011930" lon="3.2574575">
<ele>96.89</ele>
<time>2016-10-17T07:49:59Z</time>
</trkpt>
<trkpt lat="39.7011775" lon="3.2577494">
<ele>96.22</ele>
<time>2016-10-17T07:50:03Z</time>
</trkpt>
<trkpt lat="39.7011714" lon="3.2580418">
<ele>95.78</ele>
<time>2016-10-17T07:50:07Z</time>
</trkpt>
<trkpt lat="39.7011641" lon="3.2583344">
<ele>95.00</ele>
<time>2016-10-17T07:50:11Z</time>
</trkpt>
<trkpt lat="39.7011482" lon="3.2586058">
<ele>94.77</ele>
<time>2016-10-17T07:50:15Z</time>
</trkpt>
<trkpt lat="39.7011371" lon="3.2588905">
<ele>95.26</ele>
<time>2016-10-17T07:50:19Z</time>
</trkpt>
<trkpt lat="39.7011299" lon="3.2591751">
<ele>95.21</ele>
<time>2016-10-17T07:50:23Z</time>
</trkpt>
<trkpt lat="39.7011235" lon="3.2594324">
<ele>96.04</ele>
<time>2016-10-17T07:50:27Z</time>
</trkpt>
<trkpt lat="39.7011099" lon="3.2597250">
<ele>96.58</ele>
<time>2016-10-17T07:50:31Z</time>
</trkpt>
<trkpt lat="39.7010943" lon="3.2599956">
<ele>96.98</ele>
<time>2016-10-17T07:50:35Z</time>
</trkpt>
<trkpt lat="39.7010919" lon="3.2602854">
<ele>97.83</ele>
<time>2016-10-17T07:50:39Z</time>
</trkpt>
<trkpt lat="39.7011027" lon="3.2605577">
<ele>99.50</ele>
<time>2016-10-17T07:50:43Z</time>
</trkpt>
<trkpt lat="39.7010941" lon="3.2608160">
<ele>99.64</ele>
<time>2016-10-17T07:50:47Z</time>
</trkpt>
<trkpt lat="39.7010827" lon="3.2610969">
<ele>99.10</ele>
<time>2016-10-17T07:50:51Z</time>
</trkpt>
<trkpt lat="39.7010709" lon="3.2613895">
<ele>97.17</ele>
<time>2016-10-17T07:50:55Z</time>
</trkpt>
<trkpt lat="39.7010717" lon="3.2616492">
<ele>97.96</ele>
<time>2016-10-17T07:50:59Z</time>
</trkpt>
<trkpt lat="39.7010709" lon="3.2619234">
<ele>99.06</ele>
<time>2016-10-17T07:51:03Z</time>
</trkpt>
<trkpt lat="39.7010728" lon="3.2621646">
<ele>98.63</ele>
<time>2016-10-17T07:51:06Z</time>
</trkpt>
<trkpt lat="39.7010699" lon="3.2624586">
<ele>99.24</ele>
<time>2016-10-17T07:51:10Z</time>
</trkpt>
<trkpt lat="39.7010496" lon="3.2627644">
<ele>99.44</ele>
<time>2016-10-17T07:51:14Z</time>
</trkpt>
<trkpt lat="39.7010108" lon="3.2630094">
<ele>98.95</ele>
<time>2016-10-17T07:51:17Z</time>
</trkpt>
<trkpt lat="39.7009639" lon="3.2632452">
<ele>98.04</ele>
<time>2016-10-17T07:51:20Z</time>
</trkpt>
<trkpt lat="39.7009097" lon="3.2634845">
<ele>96.73</ele>
<time>2016-10-17T07:51:23Z</time>
</trkpt>
<trkpt lat="39.7008548" lon="3.2637153">
<ele>95.60</ele>
<time>2016-10-17T07:51:26Z</time>
</trkpt>
<trkpt lat="39.7007722" lon="3.2640104">
<ele>95.11</ele>
<time>2016-10-17T07:51:30Z</time>
</trkpt>
<trkpt lat="39.7006947" lon="3.2642243">
<ele>95.66</ele>
<time>2016-10-17T07:51:33Z</time>
</trkpt>
<trkpt lat="39.7006057" lon="3.2644334">
<ele>95.92</ele>
<time>2016-10-17T07:51:36Z</time>
</trkpt>
<trkpt lat="39.7004830" lon="3.2646893">
<ele>95.80</ele>
<time>2016-10-17T07:51:40Z</time>
</trkpt>
<trkpt lat="39.7003675" lon="3.2648794">
<ele>96.11</ele>
<time>2016-10-17T07:51:43Z</time>
</trkpt>
<trkpt lat="39.7002378" lon="3.2650652">
<ele>96.41</ele>
<time>2016-10-17T07:51:46Z</time>
</trkpt>
<trkpt lat="39.7000768" lon="3.2652586">
<ele>96.56</ele>
<time>2016-10-17T07:51:50Z</time>
</trkpt>
<trkpt lat="39.6999041" lon="3.2654364">
<ele>96.84</ele>
<time>2016-10-17T07:51:54Z</time>
</trkpt>
<trkpt lat="39.6997452" lon="3.2656052">
<ele>97.55</ele>
<time>2016-10-17T07:51:58Z</time>
</trkpt>
<trkpt lat="39.6995742" lon="3.2657771">
<ele>98.53</ele>
<time>2016-10-17T07:52:02Z</time>
</trkpt>
<trkpt lat="39.6994134" lon="3.2659367">
<ele>98.50</ele>
<time>2016-10-17T07:52:06Z</time>
</trkpt>
<trkpt lat="39.6992800" lon="3.2661034">
<ele>98.25</ele>
<time>2016-10-17T07:52:10Z</time>
</trkpt>
<trkpt lat="39.6991510" lon="3.2663151">
<ele>98.11</ele>
<time>2016-10-17T07:52:15Z</time>
</trkpt>
<trkpt lat="39.6990333" lon="3.2665103">
<ele>97.88</ele>
<time>2016-10-17T07:52:19Z</time>
</trkpt>
<trkpt lat="39.6989521" lon="3.2667285">
<ele>98.88</ele>
<time>2016-10-17T07:52:24Z</time>
</trkpt>
<trkpt lat="39.6988708" lon="3.2669498">
<ele>99.65</ele>
<time>2016-10-17T07:52:29Z</time>
</trkpt>
<trkpt lat="39.6987792" lon="3.2671892">
<ele>101.87</ele>
<time>2016-10-17T07:52:34Z</time>
</trkpt>
<trkpt lat="39.6986770" lon="3.2674108">
<ele>104.60</ele>
<time>2016-10-17T07:52:39Z</time>
</trkpt>
<trkpt lat="39.6985624" lon="3.2676514">
<ele>105.45</ele>
<time>2016-10-17T07:52:44Z</time>
</trkpt>
<trkpt lat="39.6984600" lon="3.2679100">
<ele>104.77</ele>
<time>2016-10-17T07:52:49Z</time>
</trkpt>
<trkpt lat="39.6983640" lon="3.2681665">
<ele>103.75</ele>
<time>2016-10-17T07:52:54Z</time>
</trkpt>
<trkpt lat="39.6982646" lon="3.2684137">
<ele>103.81</ele>
<time>2016-10-17T07:52:59Z</time>
</trkpt>
<trkpt lat="39.6981641" lon="3.2686617">
<ele>104.04</ele>
<time>2016-10-17T07:53:04Z</time>
</trkpt>
<trkpt lat="39.6980627" lon="3.2689111">
<ele>103.87</ele>
<time>2016-10-17T07:53:09Z</time>
</trkpt>
<trkpt lat="39.6979655" lon="3.2691494">
<ele>104.41</ele>
<time>2016-10-17T07:53:14Z</time>
</trkpt>
<trkpt lat="39.6978582" lon="3.2693897">
<ele>104.77</ele>
<time>2016-10-17T07:53:19Z</time>
</trkpt>
<trkpt lat="39.6977527" lon="3.2696356">
<ele>105.25</ele>
<time>2016-10-17T07:53:24Z</time>
</trkpt>
<trkpt lat="39.6976496" lon="3.2698737">
<ele>105.99</ele>
<time>2016-10-17T07:53:29Z</time>
</trkpt>
<trkpt lat="39.6975488" lon="3.2701250">
<ele>106.76</ele>
<time>2016-10-17T07:53:34Z</time>
</trkpt>
<trkpt lat="39.6974556" lon="3.2703742">
<ele>107.50</ele>
<time>2016-10-17T07:53:39Z</time>
</trkpt>
<trkpt lat="39.6973597" lon="3.2706182">
<ele>108.20</ele>
<time>2016-10-17T07:53:44Z</time>
</trkpt>
<trkpt lat="39.6972642" lon="3.2708645">
<ele>108.65</ele>
<time>2016-10-17T07:53:49Z</time>
</trkpt>
<trkpt lat="39.6971862" lon="3.2710978">
<ele>109.42</ele>
<time>2016-10-17T07:53:54Z</time>
</trkpt>
<trkpt lat="39.6971103" lon="3.2713107">
<ele>109.91</ele>
<time>2016-10-17T07:53:58Z</time>
</trkpt>
<trkpt lat="39.6970152" lon="3.2715501">
<ele>110.73</ele>
<time>2016-10-17T07:54:03Z</time>
</trkpt>
<trkpt lat="39.6969184" lon="3.2718013">
<ele>111.37</ele>
<time>2016-10-17T07:54:08Z</time>
</trkpt>
<trkpt lat="39.6968352" lon="3.2720355">
<ele>112.34</ele>
<time>2016-10-17T07:54:13Z</time>
</trkpt>
<trkpt lat="39.6967429" lon="3.2722783">
<ele>112.83</ele>
<time>2016-10-17T07:54:18Z</time>
</trkpt>
<trkpt lat="39.6966448" lon="3.2725247">
<ele>113.57</ele>
<time>2016-10-17T07:54:23Z</time>
</trkpt>
<trkpt lat="39.6965625" lon="3.2727391">
<ele>113.88</ele>
<time>2016-10-17T07:54:27Z</time>
</trkpt>
<trkpt lat="39.6964806" lon="3.2729632">
<ele>113.81</ele>
<time>2016-10-17T07:54:31Z</time>
</trkpt>
<trkpt lat="39.6963889" lon="3.2732253">
<ele>114.13</ele>
<time>2016-10-17T07:54:36Z</time>
</trkpt>
<trkpt lat="39.6963227" lon="3.2734554">
<ele>114.01</ele>
<time>2016-10-17T07:54:40Z</time>
</trkpt>
<trkpt lat="39.6962500" lon="3.2737206">
<ele>113.85</ele>
<time>2016-10-17T07:54:45Z</time>
</trkpt>
<trkpt lat="39.6961885" lon="3.2739467">
<ele>115.43</ele>
<time>2016-10-17T07:54:49Z</time>
</trkpt>
<trkpt lat="39.6961354" lon="3.2741721">
<ele>116.71</ele>
<time>2016-10-17T07:54:53Z</time>
</trkpt>
<trkpt lat="39.6960859" lon="3.2743985">
<ele>117.85</ele>
<time>2016-10-17T07:54:57Z</time>
</trkpt>
<trkpt lat="39.6960334" lon="3.2746591">
<ele>119.41</ele>
<time>2016-10-17T07:55:02Z</time>
</trkpt>
<trkpt lat="39.6959766" lon="3.2748884">
<ele>118.49</ele>
<time>2016-10-17T07:55:06Z</time>
</trkpt>
<trkpt lat="39.6959071" lon="3.2751453">
<ele>119.04</ele>
<time>2016-10-17T07:55:11Z</time>
</trkpt>
<trkpt lat="39.6958400" lon="3.2754223">
<ele>120.36</ele>
<time>2016-10-17T07:55:16Z</time>
</trkpt>
<trkpt lat="39.6957962" lon="3.2756620">
<ele>120.07</ele>
<time>2016-10-17T07:55:20Z</time>
</trkpt>
<trkpt lat="39.6957451" lon="3.2759054">
<ele>119.68</ele>
<time>2016-10-17T07:55:24Z</time>
</trkpt>
<trkpt lat="39.6956848" lon="3.2761787">
<ele>119.82</ele>
<time>2016-10-17T07:55:29Z</time>
</trkpt>
<trkpt lat="39.6956342" lon="3.2764373">
<ele>120.86</ele>
<time>2016-10-17T07:55:34Z</time>
</trkpt>
<trkpt lat="39.6956063" lon="3.2767167">
<ele>120.85</ele>
<time>2016-10-17T07:55:39Z</time>
</trkpt>
<trkpt lat="39.6955812" lon="3.2769550">
<ele>121.26</ele>
<time>2016-10-17T07:55:43Z</time>
</trkpt>
<trkpt lat="39.6955448" lon="3.2772310">
<ele>121.05</ele>
<time>2016-10-17T07:55:48Z</time>
</trkpt>
<trkpt lat="39.6955120" lon="3.2774664">
<ele>121.01</ele>
<time>2016-10-17T07:55:52Z</time>
</trkpt>
<trkpt lat="39.6954816" lon="3.2777473">
<ele>122.47</ele>
<time>2016-10-17T07:55:57Z</time>
</trkpt>
<trkpt lat="39.6954388" lon="3.2780340">
<ele>124.44</ele>
<time>2016-10-17T07:56:02Z</time>
</trkpt>
<trkpt lat="39.6954201" lon="3.2783227">
<ele>124.85</ele>
<time>2016-10-17T07:56:07Z</time>
</trkpt>
<trkpt lat="39.6954231" lon="3.2786033">
<ele>124.95</ele>
<time>2016-10-17T07:56:12Z</time>
</trkpt>
<trkpt lat="39.6953979" lon="3.2788390">
<ele>126.44</ele>
<time>2016-10-17T07:56:16Z</time>
</trkpt>
<trkpt lat="39.6953685" lon="3.2790834">
<ele>126.95</ele>
<time>2016-10-17T07:56:20Z</time>
</trkpt>
<trkpt lat="39.6953515" lon="3.2793719">
<ele>126.91</ele>
<time>2016-10-17T07:56:25Z</time>
</trkpt>
<trkpt lat="39.6953326" lon="3.2796114">
<ele>126.94</ele>
<time>2016-10-17T07:56:29Z</time>
</trkpt>
<trkpt lat="39.6953091" lon="3.2798583">
<ele>126.70</ele>
<time>2016-10-17T07:56:33Z</time>
</trkpt>
<trkpt lat="39.6952696" lon="3.2801101">
<ele>126.53</ele>
<time>2016-10-17T07:56:37Z</time>
</trkpt>
<trkpt lat="39.6952371" lon="3.2803675">
<ele>125.88</ele>
<time>2016-10-17T07:56:41Z</time>
</trkpt>
<trkpt lat="39.6952115" lon="3.2806112">
<ele>125.81</ele>
<time>2016-10-17T07:56:45Z</time>
</trkpt>
<trkpt lat="39.6951783" lon="3.2808559">
<ele>126.55</ele>
<time>2016-10-17T07:56:49Z</time>
</trkpt>
<trkpt lat="39.6951458" lon="3.2811008">
<ele>127.26</ele>
<time>2016-10-17T07:56:53Z</time>
</trkpt>
<trkpt lat="39.6951163" lon="3.2813444">
<ele>127.58</ele>
<time>2016-10-17T07:56:57Z</time>
</trkpt>
<trkpt lat="39.6950853" lon="3.2816112">
<ele>127.76</ele>
<time>2016-10-17T07:57:02Z</time>
</trkpt>
<trkpt lat="39.6950390" lon="3.2818955">
<ele>128.81</ele>
<time>2016-10-17T07:57:07Z</time>
</trkpt>
<trkpt lat="39.6949939" lon="3.2821469">
<ele>127.78</ele>
<time>2016-10-17T07:57:11Z</time>
</trkpt>
<trkpt lat="39.6949441" lon="3.2824222">
<ele>126.58</ele>
<time>2016-10-17T07:57:16Z</time>
</trkpt>
<trkpt lat="39.6948880" lon="3.2826937">
<ele>125.95</ele>
<time>2016-10-17T07:57:21Z</time>
</trkpt>
<trkpt lat="39.6948443" lon="3.2829579">
<ele>127.24</ele>
<time>2016-10-17T07:57:26Z</time>
</trkpt>
<trkpt lat="39.6947999" lon="3.2831899">
<ele>128.36</ele>
<time>2016-10-17T07:57:30Z</time>
</trkpt>
<trkpt lat="39.6947473" lon="3.2834480">
<ele>130.20</ele>
<time>2016-10-17T07:57:35Z</time>
</trkpt>
<trkpt lat="39.6946879" lon="3.2836822">
<ele>130.65</ele>
<time>2016-10-17T07:57:40Z</time>
</trkpt>
<trkpt lat="39.6946228" lon="3.2839492">
<ele>129.59</ele>
<time>2016-10-17T07:57:45Z</time>
</trkpt>
<trkpt lat="39.6945596" lon="3.2841846">
<ele>130.69</ele>
<time>2016-10-17T07:57:50Z</time>
</trkpt>
<trkpt lat="39.6944953" lon="3.2844337">
<ele>131.40</ele>
<time>2016-10-17T07:57:56Z</time>
</trkpt>
<trkpt lat="39.6944232" lon="3.2846666">
<ele>132.06</ele>
<time>2016-10-17T07:58:01Z</time>
</trkpt>
<trkpt lat="39.6943476" lon="3.2849054">
<ele>132.59</ele>
<time>2016-10-17T07:58:06Z</time>
</trkpt>
<trkpt lat="39.6942629" lon="3.2851533">
<ele>133.15</ele>
<time>2016-10-17T07:58:13Z</time>
</trkpt>
<trkpt lat="39.6941638" lon="3.2853928">
<ele>133.89</ele>
<time>2016-10-17T07:58:20Z</time>
</trkpt>
<trkpt lat="39.6940916" lon="3.2856326">
<ele>134.90</ele>
<time>2016-10-17T07:58:27Z</time>
</trkpt>
<trkpt lat="39.6940115" lon="3.2858817">
<ele>135.89</ele>
<time>2016-10-17T07:58:34Z</time>
</trkpt>
<trkpt lat="39.6939539" lon="3.2861319">
<ele>137.32</ele>
<time>2016-10-17T07:58:43Z</time>
</trkpt>
<trkpt lat="39.6938843" lon="3.2863529">
<ele>138.10</ele>
<time>2016-10-17T07:58:49Z</time>
</trkpt>
<trkpt lat="39.6938063" lon="3.2865727">
<ele>138.93</ele>
<time>2016-10-17T07:58:55Z</time>
</trkpt>
<trkpt lat="39.6937132" lon="3.2868052">
<ele>139.48</ele>
<time>2016-10-17T07:59:02Z</time>
</trkpt>
<trkpt lat="39.6936295" lon="3.2870216">
<ele>139.95</ele>
<time>2016-10-17T07:59:08Z</time>
</trkpt>
<trkpt lat="39.6935455" lon="3.2872558">
<ele>140.73</ele>
<time>2016-10-17T07:59:15Z</time>
</trkpt>
<trkpt lat="39.6934604" lon="3.2874919">
<ele>141.84</ele>
<time>2016-10-17T07:59:22Z</time>
</trkpt>
<trkpt lat="39.6933864" lon="3.2877168">
<ele>143.37</ele>
<time>2016-10-17T07:59:29Z</time>
</trkpt>
<trkpt lat="39.6933084" lon="3.2879416">
<ele>144.32</ele>
<time>2016-10-17T07:59:35Z</time>
</trkpt>
<trkpt lat="39.6932188" lon="3.2881853">
<ele>144.93</ele>
<time>2016-10-17T07:59:42Z</time>
</trkpt>
<trkpt lat="39.6931443" lon="3.2884230">
<ele>145.33</ele>
<time>2016-10-17T07:59:49Z</time>
</trkpt>
<trkpt lat="39.6930544" lon="3.2886610">
<ele>146.15</ele>
<time>2016-10-17T07:59:56Z</time>
</trkpt>
<trkpt lat="39.6929764" lon="3.2889082">
<ele>147.37</ele>
<time>2016-10-17T08:00:04Z</time>
</trkpt>
<trkpt lat="39.6929043" lon="3.2891473">
<ele>148.41</ele>
<time>2016-10-17T08:00:11Z</time>
</trkpt>
<trkpt lat="39.6928310" lon="3.2893945">
<ele>149.67</ele>
<time>2016-10-17T08:00:19Z</time>
</trkpt>
<trkpt lat="39.6927462" lon="3.2896190">
<ele>151.32</ele>
<time>2016-10-17T08:00:26Z</time>
</trkpt>
<trkpt lat="39.6926707" lon="3.2898516">
<ele>152.83</ele>
<time>2016-10-17T08:00:33Z</time>
</trkpt>
<trkpt lat="39.6926017" lon="3.2900937">
<ele>154.36</ele>
<time>2016-10-17T08:00:40Z</time>
</trkpt>
<trkpt lat="39.6925497" lon="3.2903346">
<ele>155.85</ele>
<time>2016-10-17T08:00:48Z</time>
</trkpt>
<trkpt lat="39.6925090" lon="3.2906003">
<ele>157.65</ele>
<time>2016-10-17T08:00:56Z</time>
</trkpt>
<trkpt lat="39.6924689" lon="3.2908569">
<ele>159.28</ele>
<time>2016-10-17T08:01:04Z</time>
</trkpt>
<trkpt lat="39.6924482" lon="3.2911066">
<ele>160.78</ele>
<time>2016-10-17T08:01:11Z</time>
</trkpt>
<trkpt lat="39.6924395" lon="3.2913532">
<ele>162.52</ele>
<time>2016-10-17T08:01:18Z</time>
</trkpt>
<trkpt lat="39.6924302" lon="3.2916147">
<ele>164.34</ele>
<time>2016-10-17T08:01:25Z</time>
</trkpt>
<trkpt lat="39.6924248" lon="3.2918810">
<ele>166.33</ele>
<time>2016-10-17T08:01:33Z</time>
</trkpt>
<trkpt lat="39.6924699" lon="3.2921296">
<ele>167.84</ele>
<time>2016-10-17T08:01:40Z</time>
</trkpt>
<trkpt lat="39.6925247" lon="3.2923583">
<ele>169.53</ele>
<time>2016-10-17T08:01:46Z</time>
</trkpt>
<trkpt lat="39.6925508" lon="3.2926141">
<ele>171.69</ele>
<time>2016-10-17T08:01:53Z</time>
</trkpt>
<trkpt lat="39.6925544" lon="3.2928677">
<ele>173.92</ele>
<time>2016-10-17T08:02:01Z</time>
</trkpt>
<trkpt lat="39.6925409" lon="3.2931143">
<ele>175.79</ele>
<time>2016-10-17T08:02:08Z</time>
</trkpt>
<trkpt lat="39.6925796" lon="3.2933614">
<ele>177.03</ele>
<time>2016-10-17T08:02:15Z</time>
</trkpt>
<trkpt lat="39.6926314" lon="3.2936179">
<ele>177.96</ele>
<time>2016-10-17T08:02:22Z</time>
</trkpt>
<trkpt lat="39.6926685" lon="3.2938603">
<ele>178.62</ele>
<time>2016-10-17T08:02:29Z</time>
</trkpt>
<trkpt lat="39.6927140" lon="3.2941114">
<ele>179.25</ele>
<time>2016-10-17T08:02:36Z</time>
</trkpt>
<trkpt lat="39.6927620" lon="3.2943611">
<ele>179.99</ele>
<time>2016-10-17T08:02:45Z</time>
</trkpt>
<trkpt lat="39.6928078" lon="3.2946122">
<ele>181.22</ele>
<time>2016-10-17T08:02:53Z</time>
</trkpt>
<trkpt lat="39.6928624" lon="3.2948577">
<ele>182.33</ele>
<time>2016-10-17T08:03:01Z</time>
</trkpt>
<trkpt lat="39.6929321" lon="3.2950874">
<ele>183.83</ele>
<time>2016-10-17T08:03:09Z</time>
</trkpt>
<trkpt lat="39.6929949" lon="3.2953320">
<ele>185.04</ele>
<time>2016-10-17T08:03:17Z</time>
</trkpt>
<trkpt lat="39.6930422" lon="3.2955656">
<ele>186.17</ele>
<time>2016-10-17T08:03:24Z</time>
</trkpt>
<trkpt lat="39.6931293" lon="3.2958091">
<ele>187.43</ele>
<time>2016-10-17T08:03:31Z</time>
</trkpt>
<trkpt lat="39.6931868" lon="3.2960750">
<ele>190.49</ele>
<time>2016-10-17T08:03:37Z</time>
</trkpt>
<trkpt lat="39.6932388" lon="3.2963188">
<ele>196.37</ele>
<time>2016-10-17T08:03:41Z</time>
</trkpt>
<trkpt lat="39.6932899" lon="3.2965836">
<ele>198.59</ele>
<time>2016-10-17T08:03:45Z</time>
</trkpt>
<trkpt lat="39.6933373" lon="3.2968476">
<ele>198.73</ele>
<time>2016-10-17T08:03:49Z</time>
</trkpt>
<trkpt lat="39.6933710" lon="3.2970836">
<ele>198.67</ele>
<time>2016-10-17T08:03:52Z</time>
</trkpt>
<trkpt lat="39.6934061" lon="3.2973211">
<ele>196.42</ele>
<time>2016-10-17T08:03:55Z</time>
</trkpt>
<trkpt lat="39.6934478" lon="3.2975783">
<ele>194.56</ele>
<time>2016-10-17T08:03:58Z</time>
</trkpt>
<trkpt lat="39.6934815" lon="3.2978202">
<ele>193.50</ele>
<time>2016-10-17T08:04:01Z</time>
</trkpt>
<trkpt lat="39.6935103" lon="3.2980892">
<ele>193.57</ele>
<time>2016-10-17T08:04:04Z</time>
</trkpt>
<trkpt lat="39.6935500" lon="3.2983624">
<ele>192.49</ele>
<time>2016-10-17T08:04:07Z</time>
</trkpt>
<trkpt lat="39.6935942" lon="3.2986367">
<ele>192.15</ele>
<time>2016-10-17T08:04:10Z</time>
</trkpt>
<trkpt lat="39.6936405" lon="3.2989485">
<ele>190.31</ele>
<time>2016-10-17T08:04:13Z</time>
</trkpt>
<trkpt lat="39.6936791" lon="3.2992380">
<ele>188.35</ele>
<time>2016-10-17T08:04:16Z</time>
</trkpt>
<trkpt lat="39.6937137" lon="3.2995352">
<ele>187.13</ele>
<time>2016-10-17T08:04:19Z</time>
</trkpt>
<trkpt lat="39.6937475" lon="3.2998645">
<ele>185.42</ele>
<time>2016-10-17T08:04:22Z</time>
</trkpt>
<trkpt lat="39.6937878" lon="3.3001816">
<ele>184.11</ele>
<time>2016-10-17T08:04:25Z</time>
</trkpt>
<trkpt lat="39.6938256" lon="3.3004888">
<ele>183.30</ele>
<time>2016-10-17T08:04:28Z</time>
</trkpt>
<trkpt lat="39.6938672" lon="3.3008044">
<ele>182.56</ele>
<time>2016-10-17T08:04:31Z</time>
</trkpt>
<trkpt lat="39.6939145" lon="3.3011100">
<ele>181.84</ele>
<time>2016-10-17T08:04:34Z</time>
</trkpt>
<trkpt lat="39.6939573" lon="3.3014223">
<ele>181.32</ele>
<time>2016-10-17T08:04:37Z</time>
</trkpt>
<trkpt lat="39.6940012" lon="3.3017069">
<ele>181.28</ele>
<time>2016-10-17T08:04:40Z</time>
</trkpt>
<trkpt lat="39.6940498" lon="3.3020230">
<ele>180.30</ele>
<time>2016-10-17T08:04:43Z</time>
</trkpt>
<trkpt lat="39.6940980" lon="3.3023278">
<ele>179.85</ele>
<time>2016-10-17T08:04:46Z</time>
</trkpt>
<trkpt lat="39.6941482" lon="3.3026476">
<ele>181.17</ele>
<time>2016-10-17T08:04:49Z</time>
</trkpt>
<trkpt lat="39.6941937" lon="3.3029558">
<ele>182.31</ele>
<time>2016-10-17T08:04:52Z</time>
</trkpt>
<trkpt lat="39.6942376" lon="3.3032727">
<ele>182.90</ele>
<time>2016-10-17T08:04:55Z</time>
</trkpt>
<trkpt lat="39.6942685" lon="3.3035824">
<ele>182.98</ele>
<time>2016-10-17T08:04:58Z</time>
</trkpt>
<trkpt lat="39.6942791" lon="3.3038653">
<ele>182.31</ele>
<time>2016-10-17T08:05:01Z</time>
</trkpt>
<trkpt lat="39.6942791" lon="3.3041450">
<ele>180.25</ele>
<time>2016-10-17T08:05:04Z</time>
</trkpt>
<trkpt lat="39.6942786" lon="3.3044423">
<ele>178.72</ele>
<time>2016-10-17T08:05:07Z</time>
</trkpt>
<trkpt lat="39.6942764" lon="3.3047432">
<ele>178.13</ele>
<time>2016-10-17T08:05:10Z</time>
</trkpt>
<trkpt lat="39.6942654" lon="3.3050518">
<ele>178.61</ele>
<time>2016-10-17T08:05:13Z</time>
</trkpt>
<trkpt lat="39.6942546" lon="3.3053738">
<ele>178.05</ele>
<time>2016-10-17T08:05:16Z</time>
</trkpt>
<trkpt lat="39.6942400" lon="3.3056966">
<ele>176.99</ele>
<time>2016-10-17T08:05:19Z</time>
</trkpt>
<trkpt lat="39.6942165" lon="3.3060089">
<ele>175.78</ele>
<time>2016-10-17T08:05:22Z</time>
</trkpt>
<trkpt lat="39.6941802" lon="3.3063181">
<ele>174.73</ele>
<time>2016-10-17T08:05:25Z</time>
</trkpt>
<trkpt lat="39.6941379" lon="3.3066278">
<ele>173.52</ele>
<time>2016-10-17T08:05:28Z</time>
</trkpt>
<trkpt lat="39.6940983" lon="3.3069463">
<ele>171.32</ele>
<time>2016-10-17T08:05:31Z</time>
</trkpt>
<trkpt lat="39.6940533" lon="3.3072337">
<ele>169.99</ele>
<time>2016-10-17T08:05:34Z</time>
</trkpt>
<trkpt lat="39.6939943" lon="3.3075331">
<ele>169.73</ele>
<time>2016-10-17T08:05:37Z</time>
</trkpt>
<trkpt lat="39.6939369" lon="3.3078240">
<ele>169.65</ele>
<time>2016-10-17T08:05:40Z</time>
</trkpt>
<trkpt lat="39.6938705" lon="3.3081180">
<ele>169.43</ele>
<time>2016-10-17T08:05:43Z</time>
</trkpt>
<trkpt lat="39.6938046" lon="3.3083923">
<ele>168.96</ele>
<time>2016-10-17T08:05:46Z</time>
</trkpt>
<trkpt lat="39.6937475" lon="3.3086727">
<ele>168.60</ele>
<time>2016-10-17T08:05:49Z</time>
</trkpt>
<trkpt lat="39.6936859" lon="3.3089421">
<ele>169.25</ele>
<time>2016-10-17T08:05:52Z</time>
</trkpt>
<trkpt lat="39.6936275" lon="3.3092294">
<ele>169.89</ele>
<time>2016-10-17T08:05:55Z</time>
</trkpt>
<trkpt lat="39.6935686" lon="3.3094950">
<ele>170.51</ele>
<time>2016-10-17T08:05:58Z</time>
</trkpt>
<trkpt lat="39.6935070" lon="3.3097552">
<ele>171.59</ele>
<time>2016-10-17T08:06:01Z</time>
</trkpt>
<trkpt lat="39.6934447" lon="3.3100195">
<ele>171.26</ele>
<time>2016-10-17T08:06:04Z</time>
</trkpt>
<trkpt lat="39.6933877" lon="3.3102684">
<ele>172.17</ele>
<time>2016-10-17T08:06:07Z</time>
</trkpt>
<trkpt lat="39.6933387" lon="3.3104963">
<ele>172.58</ele>
<time>2016-10-17T08:06:10Z</time>
</trkpt>
<trkpt lat="39.6932866" lon="3.3107457">
<ele>171.90</ele>
<time>2016-10-17T08:06:13Z</time>
</trkpt>
<trkpt lat="39.6932256" lon="3.3110435">
<ele>171.51</ele>
<time>2016-10-17T08:06:17Z</time>
</trkpt>
<trkpt lat="39.6931561" lon="3.3113200">
<ele>170.66</ele>
<time>2016-10-17T08:06:21Z</time>
</trkpt>
<trkpt lat="39.6931011" lon="3.3115793">
<ele>171.50</ele>
<time>2016-10-17T08:06:25Z</time>
</trkpt>
<trkpt lat="39.6930415" lon="3.3118689">
<ele>171.23</ele>
<time>2016-10-17T08:06:29Z</time>
</trkpt>
<trkpt lat="39.6929958" lon="3.3121482">
<ele>170.95</ele>
<time>2016-10-17T08:06:33Z</time>
</trkpt>
<trkpt lat="39.6929587" lon="3.3123985">
<ele>171.68</ele>
<time>2016-10-17T08:06:37Z</time>
</trkpt>
<trkpt lat="39.6929205" lon="3.3126715">
<ele>172.35</ele>
<time>2016-10-17T08:06:41Z</time>
</trkpt>
<trkpt lat="39.6929032" lon="3.3129467">
<ele>172.91</ele>
<time>2016-10-17T08:06:45Z</time>
</trkpt>
<trkpt lat="39.6928862" lon="3.3132256">
<ele>173.97</ele>
<time>2016-10-17T08:06:49Z</time>
</trkpt>
<trkpt lat="39.6928866" lon="3.3135208">
<ele>174.59</ele>
<time>2016-10-17T08:06:53Z</time>
</trkpt>
<trkpt lat="39.6928971" lon="3.3137788">
<ele>174.67</ele>
<time>2016-10-17T08:06:57Z</time>
</trkpt>
<trkpt lat="39.6929072" lon="3.3140596">
<ele>176.55</ele>
<time>2016-10-17T08:07:01Z</time>
</trkpt>
<trkpt lat="39.6929253" lon="3.3143750">
<ele>175.89</ele>
<time>2016-10-17T08:07:05Z</time>
</trkpt>
<trkpt lat="39.6929483" lon="3.3146798">
<ele>175.39</ele>
<time>2016-10-17T08:07:09Z</time>
</trkpt>
<trkpt lat="39.6929623" lon="3.3149161">
<ele>174.59</ele>
<time>2016-10-17T08:07:12Z</time>
</trkpt>
<trkpt lat="39.6929784" lon="3.3151540">
<ele>174.38</ele>
<time>2016-10-17T08:07:15Z</time>
</trkpt>
<trkpt lat="39.6930032" lon="3.3153928">
<ele>174.66</ele>
<time>2016-10-17T08:07:18Z</time>
</trkpt>
<trkpt lat="39.6930353" lon="3.3156254">
<ele>175.27</ele>
<time>2016-10-17T08:07:21Z</time>
</trkpt>
<trkpt lat="39.6930711" lon="3.3159170">
<ele>177.33</ele>
<time>2016-10-17T08:07:25Z</time>
</trkpt>
<trkpt lat="39.6931076" lon="3.3161853">
<ele>177.84</ele>
<time>2016-10-17T08:07:28Z</time>
</trkpt>
<trkpt lat="39.6931438" lon="3.3164379">
<ele>177.48</ele>
<time>2016-10-17T08:07:31Z</time>
</trkpt>
<trkpt lat="39.6931769" lon="3.3167326">
<ele>176.73</ele>
<time>2016-10-17T08:07:34Z</time>
</trkpt>
<trkpt lat="39.6931893" lon="3.3170060">
<ele>174.59</ele>
<time>2016-10-17T08:07:37Z</time>
</trkpt>
<trkpt lat="39.6931991" lon="3.3172780">
<ele>173.91</ele>
<time>2016-10-17T08:07:40Z</time>
</trkpt>
<trkpt lat="39.6932053" lon="3.3175741">
<ele>174.81</ele>
<time>2016-10-17T08:07:43Z</time>
</trkpt>
<trkpt lat="39.6932066" lon="3.3178872">
<ele>174.83</ele>
<time>2016-10-17T08:07:46Z</time>
</trkpt>
<trkpt lat="39.6932019" lon="3.3181984">
<ele>173.25</ele>
<time>2016-10-17T08:07:49Z</time>
</trkpt>
<trkpt lat="39.6931820" lon="3.3185064">
<ele>171.06</ele>
<time>2016-10-17T08:07:52Z</time>
</trkpt>
<trkpt lat="39.6931461" lon="3.3187818">
<ele>169.18</ele>
<time>2016-10-17T08:07:55Z</time>
</trkpt>
<trkpt lat="39.6930988" lon="3.3190805">
<ele>168.24</ele>
<time>2016-10-17T08:07:58Z</time>
</trkpt>
<trkpt lat="39.6930467" lon="3.3193634">
<ele>167.47</ele>
<time>2016-10-17T08:08:01Z</time>
</trkpt>
<trkpt lat="39.6929840" lon="3.3196583">
<ele>166.76</ele>
<time>2016-10-17T08:08:04Z</time>
</trkpt>
<trkpt lat="39.6929142" lon="3.3199457">
<ele>166.06</ele>
<time>2016-10-17T08:08:07Z</time>
</trkpt>
<trkpt lat="39.6928306" lon="3.3202485">
<ele>165.18</ele>
<time>2016-10-17T08:08:10Z</time>
</trkpt>
<trkpt lat="39.6927485" lon="3.3205360">
<ele>164.16</ele>
<time>2016-10-17T08:08:13Z</time>
</trkpt>
<trkpt lat="39.6926667" lon="3.3208235">
<ele>163.41</ele>
<time>2016-10-17T08:08:16Z</time>
</trkpt>
<trkpt lat="39.6925911" lon="3.3211081">
<ele>163.28</ele>
<time>2016-10-17T08:08:19Z</time>
</trkpt>
<trkpt lat="39.6925166" lon="3.3213872">
<ele>162.38</ele>
<time>2016-10-17T08:08:22Z</time>
</trkpt>
<trkpt lat="39.6924449" lon="3.3216739">
<ele>161.70</ele>
<time>2016-10-17T08:08:25Z</time>
</trkpt>
<trkpt lat="39.6923700" lon="3.3219672">
<ele>162.40</ele>
<time>2016-10-17T08:08:28Z</time>
</trkpt>
<trkpt lat="39.6922922" lon="3.3222608">
<ele>163.83</ele>
<time>2016-10-17T08:08:31Z</time>
</trkpt>
<trkpt lat="39.6922221" lon="3.3225451">
<ele>164.84</ele>
<time>2016-10-17T08:08:34Z</time>
</trkpt>
<trkpt lat="39.6921514" lon="3.3228368">
<ele>164.74</ele>
<time>2016-10-17T08:08:37Z</time>
</trkpt>
<trkpt lat="39.6920781" lon="3.3231187">
<ele>164.56</ele>
<time>2016-10-17T08:08:40Z</time>
</trkpt>
<trkpt lat="39.6920093" lon="3.3233823">
<ele>164.14</ele>
<time>2016-10-17T08:08:43Z</time>
</trkpt>
<trkpt lat="39.6919353" lon="3.3236534">
<ele>163.53</ele>
<time>2016-10-17T08:08:46Z</time>
</trkpt>
<trkpt lat="39.6918629" lon="3.3239174">
<ele>162.99</ele>
<time>2016-10-17T08:08:49Z</time>
</trkpt>
<trkpt lat="39.6917918" lon="3.3241813">
<ele>162.15</ele>
<time>2016-10-17T08:08:52Z</time>
</trkpt>
<trkpt lat="39.6917209" lon="3.3244391">
<ele>161.34</ele>
<time>2016-10-17T08:08:55Z</time>
</trkpt>
<trkpt lat="39.6916471" lon="3.3246899">
<ele>160.15</ele>
<time>2016-10-17T08:08:58Z</time>
</trkpt>
<trkpt lat="39.6915763" lon="3.3249401">
<ele>159.15</ele>
<time>2016-10-17T08:09:01Z</time>
</trkpt>
<trkpt lat="39.6915059" lon="3.3252018">
<ele>158.46</ele>
<time>2016-10-17T08:09:04Z</time>
</trkpt>
<trkpt lat="39.6914391" lon="3.3254603">
<ele>158.90</ele>
<time>2016-10-17T08:09:07Z</time>
</trkpt>
<trkpt lat="39.6913697" lon="3.3257308">
<ele>159.54</ele>
<time>2016-10-17T08:09:10Z</time>
</trkpt>
<trkpt lat="39.6913013" lon="3.3259948">
<ele>160.53</ele>
<time>2016-10-17T08:09:13Z</time>
</trkpt>
<trkpt lat="39.6912329" lon="3.3262385">
<ele>160.75</ele>
<time>2016-10-17T08:09:16Z</time>
</trkpt>
<trkpt lat="39.6911619" lon="3.3264846">
<ele>159.85</ele>
<time>2016-10-17T08:09:19Z</time>
</trkpt>
<trkpt lat="39.6910921" lon="3.3267291">
<ele>159.23</ele>
<time>2016-10-17T08:09:22Z</time>
</trkpt>
<trkpt lat="39.6910216" lon="3.3269925">
<ele>158.81</ele>
<time>2016-10-17T08:09:25Z</time>
</trkpt>
<trkpt lat="39.6909527" lon="3.3272619">
<ele>158.53</ele>
<time>2016-10-17T08:09:28Z</time>
</trkpt>
<trkpt lat="39.6908849" lon="3.3275303">
<ele>157.61</ele>
<time>2016-10-17T08:09:31Z</time>
</trkpt>
<trkpt lat="39.6908198" lon="3.3277986">
<ele>157.18</ele>
<time>2016-10-17T08:09:34Z</time>
</trkpt>
<trkpt lat="39.6907437" lon="3.3280778">
<ele>157.39</ele>
<time>2016-10-17T08:09:37Z</time>
</trkpt>
<trkpt lat="39.6906524" lon="3.3283864">
<ele>158.39</ele>
<time>2016-10-17T08:09:40Z</time>
</trkpt>
<trkpt lat="39.6905707" lon="3.3286849">
<ele>159.54</ele>
<time>2016-10-17T08:09:43Z</time>
</trkpt>
<trkpt lat="39.6904999" lon="3.3289690">
<ele>159.67</ele>
<time>2016-10-17T08:09:46Z</time>
</trkpt>
<trkpt lat="39.6904297" lon="3.3292391">
<ele>159.09</ele>
<time>2016-10-17T08:09:49Z</time>
</trkpt>
<trkpt lat="39.6903478" lon="3.3295118">
<ele>158.32</ele>
<time>2016-10-17T08:09:52Z</time>
</trkpt>
<trkpt lat="39.6902580" lon="3.3297761">
<ele>157.11</ele>
<time>2016-10-17T08:09:55Z</time>
</trkpt>
<trkpt lat="39.6901667" lon="3.3300482">
<ele>156.06</ele>
<time>2016-10-17T08:09:58Z</time>
</trkpt>
<trkpt lat="39.6900768" lon="3.3303075">
<ele>155.04</ele>
<time>2016-10-17T08:10:01Z</time>
</trkpt>
<trkpt lat="39.6899789" lon="3.3305563">
<ele>154.91</ele>
<time>2016-10-17T08:10:04Z</time>
</trkpt>
<trkpt lat="39.6898756" lon="3.3308043">
<ele>153.82</ele>
<time>2016-10-17T08:10:07Z</time>
</trkpt>
<trkpt lat="39.6897651" lon="3.3310498">
<ele>152.70</ele>
<time>2016-10-17T08:10:10Z</time>
</trkpt>
<trkpt lat="39.6896578" lon="3.3312812">
<ele>152.09</ele>
<time>2016-10-17T08:10:13Z</time>
</trkpt>
<trkpt lat="39.6895363" lon="3.3315161">
<ele>152.75</ele>
<time>2016-10-17T08:10:16Z</time>
</trkpt>
<trkpt lat="39.6894148" lon="3.3317343">
<ele>152.80</ele>
<time>2016-10-17T08:10:19Z</time>
</trkpt>
<trkpt lat="39.6893015" lon="3.3319398">
<ele>151.60</ele>
<time>2016-10-17T08:10:22Z</time>
</trkpt>
<trkpt lat="39.6891942" lon="3.3321414">
<ele>150.04</ele>
<time>2016-10-17T08:10:25Z</time>
</trkpt>
<trkpt lat="39.6890825" lon="3.3323577">
<ele>148.35</ele>
<time>2016-10-17T08:10:28Z</time>
</trkpt>
<trkpt lat="39.6889759" lon="3.3325617">
<ele>147.40</ele>
<time>2016-10-17T08:10:31Z</time>
</trkpt>
<trkpt lat="39.6888702" lon="3.3327883">
<ele>148.54</ele>
<time>2016-10-17T08:10:34Z</time>
</trkpt>
<trkpt lat="39.6887753" lon="3.3330208">
<ele>149.05</ele>
<time>2016-10-17T08:10:37Z</time>
</trkpt>
<trkpt lat="39.6886906" lon="3.3332578">
<ele>149.34</ele>
<time>2016-10-17T08:10:40Z</time>
</trkpt>
<trkpt lat="39.6886252" lon="3.3334998">
<ele>149.29</ele>
<time>2016-10-17T08:10:43Z</time>
</trkpt>
<trkpt lat="39.6885662" lon="3.3337573">
<ele>149.86</ele>
<time>2016-10-17T08:10:46Z</time>
</trkpt>
<trkpt lat="39.6885295" lon="3.3340141">
<ele>149.86</ele>
<time>2016-10-17T08:10:49Z</time>
</trkpt>
<trkpt lat="39.6885170" lon="3.3343052">
<ele>149.34</ele>
<time>2016-10-17T08:10:52Z</time>
</trkpt>
<trkpt lat="39.6885207" lon="3.3346043">
<ele>148.81</ele>
<time>2016-10-17T08:10:55Z</time>
</trkpt>
<trkpt lat="39.6885629" lon="3.3348885">
<ele>147.83</ele>
<time>2016-10-17T08:10:58Z</time>
</trkpt>
<trkpt lat="39.6886450" lon="3.3351693">
<ele>147.71</ele>
<time>2016-10-17T08:11:01Z</time>
</trkpt>
<trkpt lat="39.6887293" lon="3.3354527">
<ele>147.79</ele>
<time>2016-10-17T08:11:04Z</time>
</trkpt>
<trkpt lat="39.6888286" lon="3.3357176">
<ele>147.60</ele>
<time>2016-10-17T08:11:07Z</time>
</trkpt>
<trkpt lat="39.6889503" lon="3.3359773">
<ele>147.09</ele>
<time>2016-10-17T08:11:10Z</time>
</trkpt>
<trkpt lat="39.6890894" lon="3.3362352">
<ele>146.27</ele>
<time>2016-10-17T08:11:13Z</time>
</trkpt>
<trkpt lat="39.6892279" lon="3.3364915">
<ele>146.42</ele>
<time>2016-10-17T08:11:16Z</time>
</trkpt>
<trkpt lat="39.6893727" lon="3.3367405">
<ele>147.47</ele>
<time>2016-10-17T08:11:19Z</time>
</trkpt>
<trkpt lat="39.6895070" lon="3.3369896">
<ele>147.75</ele>
<time>2016-10-17T08:11:22Z</time>
</trkpt>
<trkpt lat="39.6896444" lon="3.3372655">
<ele>146.55</ele>
<time>2016-10-17T08:11:24Z</time>
</trkpt>
<trkpt lat="39.6897705" lon="3.3375399">
<ele>145.08</ele>
<time>2016-10-17T08:11:27Z</time>
</trkpt>
<trkpt lat="39.6898848" lon="3.3378494">
<ele>143.32</ele>
<time>2016-10-17T08:11:30Z</time>
</trkpt>
<trkpt lat="39.6899785" lon="3.3381459">
<ele>141.87</ele>
<time>2016-10-17T08:11:33Z</time>
</trkpt>
<trkpt lat="39.6900694" lon="3.3384627">
<ele>140.05</ele>
<time>2016-10-17T08:11:36Z</time>
</trkpt>
<trkpt lat="39.6901552" lon="3.3387600">
<ele>138.76</ele>
<time>2016-10-17T08:11:39Z</time>
</trkpt>
<trkpt lat="39.6902453" lon="3.3390514">
<ele>137.81</ele>
<time>2016-10-17T08:11:42Z</time>
</trkpt>
<trkpt lat="39.6903361" lon="3.3393499">
<ele>136.86</ele>
<time>2016-10-17T08:11:45Z</time>
</trkpt>
<trkpt lat="39.6904282" lon="3.3396726">
<ele>136.12</ele>
<time>2016-10-17T08:11:48Z</time>
</trkpt>
<trkpt lat="39.6904936" lon="3.3399048">
<ele>135.29</ele>
<time>2016-10-17T08:11:50Z</time>
</trkpt>
<trkpt lat="39.6905642" lon="3.3401493">
<ele>133.87</ele>
<time>2016-10-17T08:11:52Z</time>
</trkpt>
<trkpt lat="39.6906336" lon="3.3404029">
<ele>132.04</ele>
<time>2016-10-17T08:11:54Z</time>
</trkpt>
<trkpt lat="39.6907089" lon="3.3406814">
<ele>129.92</ele>
<time>2016-10-17T08:11:56Z</time>
</trkpt>
<trkpt lat="39.6907865" lon="3.3409724">
<ele>127.94</ele>
<time>2016-10-17T08:11:58Z</time>
</trkpt>
<trkpt lat="39.6908623" lon="3.3412616">
<ele>126.52</ele>
<time>2016-10-17T08:12:00Z</time>
</trkpt>
<trkpt lat="39.6909312" lon="3.3415311">
<ele>125.16</ele>
<time>2016-10-17T08:12:02Z</time>
</trkpt>
<trkpt lat="39.6909967" lon="3.3417840">
<ele>125.16</ele>
<time>2016-10-17T08:12:04Z</time>
</trkpt>
<trkpt lat="39.6910557" lon="3.3420443">
<ele>126.34</ele>
<time>2016-10-17T08:12:06Z</time>
</trkpt>
<trkpt lat="39.6911143" lon="3.3422995">
<ele>126.84</ele>
<time>2016-10-17T08:12:08Z</time>
</trkpt>
<trkpt lat="39.6911559" lon="3.3425372">
<ele>126.15</ele>
<time>2016-10-17T08:12:10Z</time>
</trkpt>
<trkpt lat="39.6911325" lon="3.3428329">
<ele>125.43</ele>
<time>2016-10-17T08:12:13Z</time>
</trkpt>
<trkpt lat="39.6910738" lon="3.3430606">
<ele>125.12</ele>
<time>2016-10-17T08:12:16Z</time>
</trkpt>
<trkpt lat="39.6911212" lon="3.3433560">
<ele>125.35</ele>
<time>2016-10-17T08:12:20Z</time>
</trkpt>
<trkpt lat="39.6912162" lon="3.3436100">
<ele>125.18</ele>
<time>2016-10-17T08:12:24Z</time>
</trkpt>
<trkpt lat="39.6912869" lon="3.3438426">
<ele>125.89</ele>
<time>2016-10-17T08:12:28Z</time>
</trkpt>
<trkpt lat="39.6913949" lon="3.3440951">
<ele>128.41</ele>
<time>2016-10-17T08:12:33Z</time>
</trkpt>
<trkpt lat="39.6915348" lon="3.3442854">
<ele>130.13</ele>
<time>2016-10-17T08:12:38Z</time>
</trkpt>
<trkpt lat="39.6917028" lon="3.3444683">
<ele>132.46</ele>
<time>2016-10-17T08:12:43Z</time>
</trkpt>
<trkpt lat="39.6918449" lon="3.3446486">
<ele>132.31</ele>
<time>2016-10-17T08:12:47Z</time>
</trkpt>
<trkpt lat="39.6919825" lon="3.3448566">
<ele>132.32</ele>
<time>2016-10-17T08:12:51Z</time>
</trkpt>
<trkpt lat="39.6921119" lon="3.3451040">
<ele>131.87</ele>
<time>2016-10-17T08:12:55Z</time>
</trkpt>
<trkpt lat="39.6922334" lon="3.3453292">
<ele>130.35</ele>
<time>2016-10-17T08:13:00Z</time>
</trkpt>
<trkpt lat="39.6923525" lon="3.3455353">
<ele>130.26</ele>
<time>2016-10-17T08:13:06Z</time>
</trkpt>
<trkpt lat="39.6924865" lon="3.3457468">
<ele>132.09</ele>
<time>2016-10-17T08:13:12Z</time>
</trkpt>
<trkpt lat="39.6925966" lon="3.3459329">
<ele>133.00</ele>
<time>2016-10-17T08:13:17Z</time>
</trkpt>
<trkpt lat="39.6927260" lon="3.3461528">
<ele>134.01</ele>
<time>2016-10-17T08:13:23Z</time>
</trkpt>
<trkpt lat="39.6928220" lon="3.3463635">
<ele>134.44</ele>
<time>2016-10-17T08:13:27Z</time>
</trkpt>
<trkpt lat="39.6927899" lon="3.3466232">
<ele>134.53</ele>
<time>2016-10-17T08:13:32Z</time>
</trkpt>
<trkpt lat="39.6929354" lon="3.3468225">
<ele>133.51</ele>
<time>2016-10-17T08:13:38Z</time>
</trkpt>
<trkpt lat="39.6930801" lon="3.3470054">
<ele>132.83</ele>
<time>2016-10-17T08:13:42Z</time>
</trkpt>
<trkpt lat="39.6932326" lon="3.3471624">
<ele>130.74</ele>
<time>2016-10-17T08:13:46Z</time>
</trkpt>
<trkpt lat="39.6934057" lon="3.3473376">
<ele>131.26</ele>
<time>2016-10-17T08:13:50Z</time>
</trkpt>
<trkpt lat="39.6935556" lon="3.3474987">
<ele>130.77</ele>
<time>2016-10-17T08:13:53Z</time>
</trkpt>
<trkpt lat="39.6937075" lon="3.3476767">
<ele>128.73</ele>
<time>2016-10-17T08:13:57Z</time>
</trkpt>
<trkpt lat="39.6938589" lon="3.3478571">
<ele>127.97</ele>
<time>2016-10-17T08:14:01Z</time>
</trkpt>
<trkpt lat="39.6940138" lon="3.3480580">
<ele>129.21</ele>
<time>2016-10-17T08:14:06Z</time>
</trkpt>
<trkpt lat="39.6941534" lon="3.3482341">
<ele>130.46</ele>
<time>2016-10-17T08:14:10Z</time>
</trkpt>
<trkpt lat="39.6942816" lon="3.3484030">
<ele>131.03</ele>
<time>2016-10-17T08:14:14Z</time>
</trkpt>
<trkpt lat="39.6944097" lon="3.3486053">
<ele>131.37</ele>
<time>2016-10-17T08:14:20Z</time>
</trkpt>
<trkpt lat="39.6945839" lon="3.3487516">
<ele>132.36</ele>
<time>2016-10-17T08:14:26Z</time>
</trkpt>
<trkpt lat="39.6947502" lon="3.3489002">
<ele>133.60</ele>
<time>2016-10-17T08:14:33Z</time>
</trkpt>
<trkpt lat="39.6949221" lon="3.3490645">
<ele>134.93</ele>
<time>2016-10-17T08:14:40Z</time>
</trkpt>
<trkpt lat="39.6950915" lon="3.3492310">
<ele>135.76</ele>
<time>2016-10-17T08:14:46Z</time>
</trkpt>
<trkpt lat="39.6952448" lon="3.3493556">
<ele>136.33</ele>
<time>2016-10-17T08:14:54Z</time>
</trkpt>
<trkpt lat="39.6954000" lon="3.3495076">
<ele>136.69</ele>
<time>2016-10-17T08:15:01Z</time>
</trkpt>
<trkpt lat="39.6953510" lon="3.3497610">
<ele>137.23</ele>
<time>2016-10-17T08:15:10Z</time>
</trkpt>
<trkpt lat="39.6953309" lon="3.3500147">
<ele>138.72</ele>
<time>2016-10-17T08:15:15Z</time>
</trkpt>
<trkpt lat="39.6952736" lon="3.3502659">
<ele>139.03</ele>
<time>2016-10-17T08:15:23Z</time>
</trkpt>
<trkpt lat="39.6953861" lon="3.3504918">
<ele>137.67</ele>
<time>2016-10-17T08:15:41Z</time>
</trkpt>
<trkpt lat="39.6955501" lon="3.3506598">
<ele>137.86</ele>
<time>2016-10-17T08:15:48Z</time>
</trkpt>
<trkpt lat="39.6957285" lon="3.3507877">
<ele>140.04</ele>
<time>2016-10-17T08:15:53Z</time>
</trkpt>
<trkpt lat="39.6958538" lon="3.3509943">
<ele>140.12</ele>
<time>2016-10-17T08:15:58Z</time>
</trkpt>
<trkpt lat="39.6960404" lon="3.3510387">
<ele>141.53</ele>
<time>2016-10-17T08:16:04Z</time>
</trkpt>
<trkpt lat="39.6962431" lon="3.3510722">
<ele>143.54</ele>
<time>2016-10-17T08:16:12Z</time>
</trkpt>
<trkpt lat="39.6964348" lon="3.3512154">
<ele>144.73</ele>
<time>2016-10-17T08:16:17Z</time>
</trkpt>
<trkpt lat="39.6965397" lon="3.3514154">
<ele>145.51</ele>
<time>2016-10-17T08:16:25Z</time>
</trkpt>
<trkpt lat="39.6966864" lon="3.3515993">
<ele>145.26</ele>
<time>2016-10-17T08:16:31Z</time>
</trkpt>
<trkpt lat="39.6968314" lon="3.3517482">
<ele>141.25</ele>
<time>2016-10-17T08:16:35Z</time>
</trkpt>
<trkpt lat="39.6970525" lon="3.3517219">
<ele>137.95</ele>
<time>2016-10-17T08:16:40Z</time>
</trkpt>
<trkpt lat="39.6972639" lon="3.3516030">
<ele>138.38</ele>
<time>2016-10-17T08:16:44Z</time>
</trkpt>
<trkpt lat="39.6974506" lon="3.3515210">
<ele>140.29</ele>
<time>2016-10-17T08:16:48Z</time>
</trkpt>
<trkpt lat="39.6976597" lon="3.3516023">
<ele>140.26</ele>
<time>2016-10-17T08:16:52Z</time>
</trkpt>
<trkpt lat="39.6978627" lon="3.3516936">
<ele>140.27</ele>
<time>2016-10-17T08:16:56Z</time>
</trkpt>
<trkpt lat="39.6980740" lon="3.3516957">
<ele>141.04</ele>
<time>2016-10-17T08:17:01Z</time>
</trkpt>
<trkpt lat="39.6982548" lon="3.3516414">
<ele>140.57</ele>
<time>2016-10-17T08:17:06Z</time>
</trkpt>
<trkpt lat="39.6984611" lon="3.3516906">
<ele>139.06</ele>
<time>2016-10-17T08:17:10Z</time>
</trkpt>
<trkpt lat="39.6986327" lon="3.3518127">
<ele>137.47</ele>
<time>2016-10-17T08:17:13Z</time>
</trkpt>
<trkpt lat="39.6988172" lon="3.3519511">
<ele>135.46</ele>
<time>2016-10-17T08:17:16Z</time>
</trkpt>
<trkpt lat="39.6989995" lon="3.3520105">
<ele>135.93</ele>
<time>2016-10-17T08:17:19Z</time>
</trkpt>
<trkpt lat="39.6992096" lon="3.3520181">
<ele>135.95</ele>
<time>2016-10-17T08:17:22Z</time>
</trkpt>
<trkpt lat="39.6993911" lon="3.3519980">
<ele>136.07</ele>
<time>2016-10-17T08:17:25Z</time>
</trkpt>
<trkpt lat="39.6995958" lon="3.3519510">
<ele>135.70</ele>
<time>2016-10-17T08:17:28Z</time>
</trkpt>
<trkpt lat="39.6997917" lon="3.3518366">
<ele>134.41</ele>
<time>2016-10-17T08:17:31Z</time>
</trkpt>
<trkpt lat="39.6999621" lon="3.3516167">
<ele>133.63</ele>
<time>2016-10-17T08:17:34Z</time>
</trkpt>
<trkpt lat="39.7001315" lon="3.3513813">
<ele>134.06</ele>
<time>2016-10-17T08:17:37Z</time>
</trkpt>
<trkpt lat="39.7003056" lon="3.3511545">
<ele>134.33</ele>
<time>2016-10-17T08:17:40Z</time>
</trkpt>
<trkpt lat="39.7004663" lon="3.3509408">
<ele>134.68</ele>
<time>2016-10-17T08:17:43Z</time>
</trkpt>
<trkpt lat="39.7006423" lon="3.3507633">
<ele>135.11</ele>
<time>2016-10-17T08:17:46Z</time>
</trkpt>
<trkpt lat="39.7008397" lon="3.3507014">
<ele>135.97</ele>
<time>2016-10-17T08:17:49Z</time>
</trkpt>
<trkpt lat="39.7010383" lon="3.3507401">
<ele>133.60</ele>
<time>2016-10-17T08:17:52Z</time>
</trkpt>
<trkpt lat="39.7012509" lon="3.3508030">
<ele>128.88</ele>
<time>2016-10-17T08:17:55Z</time>
</trkpt>
<trkpt lat="39.7014724" lon="3.3508767">
<ele>124.76</ele>
<time>2016-10-17T08:17:58Z</time>
</trkpt>
<trkpt lat="39.7016802" lon="3.3509575">
<ele>122.23</ele>
<time>2016-10-17T08:18:01Z</time>
</trkpt>
<trkpt lat="39.7018716" lon="3.3510333">
<ele>121.80</ele>
<time>2016-10-17T08:18:04Z</time>
</trkpt>
<trkpt lat="39.7020731" lon="3.3510458">
<ele>122.51</ele>
<time>2016-10-17T08:18:07Z</time>
</trkpt>
<trkpt lat="39.7022696" lon="3.3510925">
<ele>122.32</ele>
<time>2016-10-17T08:18:10Z</time>
</trkpt>
<trkpt lat="39.7024649" lon="3.3511560">
<ele>121.84</ele>
<time>2016-10-17T08:18:13Z</time>
</trkpt>
<trkpt lat="39.7026654" lon="3.3512042">
<ele>120.18</ele>
<time>2016-10-17T08:18:16Z</time>
</trkpt>
<trkpt lat="39.7028825" lon="3.3512455">
<ele>118.89</ele>
<time>2016-10-17T08:18:20Z</time>
</trkpt>
<trkpt lat="39.7031073" lon="3.3512726">
<ele>119.51</ele>
<time>2016-10-17T08:18:24Z</time>
</trkpt>
<trkpt lat="39.7033334" lon="3.3513387">
<ele>120.37</ele>
<time>2016-10-17T08:18:28Z</time>
</trkpt>
<trkpt lat="39.7035540" lon="3.3513552">
<ele>123.84</ele>
<time>2016-10-17T08:18:32Z</time>
</trkpt>
<trkpt lat="39.7037591" lon="3.3513260">
<ele>127.47</ele>
<time>2016-10-17T08:18:36Z</time>
</trkpt>
<trkpt lat="39.7039586" lon="3.3512829">
<ele>130.53</ele>
<time>2016-10-17T08:18:40Z</time>
</trkpt>
<trkpt lat="39.7041651" lon="3.3512521">
<ele>129.68</ele>
<time>2016-10-17T08:18:44Z</time>
</trkpt>
<trkpt lat="39.7043854" lon="3.3512190">
<ele>129.56</ele>
<time>2016-10-17T08:18:48Z</time>
</trkpt>
<trkpt lat="39.7046017" lon="3.3511873">
<ele>131.77</ele>
<time>2016-10-17T08:18:52Z</time>
</trkpt>
<trkpt lat="39.7047979" lon="3.3511222">
<ele>132.50</ele>
<time>2016-10-17T08:18:56Z</time>
</trkpt>
<trkpt lat="39.7049981" lon="3.3510742">
<ele>131.29</ele>
<time>2016-10-17T08:19:00Z</time>
</trkpt>
<trkpt lat="39.7051910" lon="3.3510165">
<ele>130.05</ele>
<time>2016-10-17T08:19:04Z</time>
</trkpt>
<trkpt lat="39.7053842" lon="3.3509496">
<ele>129.92</ele>
<time>2016-10-17T08:19:08Z</time>
</trkpt>
<trkpt lat="39.7055448" lon="3.3508289">
<ele>131.15</ele>
<time>2016-10-17T08:19:12Z</time>
</trkpt>
<trkpt lat="39.7056254" lon="3.3506019">
<ele>131.01</ele>
<time>2016-10-17T08:19:16Z</time>
</trkpt>
<trkpt lat="39.7057836" lon="3.3504028">
<ele>130.38</ele>
<time>2016-10-17T08:19:20Z</time>
</trkpt>
<trkpt lat="39.7059910" lon="3.3503425">
<ele>130.89</ele>
<time>2016-10-17T08:19:24Z</time>
</trkpt>
<trkpt lat="39.7061919" lon="3.3503085">
<ele>128.50</ele>
<time>2016-10-17T08:19:28Z</time>
</trkpt>
<trkpt lat="39.7063846" lon="3.3502872">
<ele>127.12</ele>
<time>2016-10-17T08:19:32Z</time>
</trkpt>
<trkpt lat="39.7065766" lon="3.3502534">
<ele>128.81</ele>
<time>2016-10-17T08:19:36Z</time>
</trkpt>
<trkpt lat="39.7067740" lon="3.3502193">
<ele>131.02</ele>
<time>2016-10-17T08:19:41Z</time>
</trkpt>
<trkpt lat="39.7069791" lon="3.3501858">
<ele>133.68</ele>
<time>2016-10-17T08:19:45Z</time>
</trkpt>
<trkpt lat="39.7071999" lon="3.3501760">
<ele>137.29</ele>
<time>2016-10-17T08:19:50Z</time>
</trkpt>
<trkpt lat="39.7073808" lon="3.3501852">
<ele>140.03</ele>
<time>2016-10-17T08:19:54Z</time>
</trkpt>
<trkpt lat="39.7075861" lon="3.3500992">
<ele>141.05</ele>
<time>2016-10-17T08:19:59Z</time>
</trkpt>
<trkpt lat="39.7077114" lon="3.3499214">
<ele>143.49</ele>
<time>2016-10-17T08:20:03Z</time>
</trkpt>
<trkpt lat="39.7078155" lon="3.3497204">
<ele>145.42</ele>
<time>2016-10-17T08:20:07Z</time>
</trkpt>
<trkpt lat="39.7079151" lon="3.3495079">
<ele>145.72</ele>
<time>2016-10-17T08:20:11Z</time>
</trkpt>
<trkpt lat="39.7080193" lon="3.3492596">
<ele>147.30</ele>
<time>2016-10-17T08:20:16Z</time>
</trkpt>
<trkpt lat="39.7081302" lon="3.3490166">
<ele>147.18</ele>
<time>2016-10-17T08:20:21Z</time>
</trkpt>
<trkpt lat="39.7081730" lon="3.3487481">
<ele>145.19</ele>
<time>2016-10-17T08:20:25Z</time>
</trkpt>
<trkpt lat="39.7081840" lon="3.3484851">
<ele>143.18</ele>
<time>2016-10-17T08:20:29Z</time>
</trkpt>
<trkpt lat="39.7082079" lon="3.3481975">
<ele>140.83</ele>
<time>2016-10-17T08:20:33Z</time>
</trkpt>
<trkpt lat="39.7082618" lon="3.3479715">
<ele>138.87</ele>
<time>2016-10-17T08:20:36Z</time>
</trkpt>
<trkpt lat="39.7083625" lon="3.3477025">
<ele>136.70</ele>
<time>2016-10-17T08:20:40Z</time>
</trkpt>
<trkpt lat="39.7084433" lon="3.3474877">
<ele>137.54</ele>
<time>2016-10-17T08:20:43Z</time>
</trkpt>
<trkpt lat="39.7085550" lon="3.3472334">
<ele>138.39</ele>
<time>2016-10-17T08:20:47Z</time>
</trkpt>
<trkpt lat="39.7086622" lon="3.3470135">
<ele>140.72</ele>
<time>2016-10-17T08:20:51Z</time>
</trkpt>
<trkpt lat="39.7087819" lon="3.3468086">
<ele>145.04</ele>
<time>2016-10-17T08:20:56Z</time>
</trkpt>
<trkpt lat="39.7089145" lon="3.3465949">
<ele>146.15</ele>
<time>2016-10-17T08:21:01Z</time>
</trkpt>
<trkpt lat="39.7090783" lon="3.3464061">
<ele>147.99</ele>
<time>2016-10-17T08:21:06Z</time>
</trkpt>
<trkpt lat="39.7092502" lon="3.3462195">
<ele>149.23</ele>
<time>2016-10-17T08:21:11Z</time>
</trkpt>
<trkpt lat="39.7094112" lon="3.3460748">
<ele>149.24</ele>
<time>2016-10-17T08:21:16Z</time>
</trkpt>
<trkpt lat="39.7096028" lon="3.3460779">
<ele>149.18</ele>
<time>2016-10-17T08:21:20Z</time>
</trkpt>
<trkpt lat="39.7097932" lon="3.3461616">
<ele>147.24</ele>
<time>2016-10-17T08:21:25Z</time>
</trkpt>
<trkpt lat="39.7099766" lon="3.3462509">
<ele>145.59</ele>
<time>2016-10-17T08:21:30Z</time>
</trkpt>
<trkpt lat="39.7101743" lon="3.3463485">
<ele>142.78</ele>
<time>2016-10-17T08:21:35Z</time>
</trkpt>
<trkpt lat="39.7103697" lon="3.3462784">
<ele>143.34</ele>
<time>2016-10-17T08:21:40Z</time>
</trkpt>
<trkpt lat="39.7105223" lon="3.3461416">
<ele>144.14</ele>
<time>2016-10-17T08:21:45Z</time>
</trkpt>
<trkpt lat="39.7106837" lon="3.3459933">
<ele>145.92</ele>
<time>2016-10-17T08:21:51Z</time>
</trkpt>
<trkpt lat="39.7108470" lon="3.3458285">
<ele>147.18</ele>
<time>2016-10-17T08:21:57Z</time>
</trkpt>
<trkpt lat="39.7109932" lon="3.3456853">
<ele>148.25</ele>
<time>2016-10-17T08:22:02Z</time>
</trkpt>
<trkpt lat="39.7111699" lon="3.3455390">
<ele>149.10</ele>
<time>2016-10-17T08:22:07Z</time>
</trkpt>
<trkpt lat="39.7113392" lon="3.3454127">
<ele>151.02</ele>
<time>2016-10-17T08:22:13Z</time>
</trkpt>
<trkpt lat="39.7115340" lon="3.3453438">
<ele>151.42</ele>
<time>2016-10-17T08:22:19Z</time>
</trkpt>
<trkpt lat="39.7117307" lon="3.3453046">
<ele>151.16</ele>
<time>2016-10-17T08:22:25Z</time>
</trkpt>
<trkpt lat="39.7119465" lon="3.3453010">
<ele>146.69</ele>
<time>2016-10-17T08:22:30Z</time>
</trkpt>
<trkpt lat="39.7121631" lon="3.3452622">
<ele>143.21</ele>
<time>2016-10-17T08:22:35Z</time>
</trkpt>
<trkpt lat="39.7123498" lon="3.3452412">
<ele>142.98</ele>
<time>2016-10-17T08:22:40Z</time>
</trkpt>
<trkpt lat="39.7125334" lon="3.3451851">
<ele>143.62</ele>
<time>2016-10-17T08:22:46Z</time>
</trkpt>
<trkpt lat="39.7127389" lon="3.3451180">
<ele>144.26</ele>
<time>2016-10-17T08:22:51Z</time>
</trkpt>
<trkpt lat="39.7129239" lon="3.3450629">
<ele>145.04</ele>
<time>2016-10-17T08:22:57Z</time>
</trkpt>
<trkpt lat="39.7131240" lon="3.3450363">
<ele>145.74</ele>
<time>2016-10-17T08:23:02Z</time>
</trkpt>
<trkpt lat="39.7133379" lon="3.3450221">
<ele>146.63</ele>
<time>2016-10-17T08:23:07Z</time>
</trkpt>
<trkpt lat="39.7135211" lon="3.3450453">
<ele>148.74</ele>
<time>2016-10-17T08:23:12Z</time>
</trkpt>
<trkpt lat="39.7137310" lon="3.3450379">
<ele>148.77</ele>
<time>2016-10-17T08:23:18Z</time>
</trkpt>
<trkpt lat="39.7139408" lon="3.3451014">
<ele>148.94</ele>
<time>2016-10-17T08:23:23Z</time>
</trkpt>
<trkpt lat="39.7141081" lon="3.3452052">
<ele>149.54</ele>
<time>2016-10-17T08:23:27Z</time>
</trkpt>
<trkpt lat="39.7142781" lon="3.3452816">
<ele>151.33</ele>
<time>2016-10-17T08:23:32Z</time>
</trkpt>
<trkpt lat="39.7144749" lon="3.3452782">
<ele>151.82</ele>
<time>2016-10-17T08:23:38Z</time>
</trkpt>
<trkpt lat="39.7146500" lon="3.3451428">
<ele>153.68</ele>
<time>2016-10-17T08:23:45Z</time>
</trkpt>
<trkpt lat="39.7148116" lon="3.3450361">
<ele>155.19</ele>
<time>2016-10-17T08:23:50Z</time>
</trkpt>
<trkpt lat="39.7149748" lon="3.3449197">
<ele>157.36</ele>
<time>2016-10-17T08:23:56Z</time>
</trkpt>
<trkpt lat="39.7151629" lon="3.3448421">
<ele>159.65</ele>
<time>2016-10-17T08:24:03Z</time>
</trkpt>
<trkpt lat="39.7153434" lon="3.3447361">
<ele>161.46</ele>
<time>2016-10-17T08:24:09Z</time>
</trkpt>
<trkpt lat="39.7154991" lon="3.3445854">
<ele>163.39</ele>
<time>2016-10-17T08:24:15Z</time>
</trkpt>
<trkpt lat="39.7156508" lon="3.3444114">
<ele>164.29</ele>
<time>2016-10-17T08:24:21Z</time>
</trkpt>
<trkpt lat="39.7158128" lon="3.3442444">
<ele>164.26</ele>
<time>2016-10-17T08:24:27Z</time>
</trkpt>
<trkpt lat="39.7159838" lon="3.3441464">
<ele>163.81</ele>
<time>2016-10-17T08:24:34Z</time>
</trkpt>
<trkpt lat="39.7161861" lon="3.3441481">
<ele>163.66</ele>
<time>2016-10-17T08:24:41Z</time>
</trkpt>
<trkpt lat="39.7163764" lon="3.3442411">
<ele>164.39</ele>
<time>2016-10-17T08:24:47Z</time>
</trkpt>
<trkpt lat="39.7165630" lon="3.3443626">
<ele>166.88</ele>
<time>2016-10-17T08:24:54Z</time>
</trkpt>
<trkpt lat="39.7167513" lon="3.3443741">
<ele>169.24</ele>
<time>2016-10-17T08:25:00Z</time>
</trkpt>
<trkpt lat="39.7169446" lon="3.3443056">
<ele>171.07</ele>
<time>2016-10-17T08:25:07Z</time>
</trkpt>
<trkpt lat="39.7171289" lon="3.3442033">
<ele>174.39</ele>
<time>2016-10-17T08:25:12Z</time>
</trkpt>
<trkpt lat="39.7173034" lon="3.3440997">
<ele>175.14</ele>
<time>2016-10-17T08:25:17Z</time>
</trkpt>
<trkpt lat="39.7174437" lon="3.3439484">
<ele>175.60</ele>
<time>2016-10-17T08:25:22Z</time>
</trkpt>
<trkpt lat="39.7175820" lon="3.3437415">
<ele>175.83</ele>
<time>2016-10-17T08:25:28Z</time>
</trkpt>
<trkpt lat="39.7177124" lon="3.3435432">
<ele>177.15</ele>
<time>2016-10-17T08:25:32Z</time>
</trkpt>
<trkpt lat="39.7178907" lon="3.3434578">
<ele>178.07</ele>
<time>2016-10-17T08:25:37Z</time>
</trkpt>
<trkpt lat="39.7180749" lon="3.3434043">
<ele>178.06</ele>
<time>2016-10-17T08:25:43Z</time>
</trkpt>
<trkpt lat="39.7182778" lon="3.3433007">
<ele>178.15</ele>
<time>2016-10-17T08:25:48Z</time>
</trkpt>
<trkpt lat="39.7184375" lon="3.3431608">
<ele>179.20</ele>
<time>2016-10-17T08:25:55Z</time>
</trkpt>
<trkpt lat="39.7185926" lon="3.3429827">
<ele>180.71</ele>
<time>2016-10-17T08:26:03Z</time>
</trkpt>
<trkpt lat="39.7187121" lon="3.3427942">
<ele>181.75</ele>
<time>2016-10-17T08:26:07Z</time>
</trkpt>
<trkpt lat="39.7188529" lon="3.3426174">
<ele>183.05</ele>
<time>2016-10-17T08:26:11Z</time>
</trkpt>
<trkpt lat="39.7190265" lon="3.3424804">
<ele>184.65</ele>
<time>2016-10-17T08:26:17Z</time>
</trkpt>
<trkpt lat="39.7191849" lon="3.3423539">
<ele>186.47</ele>
<time>2016-10-17T08:26:23Z</time>
</trkpt>
<trkpt lat="39.7193475" lon="3.3421997">
<ele>188.44</ele>
<time>2016-10-17T08:26:31Z</time>
</trkpt>
<trkpt lat="39.7195261" lon="3.3420803">
<ele>189.86</ele>
<time>2016-10-17T08:26:36Z</time>
</trkpt>
<trkpt lat="39.7196833" lon="3.3419240">
<ele>191.77</ele>
<time>2016-10-17T08:26:42Z</time>
</trkpt>
<trkpt lat="39.7198125" lon="3.3417477">
<ele>193.40</ele>
<time>2016-10-17T08:26:50Z</time>
</trkpt>
<trkpt lat="39.7199515" lon="3.3415909">
<ele>194.54</ele>
<time>2016-10-17T08:26:56Z</time>
</trkpt>
<trkpt lat="39.7200904" lon="3.3414269">
<ele>195.88</ele>
<time>2016-10-17T08:27:01Z</time>
</trkpt>
<trkpt lat="39.7202454" lon="3.3413015">
<ele>197.65</ele>
<time>2016-10-17T08:27:08Z</time>
</trkpt>
<trkpt lat="39.7204160" lon="3.3412000">
<ele>199.17</ele>
<time>2016-10-17T08:27:14Z</time>
</trkpt>
<trkpt lat="39.7205913" lon="3.3410786">
<ele>200.59</ele>
<time>2016-10-17T08:27:21Z</time>
</trkpt>
<trkpt lat="39.7207657" lon="3.3409618">
<ele>201.77</ele>
<time>2016-10-17T08:27:28Z</time>
</trkpt>
<trkpt lat="39.7209109" lon="3.3407969">
<ele>202.44</ele>
<time>2016-10-17T08:27:37Z</time>
</trkpt>
<trkpt lat="39.7210261" lon="3.3406124">
<ele>203.60</ele>
<time>2016-10-17T08:27:44Z</time>
</trkpt>
<trkpt lat="39.7211452" lon="3.3404203">
<ele>205.28</ele>
<time>2016-10-17T08:27:51Z</time>
</trkpt>
<trkpt lat="39.7212872" lon="3.3402648">
<ele>206.60</ele>
<time>2016-10-17T08:27:57Z</time>
</trkpt>
<trkpt lat="39.7214385" lon="3.3401186">
<ele>208.24</ele>
<time>2016-10-17T08:28:05Z</time>
</trkpt>
<trkpt lat="39.7216090" lon="3.3399807">
<ele>209.60</ele>
<time>2016-10-17T08:28:13Z</time>
</trkpt>
<trkpt lat="39.7217718" lon="3.3398478">
<ele>210.25</ele>
<time>2016-10-17T08:28:20Z</time>
</trkpt>
<trkpt lat="39.7219642" lon="3.3396703">
<ele>209.56</ele>
<time>2016-10-17T08:28:25Z</time>
</trkpt>
<trkpt lat="39.7221282" lon="3.3395302">
<ele>207.39</ele>
<time>2016-10-17T08:28:28Z</time>
</trkpt>
<trkpt lat="39.7223285" lon="3.3393661">
<ele>206.99</ele>
<time>2016-10-17T08:28:32Z</time>
</trkpt>
<trkpt lat="39.7225137" lon="3.3391893">
<ele>207.41</ele>
<time>2016-10-17T08:28:36Z</time>
</trkpt>
<trkpt lat="39.7226846" lon="3.3390600">
<ele>206.55</ele>
<time>2016-10-17T08:28:41Z</time>
</trkpt>
<trkpt lat="39.7228454" lon="3.3389381">
<ele>207.19</ele>
<time>2016-10-17T08:28:47Z</time>
</trkpt>
<trkpt lat="39.7230008" lon="3.3388047">
<ele>208.24</ele>
<time>2016-10-17T08:28:53Z</time>
</trkpt>
<trkpt lat="39.7231891" lon="3.3386579">
<ele>211.91</ele>
<time>2016-10-17T08:28:59Z</time>
</trkpt>
<trkpt lat="39.7233557" lon="3.3384896">
<ele>213.83</ele>
<time>2016-10-17T08:29:03Z</time>
</trkpt>
<trkpt lat="39.7235327" lon="3.3383327">
<ele>216.00</ele>
<time>2016-10-17T08:29:06Z</time>
</trkpt>
<trkpt lat="39.7237246" lon="3.3382060">
<ele>217.04</ele>
<time>2016-10-17T08:29:09Z</time>
</trkpt>
<trkpt lat="39.7239708" lon="3.3381242">
<ele>215.17</ele>
<time>2016-10-17T08:29:12Z</time>
</trkpt>
<trkpt lat="39.7241915" lon="3.3380768">
<ele>210.23</ele>
<time>2016-10-17T08:29:15Z</time>
</trkpt>
<trkpt lat="39.7243702" lon="3.3380357">
<ele>204.81</ele>
<time>2016-10-17T08:29:18Z</time>
</trkpt>
<trkpt lat="39.7245635" lon="3.3379690">
<ele>203.96</ele>
<time>2016-10-17T08:29:21Z</time>
</trkpt>
<trkpt lat="39.7247518" lon="3.3378966">
<ele>205.27</ele>
<time>2016-10-17T08:29:24Z</time>
</trkpt>
<trkpt lat="39.7249429" lon="3.3377942">
<ele>206.78</ele>
<time>2016-10-17T08:29:28Z</time>
</trkpt>
<trkpt lat="39.7251240" lon="3.3377071">
<ele>207.72</ele>
<time>2016-10-17T08:29:33Z</time>
</trkpt>
<trkpt lat="39.7253112" lon="3.3376158">
<ele>209.12</ele>
<time>2016-10-17T08:29:40Z</time>
</trkpt>
<trkpt lat="39.7254850" lon="3.3375379">
<ele>209.83</ele>
<time>2016-10-17T08:29:46Z</time>
</trkpt>
<trkpt lat="39.7256588" lon="3.3374244">
<ele>214.43</ele>
<time>2016-10-17T08:29:50Z</time>
</trkpt>
<trkpt lat="39.7258644" lon="3.3372947">
<ele>215.43</ele>
<time>2016-10-17T08:29:54Z</time>
</trkpt>
<trkpt lat="39.7260379" lon="3.3371931">
<ele>214.40</ele>
<time>2016-10-17T08:29:57Z</time>
</trkpt>
<trkpt lat="39.7262402" lon="3.3370483">
<ele>213.82</ele>
<time>2016-10-17T08:30:00Z</time>
</trkpt>
<trkpt lat="39.7263903" lon="3.3369191">
<ele>213.52</ele>
<time>2016-10-17T08:30:02Z</time>
</trkpt>
<trkpt lat="39.7265563" lon="3.3367693">
<ele>212.52</ele>
<time>2016-10-17T08:30:04Z</time>
</trkpt>
<trkpt lat="39.7267011" lon="3.3366245">
<ele>210.71</ele>
<time>2016-10-17T08:30:06Z</time>
</trkpt>
<trkpt lat="39.7268897" lon="3.3364196">
<ele>208.24</ele>
<time>2016-10-17T08:30:09Z</time>
</trkpt>
<trkpt lat="39.7270554" lon="3.3362567">
<ele>208.12</ele>
<time>2016-10-17T08:30:12Z</time>
</trkpt>
<trkpt lat="39.7272098" lon="3.3361171">
<ele>207.71</ele>
<time>2016-10-17T08:30:16Z</time>
</trkpt>
<trkpt lat="39.7273679" lon="3.3359448">
<ele>210.62</ele>
<time>2016-10-17T08:30:21Z</time>
</trkpt>
<trkpt lat="39.7275418" lon="3.3357769">
<ele>215.00</ele>
<time>2016-10-17T08:30:26Z</time>
</trkpt>
<trkpt lat="39.7277259" lon="3.3356199">
<ele>219.19</ele>
<time>2016-10-17T08:30:31Z</time>
</trkpt>
<trkpt lat="39.7279109" lon="3.3354985">
<ele>222.60</ele>
<time>2016-10-17T08:30:36Z</time>
</trkpt>
<trkpt lat="39.7280765" lon="3.3353747">
<ele>223.51</ele>
<time>2016-10-17T08:30:40Z</time>
</trkpt>
<trkpt lat="39.7282740" lon="3.3352292">
<ele>222.30</ele>
<time>2016-10-17T08:30:44Z</time>
</trkpt>
<trkpt lat="39.7284185" lon="3.3350371">
<ele>219.54</ele>
<time>2016-10-17T08:30:48Z</time>
</trkpt>
<trkpt lat="39.7284982" lon="3.3348250">
<ele>216.06</ele>
<time>2016-10-17T08:30:52Z</time>
</trkpt>
<trkpt lat="39.7284539" lon="3.3345978">
<ele>213.70</ele>
<time>2016-10-17T08:30:56Z</time>
</trkpt>
<trkpt lat="39.7283468" lon="3.3343257">
<ele>210.58</ele>
<time>2016-10-17T08:31:00Z</time>
</trkpt>
<trkpt lat="39.7282870" lon="3.3340666">
<ele>208.80</ele>
<time>2016-10-17T08:31:04Z</time>
</trkpt>
<trkpt lat="39.7282537" lon="3.3337866">
<ele>208.37</ele>
<time>2016-10-17T08:31:08Z</time>
</trkpt>
<trkpt lat="39.7282836" lon="3.3335004">
<ele>208.89</ele>
<time>2016-10-17T08:31:12Z</time>
</trkpt>
<trkpt lat="39.7283900" lon="3.3332661">
<ele>212.23</ele>
<time>2016-10-17T08:31:16Z</time>
</trkpt>
<trkpt lat="39.7285256" lon="3.3330619">
<ele>213.14</ele>
<time>2016-10-17T08:31:21Z</time>
</trkpt>
<trkpt lat="39.7286933" lon="3.3328958">
<ele>216.17</ele>
<time>2016-10-17T08:31:25Z</time>
</trkpt>
<trkpt lat="39.7288693" lon="3.3327453">
<ele>219.21</ele>
<time>2016-10-17T08:31:30Z</time>
</trkpt>
<trkpt lat="39.7290494" lon="3.3325985">
<ele>220.00</ele>
<time>2016-10-17T08:31:35Z</time>
</trkpt>
<trkpt lat="39.7292315" lon="3.3324495">
<ele>220.96</ele>
<time>2016-10-17T08:31:41Z</time>
</trkpt>
<trkpt lat="39.7294092" lon="3.3323081">
<ele>221.52</ele>
<time>2016-10-17T08:31:46Z</time>
</trkpt>
<trkpt lat="39.7295668" lon="3.3321878">
<ele>223.43</ele>
<time>2016-10-17T08:31:50Z</time>
</trkpt>
<trkpt lat="39.7297391" lon="3.3320650">
<ele>225.79</ele>
<time>2016-10-17T08:31:55Z</time>
</trkpt>
<trkpt lat="39.7298998" lon="3.3319488">
<ele>227.91</ele>
<time>2016-10-17T08:32:00Z</time>
</trkpt>
<trkpt lat="39.7300906" lon="3.3318172">
<ele>229.49</ele>
<time>2016-10-17T08:32:05Z</time>
</trkpt>
<trkpt lat="39.7302838" lon="3.3317184">
<ele>229.81</ele>
<time>2016-10-17T08:32:10Z</time>
</trkpt>
<trkpt lat="39.7304715" lon="3.3316916">
<ele>228.35</ele>
<time>2016-10-17T08:32:14Z</time>
</trkpt>
<trkpt lat="39.7306743" lon="3.3317131">
<ele>221.42</ele>
<time>2016-10-17T08:32:19Z</time>
</trkpt>
<trkpt lat="39.7308865" lon="3.3317323">
<ele>218.35</ele>
<time>2016-10-17T08:32:24Z</time>
</trkpt>
<trkpt lat="39.7310892" lon="3.3317448">
<ele>217.78</ele>
<time>2016-10-17T08:32:31Z</time>
</trkpt>
<trkpt lat="39.7312736" lon="3.3317406">
<ele>217.56</ele>
<time>2016-10-17T08:32:39Z</time>
</trkpt>
<trkpt lat="39.7314612" lon="3.3316655">
<ele>218.53</ele>
<time>2016-10-17T08:32:48Z</time>
</trkpt>
<trkpt lat="39.7316330" lon="3.3315870">
<ele>220.87</ele>
<time>2016-10-17T08:32:57Z</time>
</trkpt>
<trkpt lat="39.7318233" lon="3.3314974">
<ele>222.57</ele>
<time>2016-10-17T08:33:05Z</time>
</trkpt>
<trkpt lat="39.7320163" lon="3.3314343">
<ele>224.36</ele>
<time>2016-10-17T08:33:13Z</time>
</trkpt>
<trkpt lat="39.7321962" lon="3.3313890">
<ele>226.62</ele>
<time>2016-10-17T08:33:21Z</time>
</trkpt>
<trkpt lat="39.7323769" lon="3.3313679">
<ele>228.10</ele>
<time>2016-10-17T08:33:28Z</time>
</trkpt>
<trkpt lat="39.7325359" lon="3.3312406">
<ele>229.97</ele>
<time>2016-10-17T08:33:37Z</time>
</trkpt>
<trkpt lat="39.7323495" lon="3.3311767">
<ele>229.72</ele>
<time>2016-10-17T08:33:52Z</time>
</trkpt>
<trkpt lat="39.7321722" lon="3.3310715">
<ele>229.58</ele>
<time>2016-10-17T08:33:58Z</time>
</trkpt>
<trkpt lat="39.7321306" lon="3.3308340">
<ele>229.75</ele>
<time>2016-10-17T08:34:04Z</time>
</trkpt>
<trkpt lat="39.7321511" lon="3.3305855">
<ele>231.13</ele>
<time>2016-10-17T08:34:11Z</time>
</trkpt>
<trkpt lat="39.7321931" lon="3.3303385">
<ele>233.05</ele>
<time>2016-10-17T08:34:18Z</time>
</trkpt>
<trkpt lat="39.7322573" lon="3.3300896">
<ele>235.04</ele>
<time>2016-10-17T08:34:26Z</time>
</trkpt>
<trkpt lat="39.7323106" lon="3.3298514">
<ele>236.89</ele>
<time>2016-10-17T08:34:33Z</time>
</trkpt>
<trkpt lat="39.7323324" lon="3.3296059">
<ele>238.70</ele>
<time>2016-10-17T08:34:40Z</time>
</trkpt>
<trkpt lat="39.7323165" lon="3.3293641">
<ele>239.88</ele>
<time>2016-10-17T08:34:47Z</time>
</trkpt>
<trkpt lat="39.7325004" lon="3.3294573">
<ele>241.55</ele>
<time>2016-10-17T08:35:04Z</time>
</trkpt>
<trkpt lat="39.7325554" lon="3.3296879">
<ele>242.34</ele>
<time>2016-10-17T08:35:11Z</time>
</trkpt>
<trkpt lat="39.7325538" lon="3.3299283">
<ele>243.37</ele>
<time>2016-10-17T08:35:18Z</time>
</trkpt>
<trkpt lat="39.7325812" lon="3.3301998">
<ele>244.07</ele>
<time>2016-10-17T08:35:25Z</time>
</trkpt>
<trkpt lat="39.7326566" lon="3.3304204">
<ele>244.22</ele>
<time>2016-10-17T08:35:33Z</time>
</trkpt>
<trkpt lat="39.7327090" lon="3.3301745">
<ele>246.37</ele>
<time>2016-10-17T08:35:43Z</time>
</trkpt>
<trkpt lat="39.7327655" lon="3.3299515">
<ele>247.76</ele>
<time>2016-10-17T08:35:51Z</time>
</trkpt>
<trkpt lat="39.7328456" lon="3.3297218">
<ele>251.00</ele>
<time>2016-10-17T08:36:01Z</time>
</trkpt>
<trkpt lat="39.7329043" lon="3.3294941">
<ele>253.50</ele>
<time>2016-10-17T08:36:09Z</time>
</trkpt>
<trkpt lat="39.7329474" lon="3.3292584">
<ele>255.26</ele>
<time>2016-10-17T08:36:18Z</time>
</trkpt>
<trkpt lat="39.7329838" lon="3.3290091">
<ele>256.37</ele>
<time>2016-10-17T08:36:28Z</time>
</trkpt>
<trkpt lat="39.7330417" lon="3.3287814">
<ele>258.07</ele>
<time>2016-10-17T08:36:39Z</time>
</trkpt>
<trkpt lat="39.7330493" lon="3.3285401">
<ele>260.05</ele>
<time>2016-10-17T08:36:51Z</time>
</trkpt>
<trkpt lat="39.7329219" lon="3.3283491">
<ele>261.00</ele>
<time>2016-10-17T08:37:02Z</time>
</trkpt>
<trkpt lat="39.7328763" lon="3.3281115">
<ele>260.88</ele>
<time>2016-10-17T08:37:10Z</time>
</trkpt>
<trkpt lat="39.7330328" lon="3.3279954">
<ele>261.78</ele>
<time>2016-10-17T08:37:20Z</time>
</trkpt>
<trkpt lat="39.7332234" lon="3.3279741">
<ele>262.23</ele>
<time>2016-10-17T08:37:30Z</time>
</trkpt>
<trkpt lat="39.7333797" lon="3.3278266">
<ele>264.01</ele>
<time>2016-10-17T08:37:42Z</time>
</trkpt>
<trkpt lat="39.7334565" lon="3.3275998">
<ele>266.01</ele>
<time>2016-10-17T08:37:52Z</time>
</trkpt>
<trkpt lat="39.7335180" lon="3.3273782">
<ele>266.83</ele>
<time>2016-10-17T08:38:01Z</time>
</trkpt>
<trkpt lat="39.7336109" lon="3.3271750">
<ele>269.68</ele>
<time>2016-10-17T08:38:10Z</time>
</trkpt>
<trkpt lat="39.7335504" lon="3.3269375">
<ele>272.64</ele>
<time>2016-10-17T08:38:23Z</time>
</trkpt>
<trkpt lat="39.7334841" lon="3.3267012">
<ele>272.32</ele>
<time>2016-10-17T08:38:32Z</time>
</trkpt>
<trkpt lat="39.7336761" lon="3.3267398">
<ele>274.77</ele>
<time>2016-10-17T08:38:45Z</time>
</trkpt>
<trkpt lat="39.7338354" lon="3.3268780">
<ele>277.81</ele>
<time>2016-10-17T08:38:55Z</time>
</trkpt>
<trkpt lat="39.7338606" lon="3.3271179">
<ele>280.08</ele>
<time>2016-10-17T08:39:03Z</time>
</trkpt>
<trkpt lat="39.7338733" lon="3.3273621">
<ele>282.17</ele>
<time>2016-10-17T08:39:14Z</time>
</trkpt>
<trkpt lat="39.7338443" lon="3.3275974">
<ele>283.72</ele>
<time>2016-10-17T08:39:23Z</time>
</trkpt>
<trkpt lat="39.7338107" lon="3.3278518">
<ele>285.45</ele>
<time>2016-10-17T08:39:33Z</time>
</trkpt>
<trkpt lat="39.7338019" lon="3.3280869">
<ele>286.73</ele>
<time>2016-10-17T08:39:41Z</time>
</trkpt>
<trkpt lat="39.7338337" lon="3.3278321">
<ele>290.76</ele>
<time>2016-10-17T08:40:11Z</time>
</trkpt>
<trkpt lat="39.7339227" lon="3.3276036">
<ele>291.99</ele>
<time>2016-10-17T08:40:21Z</time>
</trkpt>
<trkpt lat="39.7340161" lon="3.3273872">
<ele>294.14</ele>
<time>2016-10-17T08:40:31Z</time>
</trkpt>
<trkpt lat="39.7340993" lon="3.3271553">
<ele>296.03</ele>
<time>2016-10-17T08:40:40Z</time>
</trkpt>
<trkpt lat="39.7341408" lon="3.3269189">
<ele>297.48</ele>
<time>2016-10-17T08:40:50Z</time>
</trkpt>
<trkpt lat="39.7341255" lon="3.3266676">
<ele>298.00</ele>
<time>2016-10-17T08:41:00Z</time>
</trkpt>
<trkpt lat="39.7340107" lon="3.3264530">
<ele>298.57</ele>
<time>2016-10-17T08:41:12Z</time>
</trkpt>
<trkpt lat="39.7338739" lon="3.3262677">
<ele>299.44</ele>
<time>2016-10-17T08:41:22Z</time>
</trkpt>
<trkpt lat="39.7337410" lon="3.3261009">
<ele>300.61</ele>
<time>2016-10-17T08:41:30Z</time>
</trkpt>
<trkpt lat="39.7335643" lon="3.3260330">
<ele>301.61</ele>
<time>2016-10-17T08:41:39Z</time>
</trkpt>
<trkpt lat="39.7333802" lon="3.3260248">
<ele>302.34</ele>
<time>2016-10-17T08:41:47Z</time>
</trkpt>
<trkpt lat="39.7332592" lon="3.3258165">
<ele>303.44</ele>
<time>2016-10-17T08:41:55Z</time>
</trkpt>
<trkpt lat="39.7332212" lon="3.3255708">
<ele>305.28</ele>
<time>2016-10-17T08:42:03Z</time>
</trkpt>
<trkpt lat="39.7330409" lon="3.3255876">
<ele>305.92</ele>
<time>2016-10-17T08:42:14Z</time>
</trkpt>
<trkpt lat="39.7328693" lon="3.3254675">
<ele>306.37</ele>
<time>2016-10-17T08:42:22Z</time>
</trkpt>
<trkpt lat="39.7327526" lon="3.3252522">
<ele>306.39</ele>
<time>2016-10-17T08:42:31Z</time>
</trkpt>
<trkpt lat="39.7327342" lon="3.3250044">
<ele>308.46</ele>
<time>2016-10-17T08:42:41Z</time>
</trkpt>
<trkpt lat="39.7327342" lon="3.3247643">
<ele>309.33</ele>
<time>2016-10-17T08:42:48Z</time>
</trkpt>
<trkpt lat="39.7327626" lon="3.3245207">
<ele>311.82</ele>
<time>2016-10-17T08:42:59Z</time>
</trkpt>
<trkpt lat="39.7327556" lon="3.3242836">
<ele>313.88</ele>
<time>2016-10-17T08:43:09Z</time>
</trkpt>
<trkpt lat="39.7327146" lon="3.3240302">
<ele>317.85</ele>
<time>2016-10-17T08:43:22Z</time>
</trkpt>
<trkpt lat="39.7327093" lon="3.3237809">
<ele>320.41</ele>
<time>2016-10-17T08:43:35Z</time>
</trkpt>
<trkpt lat="39.7326390" lon="3.3235388">
<ele>321.79</ele>
<time>2016-10-17T08:43:44Z</time>
</trkpt>
<trkpt lat="39.7326153" lon="3.3232909">
<ele>324.17</ele>
<time>2016-10-17T08:43:54Z</time>
</trkpt>
<trkpt lat="39.7325667" lon="3.3230613">
<ele>326.99</ele>
<time>2016-10-17T08:44:03Z</time>
</trkpt>
<trkpt lat="39.7325459" lon="3.3228197">
<ele>328.91</ele>
<time>2016-10-17T08:44:12Z</time>
</trkpt>
<trkpt lat="39.7325440" lon="3.3225691">
<ele>331.96</ele>
<time>2016-10-17T08:44:24Z</time>
</trkpt>
<trkpt lat="39.7325119" lon="3.3223213">
<ele>334.21</ele>
<time>2016-10-17T08:44:34Z</time>
</trkpt>
<trkpt lat="39.7323921" lon="3.3221229">
<ele>336.71</ele>
<time>2016-10-17T08:44:48Z</time>
</trkpt>
<trkpt lat="39.7322411" lon="3.3219809">
<ele>338.32</ele>
<time>2016-10-17T08:44:58Z</time>
</trkpt>
<trkpt lat="39.7320979" lon="3.3218060">
<ele>338.38</ele>
<time>2016-10-17T08:45:07Z</time>
</trkpt>
<trkpt lat="39.7319866" lon="3.3216041">
<ele>338.47</ele>
<time>2016-10-17T08:45:18Z</time>
</trkpt>
<trkpt lat="39.7318427" lon="3.3214593">
<ele>338.25</ele>
<time>2016-10-17T08:45:27Z</time>
</trkpt>
<trkpt lat="39.7316634" lon="3.3213764">
<ele>339.32</ele>
<time>2016-10-17T08:45:41Z</time>
</trkpt>
<trkpt lat="39.7314704" lon="3.3213969">
<ele>340.05</ele>
<time>2016-10-17T08:45:50Z</time>
</trkpt>
<trkpt lat="39.7315245" lon="3.3211595">
<ele>340.98</ele>
<time>2016-10-17T08:46:03Z</time>
</trkpt>
<trkpt lat="39.7317040" lon="3.3210590">
<ele>343.21</ele>
<time>2016-10-17T08:46:14Z</time>
</trkpt>
<trkpt lat="39.7318852" lon="3.3209867">
<ele>346.80</ele>
<time>2016-10-17T08:46:26Z</time>
</trkpt>
<trkpt lat="39.7320681" lon="3.3209127">
<ele>349.17</ele>
<time>2016-10-17T08:46:37Z</time>
</trkpt>
<trkpt lat="39.7322628" lon="3.3208806">
<ele>351.21</ele>
<time>2016-10-17T08:46:45Z</time>
</trkpt>
<trkpt lat="39.7324332" lon="3.3209719">
<ele>352.57</ele>
<time>2016-10-17T08:46:52Z</time>
</trkpt>
<trkpt lat="39.7325760" lon="3.3211147">
<ele>353.64</ele>
<time>2016-10-17T08:46:59Z</time>
</trkpt>
<trkpt lat="39.7326370" lon="3.3208829">
<ele>357.05</ele>
<time>2016-10-17T08:47:18Z</time>
</trkpt>
<trkpt lat="39.7325132" lon="3.3206738">
<ele>356.66</ele>
<time>2016-10-17T08:47:25Z</time>
</trkpt>
<trkpt lat="39.7323693" lon="3.3204906">
<ele>355.08</ele>
<time>2016-10-17T08:47:33Z</time>
</trkpt>
<trkpt lat="39.7322455" lon="3.3203033">
<ele>353.87</ele>
<time>2016-10-17T08:47:42Z</time>
</trkpt>
<trkpt lat="39.7321083" lon="3.3201153">
<ele>352.86</ele>
<time>2016-10-17T08:47:51Z</time>
</trkpt>
<trkpt lat="39.7320569" lon="3.3198816">
<ele>352.41</ele>
<time>2016-10-17T08:47:58Z</time>
</trkpt>
<trkpt lat="39.7320998" lon="3.3196365">
<ele>352.25</ele>
<time>2016-10-17T08:48:06Z</time>
</trkpt>
<trkpt lat="39.7321604" lon="3.3194131">
<ele>352.75</ele>
<time>2016-10-17T08:48:13Z</time>
</trkpt>
<trkpt lat="39.7321958" lon="3.3191773">
<ele>352.80</ele>
<time>2016-10-17T08:48:19Z</time>
</trkpt>
<trkpt lat="39.7322284" lon="3.3189317">
<ele>352.61</ele>
<time>2016-10-17T08:48:26Z</time>
</trkpt>
<trkpt lat="39.7322794" lon="3.3187014">
<ele>352.36</ele>
<time>2016-10-17T08:48:34Z</time>
</trkpt>
<trkpt lat="39.7323236" lon="3.3184696">
<ele>352.24</ele>
<time>2016-10-17T08:48:42Z</time>
</trkpt>
<trkpt lat="39.7323649" lon="3.3182198">
<ele>352.63</ele>
<time>2016-10-17T08:48:51Z</time>
</trkpt>
<trkpt lat="39.7324031" lon="3.3179818">
<ele>352.55</ele>
<time>2016-10-17T08:48:59Z</time>
</trkpt>
<trkpt lat="39.7324517" lon="3.3177345">
<ele>352.83</ele>
<time>2016-10-17T08:49:09Z</time>
</trkpt>
<trkpt lat="39.7324991" lon="3.3174850">
<ele>353.68</ele>
<time>2016-10-17T08:49:19Z</time>
</trkpt>
<trkpt lat="39.7325539" lon="3.3172511">
<ele>354.12</ele>
<time>2016-10-17T08:49:27Z</time>
</trkpt>
<trkpt lat="39.7326732" lon="3.3170546">
<ele>354.41</ele>
<time>2016-10-17T08:49:33Z</time>
</trkpt>
<trkpt lat="39.7328079" lon="3.3168799">
<ele>358.04</ele>
<time>2016-10-17T08:49:40Z</time>
</trkpt>
<trkpt lat="39.7330164" lon="3.3168508">
<ele>369.94</ele>
<time>2016-10-17T08:53:43Z</time>
</trkpt>
<trkpt lat="39.7331852" lon="3.3167157">
<ele>368.72</ele>
<time>2016-10-17T08:53:48Z</time>
</trkpt>
<trkpt lat="39.7331289" lon="3.3164776">
<ele>367.64</ele>
<time>2016-10-17T08:53:54Z</time>
</trkpt>
<trkpt lat="39.7329581" lon="3.3163121">
<ele>363.77</ele>
<time>2016-10-17T08:53:58Z</time>
</trkpt>
<trkpt lat="39.7327996" lon="3.3161668">
<ele>362.71</ele>
<time>2016-10-17T08:54:02Z</time>
</trkpt>
<trkpt lat="39.7328562" lon="3.3159200">
<ele>362.42</ele>
<time>2016-10-17T08:54:07Z</time>
</trkpt>
<trkpt lat="39.7329965" lon="3.3157101">
<ele>363.05</ele>
<time>2016-10-17T08:54:11Z</time>
</trkpt>
<trkpt lat="39.7331506" lon="3.3155393">
<ele>366.17</ele>
<time>2016-10-17T08:54:14Z</time>
</trkpt>
<trkpt lat="39.7332570" lon="3.3153207">
<ele>366.39</ele>
<time>2016-10-17T08:54:17Z</time>
</trkpt>
<trkpt lat="39.7333381" lon="3.3150764">
<ele>363.35</ele>
<time>2016-10-17T08:54:20Z</time>
</trkpt>
<trkpt lat="39.7334430" lon="3.3148337">
<ele>353.44</ele>
<time>2016-10-17T08:55:54Z</time>
</trkpt>
<trkpt lat="39.7335160" lon="3.3150555">
<ele>353.17</ele>
<time>2016-10-17T08:56:03Z</time>
</trkpt>
<trkpt lat="39.7334964" lon="3.3152926">
<ele>352.35</ele>
<time>2016-10-17T08:56:06Z</time>
</trkpt>
<trkpt lat="39.7334919" lon="3.3156058">
<ele>349.90</ele>
<time>2016-10-17T08:56:10Z</time>
</trkpt>
<trkpt lat="39.7334160" lon="3.3158512">
<ele>348.91</ele>
<time>2016-10-17T08:56:15Z</time>
</trkpt>
<trkpt lat="39.7335754" lon="3.3156830">
<ele>346.27</ele>
<time>2016-10-17T08:56:24Z</time>
</trkpt>
<trkpt lat="39.7336625" lon="3.3154279">
<ele>342.59</ele>
<time>2016-10-17T08:56:28Z</time>
</trkpt>
<trkpt lat="39.7337153" lon="3.3151819">
<ele>339.48</ele>
<time>2016-10-17T08:56:32Z</time>
</trkpt>
<trkpt lat="39.7337644" lon="3.3154689">
<ele>340.97</ele>
<time>2016-10-17T08:56:41Z</time>
</trkpt>
<trkpt lat="39.7337318" lon="3.3157661">
<ele>339.90</ele>
<time>2016-10-17T08:56:45Z</time>
</trkpt>
<trkpt lat="39.7337055" lon="3.3160420">
<ele>339.47</ele>
<time>2016-10-17T08:56:49Z</time>
</trkpt>
<trkpt lat="39.7338115" lon="3.3163089">
<ele>337.81</ele>
<time>2016-10-17T08:56:53Z</time>
</trkpt>
<trkpt lat="39.7339203" lon="3.3165303">
<ele>335.80</ele>
<time>2016-10-17T08:56:56Z</time>
</trkpt>
<trkpt lat="39.7340168" lon="3.3167279">
<ele>334.83</ele>
<time>2016-10-17T08:56:59Z</time>
</trkpt>
<trkpt lat="39.7340469" lon="3.3170172">
<ele>333.87</ele>
<time>2016-10-17T08:57:03Z</time>
</trkpt>
<trkpt lat="39.7342438" lon="3.3168964">
<ele>336.27</ele>
<time>2016-10-17T08:57:11Z</time>
</trkpt>
<trkpt lat="39.7343497" lon="3.3166465">
<ele>333.78</ele>
<time>2016-10-17T08:57:15Z</time>
</trkpt>
<trkpt lat="39.7342784" lon="3.3164150">
<ele>325.67</ele>
<time>2016-10-17T08:57:20Z</time>
</trkpt>
<trkpt lat="39.7341013" lon="3.3162635">
<ele>322.10</ele>
<time>2016-10-17T08:57:25Z</time>
</trkpt>
<trkpt lat="39.7341088" lon="3.3160019">
<ele>317.20</ele>
<time>2016-10-17T08:57:29Z</time>
</trkpt>
<trkpt lat="39.7341737" lon="3.3157311">
<ele>315.53</ele>
<time>2016-10-17T08:57:33Z</time>
</trkpt>
<trkpt lat="39.7342441" lon="3.3159867">
<ele>315.37</ele>
<time>2016-10-17T08:57:44Z</time>
</trkpt>
<trkpt lat="39.7343118" lon="3.3162076">
<ele>315.39</ele>
<time>2016-10-17T08:57:49Z</time>
</trkpt>
<trkpt lat="39.7344140" lon="3.3159457">
<ele>311.83</ele>
<time>2016-10-17T08:57:55Z</time>
</trkpt>
<trkpt lat="39.7346352" lon="3.3159123">
<ele>308.20</ele>
<time>2016-10-17T08:57:59Z</time>
</trkpt>
<trkpt lat="39.7348172" lon="3.3159404">
<ele>307.48</ele>
<time>2016-10-17T08:58:03Z</time>
</trkpt>
<trkpt lat="39.7350151" lon="3.3158071">
<ele>307.81</ele>
<time>2016-10-17T08:58:07Z</time>
</trkpt>
<trkpt lat="39.7351637" lon="3.3156388">
<ele>307.84</ele>
<time>2016-10-17T08:58:11Z</time>
</trkpt>
<trkpt lat="39.7352824" lon="3.3154274">
<ele>305.02</ele>
<time>2016-10-17T08:58:15Z</time>
</trkpt>
<trkpt lat="39.7354441" lon="3.3153225">
<ele>305.52</ele>
<time>2016-10-17T08:58:18Z</time>
</trkpt>
<trkpt lat="39.7356273" lon="3.3151291">
<ele>306.05</ele>
<time>2016-10-17T08:58:22Z</time>
</trkpt>
<trkpt lat="39.7357299" lon="3.3149039">
<ele>303.04</ele>
<time>2016-10-17T08:58:25Z</time>
</trkpt>
<trkpt lat="39.7358284" lon="3.3146895">
<ele>299.47</ele>
<time>2016-10-17T08:58:28Z</time>
</trkpt>
<trkpt lat="39.7359168" lon="3.3144824">
<ele>297.04</ele>
<time>2016-10-17T08:58:31Z</time>
</trkpt>
<trkpt lat="39.7358139" lon="3.3142858">
<ele>287.65</ele>
<time>2016-10-17T08:58:37Z</time>
</trkpt>
<trkpt lat="39.7355902" lon="3.3141840">
<ele>286.45</ele>
<time>2016-10-17T08:58:41Z</time>
</trkpt>
<trkpt lat="39.7354141" lon="3.3140315">
<ele>284.42</ele>
<time>2016-10-17T08:58:45Z</time>
</trkpt>
<trkpt lat="39.7353820" lon="3.3137950">
<ele>284.39</ele>
<time>2016-10-17T08:58:48Z</time>
</trkpt>
<trkpt lat="39.7354974" lon="3.3135847">
<ele>282.63</ele>
<time>2016-10-17T08:58:51Z</time>
</trkpt>
<trkpt lat="39.7356325" lon="3.3133481">
<ele>282.71</ele>
<time>2016-10-17T08:58:54Z</time>
</trkpt>
<trkpt lat="39.7357689" lon="3.3131231">
<ele>282.08</ele>
<time>2016-10-17T08:58:57Z</time>
</trkpt>
<trkpt lat="39.7358790" lon="3.3129309">
<ele>280.38</ele>
<time>2016-10-17T08:59:00Z</time>
</trkpt>
<trkpt lat="39.7360004" lon="3.3126693">
<ele>279.13</ele>
<time>2016-10-17T08:59:04Z</time>
</trkpt>
<trkpt lat="39.7360853" lon="3.3124188">
<ele>277.92</ele>
<time>2016-10-17T08:59:08Z</time>
</trkpt>
<trkpt lat="39.7362037" lon="3.3122396">
<ele>275.96</ele>
<time>2016-10-17T08:59:12Z</time>
</trkpt>
<trkpt lat="39.7363539" lon="3.3120561">
<ele>275.88</ele>
<time>2016-10-17T08:59:19Z</time>
</trkpt>
<trkpt lat="39.7364874" lon="3.3118674">
<ele>276.48</ele>
<time>2016-10-17T08:59:26Z</time>
</trkpt>
<trkpt lat="39.7366399" lon="3.3117063">
<ele>277.05</ele>
<time>2016-10-17T08:59:35Z</time>
</trkpt>
<trkpt lat="39.7367757" lon="3.3115431">
<ele>277.37</ele>
<time>2016-10-17T08:59:43Z</time>
</trkpt>
<trkpt lat="39.7369056" lon="3.3113779">
<ele>278.89</ele>
<time>2016-10-17T08:59:51Z</time>
</trkpt>
<trkpt lat="39.7371373" lon="3.3112323">
<ele>277.46</ele>
<time>2016-10-17T09:01:07Z</time>
</trkpt>
</trkseg>
<trkseg>
<trkpt lat="39.7371226" lon="3.3112848">
<ele>277.59</ele>
<time>2016-10-17T09:03:51Z</time>
</trkpt>
<trkpt lat="39.7369933" lon="3.3114548">
<ele>282.50</ele>
<time>2016-10-17T09:05:50Z</time>
</trkpt>
<trkpt lat="39.7368270" lon="3.3116173">
<ele>279.78</ele>
<time>2016-10-17T09:09:00Z</time>
</trkpt>
<trkpt lat="39.7366752" lon="3.3118032">
<ele>280.12</ele>
<time>2016-10-17T09:09:04Z</time>
</trkpt>
<trkpt lat="39.7365423" lon="3.3119711">
<ele>279.79</ele>
<time>2016-10-17T09:09:08Z</time>
</trkpt>
<trkpt lat="39.7364179" lon="3.3121461">
<ele>279.73</ele>
<time>2016-10-17T09:09:13Z</time>
</trkpt>
<trkpt lat="39.7362732" lon="3.3123227">
<ele>279.32</ele>
<time>2016-10-17T09:09:20Z</time>
</trkpt>
<trkpt lat="39.7361903" lon="3.3125531">
<ele>278.83</ele>
<time>2016-10-17T09:09:32Z</time>
</trkpt>
<trkpt lat="39.7360932" lon="3.3127606">
<ele>280.05</ele>
<time>2016-10-17T09:09:47Z</time>
</trkpt>
<trkpt lat="39.7360378" lon="3.3129929">
<ele>281.99</ele>
<time>2016-10-17T09:09:59Z</time>
</trkpt>
<trkpt lat="39.7359248" lon="3.3131855">
<ele>282.77</ele>
<time>2016-10-17T09:10:07Z</time>
</trkpt>
<trkpt lat="39.7357814" lon="3.3133598">
<ele>284.80</ele>
<time>2016-10-17T09:10:19Z</time>
</trkpt>
<trkpt lat="39.7356563" lon="3.3135576">
<ele>287.13</ele>
<time>2016-10-17T09:10:31Z</time>
</trkpt>
<trkpt lat="39.7355696" lon="3.3137706">
<ele>288.03</ele>
<time>2016-10-17T09:10:43Z</time>
</trkpt>
<trkpt lat="39.7354808" lon="3.3139793">
<ele>291.04</ele>
<time>2016-10-17T09:10:57Z</time>
</trkpt>
<trkpt lat="39.7356221" lon="3.3141416">
<ele>292.86</ele>
<time>2016-10-17T09:11:09Z</time>
</trkpt>
<trkpt lat="39.7358004" lon="3.3142339">
<ele>293.66</ele>
<time>2016-10-17T09:11:19Z</time>
</trkpt>
<trkpt lat="39.7358900" lon="3.3144470">
<ele>294.23</ele>
<time>2016-10-17T09:11:27Z</time>
</trkpt>
<trkpt lat="39.7358454" lon="3.3146787">
<ele>294.30</ele>
<time>2016-10-17T09:11:34Z</time>
</trkpt>
<trkpt lat="39.7357687" lon="3.3149185">
<ele>294.48</ele>
<time>2016-10-17T09:11:44Z</time>
</trkpt>
<trkpt lat="39.7356869" lon="3.3151362">
<ele>295.20</ele>
<time>2016-10-17T09:11:53Z</time>
</trkpt>
<trkpt lat="39.7355711" lon="3.3153296">
<ele>296.35</ele>
<time>2016-10-17T09:12:03Z</time>
</trkpt>
<trkpt lat="39.7354030" lon="3.3154236">
<ele>296.37</ele>
<time>2016-10-17T09:12:13Z</time>
</trkpt>
<trkpt lat="39.7352859" lon="3.3156228">
<ele>296.06</ele>
<time>2016-10-17T09:12:25Z</time>
</trkpt>
<trkpt lat="39.7351585" lon="3.3158112">
<ele>297.26</ele>
<time>2016-10-17T09:12:34Z</time>
</trkpt>
<trkpt lat="39.7349977" lon="3.3159366">
<ele>298.41</ele>
<time>2016-10-17T09:12:43Z</time>
</trkpt>
<trkpt lat="39.7347992" lon="3.3159816">
<ele>299.62</ele>
<time>2016-10-17T09:12:52Z</time>
</trkpt>
<trkpt lat="39.7346190" lon="3.3159540">
<ele>300.41</ele>
<time>2016-10-17T09:13:00Z</time>
</trkpt>
<trkpt lat="39.7344335" lon="3.3159728">
<ele>301.34</ele>
<time>2016-10-17T09:13:10Z</time>
</trkpt>
<trkpt lat="39.7343711" lon="3.3162006">
<ele>303.24</ele>
<time>2016-10-17T09:13:20Z</time>
</trkpt>
<trkpt lat="39.7342467" lon="3.3160120">
<ele>305.04</ele>
<time>2016-10-17T09:13:32Z</time>
</trkpt>
<trkpt lat="39.7342777" lon="3.3157616">
<ele>305.65</ele>
<time>2016-10-17T09:13:39Z</time>
</trkpt>
<trkpt lat="39.7341751" lon="3.3159982">
<ele>309.10</ele>
<time>2016-10-17T09:13:55Z</time>
</trkpt>
<trkpt lat="39.7341382" lon="3.3162512">
<ele>310.61</ele>
<time>2016-10-17T09:14:02Z</time>
</trkpt>
<trkpt lat="39.7342866" lon="3.3164039">
<ele>313.05</ele>
<time>2016-10-17T09:14:13Z</time>
</trkpt>
<trkpt lat="39.7343615" lon="3.3166245">
<ele>315.36</ele>
<time>2016-10-17T09:14:20Z</time>
</trkpt>
<trkpt lat="39.7343081" lon="3.3168523">
<ele>317.90</ele>
<time>2016-10-17T09:14:28Z</time>
</trkpt>
<trkpt lat="39.7342645" lon="3.3170879">
<ele>319.44</ele>
<time>2016-10-17T09:14:36Z</time>
</trkpt>
<trkpt lat="39.7340961" lon="3.3171747">
<ele>321.55</ele>
<time>2016-10-17T09:14:44Z</time>
</trkpt>
<trkpt lat="39.7340255" lon="3.3169520">
<ele>322.69</ele>
<time>2016-10-17T09:14:50Z</time>
</trkpt>
<trkpt lat="39.7339590" lon="3.3167242">
<ele>323.25</ele>
<time>2016-10-17T09:14:57Z</time>
</trkpt>
<trkpt lat="39.7338669" lon="3.3165040">
<ele>324.07</ele>
<time>2016-10-17T09:15:04Z</time>
</trkpt>
<trkpt lat="39.7337719" lon="3.3163032">
<ele>325.17</ele>
<time>2016-10-17T09:15:12Z</time>
</trkpt>
<trkpt lat="39.7336894" lon="3.3160801">
<ele>326.03</ele>
<time>2016-10-17T09:15:19Z</time>
</trkpt>
<trkpt lat="39.7336915" lon="3.3158354">
<ele>326.47</ele>
<time>2016-10-17T09:15:26Z</time>
</trkpt>
<trkpt lat="39.7337384" lon="3.3155992">
<ele>326.88</ele>
<time>2016-10-17T09:15:34Z</time>
</trkpt>
<trkpt lat="39.7338051" lon="3.3153581">
<ele>328.24</ele>
<time>2016-10-17T09:15:43Z</time>
</trkpt>
<trkpt lat="39.7336492" lon="3.3155240">
<ele>332.33</ele>
<time>2016-10-17T09:16:03Z</time>
</trkpt>
<trkpt lat="39.7335818" lon="3.3157569">
<ele>334.57</ele>
<time>2016-10-17T09:16:10Z</time>
</trkpt>
<trkpt lat="39.7334748" lon="3.3159701">
<ele>336.38</ele>
<time>2016-10-17T09:16:17Z</time>
</trkpt>
<trkpt lat="39.7334429" lon="3.3157201">
<ele>338.43</ele>
<time>2016-10-17T09:16:26Z</time>
</trkpt>
<trkpt lat="39.7334611" lon="3.3154735">
<ele>339.53</ele>
<time>2016-10-17T09:16:34Z</time>
</trkpt>
<trkpt lat="39.7334946" lon="3.3152156">
<ele>340.38</ele>
<time>2016-10-17T09:16:42Z</time>
</trkpt>
<trkpt lat="39.7335311" lon="3.3149490">
<ele>340.82</ele>
<time>2016-10-17T09:16:49Z</time>
</trkpt>
<trkpt lat="39.7333934" lon="3.3151118">
<ele>342.63</ele>
<time>2016-10-17T09:17:05Z</time>
</trkpt>
<trkpt lat="39.7333117" lon="3.3153534">
<ele>344.65</ele>
<time>2016-10-17T09:17:13Z</time>
</trkpt>
<trkpt lat="39.7332116" lon="3.3155775">
<ele>346.63</ele>
<time>2016-10-17T09:17:20Z</time>
</trkpt>
<trkpt lat="39.7330788" lon="3.3157703">
<ele>348.83</ele>
<time>2016-10-17T09:17:29Z</time>
</trkpt>
<trkpt lat="39.7329447" lon="3.3159284">
<ele>350.22</ele>
<time>2016-10-17T09:17:37Z</time>
</trkpt>
<trkpt lat="39.7328413" lon="3.3161270">
<ele>351.81</ele>
<time>2016-10-17T09:17:45Z</time>
</trkpt>
<trkpt lat="39.7329858" lon="3.3162762">
<ele>354.66</ele>
<time>2016-10-17T09:17:57Z</time>
</trkpt>
<trkpt lat="39.7331349" lon="3.3164252">
<ele>357.40</ele>
<time>2016-10-17T09:18:05Z</time>
</trkpt>
<trkpt lat="39.7331607" lon="3.3166765">
<ele>360.94</ele>
<time>2016-10-17T09:18:15Z</time>
</trkpt>
<trkpt lat="39.7330633" lon="3.3168775">
<ele>362.88</ele>
<time>2016-10-17T09:18:23Z</time>
</trkpt>
<trkpt lat="39.7329203" lon="3.3170387">
<ele>369.73</ele>
<time>2016-10-17T09:19:27Z</time>
</trkpt>
<trkpt lat="39.7327578" lon="3.3171602">
<ele>371.55</ele>
<time>2016-10-17T09:19:40Z</time>
</trkpt>
<trkpt lat="39.7326142" lon="3.3173315">
<ele>372.48</ele>
<time>2016-10-17T09:19:49Z</time>
</trkpt>
<trkpt lat="39.7325480" lon="3.3175717">
<ele>372.82</ele>
<time>2016-10-17T09:19:56Z</time>
</trkpt>
<trkpt lat="39.7324937" lon="3.3178100">
<ele>373.17</ele>
<time>2016-10-17T09:20:02Z</time>
</trkpt>
<trkpt lat="39.7324258" lon="3.3180715">
<ele>371.91</ele>
<time>2016-10-17T09:20:06Z</time>
</trkpt>
<trkpt lat="39.7323483" lon="3.3183571">
<ele>370.67</ele>
<time>2016-10-17T09:20:10Z</time>
</trkpt>
<trkpt lat="39.7322924" lon="3.3185821">
<ele>370.18</ele>
<time>2016-10-17T09:20:13Z</time>
</trkpt>
<trkpt lat="39.7322386" lon="3.3188508">
<ele>369.21</ele>
<time>2016-10-17T09:20:16Z</time>
</trkpt>
<trkpt lat="39.7321885" lon="3.3191095">
<ele>368.42</ele>
<time>2016-10-17T09:20:19Z</time>
</trkpt>
<trkpt lat="39.7321394" lon="3.3193923">
<ele>366.97</ele>
<time>2016-10-17T09:20:22Z</time>
</trkpt>
<trkpt lat="39.7320878" lon="3.3196520">
<ele>365.23</ele>
<time>2016-10-17T09:20:25Z</time>
</trkpt>
<trkpt lat="39.7320435" lon="3.3198896">
<ele>364.59</ele>
<time>2016-10-17T09:20:28Z</time>
</trkpt>
<trkpt lat="39.7321106" lon="3.3201847">
<ele>362.97</ele>
<time>2016-10-17T09:20:33Z</time>
</trkpt>
<trkpt lat="39.7322400" lon="3.3204027">
<ele>362.68</ele>
<time>2016-10-17T09:20:36Z</time>
</trkpt>
<trkpt lat="39.7323895" lon="3.3206356">
<ele>363.05</ele>
<time>2016-10-17T09:20:39Z</time>
</trkpt>
<trkpt lat="39.7325301" lon="3.3208562">
<ele>361.81</ele>
<time>2016-10-17T09:20:42Z</time>
</trkpt>
<trkpt lat="39.7326451" lon="3.3210615">
<ele>360.61</ele>
<time>2016-10-17T09:20:46Z</time>
</trkpt>
<trkpt lat="39.7324304" lon="3.3210383">
<ele>353.47</ele>
<time>2016-10-17T09:20:57Z</time>
</trkpt>
<trkpt lat="39.7322145" lon="3.3210250">
<ele>350.57</ele>
<time>2016-10-17T09:21:01Z</time>
</trkpt>
<trkpt lat="39.7319933" lon="3.3210603">
<ele>349.59</ele>
<time>2016-10-17T09:21:04Z</time>
</trkpt>
<trkpt lat="39.7317648" lon="3.3211164">
<ele>348.35</ele>
<time>2016-10-17T09:21:07Z</time>
</trkpt>
<trkpt lat="39.7315346" lon="3.3211983">
<ele>347.72</ele>
<time>2016-10-17T09:21:10Z</time>
</trkpt>
<trkpt lat="39.7313955" lon="3.3213631">
<ele>344.27</ele>
<time>2016-10-17T09:21:15Z</time>
</trkpt>
<trkpt lat="39.7316292" lon="3.3213390">
<ele>343.40</ele>
<time>2016-10-17T09:21:21Z</time>
</trkpt>
<trkpt lat="39.7318461" lon="3.3213424">
<ele>343.01</ele>
<time>2016-10-17T09:21:25Z</time>
</trkpt>
<trkpt lat="39.7320116" lon="3.3214798">
<ele>343.70</ele>
<time>2016-10-17T09:21:29Z</time>
</trkpt>
<trkpt lat="39.7321659" lon="3.3216820">
<ele>343.17</ele>
<time>2016-10-17T09:21:33Z</time>
</trkpt>
<trkpt lat="39.7323324" lon="3.3217708">
<ele>343.41</ele>
<time>2016-10-17T09:21:37Z</time>
</trkpt>
<trkpt lat="39.7325150" lon="3.3219392">
<ele>342.71</ele>
<time>2016-10-17T09:21:40Z</time>
</trkpt>
<trkpt lat="39.7325878" lon="3.3222135">
<ele>341.19</ele>
<time>2016-10-17T09:21:44Z</time>
</trkpt>
<trkpt lat="39.7326174" lon="3.3224997">
<ele>340.04</ele>
<time>2016-10-17T09:21:47Z</time>
</trkpt>
<trkpt lat="39.7326787" lon="3.3227962">
<ele>338.64</ele>
<time>2016-10-17T09:21:50Z</time>
</trkpt>
<trkpt lat="39.7327047" lon="3.3230841">
<ele>336.63</ele>
<time>2016-10-17T09:21:53Z</time>
</trkpt>
<trkpt lat="39.7327328" lon="3.3233967">
<ele>332.33</ele>
<time>2016-10-17T09:21:56Z</time>
</trkpt>
<trkpt lat="39.7327692" lon="3.3236736">
<ele>328.49</ele>
<time>2016-10-17T09:21:59Z</time>
</trkpt>
<trkpt lat="39.7328116" lon="3.3239545">
<ele>325.19</ele>
<time>2016-10-17T09:22:02Z</time>
</trkpt>
<trkpt lat="39.7328246" lon="3.3242225">
<ele>322.58</ele>
<time>2016-10-17T09:22:05Z</time>
</trkpt>
<trkpt lat="39.7328493" lon="3.3245232">
<ele>321.29</ele>
<time>2016-10-17T09:22:08Z</time>
</trkpt>
<trkpt lat="39.7328282" lon="3.3248391">
<ele>318.78</ele>
<time>2016-10-17T09:22:11Z</time>
</trkpt>
<trkpt lat="39.7327855" lon="3.3250912">
<ele>316.89</ele>
<time>2016-10-17T09:22:14Z</time>
</trkpt>
<trkpt lat="39.7328410" lon="3.3253638">
<ele>313.74</ele>
<time>2016-10-17T09:22:19Z</time>
</trkpt>
<trkpt lat="39.7330230" lon="3.3254675">
<ele>311.88</ele>
<time>2016-10-17T09:22:24Z</time>
</trkpt>
<trkpt lat="39.7331998" lon="3.3255729">
<ele>310.56</ele>
<time>2016-10-17T09:22:30Z</time>
</trkpt>
<trkpt lat="39.7332587" lon="3.3258375">
<ele>310.82</ele>
<time>2016-10-17T09:22:34Z</time>
</trkpt>
<trkpt lat="39.7334636" lon="3.3259014">
<ele>308.83</ele>
<time>2016-10-17T09:22:40Z</time>
</trkpt>
<trkpt lat="39.7336436" lon="3.3259497">
<ele>303.67</ele>
<time>2016-10-17T09:22:44Z</time>
</trkpt>
<trkpt lat="39.7337938" lon="3.3260817">
<ele>302.60</ele>
<time>2016-10-17T09:22:48Z</time>
</trkpt>
<trkpt lat="39.7339563" lon="3.3262745">
<ele>299.79</ele>
<time>2016-10-17T09:22:52Z</time>
</trkpt>
<trkpt lat="39.7340960" lon="3.3264942">
<ele>297.04</ele>
<time>2016-10-17T09:22:56Z</time>
</trkpt>
<trkpt lat="39.7341785" lon="3.3267629">
<ele>297.09</ele>
<time>2016-10-17T09:23:00Z</time>
</trkpt>
<trkpt lat="39.7341811" lon="3.3270061">
<ele>295.37</ele>
<time>2016-10-17T09:23:03Z</time>
</trkpt>
<trkpt lat="39.7341201" lon="3.3272759">
<ele>293.24</ele>
<time>2016-10-17T09:23:06Z</time>
</trkpt>
<trkpt lat="39.7339993" lon="3.3275242">
<ele>291.08</ele>
<time>2016-10-17T09:23:09Z</time>
</trkpt>
<trkpt lat="39.7338904" lon="3.3277346">
<ele>290.58</ele>
<time>2016-10-17T09:23:12Z</time>
</trkpt>
<trkpt lat="39.7338078" lon="3.3279607">
<ele>290.69</ele>
<time>2016-10-17T09:23:15Z</time>
</trkpt>
<trkpt lat="39.7337715" lon="3.3282292">
<ele>290.67</ele>
<time>2016-10-17T09:23:19Z</time>
</trkpt>
<trkpt lat="39.7336855" lon="3.3279585">
<ele>283.98</ele>
<time>2016-10-17T09:23:29Z</time>
</trkpt>
<trkpt lat="39.7337043" lon="3.3276668">
<ele>279.10</ele>
<time>2016-10-17T09:23:33Z</time>
</trkpt>
<trkpt lat="39.7337915" lon="3.3273800">
<ele>276.74</ele>
<time>2016-10-17T09:23:37Z</time>
</trkpt>
<trkpt lat="39.7338435" lon="3.3271261">
<ele>276.67</ele>
<time>2016-10-17T09:23:40Z</time>
</trkpt>
<trkpt lat="39.7337758" lon="3.3268702">
<ele>273.60</ele>
<time>2016-10-17T09:23:44Z</time>
</trkpt>
<trkpt lat="39.7336177" lon="3.3267375">
<ele>269.34</ele>
<time>2016-10-17T09:23:47Z</time>
</trkpt>
<trkpt lat="39.7336696" lon="3.3269907">
<ele>266.07</ele>
<time>2016-10-17T09:24:01Z</time>
</trkpt>
<trkpt lat="39.7336405" lon="3.3272504">
<ele>265.22</ele>
<time>2016-10-17T09:24:05Z</time>
</trkpt>
<trkpt lat="39.7335334" lon="3.3274561">
<ele>264.95</ele>
<time>2016-10-17T09:24:08Z</time>
</trkpt>
<trkpt lat="39.7334521" lon="3.3276732">
<ele>265.05</ele>
<time>2016-10-17T09:24:11Z</time>
</trkpt>
<trkpt lat="39.7333998" lon="3.3279225">
<ele>265.81</ele>
<time>2016-10-17T09:24:14Z</time>
</trkpt>
<trkpt lat="39.7332220" lon="3.3280484">
<ele>264.13</ele>
<time>2016-10-17T09:24:18Z</time>
</trkpt>
<trkpt lat="39.7330163" lon="3.3280371">
<ele>263.12</ele>
<time>2016-10-17T09:24:22Z</time>
</trkpt>
<trkpt lat="39.7329292" lon="3.3282650">
<ele>262.74</ele>
<time>2016-10-17T09:24:29Z</time>
</trkpt>
<trkpt lat="39.7330133" lon="3.3284897">
<ele>262.65</ele>
<time>2016-10-17T09:24:33Z</time>
</trkpt>
<trkpt lat="39.7330262" lon="3.3287249">
<ele>262.44</ele>
<time>2016-10-17T09:24:38Z</time>
</trkpt>
<trkpt lat="39.7329608" lon="3.3289511">
<ele>261.18</ele>
<time>2016-10-17T09:24:44Z</time>
</trkpt>
<trkpt lat="39.7329367" lon="3.3292008">
<ele>259.56</ele>
<time>2016-10-17T09:25:18Z</time>
</trkpt>
<trkpt lat="39.7329031" lon="3.3294537">
<ele>255.44</ele>
<time>2016-10-17T09:25:23Z</time>
</trkpt>
<trkpt lat="39.7328318" lon="3.3297649">
<ele>253.81</ele>
<time>2016-10-17T09:25:27Z</time>
</trkpt>
<trkpt lat="39.7327591" lon="3.3299939">
<ele>250.13</ele>
<time>2016-10-17T09:25:30Z</time>
</trkpt>
<trkpt lat="39.7326743" lon="3.3302393">
<ele>248.08</ele>
<time>2016-10-17T09:25:34Z</time>
</trkpt>
<trkpt lat="39.7326355" lon="3.3304735">
<ele>247.25</ele>
<time>2016-10-17T09:25:39Z</time>
</trkpt>
<trkpt lat="39.7325241" lon="3.3302836">
<ele>243.32</ele>
<time>2016-10-17T09:25:45Z</time>
</trkpt>
<trkpt lat="39.7325164" lon="3.3300024">
<ele>239.95</ele>
<time>2016-10-17T09:25:49Z</time>
</trkpt>
<trkpt lat="39.7325122" lon="3.3297648">
<ele>236.84</ele>
<time>2016-10-17T09:25:52Z</time>
</trkpt>
<trkpt lat="39.7324584" lon="3.3295191">
<ele>234.82</ele>
<time>2016-10-17T09:25:55Z</time>
</trkpt>
<trkpt lat="39.7323604" lon="3.3293006">
<ele>229.96</ele>
<time>2016-10-17T09:25:59Z</time>
</trkpt>
<trkpt lat="39.7322650" lon="3.3295554">
<ele>230.29</ele>
<time>2016-10-17T09:26:05Z</time>
</trkpt>
<trkpt lat="39.7322815" lon="3.3297982">
<ele>231.69</ele>
<time>2016-10-17T09:26:08Z</time>
</trkpt>
<trkpt lat="39.7322341" lon="3.3300927">
<ele>231.84</ele>
<time>2016-10-17T09:26:11Z</time>
</trkpt>
<trkpt lat="39.7321627" lon="3.3303961">
<ele>230.60</ele>
<time>2016-10-17T09:26:14Z</time>
</trkpt>
<trkpt lat="39.7321090" lon="3.3306819">
<ele>229.39</ele>
<time>2016-10-17T09:26:17Z</time>
</trkpt>
<trkpt lat="39.7320887" lon="3.3309420">
<ele>228.37</ele>
<time>2016-10-17T09:26:20Z</time>
</trkpt>
<trkpt lat="39.7321895" lon="3.3311427">
<ele>227.18</ele>
<time>2016-10-17T09:26:24Z</time>
</trkpt>
<trkpt lat="39.7323839" lon="3.3311925">
<ele>225.63</ele>
<time>2016-10-17T09:26:28Z</time>
</trkpt>
<trkpt lat="39.7325031" lon="3.3313752">
<ele>223.35</ele>
<time>2016-10-17T09:26:35Z</time>
</trkpt>
<trkpt lat="39.7323315" lon="3.3314473">
<ele>219.91</ele>
<time>2016-10-17T09:26:39Z</time>
</trkpt>
<trkpt lat="39.7321113" lon="3.3315062">
<ele>218.38</ele>
<time>2016-10-17T09:26:43Z</time>
</trkpt>
<trkpt lat="39.7319049" lon="3.3315518">
<ele>219.37</ele>
<time>2016-10-17T09:26:46Z</time>
</trkpt>
<trkpt lat="39.7316873" lon="3.3316588">
<ele>219.20</ele>
<time>2016-10-17T09:26:49Z</time>
</trkpt>
<trkpt lat="39.7315044" lon="3.3318134">
<ele>217.60</ele>
<time>2016-10-17T09:26:52Z</time>
</trkpt>
<trkpt lat="39.7312780" lon="3.3318628">
<ele>216.03</ele>
<time>2016-10-17T09:26:55Z</time>
</trkpt>
<trkpt lat="39.7310128" lon="3.3318503">
<ele>213.75</ele>
<time>2016-10-17T09:26:58Z</time>
</trkpt>
<trkpt lat="39.7307420" lon="3.3318290">
<ele>212.32</ele>
<time>2016-10-17T09:27:01Z</time>
</trkpt>
<trkpt lat="39.7304920" lon="3.3317748">
<ele>210.37</ele>
<time>2016-10-17T09:27:04Z</time>
</trkpt>
<trkpt lat="39.7302724" lon="3.3318110">
<ele>208.95</ele>
<time>2016-10-17T09:27:07Z</time>
</trkpt>
<trkpt lat="39.7300876" lon="3.3319070">
<ele>207.74</ele>
<time>2016-10-17T09:27:10Z</time>
</trkpt>
<trkpt lat="39.7299067" lon="3.3320411">
<ele>207.04</ele>
<time>2016-10-17T09:27:13Z</time>
</trkpt>
<trkpt lat="39.7297269" lon="3.3321903">
<ele>206.56</ele>
<time>2016-10-17T09:27:16Z</time>
</trkpt>
<trkpt lat="39.7295455" lon="3.3323274">
<ele>205.12</ele>
<time>2016-10-17T09:27:19Z</time>
</trkpt>
<trkpt lat="39.7293533" lon="3.3324750">
<ele>204.51</ele>
<time>2016-10-17T09:27:22Z</time>
</trkpt>
<trkpt lat="39.7291609" lon="3.3326278">
<ele>204.25</ele>
<time>2016-10-17T09:27:25Z</time>
</trkpt>
<trkpt lat="39.7289687" lon="3.3327711">
<ele>204.03</ele>
<time>2016-10-17T09:27:28Z</time>
</trkpt>
<trkpt lat="39.7287826" lon="3.3329154">
<ele>203.19</ele>
<time>2016-10-17T09:27:31Z</time>
</trkpt>
<trkpt lat="39.7285998" lon="3.3330667">
<ele>203.14</ele>
<time>2016-10-17T09:27:34Z</time>
</trkpt>
<trkpt lat="39.7284553" lon="3.3332408">
<ele>202.52</ele>
<time>2016-10-17T09:27:37Z</time>
</trkpt>
<trkpt lat="39.7283236" lon="3.3334563">
<ele>200.96</ele>
<time>2016-10-17T09:27:40Z</time>
</trkpt>
<trkpt lat="39.7282530" lon="3.3337114">
<ele>200.03</ele>
<time>2016-10-17T09:27:43Z</time>
</trkpt>
<trkpt lat="39.7282684" lon="3.3339506">
<ele>200.50</ele>
<time>2016-10-17T09:27:46Z</time>
</trkpt>
<trkpt lat="39.7282976" lon="3.3341880">
<ele>200.78</ele>
<time>2016-10-17T09:27:49Z</time>
</trkpt>
<trkpt lat="39.7283719" lon="3.3344325">
<ele>199.64</ele>
<time>2016-10-17T09:27:52Z</time>
</trkpt>
<trkpt lat="39.7284906" lon="3.3346816">
<ele>198.46</ele>
<time>2016-10-17T09:27:56Z</time>
</trkpt>
<trkpt lat="39.7284917" lon="3.3349388">
<ele>198.54</ele>
<time>2016-10-17T09:28:00Z</time>
</trkpt>
<trkpt lat="39.7284135" lon="3.3351848">
<ele>199.17</ele>
<time>2016-10-17T09:28:04Z</time>
</trkpt>
<trkpt lat="39.7282664" lon="3.3353199">
<ele>200.12</ele>
<time>2016-10-17T09:28:08Z</time>
</trkpt>
<trkpt lat="39.7281022" lon="3.3354546">
<ele>201.49</ele>
<time>2016-10-17T09:28:12Z</time>
</trkpt>
<trkpt lat="39.7279320" lon="3.3355871">
<ele>202.54</ele>
<time>2016-10-17T09:28:16Z</time>
</trkpt>
<trkpt lat="39.7277293" lon="3.3357423">
<ele>203.59</ele>
<time>2016-10-17T09:28:20Z</time>
</trkpt>
<trkpt lat="39.7275255" lon="3.3358940">
<ele>204.11</ele>
<time>2016-10-17T09:28:24Z</time>
</trkpt>
<trkpt lat="39.7273552" lon="3.3360457">
<ele>203.81</ele>
<time>2016-10-17T09:28:27Z</time>
</trkpt>
<trkpt lat="39.7271737" lon="3.3362249">
<ele>203.39</ele>
<time>2016-10-17T09:28:30Z</time>
</trkpt>
<trkpt lat="39.7269787" lon="3.3364288">
<ele>202.14</ele>
<time>2016-10-17T09:28:33Z</time>
</trkpt>
<trkpt lat="39.7268353" lon="3.3365816">
<ele>200.76</ele>
<time>2016-10-17T09:28:35Z</time>
</trkpt>
<trkpt lat="39.7266760" lon="3.3367311">
<ele>199.45</ele>
<time>2016-10-17T09:28:37Z</time>
</trkpt>
<trkpt lat="39.7265320" lon="3.3368778">
<ele>198.39</ele>
<time>2016-10-17T09:28:39Z</time>
</trkpt>
<trkpt lat="39.7263436" lon="3.3370624">
<ele>197.72</ele>
<time>2016-10-17T09:28:42Z</time>
</trkpt>
<trkpt lat="39.7261605" lon="3.3372176">
<ele>199.00</ele>
<time>2016-10-17T09:28:45Z</time>
</trkpt>
<trkpt lat="39.7259776" lon="3.3373508">
<ele>199.84</ele>
<time>2016-10-17T09:28:48Z</time>
</trkpt>
<trkpt lat="39.7258143" lon="3.3374594">
<ele>200.67</ele>
<time>2016-10-17T09:28:51Z</time>
</trkpt>
<trkpt lat="39.7256230" lon="3.3375863">
<ele>202.01</ele>
<time>2016-10-17T09:28:55Z</time>
</trkpt>
<trkpt lat="39.7254340" lon="3.3376910">
<ele>203.47</ele>
<time>2016-10-17T09:28:59Z</time>
</trkpt>
<trkpt lat="39.7252466" lon="3.3377810">
<ele>204.70</ele>
<time>2016-10-17T09:29:03Z</time>
</trkpt>
<trkpt lat="39.7250378" lon="3.3378852">
<ele>203.08</ele>
<time>2016-10-17T09:29:07Z</time>
</trkpt>
<trkpt lat="39.7248244" lon="3.3379909">
<ele>201.21</ele>
<time>2016-10-17T09:29:10Z</time>
</trkpt>
<trkpt lat="39.7245645" lon="3.3381208">
<ele>199.90</ele>
<time>2016-10-17T09:29:13Z</time>
</trkpt>
<trkpt lat="39.7243627" lon="3.3381981">
<ele>198.99</ele>
<time>2016-10-17T09:29:15Z</time>
</trkpt>
<trkpt lat="39.7241364" lon="3.3382152">
<ele>198.23</ele>
<time>2016-10-17T09:29:17Z</time>
</trkpt>
<trkpt lat="39.7239177" lon="3.3382445">
<ele>197.66</ele>
<time>2016-10-17T09:29:19Z</time>
</trkpt>
<trkpt lat="39.7237238" lon="3.3383190">
<ele>197.34</ele>
<time>2016-10-17T09:29:21Z</time>
</trkpt>
<trkpt lat="39.7235090" lon="3.3384779">
<ele>198.40</ele>
<time>2016-10-17T09:29:24Z</time>
</trkpt>
<trkpt lat="39.7232976" lon="3.3386698">
<ele>199.34</ele>
<time>2016-10-17T09:29:27Z</time>
</trkpt>
<trkpt lat="39.7231246" lon="3.3388300">
<ele>199.39</ele>
<time>2016-10-17T09:29:30Z</time>
</trkpt>
<trkpt lat="39.7229598" lon="3.3389545">
<ele>198.65</ele>
<time>2016-10-17T09:29:33Z</time>
</trkpt>
<trkpt lat="39.7227919" lon="3.3390908">
<ele>198.87</ele>
<time>2016-10-17T09:29:36Z</time>
</trkpt>
<trkpt lat="39.7226257" lon="3.3392422">
<ele>198.86</ele>
<time>2016-10-17T09:29:39Z</time>
</trkpt>
<trkpt lat="39.7224326" lon="3.3394289">
<ele>198.00</ele>
<time>2016-10-17T09:29:42Z</time>
</trkpt>
<trkpt lat="39.7222824" lon="3.3395697">
<ele>197.60</ele>
<time>2016-10-17T09:29:44Z</time>
</trkpt>
<trkpt lat="39.7221267" lon="3.3397112">
<ele>196.95</ele>
<time>2016-10-17T09:29:46Z</time>
</trkpt>
<trkpt lat="39.7219737" lon="3.3398450">
<ele>196.47</ele>
<time>2016-10-17T09:29:48Z</time>
</trkpt>
<trkpt lat="39.7217897" lon="3.3400089">
<ele>196.12</ele>
<time>2016-10-17T09:29:51Z</time>
</trkpt>
<trkpt lat="39.7216392" lon="3.3401428">
<ele>196.51</ele>
<time>2016-10-17T09:29:54Z</time>
</trkpt>
<trkpt lat="39.7214764" lon="3.3403018">
<ele>196.23</ele>
<time>2016-10-17T09:29:57Z</time>
</trkpt>
<trkpt lat="39.7213219" lon="3.3405104">
<ele>195.03</ele>
<time>2016-10-17T09:30:00Z</time>
</trkpt>
<trkpt lat="39.7211632" lon="3.3407464">
<ele>192.63</ele>
<time>2016-10-17T09:30:03Z</time>
</trkpt>
<trkpt lat="39.7210158" lon="3.3409829">
<ele>191.15</ele>
<time>2016-10-17T09:30:06Z</time>
</trkpt>
<trkpt lat="39.7208148" lon="3.3412250">
<ele>192.41</ele>
<time>2016-10-17T09:30:09Z</time>
</trkpt>
<trkpt lat="39.7206251" lon="3.3413399">
<ele>191.60</ele>
<time>2016-10-17T09:30:11Z</time>
</trkpt>
<trkpt lat="39.7204532" lon="3.3414481">
<ele>190.40</ele>
<time>2016-10-17T09:30:13Z</time>
</trkpt>
<trkpt lat="39.7202464" lon="3.3416270">
<ele>186.91</ele>
<time>2016-10-17T09:30:16Z</time>
</trkpt>
<trkpt lat="39.7200605" lon="3.3418453">
<ele>184.87</ele>
<time>2016-10-17T09:30:19Z</time>
</trkpt>
<trkpt lat="39.7199066" lon="3.3419838">
<ele>183.85</ele>
<time>2016-10-17T09:30:21Z</time>
</trkpt>
<trkpt lat="39.7197461" lon="3.3421056">
<ele>183.27</ele>
<time>2016-10-17T09:30:23Z</time>
</trkpt>
<trkpt lat="39.7195037" lon="3.3423104">
<ele>181.92</ele>
<time>2016-10-17T09:30:26Z</time>
</trkpt>
<trkpt lat="39.7192800" lon="3.3424967">
<ele>180.54</ele>
<time>2016-10-17T09:30:29Z</time>
</trkpt>
<trkpt lat="39.7191102" lon="3.3426286">
<ele>180.52</ele>
<time>2016-10-17T09:30:31Z</time>
</trkpt>
<trkpt lat="39.7189095" lon="3.3428458">
<ele>179.16</ele>
<time>2016-10-17T09:30:34Z</time>
</trkpt>
<trkpt lat="39.7188080" lon="3.3431270">
<ele>175.50</ele>
<time>2016-10-17T09:30:37Z</time>
</trkpt>
<trkpt lat="39.7186553" lon="3.3433569">
<ele>172.49</ele>
<time>2016-10-17T09:30:40Z</time>
</trkpt>
<trkpt lat="39.7184970" lon="3.3434847">
<ele>171.34</ele>
<time>2016-10-17T09:30:42Z</time>
</trkpt>
<trkpt lat="39.7182326" lon="3.3435722">
<ele>170.55</ele>
<time>2016-10-17T09:30:45Z</time>
</trkpt>
<trkpt lat="39.7180400" lon="3.3435963">
<ele>171.59</ele>
<time>2016-10-17T09:30:47Z</time>
</trkpt>
<trkpt lat="39.7178132" lon="3.3436910">
<ele>172.35</ele>
<time>2016-10-17T09:30:50Z</time>
</trkpt>
<trkpt lat="39.7176772" lon="3.3438945">
<ele>171.47</ele>
<time>2016-10-17T09:30:53Z</time>
</trkpt>
<trkpt lat="39.7175367" lon="3.3440951">
<ele>169.68</ele>
<time>2016-10-17T09:30:56Z</time>
</trkpt>
<trkpt lat="39.7173709" lon="3.3442502">
<ele>168.54</ele>
<time>2016-10-17T09:30:59Z</time>
</trkpt>
<trkpt lat="39.7171940" lon="3.3443978">
<ele>169.05</ele>
<time>2016-10-17T09:31:02Z</time>
</trkpt>
<trkpt lat="39.7169998" lon="3.3445583">
<ele>169.81</ele>
<time>2016-10-17T09:31:05Z</time>
</trkpt>
<trkpt lat="39.7167996" lon="3.3446228">
<ele>169.43</ele>
<time>2016-10-17T09:31:08Z</time>
</trkpt>
<trkpt lat="39.7166102" lon="3.3445415">
<ele>168.06</ele>
<time>2016-10-17T09:31:10Z</time>
</trkpt>
<trkpt lat="39.7163945" lon="3.3444134">
<ele>164.12</ele>
<time>2016-10-17T09:31:13Z</time>
</trkpt>
<trkpt lat="39.7162076" lon="3.3443264">
<ele>158.92</ele>
<time>2016-10-17T09:31:16Z</time>
</trkpt>
<trkpt lat="39.7159970" lon="3.3442959">
<ele>156.52</ele>
<time>2016-10-17T09:31:19Z</time>
</trkpt>
<trkpt lat="39.7158011" lon="3.3444158">
<ele>155.63</ele>
<time>2016-10-17T09:31:22Z</time>
</trkpt>
<trkpt lat="39.7156403" lon="3.3445879">
<ele>155.59</ele>
<time>2016-10-17T09:31:25Z</time>
</trkpt>
<trkpt lat="39.7154984" lon="3.3447817">
<ele>156.02</ele>
<time>2016-10-17T09:31:28Z</time>
</trkpt>
<trkpt lat="39.7152763" lon="3.3449382">
<ele>155.79</ele>
<time>2016-10-17T09:31:31Z</time>
</trkpt>
<trkpt lat="39.7151042" lon="3.3450636">
<ele>155.59</ele>
<time>2016-10-17T09:31:33Z</time>
</trkpt>
<trkpt lat="39.7149211" lon="3.3451946">
<ele>154.62</ele>
<time>2016-10-17T09:31:35Z</time>
</trkpt>
<trkpt lat="39.7147268" lon="3.3453104">
<ele>153.81</ele>
<time>2016-10-17T09:31:37Z</time>
</trkpt>
<trkpt lat="39.7145063" lon="3.3454219">
<ele>153.01</ele>
<time>2016-10-17T09:31:40Z</time>
</trkpt>
<trkpt lat="39.7142617" lon="3.3453941">
<ele>152.61</ele>
<time>2016-10-17T09:31:43Z</time>
</trkpt>
<trkpt lat="39.7140797" lon="3.3453440">
<ele>152.79</ele>
<time>2016-10-17T09:31:45Z</time>
</trkpt>
<trkpt lat="39.7138747" lon="3.3452665">
<ele>152.90</ele>
<time>2016-10-17T09:31:47Z</time>
</trkpt>
<trkpt lat="39.7136848" lon="3.3452201">
<ele>152.18</ele>
<time>2016-10-17T09:31:49Z</time>
</trkpt>
<trkpt lat="39.7135000" lon="3.3451830">
<ele>149.97</ele>
<time>2016-10-17T09:31:51Z</time>
</trkpt>
<trkpt lat="39.7133185" lon="3.3451656">
<ele>148.55</ele>
<time>2016-10-17T09:31:53Z</time>
</trkpt>
<trkpt lat="39.7130659" lon="3.3451695">
<ele>147.13</ele>
<time>2016-10-17T09:31:56Z</time>
</trkpt>
<trkpt lat="39.7128370" lon="3.3452053">
<ele>146.20</ele>
<time>2016-10-17T09:31:59Z</time>
</trkpt>
<trkpt lat="39.7125950" lon="3.3452686">
<ele>145.99</ele>
<time>2016-10-17T09:32:02Z</time>
</trkpt>
<trkpt lat="39.7123361" lon="3.3453517">
<ele>146.83</ele>
<time>2016-10-17T09:32:05Z</time>
</trkpt>
<trkpt lat="39.7121034" lon="3.3453899">
<ele>147.09</ele>
<time>2016-10-17T09:32:08Z</time>
</trkpt>
<trkpt lat="39.7118649" lon="3.3454067">
<ele>146.30</ele>
<time>2016-10-17T09:32:11Z</time>
</trkpt>
<trkpt lat="39.7116250" lon="3.3454202">
<ele>145.85</ele>
<time>2016-10-17T09:32:14Z</time>
</trkpt>
<trkpt lat="39.7114083" lon="3.3454591">
<ele>145.51</ele>
<time>2016-10-17T09:32:17Z</time>
</trkpt>
<trkpt lat="39.7112160" lon="3.3455786">
<ele>144.25</ele>
<time>2016-10-17T09:32:20Z</time>
</trkpt>
<trkpt lat="39.7109979" lon="3.3457513">
<ele>143.25</ele>
<time>2016-10-17T09:32:23Z</time>
</trkpt>
<trkpt lat="39.7108035" lon="3.3459174">
<ele>142.74</ele>
<time>2016-10-17T09:32:26Z</time>
</trkpt>
<trkpt lat="39.7106095" lon="3.3461059">
<ele>141.34</ele>
<time>2016-10-17T09:32:29Z</time>
</trkpt>
<trkpt lat="39.7104216" lon="3.3462784">
<ele>139.51</ele>
<time>2016-10-17T09:32:32Z</time>
</trkpt>
<trkpt lat="39.7101991" lon="3.3463628">
<ele>138.45</ele>
<time>2016-10-17T09:32:35Z</time>
</trkpt>
<trkpt lat="39.7099498" lon="3.3462757">
<ele>136.10</ele>
<time>2016-10-17T09:32:38Z</time>
</trkpt>
<trkpt lat="39.7097391" lon="3.3461780">
<ele>133.26</ele>
<time>2016-10-17T09:32:41Z</time>
</trkpt>
<trkpt lat="39.7095440" lon="3.3460748">
<ele>132.23</ele>
<time>2016-10-17T09:32:44Z</time>
</trkpt>
<trkpt lat="39.7093426" lon="3.3461304">
<ele>131.18</ele>
<time>2016-10-17T09:32:47Z</time>
</trkpt>
<trkpt lat="39.7091922" lon="3.3462928">
<ele>131.03</ele>
<time>2016-10-17T09:32:50Z</time>
</trkpt>
<trkpt lat="39.7090463" lon="3.3464648">
<ele>131.45</ele>
<time>2016-10-17T09:32:53Z</time>
</trkpt>
<trkpt lat="39.7089002" lon="3.3466410">
<ele>131.42</ele>
<time>2016-10-17T09:32:56Z</time>
</trkpt>
<trkpt lat="39.7087691" lon="3.3468462">
<ele>132.14</ele>
<time>2016-10-17T09:32:59Z</time>
</trkpt>
<trkpt lat="39.7086588" lon="3.3470669">
<ele>132.04</ele>
<time>2016-10-17T09:33:02Z</time>
</trkpt>
<trkpt lat="39.7085576" lon="3.3472851">
<ele>131.69</ele>
<time>2016-10-17T09:33:05Z</time>
</trkpt>
<trkpt lat="39.7084612" lon="3.3475295">
<ele>131.09</ele>
<time>2016-10-17T09:33:08Z</time>
</trkpt>
<trkpt lat="39.7083665" lon="3.3477735">
<ele>130.30</ele>
<time>2016-10-17T09:33:11Z</time>
</trkpt>
<trkpt lat="39.7082795" lon="3.3480170">
<ele>129.81</ele>
<time>2016-10-17T09:33:14Z</time>
</trkpt>
<trkpt lat="39.7082021" lon="3.3482640">
<ele>129.46</ele>
<time>2016-10-17T09:33:17Z</time>
</trkpt>
<trkpt lat="39.7081552" lon="3.3485512">
<ele>129.19</ele>
<time>2016-10-17T09:33:21Z</time>
</trkpt>
<trkpt lat="39.7081267" lon="3.3488382">
<ele>128.21</ele>
<time>2016-10-17T09:33:25Z</time>
</trkpt>
<trkpt lat="39.7080860" lon="3.3490833">
<ele>128.82</ele>
<time>2016-10-17T09:33:29Z</time>
</trkpt>
<trkpt lat="39.7080113" lon="3.3493240">
<ele>131.46</ele>
<time>2016-10-17T09:33:33Z</time>
</trkpt>
<trkpt lat="39.7079311" lon="3.3495524">
<ele>132.30</ele>
<time>2016-10-17T09:33:37Z</time>
</trkpt>
<trkpt lat="39.7078414" lon="3.3497805">
<ele>132.02</ele>
<time>2016-10-17T09:33:41Z</time>
</trkpt>
<trkpt lat="39.7077264" lon="3.3500322">
<ele>129.47</ele>
<time>2016-10-17T09:33:45Z</time>
</trkpt>
<trkpt lat="39.7075777" lon="3.3502054">
<ele>128.53</ele>
<time>2016-10-17T09:33:49Z</time>
</trkpt>
<trkpt lat="39.7073725" lon="3.3502398">
<ele>128.40</ele>
<time>2016-10-17T09:33:53Z</time>
</trkpt>
<trkpt lat="39.7071718" lon="3.3502536">
<ele>128.55</ele>
<time>2016-10-17T09:33:57Z</time>
</trkpt>
<trkpt lat="39.7069625" lon="3.3502770">
<ele>127.96</ele>
<time>2016-10-17T09:34:01Z</time>
</trkpt>
<trkpt lat="39.7067488" lon="3.3503067">
<ele>128.17</ele>
<time>2016-10-17T09:34:05Z</time>
</trkpt>
<trkpt lat="39.7065640" lon="3.3503281">
<ele>128.67</ele>
<time>2016-10-17T09:34:09Z</time>
</trkpt>
<trkpt lat="39.7063333" lon="3.3503456">
<ele>126.85</ele>
<time>2016-10-17T09:34:13Z</time>
</trkpt>
<trkpt lat="39.7061234" lon="3.3503708">
<ele>125.49</ele>
<time>2016-10-17T09:34:17Z</time>
</trkpt>
<trkpt lat="39.7058910" lon="3.3504089">
<ele>125.58</ele>
<time>2016-10-17T09:34:21Z</time>
</trkpt>
<trkpt lat="39.7057009" lon="3.3505468">
<ele>124.99</ele>
<time>2016-10-17T09:34:25Z</time>
</trkpt>
<trkpt lat="39.7056081" lon="3.3507920">
<ele>124.85</ele>
<time>2016-10-17T09:34:29Z</time>
</trkpt>
<trkpt lat="39.7054742" lon="3.3509644">
<ele>125.09</ele>
<time>2016-10-17T09:34:33Z</time>
</trkpt>
<trkpt lat="39.7052869" lon="3.3510387">
<ele>123.90</ele>
<time>2016-10-17T09:34:37Z</time>
</trkpt>
<trkpt lat="39.7051050" lon="3.3511088">
<ele>124.97</ele>
<time>2016-10-17T09:34:41Z</time>
</trkpt>
<trkpt lat="39.7048988" lon="3.3511916">
<ele>126.84</ele>
<time>2016-10-17T09:34:46Z</time>
</trkpt>
<trkpt lat="39.7046794" lon="3.3512647">
<ele>127.45</ele>
<time>2016-10-17T09:34:50Z</time>
</trkpt>
<trkpt lat="39.7044767" lon="3.3513049">
<ele>127.20</ele>
<time>2016-10-17T09:34:53Z</time>
</trkpt>
<trkpt lat="39.7042639" lon="3.3513401">
<ele>126.35</ele>
<time>2016-10-17T09:34:56Z</time>
</trkpt>
<trkpt lat="39.7040541" lon="3.3513665">
<ele>123.35</ele>
<time>2016-10-17T09:35:00Z</time>
</trkpt>
<trkpt lat="39.7038321" lon="3.3513867">
<ele>121.83</ele>
<time>2016-10-17T09:35:03Z</time>
</trkpt>
<trkpt lat="39.7036086" lon="3.3514081">
<ele>120.16</ele>
<time>2016-10-17T09:35:07Z</time>
</trkpt>
<trkpt lat="39.7033836" lon="3.3514204">
<ele>119.26</ele>
<time>2016-10-17T09:35:11Z</time>
</trkpt>
<trkpt lat="39.7031545" lon="3.3514048">
<ele>119.40</ele>
<time>2016-10-17T09:35:15Z</time>
</trkpt>
<trkpt lat="39.7029490" lon="3.3513678">
<ele>120.30</ele>
<time>2016-10-17T09:35:19Z</time>
</trkpt>
<trkpt lat="39.7027266" lon="3.3513136">
<ele>120.25</ele>
<time>2016-10-17T09:35:23Z</time>
</trkpt>
<trkpt lat="39.7025083" lon="3.3512496">
<ele>120.27</ele>
<time>2016-10-17T09:35:27Z</time>
</trkpt>
<trkpt lat="39.7022812" lon="3.3511850">
<ele>122.28</ele>
<time>2016-10-17T09:35:31Z</time>
</trkpt>
<trkpt lat="39.7020846" lon="3.3511420">
<ele>122.94</ele>
<time>2016-10-17T09:35:34Z</time>
</trkpt>
<trkpt lat="39.7019015" lon="3.3511339">
<ele>120.66</ele>
<time>2016-10-17T09:35:37Z</time>
</trkpt>
<trkpt lat="39.7016992" lon="3.3510396">
<ele>121.23</ele>
<time>2016-10-17T09:35:41Z</time>
</trkpt>
<trkpt lat="39.7015250" lon="3.3509685">
<ele>121.75</ele>
<time>2016-10-17T09:35:44Z</time>
</trkpt>
<trkpt lat="39.7013036" lon="3.3508937">
<ele>121.88</ele>
<time>2016-10-17T09:35:48Z</time>
</trkpt>
<trkpt lat="39.7011179" lon="3.3508446">
<ele>123.45</ele>
<time>2016-10-17T09:35:52Z</time>
</trkpt>
<trkpt lat="39.7009089" lon="3.3507720">
<ele>126.18</ele>
<time>2016-10-17T09:35:56Z</time>
</trkpt>
<trkpt lat="39.7006860" lon="3.3507909">
<ele>128.38</ele>
<time>2016-10-17T09:36:01Z</time>
</trkpt>
<trkpt lat="39.7005142" lon="3.3509743">
<ele>126.97</ele>
<time>2016-10-17T09:36:06Z</time>
</trkpt>
<trkpt lat="39.7003605" lon="3.3511581">
<ele>126.35</ele>
<time>2016-10-17T09:36:10Z</time>
</trkpt>
<trkpt lat="39.7002104" lon="3.3513472">
<ele>126.11</ele>
<time>2016-10-17T09:36:14Z</time>
</trkpt>
<trkpt lat="39.7000771" lon="3.3515206">
<ele>126.14</ele>
<time>2016-10-17T09:36:18Z</time>
</trkpt>
<trkpt lat="39.6999422" lon="3.3516959">
<ele>125.94</ele>
<time>2016-10-17T09:36:22Z</time>
</trkpt>
<trkpt lat="39.6998033" lon="3.3518571">
<ele>124.22</ele>
<time>2016-10-17T09:36:26Z</time>
</trkpt>
<trkpt lat="39.6996180" lon="3.3519679">
<ele>124.87</ele>
<time>2016-10-17T09:36:32Z</time>
</trkpt>
<trkpt lat="39.6994158" lon="3.3520140">
<ele>128.47</ele>
<time>2016-10-17T09:36:38Z</time>
</trkpt>
<trkpt lat="39.6992239" lon="3.3520268">
<ele>128.52</ele>
<time>2016-10-17T09:36:43Z</time>
</trkpt>
<trkpt lat="39.6990381" lon="3.3520461">
<ele>128.42</ele>
<time>2016-10-17T09:36:49Z</time>
</trkpt>
<trkpt lat="39.6988502" lon="3.3519914">
<ele>128.68</ele>
<time>2016-10-17T09:36:55Z</time>
</trkpt>
<trkpt lat="39.6986893" lon="3.3518692">
<ele>128.82</ele>
<time>2016-10-17T09:37:01Z</time>
</trkpt>
<trkpt lat="39.6985294" lon="3.3517620">
<ele>128.94</ele>
<time>2016-10-17T09:37:07Z</time>
</trkpt>
<trkpt lat="39.6983355" lon="3.3516982">
<ele>129.24</ele>
<time>2016-10-17T09:37:14Z</time>
</trkpt>
<trkpt lat="39.6981535" lon="3.3517313">
<ele>130.09</ele>
<time>2016-10-17T09:37:21Z</time>
</trkpt>
<trkpt lat="39.6979534" lon="3.3517415">
<ele>133.21</ele>
<time>2016-10-17T09:37:26Z</time>
</trkpt>
<trkpt lat="39.6977536" lon="3.3517198">
<ele>134.68</ele>
<time>2016-10-17T09:37:30Z</time>
</trkpt>
<trkpt lat="39.6975796" lon="3.3516426">
<ele>133.84</ele>
<time>2016-10-17T09:37:35Z</time>
</trkpt>
<trkpt lat="39.6973888" lon="3.3516146">
<ele>133.48</ele>
<time>2016-10-17T09:37:43Z</time>
</trkpt>
<trkpt lat="39.6972226" lon="3.3517230">
<ele>133.58</ele>
<time>2016-10-17T09:37:50Z</time>
</trkpt>
<trkpt lat="39.6970560" lon="3.3518314">
<ele>134.14</ele>
<time>2016-10-17T09:37:58Z</time>
</trkpt>
<trkpt lat="39.6968701" lon="3.3518041">
<ele>136.21</ele>
<time>2016-10-17T09:38:09Z</time>
</trkpt>
<trkpt lat="39.6967321" lon="3.3516476">
<ele>137.55</ele>
<time>2016-10-17T09:38:16Z</time>
</trkpt>
<trkpt lat="39.6965755" lon="3.3515090">
<ele>138.49</ele>
<time>2016-10-17T09:39:41Z</time>
</trkpt>
<trkpt lat="39.6964105" lon="3.3513648">
<ele>137.47</ele>
<time>2016-10-17T09:39:53Z</time>
</trkpt>
<trkpt lat="39.6962672" lon="3.3512141">
<ele>137.42</ele>
<time>2016-10-17T09:40:01Z</time>
</trkpt>
<trkpt lat="39.6961923" lon="3.3509953">
<ele>136.94</ele>
<time>2016-10-17T09:40:07Z</time>
</trkpt>
<trkpt lat="39.6962469" lon="3.3507615">
<ele>136.68</ele>
<time>2016-10-17T09:40:12Z</time>
</trkpt>
<trkpt lat="39.6962980" lon="3.3505059">
<ele>136.70</ele>
<time>2016-10-17T09:40:16Z</time>
</trkpt>
<trkpt lat="39.6963514" lon="3.3502726">
<ele>135.85</ele>
<time>2016-10-17T09:40:22Z</time>
</trkpt>
<trkpt lat="39.6963871" lon="3.3500296">
<ele>135.26</ele>
<time>2016-10-17T09:40:29Z</time>
</trkpt>
<trkpt lat="39.6962201" lon="3.3498988">
<ele>135.45</ele>
<time>2016-10-17T09:40:38Z</time>
</trkpt>
<trkpt lat="39.6960494" lon="3.3497899">
<ele>135.56</ele>
<time>2016-10-17T09:40:43Z</time>
</trkpt>
<trkpt lat="39.6958865" lon="3.3496005">
<ele>135.58</ele>
<time>2016-10-17T09:40:49Z</time>
</trkpt>
<trkpt lat="39.6957362" lon="3.3494551">
<ele>134.56</ele>
<time>2016-10-17T09:40:54Z</time>
</trkpt>
<trkpt lat="39.6955784" lon="3.3493357">
<ele>134.69</ele>
<time>2016-10-17T09:41:00Z</time>
</trkpt>
<trkpt lat="39.6954063" lon="3.3494479">
<ele>134.69</ele>
<time>2016-10-17T09:41:07Z</time>
</trkpt>
<trkpt lat="39.6953095" lon="3.3496845">
<ele>136.56</ele>
<time>2016-10-17T09:41:12Z</time>
</trkpt>
<trkpt lat="39.6952207" lon="3.3499064">
<ele>140.71</ele>
<time>2016-10-17T09:41:17Z</time>
</trkpt>
<trkpt lat="39.6951356" lon="3.3501505">
<ele>142.07</ele>
<time>2016-10-17T09:41:23Z</time>
</trkpt>
<trkpt lat="39.6950152" lon="3.3503714">
<ele>142.76</ele>
<time>2016-10-17T09:41:29Z</time>
</trkpt>
<trkpt lat="39.6948767" lon="3.3505341">
<ele>143.11</ele>
<time>2016-10-17T09:41:34Z</time>
</trkpt>
<trkpt lat="39.6947917" lon="3.3507692">
<ele>142.37</ele>
<time>2016-10-17T09:41:40Z</time>
</trkpt>
<trkpt lat="39.6945880" lon="3.3506893">
<ele>139.04</ele>
<time>2016-10-17T09:42:00Z</time>
</trkpt>
<trkpt lat="39.6944438" lon="3.3505336">
<ele>138.20</ele>
<time>2016-10-17T09:42:06Z</time>
</trkpt>
<trkpt lat="39.6943272" lon="3.3503130">
<ele>136.75</ele>
<time>2016-10-17T09:42:12Z</time>
</trkpt>
<trkpt lat="39.6943200" lon="3.3500287">
<ele>127.79</ele>
<time>2016-10-17T09:42:18Z</time>
</trkpt>
<trkpt lat="39.6943128" lon="3.3497868">
<ele>126.75</ele>
<time>2016-10-17T09:42:23Z</time>
</trkpt>
<trkpt lat="39.6943470" lon="3.3495242">
<ele>127.50</ele>
<time>2016-10-17T09:42:28Z</time>
</trkpt>
<trkpt lat="39.6943492" lon="3.3492889">
<ele>127.50</ele>
<time>2016-10-17T09:42:34Z</time>
</trkpt>
<trkpt lat="39.6943475" lon="3.3490250">
<ele>127.25</ele>
<time>2016-10-17T09:42:42Z</time>
</trkpt>
<trkpt lat="39.6943525" lon="3.3487557">
<ele>127.39</ele>
<time>2016-10-17T09:42:47Z</time>
</trkpt>
<trkpt lat="39.6942574" lon="3.3485367">
<ele>127.60</ele>
<time>2016-10-17T09:42:55Z</time>
</trkpt>
<trkpt lat="39.6941328" lon="3.3483287">
<ele>126.66</ele>
<time>2016-10-17T09:43:00Z</time>
</trkpt>
<trkpt lat="39.6940068" lon="3.3481374">
<ele>124.24</ele>
<time>2016-10-17T09:43:04Z</time>
</trkpt>
<trkpt lat="39.6938806" lon="3.3479433">
<ele>120.90</ele>
<time>2016-10-17T09:43:08Z</time>
</trkpt>
<trkpt lat="39.6937423" lon="3.3477798">
<ele>118.23</ele>
<time>2016-10-17T09:43:12Z</time>
</trkpt>
<trkpt lat="39.6936028" lon="3.3475958">
<ele>119.24</ele>
<time>2016-10-17T09:43:17Z</time>
</trkpt>
<trkpt lat="39.6934782" lon="3.3474039">
<ele>119.47</ele>
<time>2016-10-17T09:43:22Z</time>
</trkpt>
<trkpt lat="39.6933745" lon="3.3472074">
<ele>119.65</ele>
<time>2016-10-17T09:43:27Z</time>
</trkpt>
<trkpt lat="39.6932619" lon="3.3469997">
<ele>119.72</ele>
<time>2016-10-17T09:43:33Z</time>
</trkpt>
<trkpt lat="39.6931755" lon="3.3467791">
<ele>119.71</ele>
<time>2016-10-17T09:43:39Z</time>
</trkpt>
<trkpt lat="39.6930614" lon="3.3465694">
<ele>119.98</ele>
<time>2016-10-17T09:43:45Z</time>
</trkpt>
<trkpt lat="39.6929496" lon="3.3463606">
<ele>120.41</ele>
<time>2016-10-17T09:43:51Z</time>
</trkpt>
<trkpt lat="39.6928468" lon="3.3461288">
<ele>120.88</ele>
<time>2016-10-17T09:43:57Z</time>
</trkpt>
<trkpt lat="39.6927556" lon="3.3458852">
<ele>121.01</ele>
<time>2016-10-17T09:44:02Z</time>
</trkpt>
<trkpt lat="39.6926510" lon="3.3456732">
<ele>121.01</ele>
<time>2016-10-17T09:44:08Z</time>
</trkpt>
<trkpt lat="39.6925171" lon="3.3454951">
<ele>120.97</ele>
<time>2016-10-17T09:44:14Z</time>
</trkpt>
<trkpt lat="39.6924047" lon="3.3453067">
<ele>118.92</ele>
<time>2016-10-17T09:44:48Z</time>
</trkpt>
<trkpt lat="39.6922658" lon="3.3454583">
<ele>124.23</ele>
<time>2016-10-17T09:47:08Z</time>
</trkpt>
<trkpt lat="39.6924501" lon="3.3454288">
<ele>139.91</ele>
<time>2016-10-17T10:21:46Z</time>
</trkpt>
<trkpt lat="39.6926065" lon="3.3453129">
<ele>132.93</ele>
<time>2016-10-17T10:22:45Z</time>
</trkpt>
<trkpt lat="39.6924140" lon="3.3453945">
<ele>137.95</ele>
<time>2016-10-17T10:23:43Z</time>
</trkpt>
<trkpt lat="39.6922412" lon="3.3454615">
<ele>140.29</ele>
<time>2016-10-17T10:34:36Z</time>
</trkpt>
<trkpt lat="39.6921805" lon="3.3452212">
<ele>134.65</ele>
<time>2016-10-17T10:37:36Z</time>
</trkpt>
<trkpt lat="39.6920372" lon="3.3450610">
<ele>134.65</ele>
<time>2016-10-17T10:37:41Z</time>
</trkpt>
<trkpt lat="39.6919122" lon="3.3448001">
<ele>136.17</ele>
<time>2016-10-17T10:37:46Z</time>
</trkpt>
<trkpt lat="39.6918046" lon="3.3445979">
<ele>134.07</ele>
<time>2016-10-17T10:37:50Z</time>
</trkpt>
<trkpt lat="39.6916659" lon="3.3444353">
<ele>135.09</ele>
<time>2016-10-17T10:37:54Z</time>
</trkpt>
<trkpt lat="39.6915321" lon="3.3442172">
<ele>133.18</ele>
<time>2016-10-17T10:37:59Z</time>
</trkpt>
<trkpt lat="39.6913932" lon="3.3440357">
<ele>132.34</ele>
<time>2016-10-17T10:38:04Z</time>
</trkpt>
<trkpt lat="39.6912880" lon="3.3438235">
<ele>133.37</ele>
<time>2016-10-17T10:38:08Z</time>
</trkpt>
<trkpt lat="39.6912561" lon="3.3435743">
<ele>132.78</ele>
<time>2016-10-17T10:38:11Z</time>
</trkpt>
<trkpt lat="39.6912945" lon="3.3433155">
<ele>130.93</ele>
<time>2016-10-17T10:38:15Z</time>
</trkpt>
<trkpt lat="39.6912825" lon="3.3430362">
<ele>129.26</ele>
<time>2016-10-17T10:38:19Z</time>
</trkpt>
<trkpt lat="39.6912135" lon="3.3428119">
<ele>128.96</ele>
<time>2016-10-17T10:38:22Z</time>
</trkpt>
<trkpt lat="39.6911615" lon="3.3425514">
<ele>128.79</ele>
<time>2016-10-17T10:38:25Z</time>
</trkpt>
<trkpt lat="39.6911162" lon="3.3422768">
<ele>127.35</ele>
<time>2016-10-17T10:38:28Z</time>
</trkpt>
<trkpt lat="39.6910552" lon="3.3419607">
<ele>126.61</ele>
<time>2016-10-17T10:38:31Z</time>
</trkpt>
<trkpt lat="39.6909984" lon="3.3416472">
<ele>125.46</ele>
<time>2016-10-17T10:38:34Z</time>
</trkpt>
<trkpt lat="39.6909615" lon="3.3414146">
<ele>124.79</ele>
<time>2016-10-17T10:38:37Z</time>
</trkpt>
<trkpt lat="39.6909140" lon="3.3411807">
<ele>124.92</ele>
<time>2016-10-17T10:38:40Z</time>
</trkpt>
<trkpt lat="39.6908503" lon="3.3409096">
<ele>126.40</ele>
<time>2016-10-17T10:38:44Z</time>
</trkpt>
<trkpt lat="39.6907890" lon="3.3406538">
<ele>127.41</ele>
<time>2016-10-17T10:38:48Z</time>
</trkpt>
<trkpt lat="39.6907194" lon="3.3404249">
<ele>129.51</ele>
<time>2016-10-17T10:38:52Z</time>
</trkpt>
<trkpt lat="39.6906453" lon="3.3401881">
<ele>133.15</ele>
<time>2016-10-17T10:38:57Z</time>
</trkpt>
<trkpt lat="39.6905704" lon="3.3399508">
<ele>135.98</ele>
<time>2016-10-17T10:39:02Z</time>
</trkpt>
<trkpt lat="39.6905142" lon="3.3397057">
<ele>136.80</ele>
<time>2016-10-17T10:39:07Z</time>
</trkpt>
<trkpt lat="39.6904433" lon="3.3394595">
<ele>137.54</ele>
<time>2016-10-17T10:39:12Z</time>
</trkpt>
<trkpt lat="39.6903796" lon="3.3392394">
<ele>137.63</ele>
<time>2016-10-17T10:39:17Z</time>
</trkpt>
<trkpt lat="39.6903041" lon="3.3389703">
<ele>137.65</ele>
<time>2016-10-17T10:39:23Z</time>
</trkpt>
<trkpt lat="39.6902208" lon="3.3387307">
<ele>138.12</ele>
<time>2016-10-17T10:39:29Z</time>
</trkpt>
<trkpt lat="39.6901455" lon="3.3385157">
<ele>139.48</ele>
<time>2016-10-17T10:39:34Z</time>
</trkpt>
<trkpt lat="39.6900754" lon="3.3383001">
<ele>140.88</ele>
<time>2016-10-17T10:39:39Z</time>
</trkpt>
<trkpt lat="39.6899968" lon="3.3380819">
<ele>141.29</ele>
<time>2016-10-17T10:39:44Z</time>
</trkpt>
<trkpt lat="39.6899233" lon="3.3378501">
<ele>141.84</ele>
<time>2016-10-17T10:39:49Z</time>
</trkpt>
<trkpt lat="39.6898557" lon="3.3376327">
<ele>140.94</ele>
<time>2016-10-17T10:39:53Z</time>
</trkpt>
<trkpt lat="39.6897758" lon="3.3374097">
<ele>139.97</ele>
<time>2016-10-17T10:39:58Z</time>
</trkpt>
<trkpt lat="39.6896870" lon="3.3371921">
<ele>140.64</ele>
<time>2016-10-17T10:40:03Z</time>
</trkpt>
<trkpt lat="39.6895753" lon="3.3369469">
<ele>141.94</ele>
<time>2016-10-17T10:40:09Z</time>
</trkpt>
<trkpt lat="39.6894577" lon="3.3367193">
<ele>141.26</ele>
<time>2016-10-17T10:40:14Z</time>
</trkpt>
<trkpt lat="39.6893327" lon="3.3365204">
<ele>142.03</ele>
<time>2016-10-17T10:40:20Z</time>
</trkpt>
<trkpt lat="39.6892185" lon="3.3363320">
<ele>143.45</ele>
<time>2016-10-17T10:40:25Z</time>
</trkpt>
<trkpt lat="39.6890918" lon="3.3361048">
<ele>145.53</ele>
<time>2016-10-17T10:40:31Z</time>
</trkpt>
<trkpt lat="39.6889755" lon="3.3358719">
<ele>145.68</ele>
<time>2016-10-17T10:40:36Z</time>
</trkpt>
<trkpt lat="39.6888679" lon="3.3356401">
<ele>146.06</ele>
<time>2016-10-17T10:40:41Z</time>
</trkpt>
<trkpt lat="39.6887766" lon="3.3354124">
<ele>146.85</ele>
<time>2016-10-17T10:40:46Z</time>
</trkpt>
<trkpt lat="39.6886953" lon="3.3351477">
<ele>148.21</ele>
<time>2016-10-17T10:40:51Z</time>
</trkpt>
<trkpt lat="39.6886480" lon="3.3348921">
<ele>148.91</ele>
<time>2016-10-17T10:40:56Z</time>
</trkpt>
<trkpt lat="39.6886075" lon="3.3346329">
<ele>151.41</ele>
<time>2016-10-17T10:41:01Z</time>
</trkpt>
<trkpt lat="39.6885880" lon="3.3343540">
<ele>152.48</ele>
<time>2016-10-17T10:41:06Z</time>
</trkpt>
<trkpt lat="39.6885868" lon="3.3340776">
<ele>153.98</ele>
<time>2016-10-17T10:41:11Z</time>
</trkpt>
<trkpt lat="39.6886156" lon="3.3338020">
<ele>154.12</ele>
<time>2016-10-17T10:41:16Z</time>
</trkpt>
<trkpt lat="39.6886564" lon="3.3335389">
<ele>153.32</ele>
<time>2016-10-17T10:41:21Z</time>
</trkpt>
<trkpt lat="39.6887157" lon="3.3332748">
<ele>153.00</ele>
<time>2016-10-17T10:41:26Z</time>
</trkpt>
<trkpt lat="39.6887953" lon="3.3330162">
<ele>155.15</ele>
<time>2016-10-17T10:41:31Z</time>
</trkpt>
<trkpt lat="39.6888826" lon="3.3327952">
<ele>156.47</ele>
<time>2016-10-17T10:41:35Z</time>
</trkpt>
<trkpt lat="39.6889914" lon="3.3325605">
<ele>156.59</ele>
<time>2016-10-17T10:41:39Z</time>
</trkpt>
<trkpt lat="39.6891084" lon="3.3323413">
<ele>156.00</ele>
<time>2016-10-17T10:41:43Z</time>
</trkpt>
<trkpt lat="39.6892272" lon="3.3321270">
<ele>155.47</ele>
<time>2016-10-17T10:41:47Z</time>
</trkpt>
<trkpt lat="39.6893509" lon="3.3319026">
<ele>155.41</ele>
<time>2016-10-17T10:41:51Z</time>
</trkpt>
<trkpt lat="39.6894778" lon="3.3316575">
<ele>155.48</ele>
<time>2016-10-17T10:41:55Z</time>
</trkpt>
<trkpt lat="39.6896012" lon="3.3314048">
<ele>155.67</ele>
<time>2016-10-17T10:41:59Z</time>
</trkpt>
<trkpt lat="39.6897198" lon="3.3311492">
<ele>155.04</ele>
<time>2016-10-17T10:42:03Z</time>
</trkpt>
<trkpt lat="39.6898307" lon="3.3308933">
<ele>154.70</ele>
<time>2016-10-17T10:42:07Z</time>
</trkpt>
<trkpt lat="39.6899317" lon="3.3306487">
<ele>155.26</ele>
<time>2016-10-17T10:42:11Z</time>
</trkpt>
<trkpt lat="39.6900359" lon="3.3303997">
<ele>155.23</ele>
<time>2016-10-17T10:42:15Z</time>
</trkpt>
<trkpt lat="39.6901387" lon="3.3301260">
<ele>155.51</ele>
<time>2016-10-17T10:42:19Z</time>
</trkpt>
<trkpt lat="39.6902325" lon="3.3298503">
<ele>156.61</ele>
<time>2016-10-17T10:42:23Z</time>
</trkpt>
<trkpt lat="39.6903079" lon="3.3296222">
<ele>158.17</ele>
<time>2016-10-17T10:42:25Z</time>
</trkpt>
<trkpt lat="39.6903975" lon="3.3293413">
<ele>157.61</ele>
<time>2016-10-17T10:42:29Z</time>
</trkpt>
<trkpt lat="39.6904816" lon="3.3290540">
<ele>156.81</ele>
<time>2016-10-17T10:42:33Z</time>
</trkpt>
<trkpt lat="39.6905639" lon="3.3287701">
<ele>157.65</ele>
<time>2016-10-17T10:42:37Z</time>
</trkpt>
<trkpt lat="39.6906370" lon="3.3285269">
<ele>158.73</ele>
<time>2016-10-17T10:42:40Z</time>
</trkpt>
<trkpt lat="39.6907033" lon="3.3282886">
<ele>158.67</ele>
<time>2016-10-17T10:42:43Z</time>
</trkpt>
<trkpt lat="39.6907676" lon="3.3280701">
<ele>158.74</ele>
<time>2016-10-17T10:42:46Z</time>
</trkpt>
<trkpt lat="39.6908452" lon="3.3277963">
<ele>158.87</ele>
<time>2016-10-17T10:42:50Z</time>
</trkpt>
<trkpt lat="39.6909197" lon="3.3275224">
<ele>159.51</ele>
<time>2016-10-17T10:42:54Z</time>
</trkpt>
<trkpt lat="39.6909978" lon="3.3272403">
<ele>159.81</ele>
<time>2016-10-17T10:42:58Z</time>
</trkpt>
<trkpt lat="39.6910773" lon="3.3269654">
<ele>160.41</ele>
<time>2016-10-17T10:43:02Z</time>
</trkpt>
<trkpt lat="39.6911417" lon="3.3267206">
<ele>161.88</ele>
<time>2016-10-17T10:43:06Z</time>
</trkpt>
<trkpt lat="39.6912164" lon="3.3264401">
<ele>161.95</ele>
<time>2016-10-17T10:43:10Z</time>
</trkpt>
<trkpt lat="39.6912919" lon="3.3261772">
<ele>161.97</ele>
<time>2016-10-17T10:43:14Z</time>
</trkpt>
<trkpt lat="39.6913582" lon="3.3259064">
<ele>162.89</ele>
<time>2016-10-17T10:43:18Z</time>
</trkpt>
<trkpt lat="39.6914278" lon="3.3256384">
<ele>163.87</ele>
<time>2016-10-17T10:43:22Z</time>
</trkpt>
<trkpt lat="39.6915023" lon="3.3253572">
<ele>163.94</ele>
<time>2016-10-17T10:43:26Z</time>
</trkpt>
<trkpt lat="39.6915779" lon="3.3250644">
<ele>162.47</ele>
<time>2016-10-17T10:43:30Z</time>
</trkpt>
<trkpt lat="39.6916432" lon="3.3248446">
<ele>163.32</ele>
<time>2016-10-17T10:43:33Z</time>
</trkpt>
<trkpt lat="39.6917090" lon="3.3246098">
<ele>163.70</ele>
<time>2016-10-17T10:43:36Z</time>
</trkpt>
<trkpt lat="39.6917669" lon="3.3243818">
<ele>163.90</ele>
<time>2016-10-17T10:43:39Z</time>
</trkpt>
<trkpt lat="39.6918308" lon="3.3241388">
<ele>163.87</ele>
<time>2016-10-17T10:43:42Z</time>
</trkpt>
<trkpt lat="39.6919008" lon="3.3238873">
<ele>164.10</ele>
<time>2016-10-17T10:43:45Z</time>
</trkpt>
<trkpt lat="39.6919721" lon="3.3236516">
<ele>164.43</ele>
<time>2016-10-17T10:43:48Z</time>
</trkpt>
<trkpt lat="39.6920334" lon="3.3234091">
<ele>164.09</ele>
<time>2016-10-17T10:43:51Z</time>
</trkpt>
<trkpt lat="39.6920988" lon="3.3231542">
<ele>163.81</ele>
<time>2016-10-17T10:43:54Z</time>
</trkpt>
<trkpt lat="39.6921683" lon="3.3229070">
<ele>164.29</ele>
<time>2016-10-17T10:43:57Z</time>
</trkpt>
<trkpt lat="39.6922450" lon="3.3226375">
<ele>165.06</ele>
<time>2016-10-17T10:44:00Z</time>
</trkpt>
<trkpt lat="39.6923147" lon="3.3223901">
<ele>165.56</ele>
<time>2016-10-17T10:44:03Z</time>
</trkpt>
<trkpt lat="39.6923805" lon="3.3221468">
<ele>166.61</ele>
<time>2016-10-17T10:44:06Z</time>
</trkpt>
<trkpt lat="39.6924493" lon="3.3218949">
<ele>167.58</ele>
<time>2016-10-17T10:44:09Z</time>
</trkpt>
<trkpt lat="39.6925134" lon="3.3216522">
<ele>168.43</ele>
<time>2016-10-17T10:44:12Z</time>
</trkpt>
<trkpt lat="39.6925730" lon="3.3214222">
<ele>169.13</ele>
<time>2016-10-17T10:44:15Z</time>
</trkpt>
<trkpt lat="39.6926329" lon="3.3211743">
<ele>169.43</ele>
<time>2016-10-17T10:44:18Z</time>
</trkpt>
<trkpt lat="39.6927029" lon="3.3209015">
<ele>168.45</ele>
<time>2016-10-17T10:44:22Z</time>
</trkpt>
<trkpt lat="39.6927622" lon="3.3206781">
<ele>167.93</ele>
<time>2016-10-17T10:44:25Z</time>
</trkpt>
<trkpt lat="39.6928358" lon="3.3204058">
<ele>168.68</ele>
<time>2016-10-17T10:44:29Z</time>
</trkpt>
<trkpt lat="39.6929058" lon="3.3201281">
<ele>170.08</ele>
<time>2016-10-17T10:44:33Z</time>
</trkpt>
<trkpt lat="39.6929710" lon="3.3198323">
<ele>171.41</ele>
<time>2016-10-17T10:44:37Z</time>
</trkpt>
<trkpt lat="39.6930272" lon="3.3195366">
<ele>173.27</ele>
<time>2016-10-17T10:44:41Z</time>
</trkpt>
<trkpt lat="39.6930646" lon="3.3192628">
<ele>175.25</ele>
<time>2016-10-17T10:44:45Z</time>
</trkpt>
<trkpt lat="39.6930913" lon="3.3190285">
<ele>175.90</ele>
<time>2016-10-17T10:44:48Z</time>
</trkpt>
<trkpt lat="39.6931281" lon="3.3187299">
<ele>176.19</ele>
<time>2016-10-17T10:44:52Z</time>
</trkpt>
<trkpt lat="39.6931565" lon="3.3184229">
<ele>175.51</ele>
<time>2016-10-17T10:44:56Z</time>
</trkpt>
<trkpt lat="39.6931874" lon="3.3181522">
<ele>175.20</ele>
<time>2016-10-17T10:45:00Z</time>
</trkpt>
<trkpt lat="39.6932073" lon="3.3178642">
<ele>174.61</ele>
<time>2016-10-17T10:45:04Z</time>
</trkpt>
<trkpt lat="39.6932140" lon="3.3176304">
<ele>174.86</ele>
<time>2016-10-17T10:45:07Z</time>
</trkpt>
<trkpt lat="39.6932092" lon="3.3173119">
<ele>175.51</ele>
<time>2016-10-17T10:45:11Z</time>
</trkpt>
<trkpt lat="39.6931841" lon="3.3170176">
<ele>178.02</ele>
<time>2016-10-17T10:45:15Z</time>
</trkpt>
<trkpt lat="39.6931566" lon="3.3167308">
<ele>180.77</ele>
<time>2016-10-17T10:45:19Z</time>
</trkpt>
<trkpt lat="39.6931250" lon="3.3164339">
<ele>182.44</ele>
<time>2016-10-17T10:45:23Z</time>
</trkpt>
<trkpt lat="39.6930964" lon="3.3161892">
<ele>182.60</ele>
<time>2016-10-17T10:45:26Z</time>
</trkpt>
<trkpt lat="39.6930681" lon="3.3159412">
<ele>181.66</ele>
<time>2016-10-17T10:45:29Z</time>
</trkpt>
<trkpt lat="39.6930180" lon="3.3156482">
<ele>180.27</ele>
<time>2016-10-17T10:45:33Z</time>
</trkpt>
<trkpt lat="39.6929911" lon="3.3154126">
<ele>182.08</ele>
<time>2016-10-17T10:45:36Z</time>
</trkpt>
<trkpt lat="39.6929721" lon="3.3150951">
<ele>182.08</ele>
<time>2016-10-17T10:45:40Z</time>
</trkpt>
<trkpt lat="39.6929492" lon="3.3148529">
<ele>182.55</ele>
<time>2016-10-17T10:45:43Z</time>
</trkpt>
<trkpt lat="39.6929271" lon="3.3146086">
<ele>182.56</ele>
<time>2016-10-17T10:45:46Z</time>
</trkpt>
<trkpt lat="39.6929080" lon="3.3143541">
<ele>182.00</ele>
<time>2016-10-17T10:45:49Z</time>
</trkpt>
<trkpt lat="39.6928887" lon="3.3141175">
<ele>181.51</ele>
<time>2016-10-17T10:45:52Z</time>
</trkpt>
<trkpt lat="39.6928798" lon="3.3138617">
<ele>181.88</ele>
<time>2016-10-17T10:45:55Z</time>
</trkpt>
<trkpt lat="39.6928750" lon="3.3136030">
<ele>182.46</ele>
<time>2016-10-17T10:45:58Z</time>
</trkpt>
<trkpt lat="39.6928763" lon="3.3133340">
<ele>183.24</ele>
<time>2016-10-17T10:46:01Z</time>
</trkpt>
<trkpt lat="39.6928894" lon="3.3130670">
<ele>183.89</ele>
<time>2016-10-17T10:46:04Z</time>
</trkpt>
<trkpt lat="39.6929195" lon="3.3127952">
<ele>184.05</ele>
<time>2016-10-17T10:46:07Z</time>
</trkpt>
<trkpt lat="39.6929571" lon="3.3125158">
<ele>183.63</ele>
<time>2016-10-17T10:46:10Z</time>
</trkpt>
<trkpt lat="39.6929995" lon="3.3122193">
<ele>182.59</ele>
<time>2016-10-17T10:46:13Z</time>
</trkpt>
<trkpt lat="39.6930541" lon="3.3118965">
<ele>181.54</ele>
<time>2016-10-17T10:46:16Z</time>
</trkpt>
<trkpt lat="39.6931142" lon="3.3115803">
<ele>180.54</ele>
<time>2016-10-17T10:46:19Z</time>
</trkpt>
<trkpt lat="39.6931771" lon="3.3112721">
<ele>180.72</ele>
<time>2016-10-17T10:46:22Z</time>
</trkpt>
<trkpt lat="39.6932487" lon="3.3109548">
<ele>180.62</ele>
<time>2016-10-17T10:46:25Z</time>
</trkpt>
<trkpt lat="39.6933242" lon="3.3106305">
<ele>180.15</ele>
<time>2016-10-17T10:46:28Z</time>
</trkpt>
<trkpt lat="39.6933772" lon="3.3104021">
<ele>179.73</ele>
<time>2016-10-17T10:46:30Z</time>
</trkpt>
<trkpt lat="39.6934498" lon="3.3100758">
<ele>178.79</ele>
<time>2016-10-17T10:46:33Z</time>
</trkpt>
<trkpt lat="39.6935176" lon="3.3097396">
<ele>177.12</ele>
<time>2016-10-17T10:46:36Z</time>
</trkpt>
<trkpt lat="39.6935842" lon="3.3094096">
<ele>176.45</ele>
<time>2016-10-17T10:46:39Z</time>
</trkpt>
<trkpt lat="39.6936568" lon="3.3090918">
<ele>177.03</ele>
<time>2016-10-17T10:46:42Z</time>
</trkpt>
<trkpt lat="39.6937080" lon="3.3088664">
<ele>176.98</ele>
<time>2016-10-17T10:46:44Z</time>
</trkpt>
<trkpt lat="39.6937721" lon="3.3085427">
<ele>176.59</ele>
<time>2016-10-17T10:46:47Z</time>
</trkpt>
<trkpt lat="39.6938353" lon="3.3082294">
<ele>175.69</ele>
<time>2016-10-17T10:46:50Z</time>
</trkpt>
<trkpt lat="39.6938977" lon="3.3079427">
<ele>175.63</ele>
<time>2016-10-17T10:46:53Z</time>
</trkpt>
<trkpt lat="39.6939649" lon="3.3076350">
<ele>177.56</ele>
<time>2016-10-17T10:46:56Z</time>
</trkpt>
<trkpt lat="39.6940186" lon="3.3073727">
<ele>179.11</ele>
<time>2016-10-17T10:46:59Z</time>
</trkpt>
<trkpt lat="39.6940774" lon="3.3070869">
<ele>179.56</ele>
<time>2016-10-17T10:47:02Z</time>
</trkpt>
<trkpt lat="39.6941324" lon="3.3067797">
<ele>178.56</ele>
<time>2016-10-17T10:47:05Z</time>
</trkpt>
<trkpt lat="39.6941715" lon="3.3065173">
<ele>178.47</ele>
<time>2016-10-17T10:47:08Z</time>
</trkpt>
<trkpt lat="39.6942065" lon="3.3062634">
<ele>179.12</ele>
<time>2016-10-17T10:47:11Z</time>
</trkpt>
<trkpt lat="39.6942305" lon="3.3059988">
<ele>180.15</ele>
<time>2016-10-17T10:47:14Z</time>
</trkpt>
<trkpt lat="39.6942512" lon="3.3057399">
<ele>180.82</ele>
<time>2016-10-17T10:47:17Z</time>
</trkpt>
<trkpt lat="39.6942610" lon="3.3054904">
<ele>181.27</ele>
<time>2016-10-17T10:47:20Z</time>
</trkpt>
<trkpt lat="39.6942646" lon="3.3052555">
<ele>180.92</ele>
<time>2016-10-17T10:47:23Z</time>
</trkpt>
<trkpt lat="39.6942709" lon="3.3050145">
<ele>180.65</ele>
<time>2016-10-17T10:47:26Z</time>
</trkpt>
<trkpt lat="39.6942763" lon="3.3047780">
<ele>180.21</ele>
<time>2016-10-17T10:47:29Z</time>
</trkpt>
<trkpt lat="39.6942770" lon="3.3044882">
<ele>181.03</ele>
<time>2016-10-17T10:47:33Z</time>
</trkpt>
<trkpt lat="39.6942777" lon="3.3041966">
<ele>182.87</ele>
<time>2016-10-17T10:47:37Z</time>
</trkpt>
<trkpt lat="39.6942767" lon="3.3038940">
<ele>183.66</ele>
<time>2016-10-17T10:47:41Z</time>
</trkpt>
<trkpt lat="39.6942667" lon="3.3036295">
<ele>182.87</ele>
<time>2016-10-17T10:47:45Z</time>
</trkpt>
<trkpt lat="39.6942402" lon="3.3033547">
<ele>182.42</ele>
<time>2016-10-17T10:47:49Z</time>
</trkpt>
<trkpt lat="39.6942030" lon="3.3030804">
<ele>183.40</ele>
<time>2016-10-17T10:47:53Z</time>
</trkpt>
<trkpt lat="39.6941611" lon="3.3028085">
<ele>185.45</ele>
<time>2016-10-17T10:47:57Z</time>
</trkpt>
<trkpt lat="39.6941286" lon="3.3025486">
<ele>186.76</ele>
<time>2016-10-17T10:48:01Z</time>
</trkpt>
<trkpt lat="39.6940949" lon="3.3022660">
<ele>187.15</ele>
<time>2016-10-17T10:48:05Z</time>
</trkpt>
<trkpt lat="39.6940542" lon="3.3019805">
<ele>187.83</ele>
<time>2016-10-17T10:48:09Z</time>
</trkpt>
<trkpt lat="39.6940132" lon="3.3017010">
<ele>188.94</ele>
<time>2016-10-17T10:48:13Z</time>
</trkpt>
<trkpt lat="39.6939688" lon="3.3014192">
<ele>188.46</ele>
<time>2016-10-17T10:48:17Z</time>
</trkpt>
<trkpt lat="39.6939330" lon="3.3011857">
<ele>189.23</ele>
<time>2016-10-17T10:48:20Z</time>
</trkpt>
<trkpt lat="39.6938945" lon="3.3009013">
<ele>189.80</ele>
<time>2016-10-17T10:48:24Z</time>
</trkpt>
<trkpt lat="39.6938504" lon="3.3006094">
<ele>189.51</ele>
<time>2016-10-17T10:48:28Z</time>
</trkpt>
<trkpt lat="39.6938067" lon="3.3003222">
<ele>189.94</ele>
<time>2016-10-17T10:48:32Z</time>
</trkpt>
<trkpt lat="39.6937650" lon="3.3000330">
<ele>190.51</ele>
<time>2016-10-17T10:48:36Z</time>
</trkpt>
<trkpt lat="39.6937188" lon="3.2997342">
<ele>192.31</ele>
<time>2016-10-17T10:48:40Z</time>
</trkpt>
<trkpt lat="39.6936817" lon="3.2994615">
<ele>192.91</ele>
<time>2016-10-17T10:48:44Z</time>
</trkpt>
<trkpt lat="39.6936546" lon="3.2992112">
<ele>193.34</ele>
<time>2016-10-17T10:48:48Z</time>
</trkpt>
<trkpt lat="39.6936312" lon="3.2989467">
<ele>195.81</ele>
<time>2016-10-17T10:48:52Z</time>
</trkpt>
<trkpt lat="39.6936055" lon="3.2986717">
<ele>195.40</ele>
<time>2016-10-17T10:48:57Z</time>
</trkpt>
<trkpt lat="39.6935741" lon="3.2983911">
<ele>195.82</ele>
<time>2016-10-17T10:49:01Z</time>
</trkpt>
<trkpt lat="39.6935276" lon="3.2981362">
<ele>197.93</ele>
<time>2016-10-17T10:49:05Z</time>
</trkpt>
<trkpt lat="39.6934761" lon="3.2978595">
<ele>197.98</ele>
<time>2016-10-17T10:49:09Z</time>
</trkpt>
<trkpt lat="39.6934337" lon="3.2975963">
<ele>197.94</ele>
<time>2016-10-17T10:49:13Z</time>
</trkpt>
<trkpt lat="39.6933956" lon="3.2973487">
<ele>198.81</ele>
<time>2016-10-17T10:49:17Z</time>
</trkpt>
<trkpt lat="39.6933620" lon="3.2970803">
<ele>198.94</ele>
<time>2016-10-17T10:49:21Z</time>
</trkpt>
<trkpt lat="39.6933262" lon="3.2968294">
<ele>198.91</ele>
<time>2016-10-17T10:49:25Z</time>
</trkpt>
<trkpt lat="39.6932846" lon="3.2965646">
<ele>199.22</ele>
<time>2016-10-17T10:49:29Z</time>
</trkpt>
<trkpt lat="39.6932414" lon="3.2963328">
<ele>200.61</ele>
<time>2016-10-17T10:49:33Z</time>
</trkpt>
<trkpt lat="39.6931961" lon="3.2960961">
<ele>201.88</ele>
<time>2016-10-17T10:49:37Z</time>
</trkpt>
<trkpt lat="39.6931345" lon="3.2958182">
<ele>202.25</ele>
<time>2016-10-17T10:49:41Z</time>
</trkpt>
<trkpt lat="39.6930633" lon="3.2955272">
<ele>200.77</ele>
<time>2016-10-17T10:49:45Z</time>
</trkpt>
<trkpt lat="39.6930107" lon="3.2952955">
<ele>199.08</ele>
<time>2016-10-17T10:49:48Z</time>
</trkpt>
<trkpt lat="39.6929413" lon="3.2949905">
<ele>196.75</ele>
<time>2016-10-17T10:49:52Z</time>
</trkpt>
<trkpt lat="39.6928762" lon="3.2947361">
<ele>195.89</ele>
<time>2016-10-17T10:49:55Z</time>
</trkpt>
<trkpt lat="39.6927885" lon="3.2944422">
<ele>197.23</ele>
<time>2016-10-17T10:49:58Z</time>
</trkpt>
<trkpt lat="39.6927218" lon="3.2942000">
<ele>197.95</ele>
<time>2016-10-17T10:50:00Z</time>
</trkpt>
<trkpt lat="39.6926591" lon="3.2939553">
<ele>198.44</ele>
<time>2016-10-17T10:50:02Z</time>
</trkpt>
<trkpt lat="39.6925966" lon="3.2936837">
<ele>198.65</ele>
<time>2016-10-17T10:50:04Z</time>
</trkpt>
<trkpt lat="39.6925446" lon="3.2934039">
<ele>198.27</ele>
<time>2016-10-17T10:50:06Z</time>
</trkpt>
<trkpt lat="39.6925034" lon="3.2931067">
<ele>197.17</ele>
<time>2016-10-17T10:50:08Z</time>
</trkpt>
<trkpt lat="39.6924620" lon="3.2927628">
<ele>195.14</ele>
<time>2016-10-17T10:50:10Z</time>
</trkpt>
<trkpt lat="39.6924410" lon="3.2924122">
<ele>192.95</ele>
<time>2016-10-17T10:50:12Z</time>
</trkpt>
<trkpt lat="39.6924282" lon="3.2920531">
<ele>191.35</ele>
<time>2016-10-17T10:50:14Z</time>
</trkpt>
<trkpt lat="39.6924358" lon="3.2916983">
<ele>189.06</ele>
<time>2016-10-17T10:50:16Z</time>
</trkpt>
<trkpt lat="39.6924585" lon="3.2913204">
<ele>187.19</ele>
<time>2016-10-17T10:50:18Z</time>
</trkpt>
<trkpt lat="39.6924983" lon="3.2909251">
<ele>185.34</ele>
<time>2016-10-17T10:50:20Z</time>
</trkpt>
<trkpt lat="39.6925549" lon="3.2905300">
<ele>183.27</ele>
<time>2016-10-17T10:50:22Z</time>
</trkpt>
<trkpt lat="39.6926332" lon="3.2901462">
<ele>180.64</ele>
<time>2016-10-17T10:50:24Z</time>
</trkpt>
<trkpt lat="39.6927340" lon="3.2897630">
<ele>177.70</ele>
<time>2016-10-17T10:50:26Z</time>
</trkpt>
<trkpt lat="39.6928495" lon="3.2893878">
<ele>175.19</ele>
<time>2016-10-17T10:50:28Z</time>
</trkpt>
<trkpt lat="39.6929779" lon="3.2890086">
<ele>172.78</ele>
<time>2016-10-17T10:50:30Z</time>
</trkpt>
<trkpt lat="39.6931133" lon="3.2886069">
<ele>170.49</ele>
<time>2016-10-17T10:50:32Z</time>
</trkpt>
<trkpt lat="39.6932532" lon="3.2882084">
<ele>168.00</ele>
<time>2016-10-17T10:50:35Z</time>
</trkpt>
<trkpt lat="39.6933986" lon="3.2878060">
<ele>164.64</ele>
<time>2016-10-17T10:50:37Z</time>
</trkpt>
<trkpt lat="39.6935467" lon="3.2874027">
<ele>160.54</ele>
<time>2016-10-17T10:50:39Z</time>
</trkpt>
<trkpt lat="39.6936893" lon="3.2870025">
<ele>156.78</ele>
<time>2016-10-17T10:50:41Z</time>
</trkpt>
<trkpt lat="39.6938316" lon="3.2865986">
<ele>153.73</ele>
<time>2016-10-17T10:50:43Z</time>
</trkpt>
<trkpt lat="39.6939695" lon="3.2861957">
<ele>151.01</ele>
<time>2016-10-17T10:50:45Z</time>
</trkpt>
<trkpt lat="39.6941031" lon="3.2857940">
<ele>148.73</ele>
<time>2016-10-17T10:50:47Z</time>
</trkpt>
<trkpt lat="39.6942341" lon="3.2853809">
<ele>146.68</ele>
<time>2016-10-17T10:50:49Z</time>
</trkpt>
<trkpt lat="39.6943698" lon="3.2849651">
<ele>144.56</ele>
<time>2016-10-17T10:50:51Z</time>
</trkpt>
<trkpt lat="39.6945016" lon="3.2845539">
<ele>142.18</ele>
<time>2016-10-17T10:50:53Z</time>
</trkpt>
<trkpt lat="39.6946303" lon="3.2841422">
<ele>140.08</ele>
<time>2016-10-17T10:50:55Z</time>
</trkpt>
<trkpt lat="39.6947490" lon="3.2837422">
<ele>138.15</ele>
<time>2016-10-17T10:50:57Z</time>
</trkpt>
<trkpt lat="39.6948523" lon="3.2833489">
<ele>136.72</ele>
<time>2016-10-17T10:50:59Z</time>
</trkpt>
<trkpt lat="39.6949414" lon="3.2829740">
<ele>136.39</ele>
<time>2016-10-17T10:51:01Z</time>
</trkpt>
<trkpt lat="39.6950171" lon="3.2825992">
<ele>136.18</ele>
<time>2016-10-17T10:51:03Z</time>
</trkpt>
<trkpt lat="39.6950808" lon="3.2822400">
<ele>136.27</ele>
<time>2016-10-17T10:51:05Z</time>
</trkpt>
<trkpt lat="39.6951296" lon="3.2818915">
<ele>136.31</ele>
<time>2016-10-17T10:51:07Z</time>
</trkpt>
<trkpt lat="39.6951770" lon="3.2815413">
<ele>136.40</ele>
<time>2016-10-17T10:51:09Z</time>
</trkpt>
<trkpt lat="39.6952166" lon="3.2811961">
<ele>136.35</ele>
<time>2016-10-17T10:51:11Z</time>
</trkpt>
<trkpt lat="39.6952549" lon="3.2808468">
<ele>135.99</ele>
<time>2016-10-17T10:51:13Z</time>
</trkpt>
<trkpt lat="39.6952849" lon="3.2804992">
<ele>135.01</ele>
<time>2016-10-17T10:51:15Z</time>
</trkpt>
<trkpt lat="39.6953113" lon="3.2801527">
<ele>133.77</ele>
<time>2016-10-17T10:51:17Z</time>
</trkpt>
<trkpt lat="39.6953287" lon="3.2798447">
<ele>132.38</ele>
<time>2016-10-17T10:51:19Z</time>
</trkpt>
<trkpt lat="39.6953440" lon="3.2795357">
<ele>131.72</ele>
<time>2016-10-17T10:51:21Z</time>
</trkpt>
<trkpt lat="39.6953660" lon="3.2792017">
<ele>130.99</ele>
<time>2016-10-17T10:51:23Z</time>
</trkpt>
<trkpt lat="39.6953863" lon="3.2788864">
<ele>130.83</ele>
<time>2016-10-17T10:51:25Z</time>
</trkpt>
<trkpt lat="39.6954082" lon="3.2785547">
<ele>131.01</ele>
<time>2016-10-17T10:51:27Z</time>
</trkpt>
<trkpt lat="39.6954365" lon="3.2782165">
<ele>131.24</ele>
<time>2016-10-17T10:51:29Z</time>
</trkpt>
<trkpt lat="39.6954756" lon="3.2778895">
<ele>131.80</ele>
<time>2016-10-17T10:51:31Z</time>
</trkpt>
<trkpt lat="39.6955249" lon="3.2775508">
<ele>131.91</ele>
<time>2016-10-17T10:51:33Z</time>
</trkpt>
<trkpt lat="39.6955677" lon="3.2772209">
<ele>132.18</ele>
<time>2016-10-17T10:51:35Z</time>
</trkpt>
<trkpt lat="39.6956172" lon="3.2768853">
<ele>131.63</ele>
<time>2016-10-17T10:51:37Z</time>
</trkpt>
<trkpt lat="39.6956731" lon="3.2765473">
<ele>130.29</ele>
<time>2016-10-17T10:51:39Z</time>
</trkpt>
<trkpt lat="39.6957303" lon="3.2762368">
<ele>129.37</ele>
<time>2016-10-17T10:51:41Z</time>
</trkpt>
<trkpt lat="39.6957911" lon="3.2759191">
<ele>128.73</ele>
<time>2016-10-17T10:51:43Z</time>
</trkpt>
<trkpt lat="39.6958578" lon="3.2755999">
<ele>127.97</ele>
<time>2016-10-17T10:51:45Z</time>
</trkpt>
<trkpt lat="39.6959209" lon="3.2752950">
<ele>126.74</ele>
<time>2016-10-17T10:51:47Z</time>
</trkpt>
<trkpt lat="39.6959913" lon="3.2750005">
<ele>125.84</ele>
<time>2016-10-17T10:51:49Z</time>
</trkpt>
<trkpt lat="39.6960681" lon="3.2747000">
<ele>125.17</ele>
<time>2016-10-17T10:51:51Z</time>
</trkpt>
<trkpt lat="39.6961455" lon="3.2744122">
<ele>124.51</ele>
<time>2016-10-17T10:51:53Z</time>
</trkpt>
<trkpt lat="39.6962257" lon="3.2741213">
<ele>124.34</ele>
<time>2016-10-17T10:51:55Z</time>
</trkpt>
<trkpt lat="39.6963104" lon="3.2738213">
<ele>123.86</ele>
<time>2016-10-17T10:51:57Z</time>
</trkpt>
<trkpt lat="39.6963987" lon="3.2735316">
<ele>123.27</ele>
<time>2016-10-17T10:51:59Z</time>
</trkpt>
<trkpt lat="39.6964892" lon="3.2732552">
<ele>122.73</ele>
<time>2016-10-17T10:52:01Z</time>
</trkpt>
<trkpt lat="39.6965853" lon="3.2729702">
<ele>122.21</ele>
<time>2016-10-17T10:52:03Z</time>
</trkpt>
<trkpt lat="39.6966844" lon="3.2726919">
<ele>121.60</ele>
<time>2016-10-17T10:52:05Z</time>
</trkpt>
<trkpt lat="39.6967851" lon="3.2724065">
<ele>120.81</ele>
<time>2016-10-17T10:52:07Z</time>
</trkpt>
<trkpt lat="39.6968907" lon="3.2721266">
<ele>119.83</ele>
<time>2016-10-17T10:52:09Z</time>
</trkpt>
<trkpt lat="39.6969989" lon="3.2718532">
<ele>118.89</ele>
<time>2016-10-17T10:52:11Z</time>
</trkpt>
<trkpt lat="39.6971062" lon="3.2715823">
<ele>118.17</ele>
<time>2016-10-17T10:52:13Z</time>
</trkpt>
<trkpt lat="39.6972155" lon="3.2713063">
<ele>117.64</ele>
<time>2016-10-17T10:52:15Z</time>
</trkpt>
<trkpt lat="39.6973246" lon="3.2710296">
<ele>117.24</ele>
<time>2016-10-17T10:52:17Z</time>
</trkpt>
<trkpt lat="39.6974305" lon="3.2707607">
<ele>116.87</ele>
<time>2016-10-17T10:52:19Z</time>
</trkpt>
<trkpt lat="39.6975376" lon="3.2704874">
<ele>116.40</ele>
<time>2016-10-17T10:52:21Z</time>
</trkpt>
<trkpt lat="39.6976417" lon="3.2702174">
<ele>115.70</ele>
<time>2016-10-17T10:52:23Z</time>
</trkpt>
<trkpt lat="39.6977423" lon="3.2699532">
<ele>114.77</ele>
<time>2016-10-17T10:52:25Z</time>
</trkpt>
<trkpt lat="39.6978476" lon="3.2696795">
<ele>114.00</ele>
<time>2016-10-17T10:52:27Z</time>
</trkpt>
<trkpt lat="39.6979454" lon="3.2694242">
<ele>113.34</ele>
<time>2016-10-17T10:52:29Z</time>
</trkpt>
<trkpt lat="39.6980442" lon="3.2691646">
<ele>112.71</ele>
<time>2016-10-17T10:52:31Z</time>
</trkpt>
<trkpt lat="39.6981423" lon="3.2689084">
<ele>112.03</ele>
<time>2016-10-17T10:52:33Z</time>
</trkpt>
<trkpt lat="39.6982403" lon="3.2686604">
<ele>111.64</ele>
<time>2016-10-17T10:52:35Z</time>
</trkpt>
<trkpt lat="39.6983386" lon="3.2684084">
<ele>111.65</ele>
<time>2016-10-17T10:52:37Z</time>
</trkpt>
<trkpt lat="39.6984363" lon="3.2681581">
<ele>111.64</ele>
<time>2016-10-17T10:52:39Z</time>
</trkpt>
<trkpt lat="39.6985354" lon="3.2679001">
<ele>111.46</ele>
<time>2016-10-17T10:52:41Z</time>
</trkpt>
<trkpt lat="39.6986382" lon="3.2676332">
<ele>111.17</ele>
<time>2016-10-17T10:52:43Z</time>
</trkpt>
<trkpt lat="39.6987426" lon="3.2673609">
<ele>110.74</ele>
<time>2016-10-17T10:52:45Z</time>
</trkpt>
<trkpt lat="39.6988555" lon="3.2670684">
<ele>110.10</ele>
<time>2016-10-17T10:52:47Z</time>
</trkpt>
<trkpt lat="39.6989721" lon="3.2667666">
<ele>109.91</ele>
<time>2016-10-17T10:52:49Z</time>
</trkpt>
<trkpt lat="39.6991107" lon="3.2664541">
<ele>110.26</ele>
<time>2016-10-17T10:52:51Z</time>
</trkpt>
<trkpt lat="39.6992727" lon="3.2661873">
<ele>110.26</ele>
<time>2016-10-17T10:52:53Z</time>
</trkpt>
<trkpt lat="39.6994583" lon="3.2659445">
<ele>110.34</ele>
<time>2016-10-17T10:52:55Z</time>
</trkpt>
<trkpt lat="39.6996620" lon="3.2657055">
<ele>109.82</ele>
<time>2016-10-17T10:52:57Z</time>
</trkpt>
<trkpt lat="39.6998829" lon="3.2654750">
<ele>108.80</ele>
<time>2016-10-17T10:52:59Z</time>
</trkpt>
<trkpt lat="39.7001023" lon="3.2652488">
<ele>107.42</ele>
<time>2016-10-17T10:53:01Z</time>
</trkpt>
<trkpt lat="39.7002869" lon="3.2650294">
<ele>106.31</ele>
<time>2016-10-17T10:53:03Z</time>
</trkpt>
<trkpt lat="39.7004575" lon="3.2647991">
<ele>105.51</ele>
<time>2016-10-17T10:53:05Z</time>
</trkpt>
<trkpt lat="39.7006080" lon="3.2645517">
<ele>104.46</ele>
<time>2016-10-17T10:53:07Z</time>
</trkpt>
<trkpt lat="39.7007347" lon="3.2642991">
<ele>104.30</ele>
<time>2016-10-17T10:53:09Z</time>
</trkpt>
<trkpt lat="39.7008403" lon="3.2640507">
<ele>104.88</ele>
<time>2016-10-17T10:53:11Z</time>
</trkpt>
<trkpt lat="39.7009324" lon="3.2637884">
<ele>105.42</ele>
<time>2016-10-17T10:53:13Z</time>
</trkpt>
<trkpt lat="39.7010043" lon="3.2635307">
<ele>105.99</ele>
<time>2016-10-17T10:53:15Z</time>
</trkpt>
<trkpt lat="39.7010648" lon="3.2632539">
<ele>106.47</ele>
<time>2016-10-17T10:53:17Z</time>
</trkpt>
<trkpt lat="39.7011036" lon="3.2629881">
<ele>107.20</ele>
<time>2016-10-17T10:53:19Z</time>
</trkpt>
<trkpt lat="39.7011345" lon="3.2627324">
<ele>107.62</ele>
<time>2016-10-17T10:53:21Z</time>
</trkpt>
<trkpt lat="39.7011552" lon="3.2624880">
<ele>107.70</ele>
<time>2016-10-17T10:53:23Z</time>
</trkpt>
<trkpt lat="39.7011666" lon="3.2622355">
<ele>107.67</ele>
<time>2016-10-17T10:53:25Z</time>
</trkpt>
<trkpt lat="39.7011760" lon="3.2618875">
<ele>106.80</ele>
<time>2016-10-17T10:53:28Z</time>
</trkpt>
<trkpt lat="39.7011860" lon="3.2615612">
<ele>106.34</ele>
<time>2016-10-17T10:53:31Z</time>
</trkpt>
<trkpt lat="39.7011896" lon="3.2612297">
<ele>106.12</ele>
<time>2016-10-17T10:53:34Z</time>
</trkpt>
<trkpt lat="39.7011966" lon="3.2608932">
<ele>105.01</ele>
<time>2016-10-17T10:53:37Z</time>
</trkpt>
<trkpt lat="39.7012064" lon="3.2605680">
<ele>103.62</ele>
<time>2016-10-17T10:53:40Z</time>
</trkpt>
<trkpt lat="39.7012114" lon="3.2602434">
<ele>102.57</ele>
<time>2016-10-17T10:53:43Z</time>
</trkpt>
<trkpt lat="39.7012178" lon="3.2599374">
<ele>102.64</ele>
<time>2016-10-17T10:53:46Z</time>
</trkpt>
<trkpt lat="39.7012236" lon="3.2596026">
<ele>103.42</ele>
<time>2016-10-17T10:53:49Z</time>
</trkpt>
<trkpt lat="39.7012262" lon="3.2592663">
<ele>103.87</ele>
<time>2016-10-17T10:53:52Z</time>
</trkpt>
<trkpt lat="39.7012307" lon="3.2589191">
<ele>104.47</ele>
<time>2016-10-17T10:53:55Z</time>
</trkpt>
<trkpt lat="39.7012407" lon="3.2586777">
<ele>103.91</ele>
<time>2016-10-17T10:53:57Z</time>
</trkpt>
<trkpt lat="39.7012508" lon="3.2584340">
<ele>103.47</ele>
<time>2016-10-17T10:53:59Z</time>
</trkpt>
<trkpt lat="39.7012553" lon="3.2581744">
<ele>103.22</ele>
<time>2016-10-17T10:54:01Z</time>
</trkpt>
<trkpt lat="39.7012595" lon="3.2579083">
<ele>103.24</ele>
<time>2016-10-17T10:54:03Z</time>
</trkpt>
<trkpt lat="39.7012668" lon="3.2576597">
<ele>103.00</ele>
<time>2016-10-17T10:54:05Z</time>
</trkpt>
<trkpt lat="39.7012736" lon="3.2574199">
<ele>102.59</ele>
<time>2016-10-17T10:54:07Z</time>
</trkpt>
<trkpt lat="39.7012773" lon="3.2571861">
<ele>102.86</ele>
<time>2016-10-17T10:54:09Z</time>
</trkpt>
<trkpt lat="39.7012836" lon="3.2568424">
<ele>103.43</ele>
<time>2016-10-17T10:54:12Z</time>
</trkpt>
<trkpt lat="39.7012969" lon="3.2565173">
<ele>103.02</ele>
<time>2016-10-17T10:54:15Z</time>
</trkpt>
<trkpt lat="39.7013115" lon="3.2561847">
<ele>102.56</ele>
<time>2016-10-17T10:54:18Z</time>
</trkpt>
<trkpt lat="39.7013215" lon="3.2558763">
<ele>102.47</ele>
<time>2016-10-17T10:54:21Z</time>
</trkpt>
<trkpt lat="39.7013277" lon="3.2555434">
<ele>102.45</ele>
<time>2016-10-17T10:54:24Z</time>
</trkpt>
<trkpt lat="39.7013375" lon="3.2552144">
<ele>102.67</ele>
<time>2016-10-17T10:54:27Z</time>
</trkpt>
<trkpt lat="39.7013497" lon="3.2548677">
<ele>102.51</ele>
<time>2016-10-17T10:54:30Z</time>
</trkpt>
<trkpt lat="39.7013615" lon="3.2546338">
<ele>102.02</ele>
<time>2016-10-17T10:54:32Z</time>
</trkpt>
<trkpt lat="39.7013756" lon="3.2542841">
<ele>101.19</ele>
<time>2016-10-17T10:54:35Z</time>
</trkpt>
<trkpt lat="39.7013888" lon="3.2539350">
<ele>100.70</ele>
<time>2016-10-17T10:54:38Z</time>
</trkpt>
<trkpt lat="39.7013969" lon="3.2536929">
<ele>100.51</ele>
<time>2016-10-17T10:54:40Z</time>
</trkpt>
<trkpt lat="39.7014001" lon="3.2534496">
<ele>101.08</ele>
<time>2016-10-17T10:54:42Z</time>
</trkpt>
<trkpt lat="39.7014052" lon="3.2532149">
<ele>102.11</ele>
<time>2016-10-17T10:54:44Z</time>
</trkpt>
<trkpt lat="39.7014079" lon="3.2529753">
<ele>102.86</ele>
<time>2016-10-17T10:54:46Z</time>
</trkpt>
<trkpt lat="39.7014143" lon="3.2527274">
<ele>102.80</ele>
<time>2016-10-17T10:54:48Z</time>
</trkpt>
<trkpt lat="39.7014217" lon="3.2524786">
<ele>102.37</ele>
<time>2016-10-17T10:54:50Z</time>
</trkpt>
<trkpt lat="39.7014316" lon="3.2522379">
<ele>102.45</ele>
<time>2016-10-17T10:54:52Z</time>
</trkpt>
<trkpt lat="39.7014394" lon="3.2519821">
<ele>102.31</ele>
<time>2016-10-17T10:54:54Z</time>
</trkpt>
<trkpt lat="39.7014479" lon="3.2517300">
<ele>102.20</ele>
<time>2016-10-17T10:54:56Z</time>
</trkpt>
<trkpt lat="39.7014607" lon="3.2514745">
<ele>101.94</ele>
<time>2016-10-17T10:54:58Z</time>
</trkpt>
<trkpt lat="39.7014772" lon="3.2512070">
<ele>101.29</ele>
<time>2016-10-17T10:55:00Z</time>
</trkpt>
<trkpt lat="39.7015079" lon="3.2509354">
<ele>100.40</ele>
<time>2016-10-17T10:55:02Z</time>
</trkpt>
<trkpt lat="39.7015528" lon="3.2506542">
<ele>99.80</ele>
<time>2016-10-17T10:55:04Z</time>
</trkpt>
<trkpt lat="39.7016215" lon="3.2503581">
<ele>98.76</ele>
<time>2016-10-17T10:55:06Z</time>
</trkpt>
<trkpt lat="39.7017070" lon="3.2500567">
<ele>97.94</ele>
<time>2016-10-17T10:55:08Z</time>
</trkpt>
<trkpt lat="39.7018066" lon="3.2497540">
<ele>96.72</ele>
<time>2016-10-17T10:55:10Z</time>
</trkpt>
<trkpt lat="39.7019337" lon="3.2494476">
<ele>96.21</ele>
<time>2016-10-17T10:55:12Z</time>
</trkpt>
<trkpt lat="39.7020750" lon="3.2491558">
<ele>96.85</ele>
<time>2016-10-17T10:55:14Z</time>
</trkpt>
<trkpt lat="39.7022412" lon="3.2488813">
<ele>96.69</ele>
<time>2016-10-17T10:55:16Z</time>
</trkpt>
<trkpt lat="39.7024171" lon="3.2485992">
<ele>95.64</ele>
<time>2016-10-17T10:55:18Z</time>
</trkpt>
<trkpt lat="39.7025882" lon="3.2483164">
<ele>94.64</ele>
<time>2016-10-17T10:55:20Z</time>
</trkpt>
<trkpt lat="39.7027606" lon="3.2480440">
<ele>93.46</ele>
<time>2016-10-17T10:55:22Z</time>
</trkpt>
<trkpt lat="39.7029379" lon="3.2477645">
<ele>91.96</ele>
<time>2016-10-17T10:55:24Z</time>
</trkpt>
<trkpt lat="39.7031202" lon="3.2474695">
<ele>90.41</ele>
<time>2016-10-17T10:55:26Z</time>
</trkpt>
<trkpt lat="39.7032994" lon="3.2471746">
<ele>89.13</ele>
<time>2016-10-17T10:55:28Z</time>
</trkpt>
<trkpt lat="39.7034883" lon="3.2468626">
<ele>87.95</ele>
<time>2016-10-17T10:55:30Z</time>
</trkpt>
<trkpt lat="39.7036639" lon="3.2465619">
<ele>87.23</ele>
<time>2016-10-17T10:55:32Z</time>
</trkpt>
<trkpt lat="39.7038366" lon="3.2462585">
<ele>86.70</ele>
<time>2016-10-17T10:55:34Z</time>
</trkpt>
<trkpt lat="39.7040065" lon="3.2459452">
<ele>86.01</ele>
<time>2016-10-17T10:55:36Z</time>
</trkpt>
<trkpt lat="39.7041552" lon="3.2456212">
<ele>85.00</ele>
<time>2016-10-17T10:55:38Z</time>
</trkpt>
<trkpt lat="39.7042834" lon="3.2452850">
<ele>83.77</ele>
<time>2016-10-17T10:55:40Z</time>
</trkpt>
<trkpt lat="39.7043911" lon="3.2449383">
<ele>82.36</ele>
<time>2016-10-17T10:55:42Z</time>
</trkpt>
<trkpt lat="39.7044844" lon="3.2445889">
<ele>81.07</ele>
<time>2016-10-17T10:55:44Z</time>
</trkpt>
<trkpt lat="39.7045534" lon="3.2442503">
<ele>80.09</ele>
<time>2016-10-17T10:55:46Z</time>
</trkpt>
<trkpt lat="39.7046038" lon="3.2438975">
<ele>79.43</ele>
<time>2016-10-17T10:55:48Z</time>
</trkpt>
<trkpt lat="39.7046350" lon="3.2435414">
<ele>78.65</ele>
<time>2016-10-17T10:55:50Z</time>
</trkpt>
<trkpt lat="39.7046460" lon="3.2431847">
<ele>77.85</ele>
<time>2016-10-17T10:55:52Z</time>
</trkpt>
<trkpt lat="39.7046394" lon="3.2428409">
<ele>77.61</ele>
<time>2016-10-17T10:55:54Z</time>
</trkpt>
<trkpt lat="39.7046167" lon="3.2424636">
<ele>76.83</ele>
<time>2016-10-17T10:55:56Z</time>
</trkpt>
<trkpt lat="39.7045826" lon="3.2421154">
<ele>76.58</ele>
<time>2016-10-17T10:55:58Z</time>
</trkpt>
<trkpt lat="39.7045460" lon="3.2418043">
<ele>76.74</ele>
<time>2016-10-17T10:56:00Z</time>
</trkpt>
<trkpt lat="39.7045064" lon="3.2414723">
<ele>76.44</ele>
<time>2016-10-17T10:56:02Z</time>
</trkpt>
<trkpt lat="39.7044647" lon="3.2411385">
<ele>75.43</ele>
<time>2016-10-17T10:56:04Z</time>
</trkpt>
<trkpt lat="39.7044275" lon="3.2408236">
<ele>74.63</ele>
<time>2016-10-17T10:56:06Z</time>
</trkpt>
<trkpt lat="39.7043877" lon="3.2405019">
<ele>74.23</ele>
<time>2016-10-17T10:56:08Z</time>
</trkpt>
<trkpt lat="39.7043518" lon="3.2401957">
<ele>73.75</ele>
<time>2016-10-17T10:56:10Z</time>
</trkpt>
<trkpt lat="39.7043163" lon="3.2399049">
<ele>74.01</ele>
<time>2016-10-17T10:56:12Z</time>
</trkpt>
<trkpt lat="39.7042848" lon="3.2396188">
<ele>74.31</ele>
<time>2016-10-17T10:56:14Z</time>
</trkpt>
<trkpt lat="39.7042553" lon="3.2393160">
<ele>73.89</ele>
<time>2016-10-17T10:56:16Z</time>
</trkpt>
<trkpt lat="39.7042353" lon="3.2390038">
<ele>73.26</ele>
<time>2016-10-17T10:56:18Z</time>
</trkpt>
<trkpt lat="39.7042290" lon="3.2386860">
<ele>72.09</ele>
<time>2016-10-17T10:56:20Z</time>
</trkpt>
<trkpt lat="39.7042410" lon="3.2383693">
<ele>70.68</ele>
<time>2016-10-17T10:56:22Z</time>
</trkpt>
<trkpt lat="39.7042655" lon="3.2380563">
<ele>69.70</ele>
<time>2016-10-17T10:56:24Z</time>
</trkpt>
<trkpt lat="39.7043126" lon="3.2377453">
<ele>69.22</ele>
<time>2016-10-17T10:56:26Z</time>
</trkpt>
<trkpt lat="39.7043775" lon="3.2374177">
<ele>69.11</ele>
<time>2016-10-17T10:56:28Z</time>
</trkpt>
<trkpt lat="39.7044719" lon="3.2371154">
<ele>68.08</ele>
<time>2016-10-17T10:56:30Z</time>
</trkpt>
<trkpt lat="39.7045945" lon="3.2368145">
<ele>66.79</ele>
<time>2016-10-17T10:56:32Z</time>
</trkpt>
<trkpt lat="39.7047360" lon="3.2365324">
<ele>65.92</ele>
<time>2016-10-17T10:56:34Z</time>
</trkpt>
<trkpt lat="39.7048716" lon="3.2362723">
<ele>65.15</ele>
<time>2016-10-17T10:56:36Z</time>
</trkpt>
<trkpt lat="39.7050025" lon="3.2359927">
<ele>64.79</ele>
<time>2016-10-17T10:56:38Z</time>
</trkpt>
<trkpt lat="39.7051428" lon="3.2357245">
<ele>64.37</ele>
<time>2016-10-17T10:56:40Z</time>
</trkpt>
<trkpt lat="39.7052951" lon="3.2354461">
<ele>63.43</ele>
<time>2016-10-17T10:56:42Z</time>
</trkpt>
<trkpt lat="39.7054266" lon="3.2351871">
<ele>62.53</ele>
<time>2016-10-17T10:56:44Z</time>
</trkpt>
<trkpt lat="39.7055595" lon="3.2349223">
<ele>61.47</ele>
<time>2016-10-17T10:56:46Z</time>
</trkpt>
<trkpt lat="39.7056885" lon="3.2346569">
<ele>60.64</ele>
<time>2016-10-17T10:56:48Z</time>
</trkpt>
<trkpt lat="39.7058180" lon="3.2343918">
<ele>59.95</ele>
<time>2016-10-17T10:56:50Z</time>
</trkpt>
<trkpt lat="39.7059371" lon="3.2341329">
<ele>59.41</ele>
<time>2016-10-17T10:56:52Z</time>
</trkpt>
<trkpt lat="39.7060412" lon="3.2338628">
<ele>59.32</ele>
<time>2016-10-17T10:56:54Z</time>
</trkpt>
<trkpt lat="39.7061170" lon="3.2335627">
<ele>58.89</ele>
<time>2016-10-17T10:56:56Z</time>
</trkpt>
<trkpt lat="39.7061619" lon="3.2332356">
<ele>57.39</ele>
<time>2016-10-17T10:56:58Z</time>
</trkpt>
<trkpt lat="39.7061537" lon="3.2329122">
<ele>55.28</ele>
<time>2016-10-17T10:57:00Z</time>
</trkpt>
<trkpt lat="39.7061105" lon="3.2325806">
<ele>53.11</ele>
<time>2016-10-17T10:57:02Z</time>
</trkpt>
<trkpt lat="39.7060386" lon="3.2322515">
<ele>50.47</ele>
<time>2016-10-17T10:57:04Z</time>
</trkpt>
<trkpt lat="39.7059158" lon="3.2319526">
<ele>48.99</ele>
<time>2016-10-17T10:57:06Z</time>
</trkpt>
<trkpt lat="39.7057601" lon="3.2316918">
<ele>48.67</ele>
<time>2016-10-17T10:57:08Z</time>
</trkpt>
<trkpt lat="39.7055733" lon="3.2314414">
<ele>48.11</ele>
<time>2016-10-17T10:57:10Z</time>
</trkpt>
<trkpt lat="39.7053582" lon="3.2312275">
<ele>47.42</ele>
<time>2016-10-17T10:57:12Z</time>
</trkpt>
<trkpt lat="39.7051217" lon="3.2310549">
<ele>46.63</ele>
<time>2016-10-17T10:57:14Z</time>
</trkpt>
<trkpt lat="39.7048816" lon="3.2308726">
<ele>44.98</ele>
<time>2016-10-17T10:57:16Z</time>
</trkpt>
<trkpt lat="39.7046279" lon="3.2306829">
<ele>42.57</ele>
<time>2016-10-17T10:57:18Z</time>
</trkpt>
<trkpt lat="39.7043864" lon="3.2304573">
<ele>39.58</ele>
<time>2016-10-17T10:57:20Z</time>
</trkpt>
<trkpt lat="39.7041997" lon="3.2301786">
<ele>37.03</ele>
<time>2016-10-17T10:57:22Z</time>
</trkpt>
<trkpt lat="39.7040443" lon="3.2298463">
<ele>34.54</ele>
<time>2016-10-17T10:57:24Z</time>
</trkpt>
<trkpt lat="39.7039228" lon="3.2294898">
<ele>31.68</ele>
<time>2016-10-17T10:57:26Z</time>
</trkpt>
<trkpt lat="39.7038284" lon="3.2291197">
<ele>29.42</ele>
<time>2016-10-17T10:57:28Z</time>
</trkpt>
<trkpt lat="39.7037379" lon="3.2287343">
<ele>27.84</ele>
<time>2016-10-17T10:57:30Z</time>
</trkpt>
<trkpt lat="39.7036596" lon="3.2283517">
<ele>26.00</ele>
<time>2016-10-17T10:57:32Z</time>
</trkpt>
<trkpt lat="39.7035840" lon="3.2279569">
<ele>24.03</ele>
<time>2016-10-17T10:57:34Z</time>
</trkpt>
<trkpt lat="39.7034936" lon="3.2275448">
<ele>22.37</ele>
<time>2016-10-17T10:57:36Z</time>
</trkpt>
<trkpt lat="39.7034097" lon="3.2271656">
<ele>21.21</ele>
<time>2016-10-17T10:57:38Z</time>
</trkpt>
<trkpt lat="39.7033179" lon="3.2267562">
<ele>20.49</ele>
<time>2016-10-17T10:57:40Z</time>
</trkpt>
<trkpt lat="39.7032294" lon="3.2263894">
<ele>20.54</ele>
<time>2016-10-17T10:57:42Z</time>
</trkpt>
<trkpt lat="39.7031505" lon="3.2260274">
<ele>20.67</ele>
<time>2016-10-17T10:57:44Z</time>
</trkpt>
<trkpt lat="39.7031023" lon="3.2256749">
<ele>20.23</ele>
<time>2016-10-17T10:57:46Z</time>
</trkpt>
<trkpt lat="39.7031648" lon="3.2253169">
<ele>19.81</ele>
<time>2016-10-17T10:57:48Z</time>
</trkpt>
<trkpt lat="39.7032990" lon="3.2250076">
<ele>20.72</ele>
<time>2016-10-17T10:57:50Z</time>
</trkpt>
<trkpt lat="39.7035037" lon="3.2247905">
<ele>20.95</ele>
<time>2016-10-17T10:57:52Z</time>
</trkpt>
<trkpt lat="39.7037228" lon="3.2246928">
<ele>20.76</ele>
<time>2016-10-17T10:57:54Z</time>
</trkpt>
<trkpt lat="39.7039322" lon="3.2246633">
<ele>20.33</ele>
<time>2016-10-17T10:57:56Z</time>
</trkpt>
<trkpt lat="39.7041260" lon="3.2246633">
<ele>19.69</ele>
<time>2016-10-17T10:57:58Z</time>
</trkpt>
<trkpt lat="39.7043857" lon="3.2246612">
<ele>20.65</ele>
<time>2016-10-17T10:58:01Z</time>
</trkpt>
<trkpt lat="39.7046119" lon="3.2246935">
<ele>22.28</ele>
<time>2016-10-17T10:58:04Z</time>
</trkpt>
<trkpt lat="39.7048247" lon="3.2246987">
<ele>24.45</ele>
<time>2016-10-17T10:58:07Z</time>
</trkpt>
<trkpt lat="39.7050424" lon="3.2246539">
<ele>26.43</ele>
<time>2016-10-17T10:58:11Z</time>
</trkpt>
<trkpt lat="39.7052313" lon="3.2245679">
<ele>28.46</ele>
<time>2016-10-17T10:58:15Z</time>
</trkpt>
<trkpt lat="39.7054048" lon="3.2244614">
<ele>28.55</ele>
<time>2016-10-17T10:58:19Z</time>
</trkpt>
<trkpt lat="39.7055746" lon="3.2243054">
<ele>28.65</ele>
<time>2016-10-17T10:58:24Z</time>
</trkpt>
<trkpt lat="39.7057217" lon="3.2241401">
<ele>29.30</ele>
<time>2016-10-17T10:58:29Z</time>
</trkpt>
<trkpt lat="39.7058517" lon="3.2239694">
<ele>29.74</ele>
<time>2016-10-17T10:58:35Z</time>
</trkpt>
<trkpt lat="39.7060008" lon="3.2237833">
<ele>30.57</ele>
<time>2016-10-17T10:58:40Z</time>
</trkpt>
<trkpt lat="39.7061556" lon="3.2236087">
<ele>30.98</ele>
<time>2016-10-17T10:58:46Z</time>
</trkpt>
<trkpt lat="39.7063019" lon="3.2234668">
<ele>32.02</ele>
<time>2016-10-17T10:58:51Z</time>
</trkpt>
<trkpt lat="39.7064622" lon="3.2233349">
<ele>34.00</ele>
<time>2016-10-17T10:58:56Z</time>
</trkpt>
<trkpt lat="39.7066538" lon="3.2232237">
<ele>34.74</ele>
<time>2016-10-17T10:59:02Z</time>
</trkpt>
<trkpt lat="39.7068496" lon="3.2231334">
<ele>35.50</ele>
<time>2016-10-17T10:59:08Z</time>
</trkpt>
<trkpt lat="39.7070321" lon="3.2230904">
<ele>36.22</ele>
<time>2016-10-17T10:59:14Z</time>
</trkpt>
<trkpt lat="39.7072440" lon="3.2230795">
<ele>36.98</ele>
<time>2016-10-17T10:59:21Z</time>
</trkpt>
<trkpt lat="39.7074550" lon="3.2230976">
<ele>37.23</ele>
<time>2016-10-17T10:59:27Z</time>
</trkpt>
<trkpt lat="39.7076513" lon="3.2231270">
<ele>37.59</ele>
<time>2016-10-17T10:59:33Z</time>
</trkpt>
<trkpt lat="39.7078502" lon="3.2231618">
<ele>38.45</ele>
<time>2016-10-17T10:59:39Z</time>
</trkpt>
<trkpt lat="39.7080510" lon="3.2231891">
<ele>39.06</ele>
<time>2016-10-17T10:59:45Z</time>
</trkpt>
<trkpt lat="39.7082686" lon="3.2232291">
<ele>40.30</ele>
<time>2016-10-17T10:59:51Z</time>
</trkpt>
<trkpt lat="39.7084786" lon="3.2232396">
<ele>44.58</ele>
<time>2016-10-17T10:59:57Z</time>
</trkpt>
<trkpt lat="39.7086726" lon="3.2232195">
<ele>48.35</ele>
<time>2016-10-17T11:00:02Z</time>
</trkpt>
<trkpt lat="39.7088891" lon="3.2231876">
<ele>48.88</ele>
<time>2016-10-17T11:00:07Z</time>
</trkpt>
<trkpt lat="39.7091073" lon="3.2231156">
<ele>50.03</ele>
<time>2016-10-17T11:00:12Z</time>
</trkpt>
<trkpt lat="39.7092921" lon="3.2230331">
<ele>50.47</ele>
<time>2016-10-17T11:00:16Z</time>
</trkpt>
<trkpt lat="39.7094841" lon="3.2229245">
<ele>50.71</ele>
<time>2016-10-17T11:00:20Z</time>
</trkpt>
<trkpt lat="39.7096656" lon="3.2227828">
<ele>52.45</ele>
<time>2016-10-17T11:00:24Z</time>
</trkpt>
<trkpt lat="39.7098311" lon="3.2226290">
<ele>52.27</ele>
<time>2016-10-17T11:00:28Z</time>
</trkpt>
<trkpt lat="39.7099998" lon="3.2224558">
<ele>51.70</ele>
<time>2016-10-17T11:00:33Z</time>
</trkpt>
<trkpt lat="39.7101286" lon="3.2222879">
<ele>52.79</ele>
<time>2016-10-17T11:00:37Z</time>
</trkpt>
<trkpt lat="39.7102714" lon="3.2220791">
<ele>53.08</ele>
<time>2016-10-17T11:00:41Z</time>
</trkpt>
<trkpt lat="39.7104096" lon="3.2218687">
<ele>53.16</ele>
<time>2016-10-17T11:00:45Z</time>
</trkpt>
<trkpt lat="39.7105552" lon="3.2216429">
<ele>53.07</ele>
<time>2016-10-17T11:00:49Z</time>
</trkpt>
<trkpt lat="39.7106961" lon="3.2214224">
<ele>52.36</ele>
<time>2016-10-17T11:00:53Z</time>
</trkpt>
<trkpt lat="39.7108407" lon="3.2212042">
<ele>52.06</ele>
<time>2016-10-17T11:00:57Z</time>
</trkpt>
<trkpt lat="39.7109908" lon="3.2209742">
<ele>51.31</ele>
<time>2016-10-17T11:01:01Z</time>
</trkpt>
<trkpt lat="39.7111382" lon="3.2207387">
<ele>50.85</ele>
<time>2016-10-17T11:01:05Z</time>
</trkpt>
<trkpt lat="39.7112578" lon="3.2205447">
<ele>50.54</ele>
<time>2016-10-17T11:01:08Z</time>
</trkpt>
<trkpt lat="39.7113807" lon="3.2203522">
<ele>50.27</ele>
<time>2016-10-17T11:01:11Z</time>
</trkpt>
<trkpt lat="39.7115029" lon="3.2201573">
<ele>50.42</ele>
<time>2016-10-17T11:01:14Z</time>
</trkpt>
<trkpt lat="39.7116347" lon="3.2199695">
<ele>50.74</ele>
<time>2016-10-17T11:01:17Z</time>
</trkpt>
<trkpt lat="39.7117749" lon="3.2197823">
<ele>50.81</ele>
<time>2016-10-17T11:01:20Z</time>
</trkpt>
<trkpt lat="39.7119211" lon="3.2196109">
<ele>50.75</ele>
<time>2016-10-17T11:01:23Z</time>
</trkpt>
<trkpt lat="39.7120801" lon="3.2194465">
<ele>50.97</ele>
<time>2016-10-17T11:01:26Z</time>
</trkpt>
<trkpt lat="39.7122421" lon="3.2192966">
<ele>50.72</ele>
<time>2016-10-17T11:01:29Z</time>
</trkpt>
<trkpt lat="39.7124258" lon="3.2191331">
<ele>51.47</ele>
<time>2016-10-17T11:01:32Z</time>
</trkpt>
<trkpt lat="39.7126063" lon="3.2189828">
<ele>52.08</ele>
<time>2016-10-17T11:01:35Z</time>
</trkpt>
<trkpt lat="39.7127905" lon="3.2188284">
<ele>52.52</ele>
<time>2016-10-17T11:01:38Z</time>
</trkpt>
<trkpt lat="39.7129821" lon="3.2186736">
<ele>52.31</ele>
<time>2016-10-17T11:01:41Z</time>
</trkpt>
<trkpt lat="39.7131766" lon="3.2185131">
<ele>52.44</ele>
<time>2016-10-17T11:01:44Z</time>
</trkpt>
<trkpt lat="39.7133807" lon="3.2183401">
<ele>52.14</ele>
<time>2016-10-17T11:01:47Z</time>
</trkpt>
<trkpt lat="39.7135967" lon="3.2181614">
<ele>51.69</ele>
<time>2016-10-17T11:01:50Z</time>
</trkpt>
<trkpt lat="39.7138072" lon="3.2179860">
<ele>50.82</ele>
<time>2016-10-17T11:01:53Z</time>
</trkpt>
<trkpt lat="39.7140274" lon="3.2178095">
<ele>49.49</ele>
<time>2016-10-17T11:01:56Z</time>
</trkpt>
<trkpt lat="39.7142275" lon="3.2176325">
<ele>50.24</ele>
<time>2016-10-17T11:01:59Z</time>
</trkpt>
<trkpt lat="39.7144461" lon="3.2174494">
<ele>50.99</ele>
<time>2016-10-17T11:02:02Z</time>
</trkpt>
<trkpt lat="39.7145986" lon="3.2173210">
<ele>51.39</ele>
<time>2016-10-17T11:02:04Z</time>
</trkpt>
<trkpt lat="39.7148180" lon="3.2171294">
<ele>51.57</ele>
<time>2016-10-17T11:02:07Z</time>
</trkpt>
<trkpt lat="39.7150473" lon="3.2169390">
<ele>51.25</ele>
<time>2016-10-17T11:02:10Z</time>
</trkpt>
<trkpt lat="39.7152000" lon="3.2168130">
<ele>50.93</ele>
<time>2016-10-17T11:02:12Z</time>
</trkpt>
<trkpt lat="39.7154201" lon="3.2166244">
<ele>50.99</ele>
<time>2016-10-17T11:02:15Z</time>
</trkpt>
<trkpt lat="39.7156458" lon="3.2164375">
<ele>50.54</ele>
<time>2016-10-17T11:02:18Z</time>
</trkpt>
<trkpt lat="39.7158682" lon="3.2162481">
<ele>50.55</ele>
<time>2016-10-17T11:02:21Z</time>
</trkpt>
<trkpt lat="39.7160725" lon="3.2160554">
<ele>50.06</ele>
<time>2016-10-17T11:02:24Z</time>
</trkpt>
<trkpt lat="39.7162889" lon="3.2158729">
<ele>49.64</ele>
<time>2016-10-17T11:02:27Z</time>
</trkpt>
<trkpt lat="39.7165061" lon="3.2156972">
<ele>49.45</ele>
<time>2016-10-17T11:02:30Z</time>
</trkpt>
<trkpt lat="39.7167130" lon="3.2155235">
<ele>49.17</ele>
<time>2016-10-17T11:02:33Z</time>
</trkpt>
<trkpt lat="39.7169284" lon="3.2153389">
<ele>48.83</ele>
<time>2016-10-17T11:02:36Z</time>
</trkpt>
<trkpt lat="39.7171431" lon="3.2151574">
<ele>48.74</ele>
<time>2016-10-17T11:02:39Z</time>
</trkpt>
<trkpt lat="39.7173577" lon="3.2149741">
<ele>48.67</ele>
<time>2016-10-17T11:02:42Z</time>
</trkpt>
<trkpt lat="39.7175771" lon="3.2147815">
<ele>48.47</ele>
<time>2016-10-17T11:02:45Z</time>
</trkpt>
<trkpt lat="39.7177938" lon="3.2145904">
<ele>49.12</ele>
<time>2016-10-17T11:02:48Z</time>
</trkpt>
<trkpt lat="39.7180143" lon="3.2144077">
<ele>48.49</ele>
<time>2016-10-17T11:02:51Z</time>
</trkpt>
<trkpt lat="39.7181691" lon="3.2142875">
<ele>47.13</ele>
<time>2016-10-17T11:02:53Z</time>
</trkpt>
<trkpt lat="39.7183993" lon="3.2141065">
<ele>45.84</ele>
<time>2016-10-17T11:02:56Z</time>
</trkpt>
<trkpt lat="39.7186097" lon="3.2139374">
<ele>46.36</ele>
<time>2016-10-17T11:02:59Z</time>
</trkpt>
<trkpt lat="39.7188210" lon="3.2137695">
<ele>47.28</ele>
<time>2016-10-17T11:03:02Z</time>
</trkpt>
<trkpt lat="39.7190360" lon="3.2135924">
<ele>47.83</ele>
<time>2016-10-17T11:03:05Z</time>
</trkpt>
<trkpt lat="39.7192432" lon="3.2134198">
<ele>48.34</ele>
<time>2016-10-17T11:03:08Z</time>
</trkpt>
<trkpt lat="39.7194566" lon="3.2132534">
<ele>47.41</ele>
<time>2016-10-17T11:03:11Z</time>
</trkpt>
<trkpt lat="39.7196559" lon="3.2130952">
<ele>46.67</ele>
<time>2016-10-17T11:03:14Z</time>
</trkpt>
<trkpt lat="39.7198500" lon="3.2129316">
<ele>45.43</ele>
<time>2016-10-17T11:03:17Z</time>
</trkpt>
<trkpt lat="39.7200457" lon="3.2127719">
<ele>45.51</ele>
<time>2016-10-17T11:03:20Z</time>
</trkpt>
<trkpt lat="39.7202378" lon="3.2126097">
<ele>45.32</ele>
<time>2016-10-17T11:03:23Z</time>
</trkpt>
<trkpt lat="39.7204335" lon="3.2124406">
<ele>45.24</ele>
<time>2016-10-17T11:03:26Z</time>
</trkpt>
<trkpt lat="39.7206330" lon="3.2122641">
<ele>44.70</ele>
<time>2016-10-17T11:03:29Z</time>
</trkpt>
<trkpt lat="39.7208320" lon="3.2120922">
<ele>45.03</ele>
<time>2016-10-17T11:03:32Z</time>
</trkpt>
<trkpt lat="39.7210223" lon="3.2119164">
<ele>44.88</ele>
<time>2016-10-17T11:03:35Z</time>
</trkpt>
<trkpt lat="39.7212211" lon="3.2117490">
<ele>44.53</ele>
<time>2016-10-17T11:03:38Z</time>
</trkpt>
<trkpt lat="39.7214288" lon="3.2115871">
<ele>43.83</ele>
<time>2016-10-17T11:03:41Z</time>
</trkpt>
<trkpt lat="39.7216234" lon="3.2114272">
<ele>43.49</ele>
<time>2016-10-17T11:03:44Z</time>
</trkpt>
<trkpt lat="39.7218224" lon="3.2112679">
<ele>43.08</ele>
<time>2016-10-17T11:03:47Z</time>
</trkpt>
<trkpt lat="39.7220155" lon="3.2111092">
<ele>42.04</ele>
<time>2016-10-17T11:03:50Z</time>
</trkpt>
<trkpt lat="39.7221956" lon="3.2109526">
<ele>41.76</ele>
<time>2016-10-17T11:03:53Z</time>
</trkpt>
<trkpt lat="39.7223720" lon="3.2108037">
<ele>41.34</ele>
<time>2016-10-17T11:03:56Z</time>
</trkpt>
<trkpt lat="39.7225614" lon="3.2106350">
<ele>40.50</ele>
<time>2016-10-17T11:03:59Z</time>
</trkpt>
<trkpt lat="39.7227681" lon="3.2104711">
<ele>40.52</ele>
<time>2016-10-17T11:04:02Z</time>
</trkpt>
<trkpt lat="39.7229758" lon="3.2103018">
<ele>41.63</ele>
<time>2016-10-17T11:04:05Z</time>
</trkpt>
<trkpt lat="39.7231678" lon="3.2101450">
<ele>42.65</ele>
<time>2016-10-17T11:04:08Z</time>
</trkpt>
<trkpt lat="39.7233543" lon="3.2099932">
<ele>43.22</ele>
<time>2016-10-17T11:04:11Z</time>
</trkpt>
<trkpt lat="39.7235231" lon="3.2098409">
<ele>43.88</ele>
<time>2016-10-17T11:04:14Z</time>
</trkpt>
<trkpt lat="39.7236958" lon="3.2096701">
<ele>44.52</ele>
<time>2016-10-17T11:04:17Z</time>
</trkpt>
<trkpt lat="39.7238575" lon="3.2094876">
<ele>45.02</ele>
<time>2016-10-17T11:04:20Z</time>
</trkpt>
<trkpt lat="39.7240159" lon="3.2092811">
<ele>44.09</ele>
<time>2016-10-17T11:04:23Z</time>
</trkpt>
<trkpt lat="39.7241615" lon="3.2090429">
<ele>43.39</ele>
<time>2016-10-17T11:04:26Z</time>
</trkpt>
<trkpt lat="39.7243025" lon="3.2087523">
<ele>42.92</ele>
<time>2016-10-17T11:04:29Z</time>
</trkpt>
<trkpt lat="39.7244324" lon="3.2084532">
<ele>42.07</ele>
<time>2016-10-17T11:04:32Z</time>
</trkpt>
<trkpt lat="39.7245177" lon="3.2082438">
<ele>41.37</ele>
<time>2016-10-17T11:04:34Z</time>
</trkpt>
<trkpt lat="39.7246372" lon="3.2079381">
<ele>39.88</ele>
<time>2016-10-17T11:04:37Z</time>
</trkpt>
<trkpt lat="39.7247204" lon="3.2077215">
<ele>38.43</ele>
<time>2016-10-17T11:04:39Z</time>
</trkpt>
<trkpt lat="39.7248041" lon="3.2075026">
<ele>37.90</ele>
<time>2016-10-17T11:04:41Z</time>
</trkpt>
<trkpt lat="39.7248911" lon="3.2072750">
<ele>37.60</ele>
<time>2016-10-17T11:04:43Z</time>
</trkpt>
<trkpt lat="39.7249815" lon="3.2070466">
<ele>36.95</ele>
<time>2016-10-17T11:04:45Z</time>
</trkpt>
<trkpt lat="39.7250703" lon="3.2068163">
<ele>36.08</ele>
<time>2016-10-17T11:04:47Z</time>
</trkpt>
<trkpt lat="39.7251559" lon="3.2065876">
<ele>35.57</ele>
<time>2016-10-17T11:04:49Z</time>
</trkpt>
<trkpt lat="39.7252438" lon="3.2063518">
<ele>34.85</ele>
<time>2016-10-17T11:04:51Z</time>
</trkpt>
<trkpt lat="39.7253290" lon="3.2061089">
<ele>34.62</ele>
<time>2016-10-17T11:04:53Z</time>
</trkpt>
<trkpt lat="39.7254162" lon="3.2058631">
<ele>34.74</ele>
<time>2016-10-17T11:04:55Z</time>
</trkpt>
<trkpt lat="39.7255086" lon="3.2056141">
<ele>34.47</ele>
<time>2016-10-17T11:04:57Z</time>
</trkpt>
<trkpt lat="39.7256008" lon="3.2053729">
<ele>34.52</ele>
<time>2016-10-17T11:04:59Z</time>
</trkpt>
<trkpt lat="39.7256950" lon="3.2051230">
<ele>33.93</ele>
<time>2016-10-17T11:05:01Z</time>
</trkpt>
<trkpt lat="39.7257815" lon="3.2048960">
<ele>33.64</ele>
<time>2016-10-17T11:05:03Z</time>
</trkpt>
<trkpt lat="39.7258745" lon="3.2046455">
<ele>33.08</ele>
<time>2016-10-17T11:05:05Z</time>
</trkpt>
<trkpt lat="39.7259704" lon="3.2044082">
<ele>32.30</ele>
<time>2016-10-17T11:05:07Z</time>
</trkpt>
<trkpt lat="39.7260595" lon="3.2041835">
<ele>31.77</ele>
<time>2016-10-17T11:05:09Z</time>
</trkpt>
<trkpt lat="39.7261468" lon="3.2039674">
<ele>31.35</ele>
<time>2016-10-17T11:05:11Z</time>
</trkpt>
<trkpt lat="39.7262594" lon="3.2036744">
<ele>31.14</ele>
<time>2016-10-17T11:05:14Z</time>
</trkpt>
<trkpt lat="39.7263674" lon="3.2033845">
<ele>31.58</ele>
<time>2016-10-17T11:05:17Z</time>
</trkpt>
<trkpt lat="39.7264648" lon="3.2031144">
<ele>32.28</ele>
<time>2016-10-17T11:05:20Z</time>
</trkpt>
<trkpt lat="39.7265575" lon="3.2028407">
<ele>33.38</ele>
<time>2016-10-17T11:05:23Z</time>
</trkpt>
<trkpt lat="39.7266098" lon="3.2025575">
<ele>33.50</ele>
<time>2016-10-17T11:05:26Z</time>
</trkpt>
<trkpt lat="39.7266161" lon="3.2022521">
<ele>33.64</ele>
<time>2016-10-17T11:05:29Z</time>
</trkpt>
<trkpt lat="39.7265597" lon="3.2019518">
<ele>33.07</ele>
<time>2016-10-17T11:05:32Z</time>
</trkpt>
<trkpt lat="39.7264836" lon="3.2017370">
<ele>32.27</ele>
<time>2016-10-17T11:05:34Z</time>
</trkpt>
<trkpt lat="39.7263649" lon="3.2015595">
<ele>30.68</ele>
<time>2016-10-17T11:05:36Z</time>
</trkpt>
<trkpt lat="39.7262213" lon="3.2013852">
<ele>28.31</ele>
<time>2016-10-17T11:05:38Z</time>
</trkpt>
<trkpt lat="39.7260445" lon="3.2012245">
<ele>26.00</ele>
<time>2016-10-17T11:05:40Z</time>
</trkpt>
<trkpt lat="39.7258419" lon="3.2010581">
<ele>24.23</ele>
<time>2016-10-17T11:05:42Z</time>
</trkpt>
<trkpt lat="39.7256425" lon="3.2008863">
<ele>23.28</ele>
<time>2016-10-17T11:05:44Z</time>
</trkpt>
<trkpt lat="39.7254283" lon="3.2007146">
<ele>22.62</ele>
<time>2016-10-17T11:05:46Z</time>
</trkpt>
<trkpt lat="39.7252094" lon="3.2005400">
<ele>21.88</ele>
<time>2016-10-17T11:05:48Z</time>
</trkpt>
<trkpt lat="39.7249928" lon="3.2003652">
<ele>21.09</ele>
<time>2016-10-17T11:05:50Z</time>
</trkpt>
<trkpt lat="39.7247822" lon="3.2001699">
<ele>19.76</ele>
<time>2016-10-17T11:05:52Z</time>
</trkpt>
<trkpt lat="39.7246014" lon="3.1999571">
<ele>18.58</ele>
<time>2016-10-17T11:05:54Z</time>
</trkpt>
<trkpt lat="39.7245322" lon="3.1996515">
<ele>17.43</ele>
<time>2016-10-17T11:05:56Z</time>
</trkpt>
<trkpt lat="39.7245356" lon="3.1993342">
<ele>16.18</ele>
<time>2016-10-17T11:05:58Z</time>
</trkpt>
<trkpt lat="39.7246414" lon="3.1991117">
<ele>15.48</ele>
<time>2016-10-17T11:06:00Z</time>
</trkpt>
<trkpt lat="39.7248431" lon="3.1989076">
<ele>16.80</ele>
<time>2016-10-17T11:06:03Z</time>
</trkpt>
<trkpt lat="39.7250476" lon="3.1988592">
<ele>19.07</ele>
<time>2016-10-17T11:06:06Z</time>
</trkpt>
<trkpt lat="39.7252577" lon="3.1988744">
<ele>22.31</ele>
<time>2016-10-17T11:06:09Z</time>
</trkpt>
<trkpt lat="39.7254548" lon="3.1988979">
<ele>25.40</ele>
<time>2016-10-17T11:06:12Z</time>
</trkpt>
<trkpt lat="39.7256545" lon="3.1989326">
<ele>27.64</ele>
<time>2016-10-17T11:06:15Z</time>
</trkpt>
<trkpt lat="39.7258744" lon="3.1989646">
<ele>30.13</ele>
<time>2016-10-17T11:06:18Z</time>
</trkpt>
<trkpt lat="39.7260869" lon="3.1989977">
<ele>30.95</ele>
<time>2016-10-17T11:06:21Z</time>
</trkpt>
<trkpt lat="39.7262947" lon="3.1990404">
<ele>31.79</ele>
<time>2016-10-17T11:06:24Z</time>
</trkpt>
<trkpt lat="39.7265131" lon="3.1990843">
<ele>32.36</ele>
<time>2016-10-17T11:06:28Z</time>
</trkpt>
<trkpt lat="39.7267398" lon="3.1991029">
<ele>32.95</ele>
<time>2016-10-17T11:06:32Z</time>
</trkpt>
<trkpt lat="39.7269755" lon="3.1990522">
<ele>33.28</ele>
<time>2016-10-17T11:06:36Z</time>
</trkpt>
<trkpt lat="39.7271577" lon="3.1989421">
<ele>32.46</ele>
<time>2016-10-17T11:06:40Z</time>
</trkpt>
<trkpt lat="39.7273169" lon="3.1987796">
<ele>32.32</ele>
<time>2016-10-17T11:06:44Z</time>
</trkpt>
<trkpt lat="39.7274383" lon="3.1985770">
<ele>32.35</ele>
<time>2016-10-17T11:06:48Z</time>
</trkpt>
<trkpt lat="39.7275378" lon="3.1983315">
<ele>33.56</ele>
<time>2016-10-17T11:06:54Z</time>
</trkpt>
<trkpt lat="39.7276284" lon="3.1981179">
<ele>34.74</ele>
<time>2016-10-17T11:06:58Z</time>
</trkpt>
<trkpt lat="39.7277358" lon="3.1978642">
<ele>37.12</ele>
<time>2016-10-17T11:07:03Z</time>
</trkpt>
<trkpt lat="39.7278518" lon="3.1976241">
<ele>38.36</ele>
<time>2016-10-17T11:07:08Z</time>
</trkpt>
<trkpt lat="39.7279377" lon="3.1973881">
<ele>39.74</ele>
<time>2016-10-17T11:07:13Z</time>
</trkpt>
<trkpt lat="39.7280481" lon="3.1971503">
<ele>40.86</ele>
<time>2016-10-17T11:07:18Z</time>
</trkpt>
<trkpt lat="39.7281536" lon="3.1969412">
<ele>41.02</ele>
<time>2016-10-17T11:07:22Z</time>
</trkpt>
<trkpt lat="39.7282414" lon="3.1967354">
<ele>40.99</ele>
<time>2016-10-17T11:07:26Z</time>
</trkpt>
<trkpt lat="39.7283403" lon="3.1965118">
<ele>40.08</ele>
<time>2016-10-17T11:07:30Z</time>
</trkpt>
<trkpt lat="39.7284421" lon="3.1963001">
<ele>41.08</ele>
<time>2016-10-17T11:07:34Z</time>
</trkpt>
<trkpt lat="39.7285490" lon="3.1960748">
<ele>41.22</ele>
<time>2016-10-17T11:07:39Z</time>
</trkpt>
<trkpt lat="39.7286453" lon="3.1958688">
<ele>39.85</ele>
<time>2016-10-17T11:07:43Z</time>
</trkpt>
<trkpt lat="39.7287294" lon="3.1956598">
<ele>40.90</ele>
<time>2016-10-17T11:07:47Z</time>
</trkpt>
<trkpt lat="39.7288300" lon="3.1954200">
<ele>43.06</ele>
<time>2016-10-17T11:07:52Z</time>
</trkpt>
<trkpt lat="39.7289231" lon="3.1951903">
<ele>46.31</ele>
<time>2016-10-17T11:07:57Z</time>
</trkpt>
<trkpt lat="39.7290297" lon="3.1949362">
<ele>47.28</ele>
<time>2016-10-17T11:08:02Z</time>
</trkpt>
<trkpt lat="39.7291125" lon="3.1947276">
<ele>48.40</ele>
<time>2016-10-17T11:08:06Z</time>
</trkpt>
<trkpt lat="39.7292002" lon="3.1945112">
<ele>51.81</ele>
<time>2016-10-17T11:08:10Z</time>
</trkpt>
<trkpt lat="39.7292871" lon="3.1943007">
<ele>53.03</ele>
<time>2016-10-17T11:08:14Z</time>
</trkpt>
<trkpt lat="39.7293938" lon="3.1940659">
<ele>54.27</ele>
<time>2016-10-17T11:08:19Z</time>
</trkpt>
<trkpt lat="39.7294819" lon="3.1938520">
<ele>55.93</ele>
<time>2016-10-17T11:08:23Z</time>
</trkpt>
<trkpt lat="39.7295646" lon="3.1936355">
<ele>57.29</ele>
<time>2016-10-17T11:08:27Z</time>
</trkpt>
<trkpt lat="39.7296593" lon="3.1934199">
<ele>55.98</ele>
<time>2016-10-17T11:08:31Z</time>
</trkpt>
<trkpt lat="39.7297516" lon="3.1932187">
<ele>55.06</ele>
<time>2016-10-17T11:08:35Z</time>
</trkpt>
<trkpt lat="39.7298460" lon="3.1929771">
<ele>55.21</ele>
<time>2016-10-17T11:08:39Z</time>
</trkpt>
<trkpt lat="39.7299564" lon="3.1927698">
<ele>56.62</ele>
<time>2016-10-17T11:08:43Z</time>
</trkpt>
<trkpt lat="39.7300766" lon="3.1925306">
<ele>57.00</ele>
<time>2016-10-17T11:08:47Z</time>
</trkpt>
<trkpt lat="39.7301659" lon="3.1923275">
<ele>55.48</ele>
<time>2016-10-17T11:08:50Z</time>
</trkpt>
<trkpt lat="39.7302539" lon="3.1921128">
<ele>54.50</ele>
<time>2016-10-17T11:08:53Z</time>
</trkpt>
<trkpt lat="39.7303660" lon="3.1918650">
<ele>53.59</ele>
<time>2016-10-17T11:08:57Z</time>
</trkpt>
<trkpt lat="39.7304902" lon="3.1915888">
<ele>53.20</ele>
<time>2016-10-17T11:09:01Z</time>
</trkpt>
<trkpt lat="39.7305841" lon="3.1913503">
<ele>52.95</ele>
<time>2016-10-17T11:09:04Z</time>
</trkpt>
<trkpt lat="39.7306720" lon="3.1911426">
<ele>52.69</ele>
<time>2016-10-17T11:09:07Z</time>
</trkpt>
<trkpt lat="39.7307734" lon="3.1909079">
<ele>52.89</ele>
<time>2016-10-17T11:09:10Z</time>
</trkpt>
<trkpt lat="39.7308680" lon="3.1906918">
<ele>52.79</ele>
<time>2016-10-17T11:09:13Z</time>
</trkpt>
<trkpt lat="39.7309721" lon="3.1904665">
<ele>52.48</ele>
<time>2016-10-17T11:09:16Z</time>
</trkpt>
<trkpt lat="39.7310834" lon="3.1902124">
<ele>52.21</ele>
<time>2016-10-17T11:09:19Z</time>
</trkpt>
<trkpt lat="39.7311868" lon="3.1899787">
<ele>53.05</ele>
<time>2016-10-17T11:09:22Z</time>
</trkpt>
<trkpt lat="39.7312865" lon="3.1897411">
<ele>54.11</ele>
<time>2016-10-17T11:09:25Z</time>
</trkpt>
<trkpt lat="39.7313924" lon="3.1894931">
<ele>54.95</ele>
<time>2016-10-17T11:09:28Z</time>
</trkpt>
<trkpt lat="39.7314957" lon="3.1892512">
<ele>54.84</ele>
<time>2016-10-17T11:09:31Z</time>
</trkpt>
<trkpt lat="39.7315947" lon="3.1890082">
<ele>54.43</ele>
<time>2016-10-17T11:09:34Z</time>
</trkpt>
<trkpt lat="39.7317038" lon="3.1887621">
<ele>53.21</ele>
<time>2016-10-17T11:09:37Z</time>
</trkpt>
<trkpt lat="39.7318143" lon="3.1885324">
<ele>51.38</ele>
<time>2016-10-17T11:09:40Z</time>
</trkpt>
<trkpt lat="39.7319299" lon="3.1882912">
<ele>50.55</ele>
<time>2016-10-17T11:09:43Z</time>
</trkpt>
<trkpt lat="39.7320306" lon="3.1880624">
<ele>50.46</ele>
<time>2016-10-17T11:09:46Z</time>
</trkpt>
<trkpt lat="39.7321350" lon="3.1878300">
<ele>51.03</ele>
<time>2016-10-17T11:09:49Z</time>
</trkpt>
<trkpt lat="39.7322457" lon="3.1875984">
<ele>50.67</ele>
<time>2016-10-17T11:09:52Z</time>
</trkpt>
<trkpt lat="39.7323578" lon="3.1873472">
<ele>49.57</ele>
<time>2016-10-17T11:09:55Z</time>
</trkpt>
<trkpt lat="39.7324548" lon="3.1871265">
<ele>49.37</ele>
<time>2016-10-17T11:09:58Z</time>
</trkpt>
<trkpt lat="39.7325615" lon="3.1868891">
<ele>49.34</ele>
<time>2016-10-17T11:10:01Z</time>
</trkpt>
<trkpt lat="39.7326669" lon="3.1866636">
<ele>49.58</ele>
<time>2016-10-17T11:10:04Z</time>
</trkpt>
<trkpt lat="39.7327708" lon="3.1864222">
<ele>49.32</ele>
<time>2016-10-17T11:10:07Z</time>
</trkpt>
<trkpt lat="39.7328714" lon="3.1861937">
<ele>49.15</ele>
<time>2016-10-17T11:10:10Z</time>
</trkpt>
<trkpt lat="39.7329774" lon="3.1859588">
<ele>48.92</ele>
<time>2016-10-17T11:10:13Z</time>
</trkpt>
<trkpt lat="39.7330827" lon="3.1857255">
<ele>48.69</ele>
<time>2016-10-17T11:10:16Z</time>
</trkpt>
<trkpt lat="39.7331850" lon="3.1854895">
<ele>49.21</ele>
<time>2016-10-17T11:10:19Z</time>
</trkpt>
<trkpt lat="39.7332944" lon="3.1852521">
<ele>48.87</ele>
<time>2016-10-17T11:10:22Z</time>
</trkpt>
<trkpt lat="39.7333915" lon="3.1850132">
<ele>48.74</ele>
<time>2016-10-17T11:10:25Z</time>
</trkpt>
<trkpt lat="39.7334896" lon="3.1847857">
<ele>49.49</ele>
<time>2016-10-17T11:10:28Z</time>
</trkpt>
<trkpt lat="39.7335945" lon="3.1845476">
<ele>50.46</ele>
<time>2016-10-17T11:10:31Z</time>
</trkpt>
<trkpt lat="39.7337199" lon="3.1842876">
<ele>49.89</ele>
<time>2016-10-17T11:10:34Z</time>
</trkpt>
<trkpt lat="39.7338257" lon="3.1840382">
<ele>48.15</ele>
<time>2016-10-17T11:10:37Z</time>
</trkpt>
<trkpt lat="39.7339257" lon="3.1837995">
<ele>47.23</ele>
<time>2016-10-17T11:10:40Z</time>
</trkpt>
<trkpt lat="39.7340291" lon="3.1835556">
<ele>46.87</ele>
<time>2016-10-17T11:10:43Z</time>
</trkpt>
<trkpt lat="39.7341432" lon="3.1833104">
<ele>47.47</ele>
<time>2016-10-17T11:10:46Z</time>
</trkpt>
<trkpt lat="39.7342599" lon="3.1830414">
<ele>47.35</ele>
<time>2016-10-17T11:10:49Z</time>
</trkpt>
<trkpt lat="39.7343749" lon="3.1827788">
<ele>45.92</ele>
<time>2016-10-17T11:10:52Z</time>
</trkpt>
<trkpt lat="39.7344864" lon="3.1825190">
<ele>45.21</ele>
<time>2016-10-17T11:10:55Z</time>
</trkpt>
<trkpt lat="39.7346075" lon="3.1822503">
<ele>45.27</ele>
<time>2016-10-17T11:10:58Z</time>
</trkpt>
<trkpt lat="39.7347234" lon="3.1819715">
<ele>45.54</ele>
<time>2016-10-17T11:11:01Z</time>
</trkpt>
<trkpt lat="39.7348497" lon="3.1816770">
<ele>45.44</ele>
<time>2016-10-17T11:11:04Z</time>
</trkpt>
<trkpt lat="39.7349731" lon="3.1813967">
<ele>45.30</ele>
<time>2016-10-17T11:11:07Z</time>
</trkpt>
<trkpt lat="39.7350973" lon="3.1811303">
<ele>45.34</ele>
<time>2016-10-17T11:11:10Z</time>
</trkpt>
<trkpt lat="39.7352254" lon="3.1808620">
<ele>44.54</ele>
<time>2016-10-17T11:11:13Z</time>
</trkpt>
<trkpt lat="39.7353294" lon="3.1806220">
<ele>43.40</ele>
<time>2016-10-17T11:11:16Z</time>
</trkpt>
<trkpt lat="39.7354375" lon="3.1803891">
<ele>43.02</ele>
<time>2016-10-17T11:11:19Z</time>
</trkpt>
<trkpt lat="39.7355328" lon="3.1801623">
<ele>42.76</ele>
<time>2016-10-17T11:11:22Z</time>
</trkpt>
<trkpt lat="39.7356237" lon="3.1799402">
<ele>43.18</ele>
<time>2016-10-17T11:11:25Z</time>
</trkpt>
<trkpt lat="39.7357269" lon="3.1797116">
<ele>43.38</ele>
<time>2016-10-17T11:11:28Z</time>
</trkpt>
<trkpt lat="39.7358337" lon="3.1794771">
<ele>43.30</ele>
<time>2016-10-17T11:11:31Z</time>
</trkpt>
<trkpt lat="39.7359382" lon="3.1792392">
<ele>43.13</ele>
<time>2016-10-17T11:11:34Z</time>
</trkpt>
<trkpt lat="39.7360410" lon="3.1790006">
<ele>42.68</ele>
<time>2016-10-17T11:11:37Z</time>
</trkpt>
<trkpt lat="39.7361455" lon="3.1787585">
<ele>42.50</ele>
<time>2016-10-17T11:11:40Z</time>
</trkpt>
<trkpt lat="39.7362551" lon="3.1785079">
<ele>42.07</ele>
<time>2016-10-17T11:11:43Z</time>
</trkpt>
<trkpt lat="39.7363630" lon="3.1782575">
<ele>41.86</ele>
<time>2016-10-17T11:11:46Z</time>
</trkpt>
<trkpt lat="39.7364706" lon="3.1780072">
<ele>41.81</ele>
<time>2016-10-17T11:11:49Z</time>
</trkpt>
<trkpt lat="39.7365807" lon="3.1777588">
<ele>42.28</ele>
<time>2016-10-17T11:11:52Z</time>
</trkpt>
<trkpt lat="39.7366872" lon="3.1775077">
<ele>42.92</ele>
<time>2016-10-17T11:11:55Z</time>
</trkpt>
<trkpt lat="39.7368019" lon="3.1772535">
<ele>42.66</ele>
<time>2016-10-17T11:11:58Z</time>
</trkpt>
<trkpt lat="39.7369140" lon="3.1770045">
<ele>42.25</ele>
<time>2016-10-17T11:12:01Z</time>
</trkpt>
<trkpt lat="39.7370269" lon="3.1767583">
<ele>42.15</ele>
<time>2016-10-17T11:12:04Z</time>
</trkpt>
<trkpt lat="39.7371438" lon="3.1765104">
<ele>41.34</ele>
<time>2016-10-17T11:12:07Z</time>
</trkpt>
<trkpt lat="39.7372577" lon="3.1762722">
<ele>40.08</ele>
<time>2016-10-17T11:12:10Z</time>
</trkpt>
<trkpt lat="39.7373649" lon="3.1760370">
<ele>39.84</ele>
<time>2016-10-17T11:12:13Z</time>
</trkpt>
<trkpt lat="39.7374698" lon="3.1757981">
<ele>39.51</ele>
<time>2016-10-17T11:12:16Z</time>
</trkpt>
<trkpt lat="39.7375689" lon="3.1755604">
<ele>39.24</ele>
<time>2016-10-17T11:12:19Z</time>
</trkpt>
<trkpt lat="39.7376717" lon="3.1753225">
<ele>38.71</ele>
<time>2016-10-17T11:12:22Z</time>
</trkpt>
<trkpt lat="39.7377766" lon="3.1750811">
<ele>38.36</ele>
<time>2016-10-17T11:12:25Z</time>
</trkpt>
<trkpt lat="39.7378766" lon="3.1748446">
<ele>37.98</ele>
<time>2016-10-17T11:12:28Z</time>
</trkpt>
<trkpt lat="39.7379823" lon="3.1746077">
<ele>39.29</ele>
<time>2016-10-17T11:12:31Z</time>
</trkpt>
<trkpt lat="39.7380874" lon="3.1743742">
<ele>39.95</ele>
<time>2016-10-17T11:12:34Z</time>
</trkpt>
<trkpt lat="39.7381846" lon="3.1741485">
<ele>39.88</ele>
<time>2016-10-17T11:12:37Z</time>
</trkpt>
<trkpt lat="39.7382771" lon="3.1739307">
<ele>40.52</ele>
<time>2016-10-17T11:12:40Z</time>
</trkpt>
<trkpt lat="39.7383647" lon="3.1737085">
<ele>41.12</ele>
<time>2016-10-17T11:12:43Z</time>
</trkpt>
<trkpt lat="39.7384472" lon="3.1734921">
<ele>42.14</ele>
<time>2016-10-17T11:12:46Z</time>
</trkpt>
<trkpt lat="39.7385433" lon="3.1732688">
<ele>42.59</ele>
<time>2016-10-17T11:12:49Z</time>
</trkpt>
<trkpt lat="39.7386398" lon="3.1730507">
<ele>42.65</ele>
<time>2016-10-17T11:12:52Z</time>
</trkpt>
<trkpt lat="39.7387316" lon="3.1728388">
<ele>42.62</ele>
<time>2016-10-17T11:12:55Z</time>
</trkpt>
<trkpt lat="39.7388308" lon="3.1726232">
<ele>42.52</ele>
<time>2016-10-17T11:12:58Z</time>
</trkpt>
<trkpt lat="39.7389295" lon="3.1723987">
<ele>41.94</ele>
<time>2016-10-17T11:13:01Z</time>
</trkpt>
<trkpt lat="39.7390212" lon="3.1721758">
<ele>41.32</ele>
<time>2016-10-17T11:13:04Z</time>
</trkpt>
<trkpt lat="39.7391142" lon="3.1719487">
<ele>41.03</ele>
<time>2016-10-17T11:13:07Z</time>
</trkpt>
<trkpt lat="39.7392144" lon="3.1717200">
<ele>41.34</ele>
<time>2016-10-17T11:13:10Z</time>
</trkpt>
<trkpt lat="39.7393311" lon="3.1714890">
<ele>41.46</ele>
<time>2016-10-17T11:13:13Z</time>
</trkpt>
<trkpt lat="39.7394694" lon="3.1712853">
<ele>41.23</ele>
<time>2016-10-17T11:13:16Z</time>
</trkpt>
<trkpt lat="39.7396151" lon="3.1710899">
<ele>40.76</ele>
<time>2016-10-17T11:13:19Z</time>
</trkpt>
<trkpt lat="39.7397414" lon="3.1709204">
<ele>41.44</ele>
<time>2016-10-17T11:13:22Z</time>
</trkpt>
<trkpt lat="39.7398672" lon="3.1707516">
<ele>42.63</ele>
<time>2016-10-17T11:13:25Z</time>
</trkpt>
<trkpt lat="39.7399945" lon="3.1705820">
<ele>43.24</ele>
<time>2016-10-17T11:13:28Z</time>
</trkpt>
<trkpt lat="39.7401722" lon="3.1703890">
<ele>43.71</ele>
<time>2016-10-17T11:13:32Z</time>
</trkpt>
<trkpt lat="39.7403453" lon="3.1702230">
<ele>44.17</ele>
<time>2016-10-17T11:13:36Z</time>
</trkpt>
<trkpt lat="39.7404987" lon="3.1700728">
<ele>44.74</ele>
<time>2016-10-17T11:13:39Z</time>
</trkpt>
<trkpt lat="39.7406639" lon="3.1699438">
<ele>45.51</ele>
<time>2016-10-17T11:13:42Z</time>
</trkpt>
<trkpt lat="39.7408296" lon="3.1698342">
<ele>44.97</ele>
<time>2016-10-17T11:13:45Z</time>
</trkpt>
<trkpt lat="39.7410434" lon="3.1696924">
<ele>45.75</ele>
<time>2016-10-17T11:13:49Z</time>
</trkpt>
<trkpt lat="39.7412143" lon="3.1695695">
<ele>46.18</ele>
<time>2016-10-17T11:13:52Z</time>
</trkpt>
<trkpt lat="39.7413812" lon="3.1694561">
<ele>45.83</ele>
<time>2016-10-17T11:13:55Z</time>
</trkpt>
<trkpt lat="39.7415670" lon="3.1693348">
<ele>44.57</ele>
<time>2016-10-17T11:13:58Z</time>
</trkpt>
<trkpt lat="39.7417515" lon="3.1692082">
<ele>44.44</ele>
<time>2016-10-17T11:14:01Z</time>
</trkpt>
<trkpt lat="39.7419197" lon="3.1690937">
<ele>44.37</ele>
<time>2016-10-17T11:14:04Z</time>
</trkpt>
<trkpt lat="39.7420872" lon="3.1689837">
<ele>43.85</ele>
<time>2016-10-17T11:14:07Z</time>
</trkpt>
<trkpt lat="39.7422534" lon="3.1688793">
<ele>44.07</ele>
<time>2016-10-17T11:14:10Z</time>
</trkpt>
<trkpt lat="39.7424340" lon="3.1687591">
<ele>42.98</ele>
<time>2016-10-17T11:14:13Z</time>
</trkpt>
<trkpt lat="39.7426022" lon="3.1686480">
<ele>42.53</ele>
<time>2016-10-17T11:14:16Z</time>
</trkpt>
<trkpt lat="39.7428008" lon="3.1685202">
<ele>42.46</ele>
<time>2016-10-17T11:14:19Z</time>
</trkpt>
<trkpt lat="39.7430031" lon="3.1683879">
<ele>43.44</ele>
<time>2016-10-17T11:14:23Z</time>
</trkpt>
<trkpt lat="39.7431678" lon="3.1682769">
<ele>43.47</ele>
<time>2016-10-17T11:14:26Z</time>
</trkpt>
<trkpt lat="39.7433534" lon="3.1681653">
<ele>40.91</ele>
<time>2016-10-17T11:14:29Z</time>
</trkpt>
<trkpt lat="39.7435459" lon="3.1680515">
<ele>37.98</ele>
<time>2016-10-17T11:14:32Z</time>
</trkpt>
<trkpt lat="39.7437240" lon="3.1679365">
<ele>37.00</ele>
<time>2016-10-17T11:14:35Z</time>
</trkpt>
<trkpt lat="39.7438982" lon="3.1678245">
<ele>37.25</ele>
<time>2016-10-17T11:14:38Z</time>
</trkpt>
<trkpt lat="39.7440927" lon="3.1677108">
<ele>36.30</ele>
<time>2016-10-17T11:14:41Z</time>
</trkpt>
<trkpt lat="39.7442867" lon="3.1675878">
<ele>35.87</ele>
<time>2016-10-17T11:14:44Z</time>
</trkpt>
<trkpt lat="39.7444635" lon="3.1674721">
<ele>36.43</ele>
<time>2016-10-17T11:14:47Z</time>
</trkpt>
<trkpt lat="39.7446362" lon="3.1673557">
<ele>36.65</ele>
<time>2016-10-17T11:14:50Z</time>
</trkpt>
<trkpt lat="39.7448033" lon="3.1672500">
<ele>36.27</ele>
<time>2016-10-17T11:14:53Z</time>
</trkpt>
<trkpt lat="39.7449786" lon="3.1671409">
<ele>35.79</ele>
<time>2016-10-17T11:14:56Z</time>
</trkpt>
<trkpt lat="39.7451417" lon="3.1670310">
<ele>35.86</ele>
<time>2016-10-17T11:14:59Z</time>
</trkpt>
<trkpt lat="39.7453092" lon="3.1669232">
<ele>36.44</ele>
<time>2016-10-17T11:15:01Z</time>
</trkpt>
<trkpt lat="39.7454770" lon="3.1668120">
<ele>37.23</ele>
<time>2016-10-17T11:15:04Z</time>
</trkpt>
<trkpt lat="39.7456439" lon="3.1667037">
<ele>38.59</ele>
<time>2016-10-17T11:15:07Z</time>
</trkpt>
<trkpt lat="39.7458500" lon="3.1665687">
<ele>39.95</ele>
<time>2016-10-17T11:15:11Z</time>
</trkpt>
<trkpt lat="39.7460142" lon="3.1664557">
<ele>41.31</ele>
<time>2016-10-17T11:15:14Z</time>
</trkpt>
<trkpt lat="39.7461938" lon="3.1663353">
<ele>41.98</ele>
<time>2016-10-17T11:15:17Z</time>
</trkpt>
<trkpt lat="39.7463742" lon="3.1662163">
<ele>41.37</ele>
<time>2016-10-17T11:15:20Z</time>
</trkpt>
<trkpt lat="39.7465836" lon="3.1660716">
<ele>40.13</ele>
<time>2016-10-17T11:15:23Z</time>
</trkpt>
<trkpt lat="39.7467723" lon="3.1659325">
<ele>37.88</ele>
<time>2016-10-17T11:15:26Z</time>
</trkpt>
<trkpt lat="39.7469802" lon="3.1657896">
<ele>36.80</ele>
<time>2016-10-17T11:15:29Z</time>
</trkpt>
<trkpt lat="39.7472158" lon="3.1656410">
<ele>36.78</ele>
<time>2016-10-17T11:15:32Z</time>
</trkpt>
<trkpt lat="39.7473767" lon="3.1655318">
<ele>36.73</ele>
<time>2016-10-17T11:15:34Z</time>
</trkpt>
<trkpt lat="39.7475470" lon="3.1654156">
<ele>36.86</ele>
<time>2016-10-17T11:15:36Z</time>
</trkpt>
<trkpt lat="39.7477256" lon="3.1652973">
<ele>35.88</ele>
<time>2016-10-17T11:15:38Z</time>
</trkpt>
<trkpt lat="39.7479153" lon="3.1651742">
<ele>35.20</ele>
<time>2016-10-17T11:15:40Z</time>
</trkpt>
<trkpt lat="39.7480852" lon="3.1650634">
<ele>33.81</ele>
<time>2016-10-17T11:15:42Z</time>
</trkpt>
<trkpt lat="39.7482682" lon="3.1649448">
<ele>31.84</ele>
<time>2016-10-17T11:15:44Z</time>
</trkpt>
<trkpt lat="39.7484505" lon="3.1648363">
<ele>30.05</ele>
<time>2016-10-17T11:15:46Z</time>
</trkpt>
<trkpt lat="39.7486345" lon="3.1647194">
<ele>29.25</ele>
<time>2016-10-17T11:15:48Z</time>
</trkpt>
<trkpt lat="39.7488340" lon="3.1645903">
<ele>28.27</ele>
<time>2016-10-17T11:15:50Z</time>
</trkpt>
<trkpt lat="39.7490359" lon="3.1644602">
<ele>27.37</ele>
<time>2016-10-17T11:15:52Z</time>
</trkpt>
<trkpt lat="39.7492407" lon="3.1643257">
<ele>26.57</ele>
<time>2016-10-17T11:15:54Z</time>
</trkpt>
<trkpt lat="39.7494340" lon="3.1642020">
<ele>25.68</ele>
<time>2016-10-17T11:15:56Z</time>
</trkpt>
<trkpt lat="39.7496376" lon="3.1640705">
<ele>24.37</ele>
<time>2016-10-17T11:15:58Z</time>
</trkpt>
<trkpt lat="39.7498401" lon="3.1639385">
<ele>22.83</ele>
<time>2016-10-17T11:16:00Z</time>
</trkpt>
<trkpt lat="39.7500320" lon="3.1638142">
<ele>21.50</ele>
<time>2016-10-17T11:16:02Z</time>
</trkpt>
<trkpt lat="39.7502218" lon="3.1636886">
<ele>20.88</ele>
<time>2016-10-17T11:16:04Z</time>
</trkpt>
<trkpt lat="39.7504076" lon="3.1635668">
<ele>20.59</ele>
<time>2016-10-17T11:16:06Z</time>
</trkpt>
<trkpt lat="39.7505791" lon="3.1634532">
<ele>20.28</ele>
<time>2016-10-17T11:16:08Z</time>
</trkpt>
<trkpt lat="39.7507413" lon="3.1633440">
<ele>20.01</ele>
<time>2016-10-17T11:16:10Z</time>
</trkpt>
<trkpt lat="39.7509695" lon="3.1631983">
<ele>20.33</ele>
<time>2016-10-17T11:16:13Z</time>
</trkpt>
<trkpt lat="39.7511910" lon="3.1630625">
<ele>19.78</ele>
<time>2016-10-17T11:16:16Z</time>
</trkpt>
<trkpt lat="39.7513658" lon="3.1629410">
<ele>20.78</ele>
<time>2016-10-17T11:16:19Z</time>
</trkpt>
<trkpt lat="39.7515428" lon="3.1628240">
<ele>22.53</ele>
<time>2016-10-17T11:16:22Z</time>
</trkpt>
<trkpt lat="39.7517419" lon="3.1626795">
<ele>22.95</ele>
<time>2016-10-17T11:16:26Z</time>
</trkpt>
<trkpt lat="39.7519267" lon="3.1625530">
<ele>22.79</ele>
<time>2016-10-17T11:16:30Z</time>
</trkpt>
<trkpt lat="39.7521414" lon="3.1624047">
<ele>24.90</ele>
<time>2016-10-17T11:16:34Z</time>
</trkpt>
<trkpt lat="39.7523058" lon="3.1622856">
<ele>24.34</ele>
<time>2016-10-17T11:16:37Z</time>
</trkpt>
<trkpt lat="39.7524766" lon="3.1621774">
<ele>25.15</ele>
<time>2016-10-17T11:16:41Z</time>
</trkpt>
<trkpt lat="39.7526380" lon="3.1620591">
<ele>28.04</ele>
<time>2016-10-17T11:16:45Z</time>
</trkpt>
<trkpt lat="39.7527918" lon="3.1619206">
<ele>27.95</ele>
<time>2016-10-17T11:16:49Z</time>
</trkpt>
<trkpt lat="39.7529413" lon="3.1617795">
<ele>27.80</ele>
<time>2016-10-17T11:16:54Z</time>
</trkpt>
<trkpt lat="39.7530777" lon="3.1616269">
<ele>27.93</ele>
<time>2016-10-17T11:16:59Z</time>
</trkpt>
<trkpt lat="39.7532296" lon="3.1614502">
<ele>28.92</ele>
<time>2016-10-17T11:17:05Z</time>
</trkpt>
<trkpt lat="39.7533624" lon="3.1612889">
<ele>31.20</ele>
<time>2016-10-17T11:17:09Z</time>
</trkpt>
<trkpt lat="39.7535043" lon="3.1611408">
<ele>31.20</ele>
<time>2016-10-17T11:17:14Z</time>
</trkpt>
<trkpt lat="39.7536621" lon="3.1609775">
<ele>31.40</ele>
<time>2016-10-17T11:17:19Z</time>
</trkpt>
<trkpt lat="39.7538112" lon="3.1608290">
<ele>30.23</ele>
<time>2016-10-17T11:17:25Z</time>
</trkpt>
<trkpt lat="39.7539708" lon="3.1606630">
<ele>30.37</ele>
<time>2016-10-17T11:17:30Z</time>
</trkpt>
<trkpt lat="39.7541270" lon="3.1605268">
<ele>30.56</ele>
<time>2016-10-17T11:17:35Z</time>
</trkpt>
<trkpt lat="39.7542767" lon="3.1603563">
<ele>31.97</ele>
<time>2016-10-17T11:17:41Z</time>
</trkpt>
<trkpt lat="39.7544441" lon="3.1601708">
<ele>30.97</ele>
<time>2016-10-17T11:17:46Z</time>
</trkpt>
<trkpt lat="39.7546193" lon="3.1599860">
<ele>32.95</ele>
<time>2016-10-17T11:17:51Z</time>
</trkpt>
<trkpt lat="39.7547898" lon="3.1597991">
<ele>32.99</ele>
<time>2016-10-17T11:17:57Z</time>
</trkpt>
<trkpt lat="39.7549430" lon="3.1596151">
<ele>32.80</ele>
<time>2016-10-17T11:18:02Z</time>
</trkpt>
<trkpt lat="39.7551214" lon="3.1594439">
<ele>32.94</ele>
<time>2016-10-17T11:18:06Z</time>
</trkpt>
<trkpt lat="39.7552763" lon="3.1592918">
<ele>32.15</ele>
<time>2016-10-17T11:18:12Z</time>
</trkpt>
<trkpt lat="39.7554230" lon="3.1591453">
<ele>31.95</ele>
<time>2016-10-17T11:18:17Z</time>
</trkpt>
<trkpt lat="39.7555779" lon="3.1589971">
<ele>29.95</ele>
<time>2016-10-17T11:22:41Z</time>
</trkpt>
<trkpt lat="39.7557147" lon="3.1588278">
<ele>31.43</ele>
<time>2016-10-17T11:22:46Z</time>
</trkpt>
<trkpt lat="39.7558567" lon="3.1586751">
<ele>33.22</ele>
<time>2016-10-17T11:22:50Z</time>
</trkpt>
<trkpt lat="39.7560227" lon="3.1585103">
<ele>33.03</ele>
<time>2016-10-17T11:22:54Z</time>
</trkpt>
<trkpt lat="39.7561885" lon="3.1583380">
<ele>31.49</ele>
<time>2016-10-17T11:22:58Z</time>
</trkpt>
<trkpt lat="39.7563282" lon="3.1581658">
<ele>33.09</ele>
<time>2016-10-17T11:23:02Z</time>
</trkpt>
<trkpt lat="39.7564824" lon="3.1580035">
<ele>33.79</ele>
<time>2016-10-17T11:23:06Z</time>
</trkpt>
<trkpt lat="39.7566290" lon="3.1578520">
<ele>35.50</ele>
<time>2016-10-17T11:23:11Z</time>
</trkpt>
<trkpt lat="39.7567779" lon="3.1576969">
<ele>36.53</ele>
<time>2016-10-17T11:23:15Z</time>
</trkpt>
<trkpt lat="39.7569563" lon="3.1575810">
<ele>36.35</ele>
<time>2016-10-17T11:23:19Z</time>
</trkpt>
<trkpt lat="39.7571693" lon="3.1575115">
<ele>35.24</ele>
<time>2016-10-17T11:23:23Z</time>
</trkpt>
<trkpt lat="39.7573412" lon="3.1573502">
<ele>33.98</ele>
<time>2016-10-17T11:23:27Z</time>
</trkpt>
<trkpt lat="39.7574639" lon="3.1570977">
<ele>33.42</ele>
<time>2016-10-17T11:23:31Z</time>
</trkpt>
<trkpt lat="39.7575997" lon="3.1568853">
<ele>35.76</ele>
<time>2016-10-17T11:23:35Z</time>
</trkpt>
<trkpt lat="39.7577562" lon="3.1567016">
<ele>37.98</ele>
<time>2016-10-17T11:23:39Z</time>
</trkpt>
<trkpt lat="39.7579180" lon="3.1565149">
<ele>39.25</ele>
<time>2016-10-17T11:23:43Z</time>
</trkpt>
<trkpt lat="39.7581033" lon="3.1563306">
<ele>40.07</ele>
<time>2016-10-17T11:23:47Z</time>
</trkpt>
<trkpt lat="39.7582524" lon="3.1561766">
<ele>38.04</ele>
<time>2016-10-17T11:23:50Z</time>
</trkpt>
<trkpt lat="39.7584288" lon="3.1559801">
<ele>37.02</ele>
<time>2016-10-17T11:23:54Z</time>
</trkpt>
<trkpt lat="39.7586231" lon="3.1557827">
<ele>35.99</ele>
<time>2016-10-17T11:23:58Z</time>
</trkpt>
<trkpt lat="39.7588056" lon="3.1556102">
<ele>34.81</ele>
<time>2016-10-17T11:24:01Z</time>
</trkpt>
<trkpt lat="39.7589720" lon="3.1554369">
<ele>34.37</ele>
<time>2016-10-17T11:24:04Z</time>
</trkpt>
<trkpt lat="39.7591566" lon="3.1552344">
<ele>34.36</ele>
<time>2016-10-17T11:24:07Z</time>
</trkpt>
<trkpt lat="39.7593372" lon="3.1550495">
<ele>34.82</ele>
<time>2016-10-17T11:24:10Z</time>
</trkpt>
<trkpt lat="39.7595216" lon="3.1548467">
<ele>35.05</ele>
<time>2016-10-17T11:24:13Z</time>
</trkpt>
<trkpt lat="39.7597097" lon="3.1546635">
<ele>33.34</ele>
<time>2016-10-17T11:24:16Z</time>
</trkpt>
<trkpt lat="39.7598997" lon="3.1544785">
<ele>31.27</ele>
<time>2016-10-17T11:24:19Z</time>
</trkpt>
<trkpt lat="39.7600755" lon="3.1543069">
<ele>29.27</ele>
<time>2016-10-17T11:24:22Z</time>
</trkpt>
<trkpt lat="39.7602456" lon="3.1541256">
<ele>28.54</ele>
<time>2016-10-17T11:24:25Z</time>
</trkpt>
<trkpt lat="39.7604132" lon="3.1539442">
<ele>28.14</ele>
<time>2016-10-17T11:24:28Z</time>
</trkpt>
<trkpt lat="39.7605690" lon="3.1537822">
<ele>27.46</ele>
<time>2016-10-17T11:24:33Z</time>
</trkpt>
<trkpt lat="39.7607206" lon="3.1536130">
<ele>27.90</ele>
<time>2016-10-17T11:24:39Z</time>
</trkpt>
<trkpt lat="39.7608905" lon="3.1534756">
<ele>27.55</ele>
<time>2016-10-17T11:24:47Z</time>
</trkpt>
<trkpt lat="39.7610328" lon="3.1533098">
<ele>28.54</ele>
<time>2016-10-17T11:24:51Z</time>
</trkpt>
<trkpt lat="39.7611948" lon="3.1531634">
<ele>30.00</ele>
<time>2016-10-17T11:24:55Z</time>
</trkpt>
<trkpt lat="39.7613604" lon="3.1530116">
<ele>29.76</ele>
<time>2016-10-17T11:25:00Z</time>
</trkpt>
<trkpt lat="39.7615053" lon="3.1527980">
<ele>30.10</ele>
<time>2016-10-17T11:25:06Z</time>
</trkpt>
<trkpt lat="39.7616546" lon="3.1526426">
<ele>29.60</ele>
<time>2016-10-17T11:25:10Z</time>
</trkpt>
<trkpt lat="39.7618342" lon="3.1524823">
<ele>27.69</ele>
<time>2016-10-17T11:25:14Z</time>
</trkpt>
<trkpt lat="39.7619981" lon="3.1523242">
<ele>26.32</ele>
<time>2016-10-17T11:25:18Z</time>
</trkpt>
<trkpt lat="39.7621772" lon="3.1521385">
<ele>24.90</ele>
<time>2016-10-17T11:25:22Z</time>
</trkpt>
<trkpt lat="39.7623525" lon="3.1519525">
<ele>25.55</ele>
<time>2016-10-17T11:25:26Z</time>
</trkpt>
<trkpt lat="39.7625053" lon="3.1517900">
<ele>26.27</ele>
<time>2016-10-17T11:25:30Z</time>
</trkpt>
<trkpt lat="39.7626510" lon="3.1516002">
<ele>25.83</ele>
<time>2016-10-17T11:25:37Z</time>
</trkpt>
<trkpt lat="39.7628039" lon="3.1514487">
<ele>25.09</ele>
<time>2016-10-17T11:25:41Z</time>
</trkpt>
<trkpt lat="39.7629899" lon="3.1512790">
<ele>26.21</ele>
<time>2016-10-17T11:25:45Z</time>
</trkpt>
<trkpt lat="39.7631495" lon="3.1511128">
<ele>25.47</ele>
<time>2016-10-17T11:25:49Z</time>
</trkpt>
<trkpt lat="39.7633259" lon="3.1509430">
<ele>26.06</ele>
<time>2016-10-17T11:25:53Z</time>
</trkpt>
<trkpt lat="39.7634981" lon="3.1507693">
<ele>24.54</ele>
<time>2016-10-17T11:25:57Z</time>
</trkpt>
<trkpt lat="39.7636478" lon="3.1506062">
<ele>22.76</ele>
<time>2016-10-17T11:26:01Z</time>
</trkpt>
<trkpt lat="39.7638134" lon="3.1504299">
<ele>21.85</ele>
<time>2016-10-17T11:26:05Z</time>
</trkpt>
<trkpt lat="39.7639692" lon="3.1502748">
<ele>22.43</ele>
<time>2016-10-17T11:26:09Z</time>
</trkpt>
<trkpt lat="39.7641276" lon="3.1501126">
<ele>20.62</ele>
<time>2016-10-17T11:26:13Z</time>
</trkpt>
<trkpt lat="39.7642748" lon="3.1499320">
<ele>21.85</ele>
<time>2016-10-17T11:26:18Z</time>
</trkpt>
<trkpt lat="39.7644142" lon="3.1497511">
<ele>24.32</ele>
<time>2016-10-17T11:26:23Z</time>
</trkpt>
<trkpt lat="39.7645711" lon="3.1495609">
<ele>25.74</ele>
<time>2016-10-17T11:26:28Z</time>
</trkpt>
<trkpt lat="39.7647226" lon="3.1494119">
<ele>25.79</ele>
<time>2016-10-17T11:26:32Z</time>
</trkpt>
<trkpt lat="39.7648816" lon="3.1492825">
<ele>24.88</ele>
<time>2016-10-17T11:26:36Z</time>
</trkpt>
<trkpt lat="39.7650454" lon="3.1491371">
<ele>19.51</ele>
<time>2016-10-17T11:26:40Z</time>
</trkpt>
<trkpt lat="39.7652031" lon="3.1489833">
<ele>18.18</ele>
<time>2016-10-17T11:26:45Z</time>
</trkpt>
<trkpt lat="39.7653589" lon="3.1488089">
<ele>18.50</ele>
<time>2016-10-17T11:26:52Z</time>
</trkpt>
<trkpt lat="39.7653855" lon="3.1485706">
<ele>20.08</ele>
<time>2016-10-17T11:26:57Z</time>
</trkpt>
<trkpt lat="39.7655114" lon="3.1483675">
<ele>23.22</ele>
<time>2016-10-17T11:27:02Z</time>
</trkpt>
<trkpt lat="39.7654078" lon="3.1480932">
<ele>18.30</ele>
<time>2016-10-17T11:28:10Z</time>
</trkpt>
<trkpt lat="39.7652838" lon="3.1478372">
<ele>19.52</ele>
<time>2016-10-17T11:28:34Z</time>
</trkpt>
<trkpt lat="39.7653317" lon="3.1476094">
<ele>30.21</ele>
<time>2016-10-17T11:33:37Z</time>
</trkpt>
<trkpt lat="39.7653281" lon="3.1473701">
<ele>25.47</ele>
<time>2016-10-17T11:33:56Z</time>
</trkpt>
<trkpt lat="39.7651594" lon="3.1472504">
<ele>21.37</ele>
<time>2016-10-17T11:34:13Z</time>
</trkpt>
<trkpt lat="39.7649741" lon="3.1473009">
<ele>20.58</ele>
<time>2016-10-17T11:34:31Z</time>
</trkpt>
<trkpt lat="39.7647863" lon="3.1473229">
<ele>19.12</ele>
<time>2016-10-17T11:34:43Z</time>
</trkpt>
<trkpt lat="39.7649005" lon="3.1470985">
<ele>40.55</ele>
<time>2016-10-17T11:36:31Z</time>
</trkpt>
<trkpt lat="39.7650461" lon="3.1469480">
<ele>39.63</ele>
<time>2016-10-17T11:36:42Z</time>
</trkpt>
<trkpt lat="39.7652201" lon="3.1468666">
<ele>35.74</ele>
<time>2016-10-17T11:36:55Z</time>
</trkpt>
<trkpt lat="39.7653937" lon="3.1467961">
<ele>31.80</ele>
<time>2016-10-17T11:37:12Z</time>
</trkpt>
<trkpt lat="39.7655703" lon="3.1468661">
<ele>31.72</ele>
<time>2016-10-17T11:37:27Z</time>
</trkpt>
<trkpt lat="39.7657492" lon="3.1468390">
<ele>31.59</ele>
<time>2016-10-17T11:37:43Z</time>
</trkpt>
<trkpt lat="39.7659159" lon="3.1467342">
<ele>29.82</ele>
<time>2016-10-17T11:37:57Z</time>
</trkpt>
<trkpt lat="39.7659658" lon="3.1458426">
<ele>26.09</ele>
<time>2016-10-17T11:39:47Z</time>
</trkpt>
<trkpt lat="39.7657988" lon="3.1457333">
<ele>28.91</ele>
<time>2016-10-17T11:41:09Z</time>
</trkpt>
<trkpt lat="39.7656770" lon="3.1459079">
<ele>28.06</ele>
<time>2016-10-17T11:51:29Z</time>
</trkpt>
<trkpt lat="39.7662160" lon="3.1468296">
<ele>18.36</ele>
<time>2016-10-17T11:55:44Z</time>
</trkpt>
<trkpt lat="39.7662919" lon="3.1463832">
<ele>21.03</ele>
<time>2016-10-17T11:56:21Z</time>
</trkpt>
<trkpt lat="39.7660933" lon="3.1463018">
<ele>20.27</ele>
<time>2016-10-17T12:02:15Z</time>
</trkpt>
<trkpt lat="39.7662760" lon="3.1463836">
<ele>22.02</ele>
<time>2016-10-17T12:03:00Z</time>
</trkpt>
</trkseg>
</trk>
</gpx>
